<?xml version="1.0" encoding="UTF-8" standalone="no" ?>
<gpx xmlns="http://www.topografix.com/GPX/1/1" xmlns:xsi="http://www.w3.org/2001/XMLSchema-instance" xsi:schemaLocation="http://www.topografix.com/GPX/1/1 http://www.topografix.com/GPX/1/1/gpx.xsd" version="1.1" creator="VisuGPX - https://www.visugpx.com">
  <metadata>
    <name>la sarazine</name>
  </metadata>
  <trk>
    <name><![CDATA[la sarazine]]></name>
    <extensions>
      <line xmlns="http://www.topografix.com/GPX/gpx_style/0/2">
        <color>0000FF</color>
        <width>4</width>
      </line>
    </extensions>
    <trkseg>
      <trkpt lat="46.83245" lon="6.42612">
        <ele>1135</ele>
        <time>2022-08-14T06:58:17Z</time>
      </trkpt>
      <trkpt lat="46.83238" lon="6.42586">
        <ele>1138</ele>
        <time>2022-08-14T06:58:25Z</time>
      </trkpt>
      <trkpt lat="46.83233" lon="6.42558">
        <ele>1139</ele>
        <time>2022-08-14T06:58:34Z</time>
      </trkpt>
      <trkpt lat="46.83234" lon="6.42532">
        <ele>1142</ele>
        <time>2022-08-14T06:58:44Z</time>
      </trkpt>
      <trkpt lat="46.83242" lon="6.42522">
        <ele>1143</ele>
        <time>2022-08-14T06:58:49Z</time>
      </trkpt>
      <trkpt lat="46.83251" lon="6.42512">
        <ele>1143</ele>
        <time>2022-08-14T06:58:53Z</time>
      </trkpt>
      <trkpt lat="46.83259" lon="6.42504">
        <ele>1143</ele>
        <time>2022-08-14T06:58:57Z</time>
      </trkpt>
      <trkpt lat="46.83265" lon="6.42494">
        <ele>1143</ele>
        <time>2022-08-14T06:59:00Z</time>
      </trkpt>
      <trkpt lat="46.8327" lon="6.42483">
        <ele>1143</ele>
        <time>2022-08-14T06:59:04Z</time>
      </trkpt>
      <trkpt lat="46.83276" lon="6.42471">
        <ele>1143</ele>
        <time>2022-08-14T06:59:07Z</time>
      </trkpt>
      <trkpt lat="46.83281" lon="6.4246">
        <ele>1143</ele>
        <time>2022-08-14T06:59:11Z</time>
      </trkpt>
      <trkpt lat="46.83284" lon="6.42446">
        <ele>1143</ele>
        <time>2022-08-14T06:59:15Z</time>
      </trkpt>
      <trkpt lat="46.83288" lon="6.42431">
        <ele>1143</ele>
        <time>2022-08-14T06:59:19Z</time>
      </trkpt>
      <trkpt lat="46.83292" lon="6.42419">
        <ele>1143</ele>
        <time>2022-08-14T06:59:22Z</time>
      </trkpt>
      <trkpt lat="46.83295" lon="6.42404">
        <ele>1142</ele>
        <time>2022-08-14T06:59:25Z</time>
      </trkpt>
      <trkpt lat="46.83298" lon="6.42387">
        <ele>1142</ele>
        <time>2022-08-14T06:59:27Z</time>
      </trkpt>
      <trkpt lat="46.83299" lon="6.42373">
        <ele>1141</ele>
        <time>2022-08-14T06:59:29Z</time>
      </trkpt>
      <trkpt lat="46.83298" lon="6.42346">
        <ele>1140</ele>
        <time>2022-08-14T06:59:33Z</time>
      </trkpt>
      <trkpt lat="46.83296" lon="6.42329">
        <ele>1140</ele>
        <time>2022-08-14T06:59:35Z</time>
      </trkpt>
      <trkpt lat="46.83296" lon="6.42312">
        <ele>1139</ele>
        <time>2022-08-14T06:59:37Z</time>
      </trkpt>
      <trkpt lat="46.83294" lon="6.42295">
        <ele>1138</ele>
        <time>2022-08-14T06:59:39Z</time>
      </trkpt>
      <trkpt lat="46.83292" lon="6.42279">
        <ele>1138</ele>
        <time>2022-08-14T06:59:41Z</time>
      </trkpt>
      <trkpt lat="46.83289" lon="6.42262">
        <ele>1137</ele>
        <time>2022-08-14T06:59:43Z</time>
      </trkpt>
      <trkpt lat="46.83287" lon="6.42245">
        <ele>1137</ele>
        <time>2022-08-14T06:59:45Z</time>
      </trkpt>
      <trkpt lat="46.83285" lon="6.42228">
        <ele>1136</ele>
        <time>2022-08-14T06:59:47Z</time>
      </trkpt>
      <trkpt lat="46.83284" lon="6.42211">
        <ele>1136</ele>
        <time>2022-08-14T06:59:49Z</time>
      </trkpt>
      <trkpt lat="46.83283" lon="6.42193">
        <ele>1135</ele>
        <time>2022-08-14T06:59:51Z</time>
      </trkpt>
      <trkpt lat="46.83281" lon="6.42175">
        <ele>1135</ele>
        <time>2022-08-14T06:59:53Z</time>
      </trkpt>
      <trkpt lat="46.8328" lon="6.42158">
        <ele>1134</ele>
        <time>2022-08-14T06:59:55Z</time>
      </trkpt>
      <trkpt lat="46.83278" lon="6.4214">
        <ele>1134</ele>
        <time>2022-08-14T06:59:57Z</time>
      </trkpt>
      <trkpt lat="46.83277" lon="6.42122">
        <ele>1134</ele>
        <time>2022-08-14T06:59:59Z</time>
      </trkpt>
      <trkpt lat="46.83276" lon="6.42105">
        <ele>1133</ele>
        <time>2022-08-14T07:00:01Z</time>
      </trkpt>
      <trkpt lat="46.83275" lon="6.42088">
        <ele>1133</ele>
        <time>2022-08-14T07:00:03Z</time>
      </trkpt>
      <trkpt lat="46.83274" lon="6.42071">
        <ele>1133</ele>
        <time>2022-08-14T07:00:05Z</time>
      </trkpt>
      <trkpt lat="46.83273" lon="6.42039">
        <ele>1132</ele>
        <time>2022-08-14T07:00:09Z</time>
      </trkpt>
      <trkpt lat="46.83274" lon="6.42006">
        <ele>1131</ele>
        <time>2022-08-14T07:00:13Z</time>
      </trkpt>
      <trkpt lat="46.83278" lon="6.4198">
        <ele>1131</ele>
        <time>2022-08-14T07:00:16Z</time>
      </trkpt>
      <trkpt lat="46.83279" lon="6.41947">
        <ele>1130</ele>
        <time>2022-08-14T07:00:20Z</time>
      </trkpt>
      <trkpt lat="46.83281" lon="6.41914">
        <ele>1130</ele>
        <time>2022-08-14T07:00:24Z</time>
      </trkpt>
      <trkpt lat="46.83282" lon="6.41897">
        <ele>1130</ele>
        <time>2022-08-14T07:00:26Z</time>
      </trkpt>
      <trkpt lat="46.83283" lon="6.41882">
        <ele>1130</ele>
        <time>2022-08-14T07:00:28Z</time>
      </trkpt>
      <trkpt lat="46.83284" lon="6.41869">
        <ele>1131</ele>
        <time>2022-08-14T07:00:30Z</time>
      </trkpt>
      <trkpt lat="46.83287" lon="6.4185">
        <ele>1130</ele>
        <time>2022-08-14T07:00:33Z</time>
      </trkpt>
      <trkpt lat="46.83282" lon="6.41837">
        <ele>1130</ele>
        <time>2022-08-14T07:00:36Z</time>
      </trkpt>
      <trkpt lat="46.83276" lon="6.41826">
        <ele>1131</ele>
        <time>2022-08-14T07:00:39Z</time>
      </trkpt>
      <trkpt lat="46.83281" lon="6.41814">
        <ele>1131</ele>
        <time>2022-08-14T07:00:43Z</time>
      </trkpt>
      <trkpt lat="46.83289" lon="6.4182">
        <ele>1131</ele>
        <time>2022-08-14T07:00:48Z</time>
      </trkpt>
      <trkpt lat="46.83298" lon="6.41815">
        <ele>1130</ele>
        <time>2022-08-14T07:00:52Z</time>
      </trkpt>
      <trkpt lat="46.8331" lon="6.41808">
        <ele>1131</ele>
        <time>2022-08-14T07:00:56Z</time>
      </trkpt>
      <trkpt lat="46.83319" lon="6.418">
        <ele>1131</ele>
        <time>2022-08-14T07:00:58Z</time>
      </trkpt>
      <trkpt lat="46.83326" lon="6.4179">
        <ele>1131</ele>
        <time>2022-08-14T07:01:00Z</time>
      </trkpt>
      <trkpt lat="46.83334" lon="6.41781">
        <ele>1131</ele>
        <time>2022-08-14T07:01:02Z</time>
      </trkpt>
      <trkpt lat="46.83341" lon="6.4177">
        <ele>1131</ele>
        <time>2022-08-14T07:01:05Z</time>
      </trkpt>
      <trkpt lat="46.83347" lon="6.41757">
        <ele>1131</ele>
        <time>2022-08-14T07:01:08Z</time>
      </trkpt>
      <trkpt lat="46.83352" lon="6.41745">
        <ele>1130</ele>
        <time>2022-08-14T07:01:10Z</time>
      </trkpt>
      <trkpt lat="46.83362" lon="6.41717">
        <ele>1129</ele>
        <time>2022-08-14T07:01:15Z</time>
      </trkpt>
      <trkpt lat="46.83373" lon="6.41688">
        <ele>1127</ele>
        <time>2022-08-14T07:01:19Z</time>
      </trkpt>
      <trkpt lat="46.83383" lon="6.41665">
        <ele>1126</ele>
        <time>2022-08-14T07:01:22Z</time>
      </trkpt>
      <trkpt lat="46.83391" lon="6.4164">
        <ele>1125</ele>
        <time>2022-08-14T07:01:25Z</time>
      </trkpt>
      <trkpt lat="46.83397" lon="6.41612">
        <ele>1123</ele>
        <time>2022-08-14T07:01:28Z</time>
      </trkpt>
      <trkpt lat="46.83398" lon="6.41591">
        <ele>1123</ele>
        <time>2022-08-14T07:01:30Z</time>
      </trkpt>
      <trkpt lat="46.83397" lon="6.41569">
        <ele>1122</ele>
        <time>2022-08-14T07:01:32Z</time>
      </trkpt>
      <trkpt lat="46.83394" lon="6.41549">
        <ele>1121</ele>
        <time>2022-08-14T07:01:34Z</time>
      </trkpt>
      <trkpt lat="46.8339" lon="6.41527">
        <ele>1120</ele>
        <time>2022-08-14T07:01:36Z</time>
      </trkpt>
      <trkpt lat="46.83387" lon="6.41506">
        <ele>1119</ele>
        <time>2022-08-14T07:01:38Z</time>
      </trkpt>
      <trkpt lat="46.83383" lon="6.41485">
        <ele>1118</ele>
        <time>2022-08-14T07:01:40Z</time>
      </trkpt>
      <trkpt lat="46.83378" lon="6.41464">
        <ele>1117</ele>
        <time>2022-08-14T07:01:42Z</time>
      </trkpt>
      <trkpt lat="46.83373" lon="6.41443">
        <ele>1115</ele>
        <time>2022-08-14T07:01:44Z</time>
      </trkpt>
      <trkpt lat="46.83368" lon="6.4142">
        <ele>1114</ele>
        <time>2022-08-14T07:01:46Z</time>
      </trkpt>
      <trkpt lat="46.83363" lon="6.41396">
        <ele>1112</ele>
        <time>2022-08-14T07:01:48Z</time>
      </trkpt>
      <trkpt lat="46.83359" lon="6.41374">
        <ele>1112</ele>
        <time>2022-08-14T07:01:50Z</time>
      </trkpt>
      <trkpt lat="46.83355" lon="6.41351">
        <ele>1111</ele>
        <time>2022-08-14T07:01:52Z</time>
      </trkpt>
      <trkpt lat="46.83352" lon="6.4133">
        <ele>1111</ele>
        <time>2022-08-14T07:01:54Z</time>
      </trkpt>
      <trkpt lat="46.83349" lon="6.41308">
        <ele>1110</ele>
        <time>2022-08-14T07:01:56Z</time>
      </trkpt>
      <trkpt lat="46.83345" lon="6.41287">
        <ele>1110</ele>
        <time>2022-08-14T07:01:58Z</time>
      </trkpt>
      <trkpt lat="46.83341" lon="6.41266">
        <ele>1109</ele>
        <time>2022-08-14T07:02:00Z</time>
      </trkpt>
      <trkpt lat="46.83339" lon="6.41244">
        <ele>1109</ele>
        <time>2022-08-14T07:02:02Z</time>
      </trkpt>
      <trkpt lat="46.83336" lon="6.41222">
        <ele>1108</ele>
        <time>2022-08-14T07:02:04Z</time>
      </trkpt>
      <trkpt lat="46.83333" lon="6.412">
        <ele>1107</ele>
        <time>2022-08-14T07:02:06Z</time>
      </trkpt>
      <trkpt lat="46.8333" lon="6.41179">
        <ele>1107</ele>
        <time>2022-08-14T07:02:08Z</time>
      </trkpt>
      <trkpt lat="46.83327" lon="6.41156">
        <ele>1106</ele>
        <time>2022-08-14T07:02:10Z</time>
      </trkpt>
      <trkpt lat="46.83324" lon="6.41135">
        <ele>1105</ele>
        <time>2022-08-14T07:02:12Z</time>
      </trkpt>
      <trkpt lat="46.8332" lon="6.41113">
        <ele>1104</ele>
        <time>2022-08-14T07:02:14Z</time>
      </trkpt>
      <trkpt lat="46.83315" lon="6.41092">
        <ele>1103</ele>
        <time>2022-08-14T07:02:16Z</time>
      </trkpt>
      <trkpt lat="46.83311" lon="6.41071">
        <ele>1102</ele>
        <time>2022-08-14T07:02:18Z</time>
      </trkpt>
      <trkpt lat="46.83309" lon="6.41058">
        <ele>1102</ele>
        <time>2022-08-14T07:02:20Z</time>
      </trkpt>
      <trkpt lat="46.83308" lon="6.4104">
        <ele>1101</ele>
        <time>2022-08-14T07:02:24Z</time>
      </trkpt>
      <trkpt lat="46.83306" lon="6.41024">
        <ele>1100</ele>
        <time>2022-08-14T07:02:26Z</time>
      </trkpt>
      <trkpt lat="46.83304" lon="6.41006">
        <ele>1101</ele>
        <time>2022-08-14T07:02:28Z</time>
      </trkpt>
      <trkpt lat="46.83303" lon="6.40987">
        <ele>1101</ele>
        <time>2022-08-14T07:02:30Z</time>
      </trkpt>
      <trkpt lat="46.83302" lon="6.40968">
        <ele>1098</ele>
        <time>2022-08-14T07:02:32Z</time>
      </trkpt>
      <trkpt lat="46.83301" lon="6.40949">
        <ele>1097</ele>
        <time>2022-08-14T07:02:34Z</time>
      </trkpt>
      <trkpt lat="46.833" lon="6.40929">
        <ele>1096</ele>
        <time>2022-08-14T07:02:36Z</time>
      </trkpt>
      <trkpt lat="46.83302" lon="6.40907">
        <ele>1096</ele>
        <time>2022-08-14T07:02:38Z</time>
      </trkpt>
      <trkpt lat="46.83304" lon="6.40886">
        <ele>1095</ele>
        <time>2022-08-14T07:02:40Z</time>
      </trkpt>
      <trkpt lat="46.83309" lon="6.40863">
        <ele>1094</ele>
        <time>2022-08-14T07:02:42Z</time>
      </trkpt>
      <trkpt lat="46.83314" lon="6.40843">
        <ele>1093</ele>
        <time>2022-08-14T07:02:44Z</time>
      </trkpt>
      <trkpt lat="46.8332" lon="6.40825">
        <ele>1092</ele>
        <time>2022-08-14T07:02:46Z</time>
      </trkpt>
      <trkpt lat="46.83324" lon="6.40807">
        <ele>1092</ele>
        <time>2022-08-14T07:02:48Z</time>
      </trkpt>
      <trkpt lat="46.83328" lon="6.40789">
        <ele>1092</ele>
        <time>2022-08-14T07:02:50Z</time>
      </trkpt>
      <trkpt lat="46.83331" lon="6.4077">
        <ele>1092</ele>
        <time>2022-08-14T07:02:52Z</time>
      </trkpt>
      <trkpt lat="46.83334" lon="6.40752">
        <ele>1092</ele>
        <time>2022-08-14T07:02:54Z</time>
      </trkpt>
      <trkpt lat="46.83338" lon="6.4072">
        <ele>1091</ele>
        <time>2022-08-14T07:02:58Z</time>
      </trkpt>
      <trkpt lat="46.83341" lon="6.40704">
        <ele>1091</ele>
        <time>2022-08-14T07:03:00Z</time>
      </trkpt>
      <trkpt lat="46.83349" lon="6.40672">
        <ele>1091</ele>
        <time>2022-08-14T07:03:04Z</time>
      </trkpt>
      <trkpt lat="46.83353" lon="6.40656">
        <ele>1090</ele>
        <time>2022-08-14T07:03:06Z</time>
      </trkpt>
      <trkpt lat="46.83356" lon="6.40641">
        <ele>1090</ele>
        <time>2022-08-14T07:03:08Z</time>
      </trkpt>
      <trkpt lat="46.8336" lon="6.40625">
        <ele>1090</ele>
        <time>2022-08-14T07:03:10Z</time>
      </trkpt>
      <trkpt lat="46.83363" lon="6.40609">
        <ele>1090</ele>
        <time>2022-08-14T07:03:12Z</time>
      </trkpt>
      <trkpt lat="46.83367" lon="6.40595">
        <ele>1090</ele>
        <time>2022-08-14T07:03:14Z</time>
      </trkpt>
      <trkpt lat="46.83367" lon="6.4058">
        <ele>1090</ele>
        <time>2022-08-14T07:03:16Z</time>
      </trkpt>
      <trkpt lat="46.8336" lon="6.4057">
        <ele>1090</ele>
        <time>2022-08-14T07:03:18Z</time>
      </trkpt>
      <trkpt lat="46.83349" lon="6.40567">
        <ele>1090</ele>
        <time>2022-08-14T07:03:20Z</time>
      </trkpt>
      <trkpt lat="46.8334" lon="6.40562">
        <ele>1090</ele>
        <time>2022-08-14T07:03:22Z</time>
      </trkpt>
      <trkpt lat="46.8333" lon="6.40556">
        <ele>1090</ele>
        <time>2022-08-14T07:03:24Z</time>
      </trkpt>
      <trkpt lat="46.83321" lon="6.40551">
        <ele>1090</ele>
        <time>2022-08-14T07:03:26Z</time>
      </trkpt>
      <trkpt lat="46.83312" lon="6.40546">
        <ele>1092</ele>
        <time>2022-08-14T07:03:28Z</time>
      </trkpt>
      <trkpt lat="46.83304" lon="6.40541">
        <ele>1092</ele>
        <time>2022-08-14T07:03:30Z</time>
      </trkpt>
      <trkpt lat="46.83291" lon="6.40534">
        <ele>1092</ele>
        <time>2022-08-14T07:03:33Z</time>
      </trkpt>
      <trkpt lat="46.83282" lon="6.40529">
        <ele>1092</ele>
        <time>2022-08-14T07:03:35Z</time>
      </trkpt>
      <trkpt lat="46.83274" lon="6.40524">
        <ele>1091</ele>
        <time>2022-08-14T07:03:37Z</time>
      </trkpt>
      <trkpt lat="46.83265" lon="6.40518">
        <ele>1091</ele>
        <time>2022-08-14T07:03:39Z</time>
      </trkpt>
      <trkpt lat="46.83257" lon="6.40513">
        <ele>1091</ele>
        <time>2022-08-14T07:03:41Z</time>
      </trkpt>
      <trkpt lat="46.83245" lon="6.40506">
        <ele>1094</ele>
        <time>2022-08-14T07:03:44Z</time>
      </trkpt>
      <trkpt lat="46.83235" lon="6.40497">
        <ele>1095</ele>
        <time>2022-08-14T07:03:47Z</time>
      </trkpt>
      <trkpt lat="46.83227" lon="6.40482">
        <ele>1093</ele>
        <time>2022-08-14T07:03:50Z</time>
      </trkpt>
      <trkpt lat="46.83221" lon="6.40467">
        <ele>1093</ele>
        <time>2022-08-14T07:03:53Z</time>
      </trkpt>
      <trkpt lat="46.83216" lon="6.40455">
        <ele>1093</ele>
        <time>2022-08-14T07:03:55Z</time>
      </trkpt>
      <trkpt lat="46.83211" lon="6.40443">
        <ele>1094</ele>
        <time>2022-08-14T07:03:56Z</time>
      </trkpt>
      <trkpt lat="46.83205" lon="6.40432">
        <ele>1095</ele>
        <time>2022-08-14T07:03:59Z</time>
      </trkpt>
      <trkpt lat="46.83198" lon="6.4042">
        <ele>1096</ele>
        <time>2022-08-14T07:04:01Z</time>
      </trkpt>
      <trkpt lat="46.83192" lon="6.40409">
        <ele>1096</ele>
        <time>2022-08-14T07:04:04Z</time>
      </trkpt>
      <trkpt lat="46.83185" lon="6.40397">
        <ele>1096</ele>
        <time>2022-08-14T07:04:06Z</time>
      </trkpt>
      <trkpt lat="46.83179" lon="6.40386">
        <ele>1097</ele>
        <time>2022-08-14T07:04:08Z</time>
      </trkpt>
      <trkpt lat="46.83172" lon="6.40375">
        <ele>1097</ele>
        <time>2022-08-14T07:04:10Z</time>
      </trkpt>
      <trkpt lat="46.83166" lon="6.40364">
        <ele>1097</ele>
        <time>2022-08-14T07:04:12Z</time>
      </trkpt>
      <trkpt lat="46.8316" lon="6.40353">
        <ele>1097</ele>
        <time>2022-08-14T07:04:14Z</time>
      </trkpt>
      <trkpt lat="46.83153" lon="6.40343">
        <ele>1097</ele>
        <time>2022-08-14T07:04:16Z</time>
      </trkpt>
      <trkpt lat="46.83147" lon="6.40333">
        <ele>1097</ele>
        <time>2022-08-14T07:04:18Z</time>
      </trkpt>
      <trkpt lat="46.8314" lon="6.40322">
        <ele>1098</ele>
        <time>2022-08-14T07:04:20Z</time>
      </trkpt>
      <trkpt lat="46.83134" lon="6.40312">
        <ele>1098</ele>
        <time>2022-08-14T07:04:22Z</time>
      </trkpt>
      <trkpt lat="46.83128" lon="6.40301">
        <ele>1098</ele>
        <time>2022-08-14T07:04:24Z</time>
      </trkpt>
      <trkpt lat="46.83122" lon="6.4029">
        <ele>1098</ele>
        <time>2022-08-14T07:04:26Z</time>
      </trkpt>
      <trkpt lat="46.83116" lon="6.40278">
        <ele>1098</ele>
        <time>2022-08-14T07:04:28Z</time>
      </trkpt>
      <trkpt lat="46.8311" lon="6.40266">
        <ele>1098</ele>
        <time>2022-08-14T07:04:30Z</time>
      </trkpt>
      <trkpt lat="46.83105" lon="6.40253">
        <ele>1098</ele>
        <time>2022-08-14T07:04:32Z</time>
      </trkpt>
      <trkpt lat="46.831" lon="6.40241">
        <ele>1098</ele>
        <time>2022-08-14T07:04:34Z</time>
      </trkpt>
      <trkpt lat="46.83095" lon="6.40228">
        <ele>1098</ele>
        <time>2022-08-14T07:04:36Z</time>
      </trkpt>
      <trkpt lat="46.83092" lon="6.40214">
        <ele>1098</ele>
        <time>2022-08-14T07:04:38Z</time>
      </trkpt>
      <trkpt lat="46.83091" lon="6.40199">
        <ele>1098</ele>
        <time>2022-08-14T07:04:40Z</time>
      </trkpt>
      <trkpt lat="46.83091" lon="6.40183">
        <ele>1098</ele>
        <time>2022-08-14T07:04:42Z</time>
      </trkpt>
      <trkpt lat="46.8309" lon="6.40166">
        <ele>1097</ele>
        <time>2022-08-14T07:04:44Z</time>
      </trkpt>
      <trkpt lat="46.8309" lon="6.40149">
        <ele>1097</ele>
        <time>2022-08-14T07:04:46Z</time>
      </trkpt>
      <trkpt lat="46.83088" lon="6.40132">
        <ele>1096</ele>
        <time>2022-08-14T07:04:48Z</time>
      </trkpt>
      <trkpt lat="46.83085" lon="6.40114">
        <ele>1096</ele>
        <time>2022-08-14T07:04:50Z</time>
      </trkpt>
      <trkpt lat="46.83081" lon="6.40095">
        <ele>1094</ele>
        <time>2022-08-14T07:04:52Z</time>
      </trkpt>
      <trkpt lat="46.83074" lon="6.40076">
        <ele>1093</ele>
        <time>2022-08-14T07:04:54Z</time>
      </trkpt>
      <trkpt lat="46.83067" lon="6.40057">
        <ele>1092</ele>
        <time>2022-08-14T07:04:56Z</time>
      </trkpt>
      <trkpt lat="46.83061" lon="6.40035">
        <ele>1092</ele>
        <time>2022-08-14T07:04:58Z</time>
      </trkpt>
      <trkpt lat="46.83057" lon="6.40013">
        <ele>1091</ele>
        <time>2022-08-14T07:05:00Z</time>
      </trkpt>
      <trkpt lat="46.83051" lon="6.39992">
        <ele>1091</ele>
        <time>2022-08-14T07:05:02Z</time>
      </trkpt>
      <trkpt lat="46.83047" lon="6.39971">
        <ele>1091</ele>
        <time>2022-08-14T07:05:04Z</time>
      </trkpt>
      <trkpt lat="46.83043" lon="6.39952">
        <ele>1090</ele>
        <time>2022-08-14T07:05:06Z</time>
      </trkpt>
      <trkpt lat="46.83039" lon="6.39935">
        <ele>1090</ele>
        <time>2022-08-14T07:05:08Z</time>
      </trkpt>
      <trkpt lat="46.83036" lon="6.39918">
        <ele>1090</ele>
        <time>2022-08-14T07:05:10Z</time>
      </trkpt>
      <trkpt lat="46.83032" lon="6.399">
        <ele>1090</ele>
        <time>2022-08-14T07:05:12Z</time>
      </trkpt>
      <trkpt lat="46.83028" lon="6.39882">
        <ele>1090</ele>
        <time>2022-08-14T07:05:14Z</time>
      </trkpt>
      <trkpt lat="46.83025" lon="6.39864">
        <ele>1090</ele>
        <time>2022-08-14T07:05:16Z</time>
      </trkpt>
      <trkpt lat="46.83022" lon="6.39844">
        <ele>1089</ele>
        <time>2022-08-14T07:05:18Z</time>
      </trkpt>
      <trkpt lat="46.83018" lon="6.39815">
        <ele>1089</ele>
        <time>2022-08-14T07:05:21Z</time>
      </trkpt>
      <trkpt lat="46.83015" lon="6.39785">
        <ele>1088</ele>
        <time>2022-08-14T07:05:24Z</time>
      </trkpt>
      <trkpt lat="46.83014" lon="6.39756">
        <ele>1088</ele>
        <time>2022-08-14T07:05:27Z</time>
      </trkpt>
      <trkpt lat="46.83015" lon="6.39727">
        <ele>1088</ele>
        <time>2022-08-14T07:05:30Z</time>
      </trkpt>
      <trkpt lat="46.83017" lon="6.39699">
        <ele>1088</ele>
        <time>2022-08-14T07:05:33Z</time>
      </trkpt>
      <trkpt lat="46.83018" lon="6.39671">
        <ele>1087</ele>
        <time>2022-08-14T07:05:36Z</time>
      </trkpt>
      <trkpt lat="46.83019" lon="6.39651">
        <ele>1087</ele>
        <time>2022-08-14T07:05:38Z</time>
      </trkpt>
      <trkpt lat="46.83019" lon="6.39632">
        <ele>1086</ele>
        <time>2022-08-14T07:05:40Z</time>
      </trkpt>
      <trkpt lat="46.83019" lon="6.39613">
        <ele>1086</ele>
        <time>2022-08-14T07:05:42Z</time>
      </trkpt>
      <trkpt lat="46.83019" lon="6.39594">
        <ele>1086</ele>
        <time>2022-08-14T07:05:44Z</time>
      </trkpt>
      <trkpt lat="46.83019" lon="6.39576">
        <ele>1086</ele>
        <time>2022-08-14T07:05:46Z</time>
      </trkpt>
      <trkpt lat="46.83018" lon="6.39558">
        <ele>1086</ele>
        <time>2022-08-14T07:05:48Z</time>
      </trkpt>
      <trkpt lat="46.83016" lon="6.3954">
        <ele>1086</ele>
        <time>2022-08-14T07:05:50Z</time>
      </trkpt>
      <trkpt lat="46.83013" lon="6.39523">
        <ele>1086</ele>
        <time>2022-08-14T07:05:52Z</time>
      </trkpt>
      <trkpt lat="46.83011" lon="6.39505">
        <ele>1086</ele>
        <time>2022-08-14T07:05:54Z</time>
      </trkpt>
      <trkpt lat="46.83008" lon="6.39488">
        <ele>1086</ele>
        <time>2022-08-14T07:05:56Z</time>
      </trkpt>
      <trkpt lat="46.83006" lon="6.39472">
        <ele>1086</ele>
        <time>2022-08-14T07:05:58Z</time>
      </trkpt>
      <trkpt lat="46.83004" lon="6.39455">
        <ele>1086</ele>
        <time>2022-08-14T07:06:00Z</time>
      </trkpt>
      <trkpt lat="46.83002" lon="6.39436">
        <ele>1086</ele>
        <time>2022-08-14T07:06:02Z</time>
      </trkpt>
      <trkpt lat="46.83001" lon="6.39417">
        <ele>1085</ele>
        <time>2022-08-14T07:06:04Z</time>
      </trkpt>
      <trkpt lat="46.82998" lon="6.39398">
        <ele>1085</ele>
        <time>2022-08-14T07:06:06Z</time>
      </trkpt>
      <trkpt lat="46.82995" lon="6.39378">
        <ele>1085</ele>
        <time>2022-08-14T07:06:08Z</time>
      </trkpt>
      <trkpt lat="46.82992" lon="6.39359">
        <ele>1085</ele>
        <time>2022-08-14T07:06:10Z</time>
      </trkpt>
      <trkpt lat="46.82989" lon="6.39341">
        <ele>1085</ele>
        <time>2022-08-14T07:06:12Z</time>
      </trkpt>
      <trkpt lat="46.82986" lon="6.39323">
        <ele>1085</ele>
        <time>2022-08-14T07:06:14Z</time>
      </trkpt>
      <trkpt lat="46.82984" lon="6.39305">
        <ele>1085</ele>
        <time>2022-08-14T07:06:16Z</time>
      </trkpt>
      <trkpt lat="46.82981" lon="6.39287">
        <ele>1086</ele>
        <time>2022-08-14T07:06:18Z</time>
      </trkpt>
      <trkpt lat="46.82979" lon="6.39271">
        <ele>1086</ele>
        <time>2022-08-14T07:06:20Z</time>
      </trkpt>
      <trkpt lat="46.82977" lon="6.39255">
        <ele>1086</ele>
        <time>2022-08-14T07:06:22Z</time>
      </trkpt>
      <trkpt lat="46.82974" lon="6.3924">
        <ele>1086</ele>
        <time>2022-08-14T07:06:24Z</time>
      </trkpt>
      <trkpt lat="46.82971" lon="6.39226">
        <ele>1087</ele>
        <time>2022-08-14T07:06:26Z</time>
      </trkpt>
      <trkpt lat="46.82969" lon="6.39211">
        <ele>1087</ele>
        <time>2022-08-14T07:06:28Z</time>
      </trkpt>
      <trkpt lat="46.82967" lon="6.39197">
        <ele>1087</ele>
        <time>2022-08-14T07:06:30Z</time>
      </trkpt>
      <trkpt lat="46.82967" lon="6.39183">
        <ele>1088</ele>
        <time>2022-08-14T07:06:32Z</time>
      </trkpt>
      <trkpt lat="46.82966" lon="6.39168">
        <ele>1088</ele>
        <time>2022-08-14T07:06:34Z</time>
      </trkpt>
      <trkpt lat="46.82967" lon="6.39155">
        <ele>1088</ele>
        <time>2022-08-14T07:06:36Z</time>
      </trkpt>
      <trkpt lat="46.82969" lon="6.39141">
        <ele>1089</ele>
        <time>2022-08-14T07:06:38Z</time>
      </trkpt>
      <trkpt lat="46.82971" lon="6.39128">
        <ele>1089</ele>
        <time>2022-08-14T07:06:40Z</time>
      </trkpt>
      <trkpt lat="46.82973" lon="6.39115">
        <ele>1089</ele>
        <time>2022-08-14T07:06:42Z</time>
      </trkpt>
      <trkpt lat="46.82976" lon="6.39102">
        <ele>1089</ele>
        <time>2022-08-14T07:06:44Z</time>
      </trkpt>
      <trkpt lat="46.8298" lon="6.39089">
        <ele>1090</ele>
        <time>2022-08-14T07:06:46Z</time>
      </trkpt>
      <trkpt lat="46.82984" lon="6.39076">
        <ele>1090</ele>
        <time>2022-08-14T07:06:48Z</time>
      </trkpt>
      <trkpt lat="46.82988" lon="6.39063">
        <ele>1090</ele>
        <time>2022-08-14T07:06:50Z</time>
      </trkpt>
      <trkpt lat="46.82992" lon="6.39051">
        <ele>1090</ele>
        <time>2022-08-14T07:06:52Z</time>
      </trkpt>
      <trkpt lat="46.82995" lon="6.39038">
        <ele>1090</ele>
        <time>2022-08-14T07:06:54Z</time>
      </trkpt>
      <trkpt lat="46.82998" lon="6.39025">
        <ele>1090</ele>
        <time>2022-08-14T07:06:56Z</time>
      </trkpt>
      <trkpt lat="46.83001" lon="6.39011">
        <ele>1090</ele>
        <time>2022-08-14T07:06:58Z</time>
      </trkpt>
      <trkpt lat="46.83003" lon="6.38996">
        <ele>1090</ele>
        <time>2022-08-14T07:07:00Z</time>
      </trkpt>
      <trkpt lat="46.83007" lon="6.3898">
        <ele>1090</ele>
        <time>2022-08-14T07:07:02Z</time>
      </trkpt>
      <trkpt lat="46.83011" lon="6.38966">
        <ele>1090</ele>
        <time>2022-08-14T07:07:04Z</time>
      </trkpt>
      <trkpt lat="46.83014" lon="6.38953">
        <ele>1091</ele>
        <time>2022-08-14T07:07:06Z</time>
      </trkpt>
      <trkpt lat="46.83017" lon="6.38941">
        <ele>1091</ele>
        <time>2022-08-14T07:07:08Z</time>
      </trkpt>
      <trkpt lat="46.8302" lon="6.38928">
        <ele>1091</ele>
        <time>2022-08-14T07:07:10Z</time>
      </trkpt>
      <trkpt lat="46.83022" lon="6.38915">
        <ele>1090</ele>
        <time>2022-08-14T07:07:12Z</time>
      </trkpt>
      <trkpt lat="46.83026" lon="6.389">
        <ele>1089</ele>
        <time>2022-08-14T07:07:14Z</time>
      </trkpt>
      <trkpt lat="46.83031" lon="6.38883">
        <ele>1088</ele>
        <time>2022-08-14T07:07:16Z</time>
      </trkpt>
      <trkpt lat="46.83036" lon="6.38864">
        <ele>1088</ele>
        <time>2022-08-14T07:07:18Z</time>
      </trkpt>
      <trkpt lat="46.83042" lon="6.38847">
        <ele>1088</ele>
        <time>2022-08-14T07:07:20Z</time>
      </trkpt>
      <trkpt lat="46.83047" lon="6.3883">
        <ele>1088</ele>
        <time>2022-08-14T07:07:22Z</time>
      </trkpt>
      <trkpt lat="46.83052" lon="6.38814">
        <ele>1088</ele>
        <time>2022-08-14T07:07:24Z</time>
      </trkpt>
      <trkpt lat="46.83057" lon="6.388">
        <ele>1088</ele>
        <time>2022-08-14T07:07:26Z</time>
      </trkpt>
      <trkpt lat="46.83069" lon="6.38771">
        <ele>1088</ele>
        <time>2022-08-14T07:07:30Z</time>
      </trkpt>
      <trkpt lat="46.83079" lon="6.38746">
        <ele>1086</ele>
        <time>2022-08-14T07:07:33Z</time>
      </trkpt>
      <trkpt lat="46.83087" lon="6.38727">
        <ele>1085</ele>
        <time>2022-08-14T07:07:35Z</time>
      </trkpt>
      <trkpt lat="46.83094" lon="6.38708">
        <ele>1085</ele>
        <time>2022-08-14T07:07:37Z</time>
      </trkpt>
      <trkpt lat="46.83101" lon="6.38688">
        <ele>1084</ele>
        <time>2022-08-14T07:07:39Z</time>
      </trkpt>
      <trkpt lat="46.83106" lon="6.38668">
        <ele>1084</ele>
        <time>2022-08-14T07:07:41Z</time>
      </trkpt>
      <trkpt lat="46.83106" lon="6.38648">
        <ele>1084</ele>
        <time>2022-08-14T07:07:43Z</time>
      </trkpt>
      <trkpt lat="46.83105" lon="6.38629">
        <ele>1085</ele>
        <time>2022-08-14T07:07:45Z</time>
      </trkpt>
      <trkpt lat="46.83103" lon="6.38611">
        <ele>1085</ele>
        <time>2022-08-14T07:07:47Z</time>
      </trkpt>
      <trkpt lat="46.831" lon="6.38593">
        <ele>1085</ele>
        <time>2022-08-14T07:07:49Z</time>
      </trkpt>
      <trkpt lat="46.83096" lon="6.38576">
        <ele>1085</ele>
        <time>2022-08-14T07:07:51Z</time>
      </trkpt>
      <trkpt lat="46.8309" lon="6.38561">
        <ele>1085</ele>
        <time>2022-08-14T07:07:53Z</time>
      </trkpt>
      <trkpt lat="46.83081" lon="6.38552">
        <ele>1086</ele>
        <time>2022-08-14T07:07:55Z</time>
      </trkpt>
      <trkpt lat="46.83068" lon="6.3855">
        <ele>1086</ele>
        <time>2022-08-14T07:07:58Z</time>
      </trkpt>
      <trkpt lat="46.83058" lon="6.38547">
        <ele>1087</ele>
        <time>2022-08-14T07:08:01Z</time>
      </trkpt>
      <trkpt lat="46.83049" lon="6.38537">
        <ele>1087</ele>
        <time>2022-08-14T07:08:04Z</time>
      </trkpt>
      <trkpt lat="46.8304" lon="6.38528">
        <ele>1086</ele>
        <time>2022-08-14T07:08:07Z</time>
      </trkpt>
      <trkpt lat="46.83031" lon="6.38519">
        <ele>1088</ele>
        <time>2022-08-14T07:08:10Z</time>
      </trkpt>
      <trkpt lat="46.8302" lon="6.38508">
        <ele>1090</ele>
        <time>2022-08-14T07:08:15Z</time>
      </trkpt>
      <trkpt lat="46.83013" lon="6.38497">
        <ele>1091</ele>
        <time>2022-08-14T07:08:17Z</time>
      </trkpt>
      <trkpt lat="46.83004" lon="6.38484">
        <ele>1091</ele>
        <time>2022-08-14T07:08:18Z</time>
      </trkpt>
      <trkpt lat="46.82998" lon="6.38474">
        <ele>1091</ele>
        <time>2022-08-14T07:08:20Z</time>
      </trkpt>
      <trkpt lat="46.82992" lon="6.38462">
        <ele>1092</ele>
        <time>2022-08-14T07:08:22Z</time>
      </trkpt>
      <trkpt lat="46.82987" lon="6.3845">
        <ele>1093</ele>
        <time>2022-08-14T07:08:24Z</time>
      </trkpt>
      <trkpt lat="46.82979" lon="6.38438">
        <ele>1095</ele>
        <time>2022-08-14T07:08:28Z</time>
      </trkpt>
      <trkpt lat="46.82974" lon="6.38427">
        <ele>1095</ele>
        <time>2022-08-14T07:08:30Z</time>
      </trkpt>
      <trkpt lat="46.82965" lon="6.38418">
        <ele>1097</ele>
        <time>2022-08-14T07:08:33Z</time>
      </trkpt>
      <trkpt lat="46.82958" lon="6.38408">
        <ele>1096</ele>
        <time>2022-08-14T07:08:36Z</time>
      </trkpt>
      <trkpt lat="46.82952" lon="6.38399">
        <ele>1096</ele>
        <time>2022-08-14T07:08:40Z</time>
      </trkpt>
      <trkpt lat="46.82944" lon="6.38391">
        <ele>1096</ele>
        <time>2022-08-14T07:08:43Z</time>
      </trkpt>
      <trkpt lat="46.82934" lon="6.38385">
        <ele>1097</ele>
        <time>2022-08-14T07:08:47Z</time>
      </trkpt>
      <trkpt lat="46.82926" lon="6.38378">
        <ele>1098</ele>
        <time>2022-08-14T07:08:50Z</time>
      </trkpt>
      <trkpt lat="46.82918" lon="6.38371">
        <ele>1098</ele>
        <time>2022-08-14T07:08:53Z</time>
      </trkpt>
      <trkpt lat="46.8291" lon="6.38364">
        <ele>1098</ele>
        <time>2022-08-14T07:08:56Z</time>
      </trkpt>
      <trkpt lat="46.82902" lon="6.38355">
        <ele>1098</ele>
        <time>2022-08-14T07:09:00Z</time>
      </trkpt>
      <trkpt lat="46.82893" lon="6.38347">
        <ele>1098</ele>
        <time>2022-08-14T07:09:04Z</time>
      </trkpt>
      <trkpt lat="46.82886" lon="6.38339">
        <ele>1098</ele>
        <time>2022-08-14T07:09:07Z</time>
      </trkpt>
      <trkpt lat="46.82879" lon="6.38331">
        <ele>1098</ele>
        <time>2022-08-14T07:09:10Z</time>
      </trkpt>
      <trkpt lat="46.8287" lon="6.38325">
        <ele>1100</ele>
        <time>2022-08-14T07:09:13Z</time>
      </trkpt>
      <trkpt lat="46.82861" lon="6.38316">
        <ele>1100</ele>
        <time>2022-08-14T07:09:16Z</time>
      </trkpt>
      <trkpt lat="46.82854" lon="6.38308">
        <ele>1101</ele>
        <time>2022-08-14T07:09:18Z</time>
      </trkpt>
      <trkpt lat="46.82846" lon="6.383">
        <ele>1102</ele>
        <time>2022-08-14T07:09:21Z</time>
      </trkpt>
      <trkpt lat="46.82838" lon="6.38294">
        <ele>1101</ele>
        <time>2022-08-14T07:09:24Z</time>
      </trkpt>
      <trkpt lat="46.82817" lon="6.38281">
        <ele>1101</ele>
        <time>2022-08-14T07:09:30Z</time>
      </trkpt>
      <trkpt lat="46.82796" lon="6.38264">
        <ele>1099</ele>
        <time>2022-08-14T07:09:34Z</time>
      </trkpt>
      <trkpt lat="46.82785" lon="6.38254">
        <ele>1096</ele>
        <time>2022-08-14T07:09:36Z</time>
      </trkpt>
      <trkpt lat="46.82774" lon="6.38244">
        <ele>1096</ele>
        <time>2022-08-14T07:09:38Z</time>
      </trkpt>
      <trkpt lat="46.82763" lon="6.38235">
        <ele>1098</ele>
        <time>2022-08-14T07:09:40Z</time>
      </trkpt>
      <trkpt lat="46.82754" lon="6.38226">
        <ele>1097</ele>
        <time>2022-08-14T07:09:42Z</time>
      </trkpt>
      <trkpt lat="46.82747" lon="6.38211">
        <ele>1097</ele>
        <time>2022-08-14T07:09:45Z</time>
      </trkpt>
      <trkpt lat="46.82749" lon="6.38198">
        <ele>1096</ele>
        <time>2022-08-14T07:09:47Z</time>
      </trkpt>
      <trkpt lat="46.82751" lon="6.38186">
        <ele>1094</ele>
        <time>2022-08-14T07:09:50Z</time>
      </trkpt>
      <trkpt lat="46.82752" lon="6.38169">
        <ele>1094</ele>
        <time>2022-08-14T07:09:52Z</time>
      </trkpt>
      <trkpt lat="46.82755" lon="6.38152">
        <ele>1094</ele>
        <time>2022-08-14T07:09:55Z</time>
      </trkpt>
      <trkpt lat="46.82757" lon="6.38137">
        <ele>1093</ele>
        <time>2022-08-14T07:09:57Z</time>
      </trkpt>
      <trkpt lat="46.8276" lon="6.38122">
        <ele>1093</ele>
        <time>2022-08-14T07:10:00Z</time>
      </trkpt>
      <trkpt lat="46.82762" lon="6.38105">
        <ele>1093</ele>
        <time>2022-08-14T07:10:02Z</time>
      </trkpt>
      <trkpt lat="46.82765" lon="6.38089">
        <ele>1092</ele>
        <time>2022-08-14T07:10:04Z</time>
      </trkpt>
      <trkpt lat="46.82766" lon="6.38074">
        <ele>1092</ele>
        <time>2022-08-14T07:10:06Z</time>
      </trkpt>
      <trkpt lat="46.82768" lon="6.38061">
        <ele>1090</ele>
        <time>2022-08-14T07:10:08Z</time>
      </trkpt>
      <trkpt lat="46.82774" lon="6.38032">
        <ele>1090</ele>
        <time>2022-08-14T07:10:11Z</time>
      </trkpt>
      <trkpt lat="46.8278" lon="6.3801">
        <ele>1089</ele>
        <time>2022-08-14T07:10:13Z</time>
      </trkpt>
      <trkpt lat="46.82782" lon="6.37991">
        <ele>1086</ele>
        <time>2022-08-14T07:10:15Z</time>
      </trkpt>
      <trkpt lat="46.82784" lon="6.37974">
        <ele>1085</ele>
        <time>2022-08-14T07:10:17Z</time>
      </trkpt>
      <trkpt lat="46.82787" lon="6.37959">
        <ele>1084</ele>
        <time>2022-08-14T07:10:20Z</time>
      </trkpt>
      <trkpt lat="46.8279" lon="6.37945">
        <ele>1081</ele>
        <time>2022-08-14T07:10:23Z</time>
      </trkpt>
      <trkpt lat="46.82792" lon="6.37932">
        <ele>1079</ele>
        <time>2022-08-14T07:10:25Z</time>
      </trkpt>
      <trkpt lat="46.82798" lon="6.37913">
        <ele>1078</ele>
        <time>2022-08-14T07:10:27Z</time>
      </trkpt>
      <trkpt lat="46.82804" lon="6.37901">
        <ele>1079</ele>
        <time>2022-08-14T07:10:29Z</time>
      </trkpt>
      <trkpt lat="46.828" lon="6.37888">
        <ele>1078</ele>
        <time>2022-08-14T07:10:34Z</time>
      </trkpt>
      <trkpt lat="46.82792" lon="6.37878">
        <ele>1079</ele>
        <time>2022-08-14T07:10:36Z</time>
      </trkpt>
      <trkpt lat="46.82786" lon="6.37865">
        <ele>1080</ele>
        <time>2022-08-14T07:10:39Z</time>
      </trkpt>
      <trkpt lat="46.82781" lon="6.37853">
        <ele>1080</ele>
        <time>2022-08-14T07:10:42Z</time>
      </trkpt>
      <trkpt lat="46.82777" lon="6.37841">
        <ele>1080</ele>
        <time>2022-08-14T07:10:44Z</time>
      </trkpt>
      <trkpt lat="46.8277" lon="6.37822">
        <ele>1081</ele>
        <time>2022-08-14T07:10:47Z</time>
      </trkpt>
      <trkpt lat="46.82764" lon="6.37809">
        <ele>1081</ele>
        <time>2022-08-14T07:10:49Z</time>
      </trkpt>
      <trkpt lat="46.82757" lon="6.37799">
        <ele>1081</ele>
        <time>2022-08-14T07:10:51Z</time>
      </trkpt>
      <trkpt lat="46.82749" lon="6.3779">
        <ele>1081</ele>
        <time>2022-08-14T07:10:54Z</time>
      </trkpt>
      <trkpt lat="46.82743" lon="6.37777">
        <ele>1080</ele>
        <time>2022-08-14T07:10:56Z</time>
      </trkpt>
      <trkpt lat="46.82735" lon="6.37766">
        <ele>1080</ele>
        <time>2022-08-14T07:10:59Z</time>
      </trkpt>
      <trkpt lat="46.82727" lon="6.37757">
        <ele>1080</ele>
        <time>2022-08-14T07:11:01Z</time>
      </trkpt>
      <trkpt lat="46.82717" lon="6.37746">
        <ele>1080</ele>
        <time>2022-08-14T07:11:04Z</time>
      </trkpt>
      <trkpt lat="46.82707" lon="6.37738">
        <ele>1080</ele>
        <time>2022-08-14T07:11:06Z</time>
      </trkpt>
      <trkpt lat="46.82695" lon="6.37728">
        <ele>1080</ele>
        <time>2022-08-14T07:11:09Z</time>
      </trkpt>
      <trkpt lat="46.82687" lon="6.3772">
        <ele>1080</ele>
        <time>2022-08-14T07:11:11Z</time>
      </trkpt>
      <trkpt lat="46.8268" lon="6.37711">
        <ele>1080</ele>
        <time>2022-08-14T07:11:13Z</time>
      </trkpt>
      <trkpt lat="46.82675" lon="6.37699">
        <ele>1079</ele>
        <time>2022-08-14T07:11:15Z</time>
      </trkpt>
      <trkpt lat="46.8267" lon="6.37683">
        <ele>1079</ele>
        <time>2022-08-14T07:11:18Z</time>
      </trkpt>
      <trkpt lat="46.82663" lon="6.3767">
        <ele>1079</ele>
        <time>2022-08-14T07:11:21Z</time>
      </trkpt>
      <trkpt lat="46.82652" lon="6.37671">
        <ele>1079</ele>
        <time>2022-08-14T07:11:23Z</time>
      </trkpt>
      <trkpt lat="46.82642" lon="6.37673">
        <ele>1080</ele>
        <time>2022-08-14T07:11:27Z</time>
      </trkpt>
      <trkpt lat="46.82625" lon="6.37664">
        <ele>1079</ele>
        <time>2022-08-14T07:11:32Z</time>
      </trkpt>
      <trkpt lat="46.82608" lon="6.37654">
        <ele>1080</ele>
        <time>2022-08-14T07:11:37Z</time>
      </trkpt>
      <trkpt lat="46.82588" lon="6.37645">
        <ele>1081</ele>
        <time>2022-08-14T07:11:42Z</time>
      </trkpt>
      <trkpt lat="46.82579" lon="6.37637">
        <ele>1079</ele>
        <time>2022-08-14T07:11:45Z</time>
      </trkpt>
      <trkpt lat="46.8257" lon="6.37628">
        <ele>1079</ele>
        <time>2022-08-14T07:11:48Z</time>
      </trkpt>
      <trkpt lat="46.82558" lon="6.37619">
        <ele>1080</ele>
        <time>2022-08-14T07:11:51Z</time>
      </trkpt>
      <trkpt lat="46.82548" lon="6.37608">
        <ele>1080</ele>
        <time>2022-08-14T07:11:54Z</time>
      </trkpt>
      <trkpt lat="46.82542" lon="6.37595">
        <ele>1079</ele>
        <time>2022-08-14T07:11:57Z</time>
      </trkpt>
      <trkpt lat="46.82533" lon="6.37575">
        <ele>1077</ele>
        <time>2022-08-14T07:12:00Z</time>
      </trkpt>
      <trkpt lat="46.82525" lon="6.37559">
        <ele>1076</ele>
        <time>2022-08-14T07:12:02Z</time>
      </trkpt>
      <trkpt lat="46.82522" lon="6.37546">
        <ele>1076</ele>
        <time>2022-08-14T07:12:04Z</time>
      </trkpt>
      <trkpt lat="46.82515" lon="6.37522">
        <ele>1074</ele>
        <time>2022-08-14T07:12:07Z</time>
      </trkpt>
      <trkpt lat="46.82508" lon="6.37503">
        <ele>1072</ele>
        <time>2022-08-14T07:12:09Z</time>
      </trkpt>
      <trkpt lat="46.82503" lon="6.37484">
        <ele>1071</ele>
        <time>2022-08-14T07:12:11Z</time>
      </trkpt>
      <trkpt lat="46.82499" lon="6.37467">
        <ele>1071</ele>
        <time>2022-08-14T07:12:13Z</time>
      </trkpt>
      <trkpt lat="46.82497" lon="6.37453">
        <ele>1069</ele>
        <time>2022-08-14T07:12:15Z</time>
      </trkpt>
      <trkpt lat="46.82494" lon="6.3744">
        <ele>1067</ele>
        <time>2022-08-14T07:12:17Z</time>
      </trkpt>
      <trkpt lat="46.82488" lon="6.37428">
        <ele>1067</ele>
        <time>2022-08-14T07:12:20Z</time>
      </trkpt>
      <trkpt lat="46.8248" lon="6.37419">
        <ele>1064</ele>
        <time>2022-08-14T07:12:22Z</time>
      </trkpt>
      <trkpt lat="46.82471" lon="6.37411">
        <ele>1063</ele>
        <time>2022-08-14T07:12:24Z</time>
      </trkpt>
      <trkpt lat="46.82461" lon="6.37401">
        <ele>1063</ele>
        <time>2022-08-14T07:12:26Z</time>
      </trkpt>
      <trkpt lat="46.82453" lon="6.37385">
        <ele>1060</ele>
        <time>2022-08-14T07:12:28Z</time>
      </trkpt>
      <trkpt lat="46.82449" lon="6.37369">
        <ele>1059</ele>
        <time>2022-08-14T07:12:30Z</time>
      </trkpt>
      <trkpt lat="46.8244" lon="6.3736">
        <ele>1058</ele>
        <time>2022-08-14T07:12:32Z</time>
      </trkpt>
      <trkpt lat="46.82429" lon="6.37361">
        <ele>1058</ele>
        <time>2022-08-14T07:12:34Z</time>
      </trkpt>
      <trkpt lat="46.82418" lon="6.3737">
        <ele>1056</ele>
        <time>2022-08-14T07:12:36Z</time>
      </trkpt>
      <trkpt lat="46.82407" lon="6.37381">
        <ele>1056</ele>
        <time>2022-08-14T07:12:38Z</time>
      </trkpt>
      <trkpt lat="46.82396" lon="6.37389">
        <ele>1057</ele>
        <time>2022-08-14T07:12:40Z</time>
      </trkpt>
      <trkpt lat="46.82386" lon="6.37396">
        <ele>1055</ele>
        <time>2022-08-14T07:12:42Z</time>
      </trkpt>
      <trkpt lat="46.82375" lon="6.37402">
        <ele>1057</ele>
        <time>2022-08-14T07:12:46Z</time>
      </trkpt>
      <trkpt lat="46.82365" lon="6.37405">
        <ele>1057</ele>
        <time>2022-08-14T07:12:50Z</time>
      </trkpt>
      <trkpt lat="46.82355" lon="6.3741">
        <ele>1059</ele>
        <time>2022-08-14T07:12:52Z</time>
      </trkpt>
      <trkpt lat="46.82345" lon="6.37414">
        <ele>1057</ele>
        <time>2022-08-14T07:12:56Z</time>
      </trkpt>
      <trkpt lat="46.8233" lon="6.37415">
        <ele>1060</ele>
        <time>2022-08-14T07:13:00Z</time>
      </trkpt>
      <trkpt lat="46.82321" lon="6.37416">
        <ele>1061</ele>
        <time>2022-08-14T07:13:03Z</time>
      </trkpt>
      <trkpt lat="46.82309" lon="6.37415">
        <ele>1061</ele>
        <time>2022-08-14T07:13:07Z</time>
      </trkpt>
      <trkpt lat="46.82297" lon="6.37416">
        <ele>1061</ele>
        <time>2022-08-14T07:13:10Z</time>
      </trkpt>
      <trkpt lat="46.82286" lon="6.3742">
        <ele>1060</ele>
        <time>2022-08-14T07:13:13Z</time>
      </trkpt>
      <trkpt lat="46.82276" lon="6.37423">
        <ele>1060</ele>
        <time>2022-08-14T07:13:15Z</time>
      </trkpt>
      <trkpt lat="46.82266" lon="6.37427">
        <ele>1061</ele>
        <time>2022-08-14T07:13:18Z</time>
      </trkpt>
      <trkpt lat="46.82254" lon="6.3743">
        <ele>1062</ele>
        <time>2022-08-14T07:13:21Z</time>
      </trkpt>
      <trkpt lat="46.82243" lon="6.37436">
        <ele>1062</ele>
        <time>2022-08-14T07:13:25Z</time>
      </trkpt>
      <trkpt lat="46.82233" lon="6.37439">
        <ele>1062</ele>
        <time>2022-08-14T07:13:29Z</time>
      </trkpt>
      <trkpt lat="46.82224" lon="6.3744">
        <ele>1063</ele>
        <time>2022-08-14T07:13:31Z</time>
      </trkpt>
      <trkpt lat="46.8221" lon="6.3744">
        <ele>1064</ele>
        <time>2022-08-14T07:13:34Z</time>
      </trkpt>
      <trkpt lat="46.82196" lon="6.37438">
        <ele>1063</ele>
        <time>2022-08-14T07:13:37Z</time>
      </trkpt>
      <trkpt lat="46.82187" lon="6.37437">
        <ele>1062</ele>
        <time>2022-08-14T07:13:39Z</time>
      </trkpt>
      <trkpt lat="46.82175" lon="6.37442">
        <ele>1062</ele>
        <time>2022-08-14T07:13:41Z</time>
      </trkpt>
      <trkpt lat="46.82165" lon="6.37448">
        <ele>1064</ele>
        <time>2022-08-14T07:13:45Z</time>
      </trkpt>
      <trkpt lat="46.82157" lon="6.37452">
        <ele>1065</ele>
        <time>2022-08-14T07:13:49Z</time>
      </trkpt>
      <trkpt lat="46.82147" lon="6.37454">
        <ele>1067</ele>
        <time>2022-08-14T07:13:54Z</time>
      </trkpt>
      <trkpt lat="46.82138" lon="6.37456">
        <ele>1067</ele>
        <time>2022-08-14T07:13:57Z</time>
      </trkpt>
      <trkpt lat="46.82127" lon="6.3746">
        <ele>1068</ele>
        <time>2022-08-14T07:14:01Z</time>
      </trkpt>
      <trkpt lat="46.82117" lon="6.37467">
        <ele>1069</ele>
        <time>2022-08-14T07:14:06Z</time>
      </trkpt>
      <trkpt lat="46.82108" lon="6.37474">
        <ele>1069</ele>
        <time>2022-08-14T07:14:09Z</time>
      </trkpt>
      <trkpt lat="46.82102" lon="6.37484">
        <ele>1069</ele>
        <time>2022-08-14T07:14:13Z</time>
      </trkpt>
      <trkpt lat="46.82098" lon="6.37496">
        <ele>1070</ele>
        <time>2022-08-14T07:14:18Z</time>
      </trkpt>
      <trkpt lat="46.82093" lon="6.37509">
        <ele>1072</ele>
        <time>2022-08-14T07:14:22Z</time>
      </trkpt>
      <trkpt lat="46.82087" lon="6.37522">
        <ele>1073</ele>
        <time>2022-08-14T07:14:25Z</time>
      </trkpt>
      <trkpt lat="46.82081" lon="6.37533">
        <ele>1073</ele>
        <time>2022-08-14T07:14:29Z</time>
      </trkpt>
      <trkpt lat="46.82074" lon="6.37547">
        <ele>1073</ele>
        <time>2022-08-14T07:14:33Z</time>
      </trkpt>
      <trkpt lat="46.82067" lon="6.37559">
        <ele>1074</ele>
        <time>2022-08-14T07:14:36Z</time>
      </trkpt>
      <trkpt lat="46.82059" lon="6.37569">
        <ele>1075</ele>
        <time>2022-08-14T07:14:40Z</time>
      </trkpt>
      <trkpt lat="46.82054" lon="6.3758">
        <ele>1076</ele>
        <time>2022-08-14T07:14:45Z</time>
      </trkpt>
      <trkpt lat="46.82047" lon="6.37591">
        <ele>1078</ele>
        <time>2022-08-14T07:14:50Z</time>
      </trkpt>
      <trkpt lat="46.8204" lon="6.37602">
        <ele>1079</ele>
        <time>2022-08-14T07:14:57Z</time>
      </trkpt>
      <trkpt lat="46.82031" lon="6.37614">
        <ele>1077</ele>
        <time>2022-08-14T07:15:02Z</time>
      </trkpt>
      <trkpt lat="46.82025" lon="6.37625">
        <ele>1077</ele>
        <time>2022-08-14T07:15:05Z</time>
      </trkpt>
      <trkpt lat="46.8202" lon="6.37638">
        <ele>1080</ele>
        <time>2022-08-14T07:15:11Z</time>
      </trkpt>
      <trkpt lat="46.82017" lon="6.37655">
        <ele>1082</ele>
        <time>2022-08-14T07:15:16Z</time>
      </trkpt>
      <trkpt lat="46.8201" lon="6.37667">
        <ele>1079</ele>
        <time>2022-08-14T07:15:19Z</time>
      </trkpt>
      <trkpt lat="46.82" lon="6.37667">
        <ele>1083</ele>
        <time>2022-08-14T07:15:23Z</time>
      </trkpt>
      <trkpt lat="46.81992" lon="6.37658">
        <ele>1083</ele>
        <time>2022-08-14T07:15:28Z</time>
      </trkpt>
      <trkpt lat="46.81984" lon="6.37649">
        <ele>1084</ele>
        <time>2022-08-14T07:15:32Z</time>
      </trkpt>
      <trkpt lat="46.81978" lon="6.37637">
        <ele>1085</ele>
        <time>2022-08-14T07:15:37Z</time>
      </trkpt>
      <trkpt lat="46.8198" lon="6.37622">
        <ele>1085</ele>
        <time>2022-08-14T07:15:42Z</time>
      </trkpt>
      <trkpt lat="46.81981" lon="6.37606">
        <ele>1085</ele>
        <time>2022-08-14T07:15:45Z</time>
      </trkpt>
      <trkpt lat="46.8198" lon="6.3759">
        <ele>1085</ele>
        <time>2022-08-14T07:15:50Z</time>
      </trkpt>
      <trkpt lat="46.81978" lon="6.37576">
        <ele>1085</ele>
        <time>2022-08-14T07:15:53Z</time>
      </trkpt>
      <trkpt lat="46.81977" lon="6.37562">
        <ele>1085</ele>
        <time>2022-08-14T07:15:55Z</time>
      </trkpt>
      <trkpt lat="46.81975" lon="6.37547">
        <ele>1085</ele>
        <time>2022-08-14T07:15:57Z</time>
      </trkpt>
      <trkpt lat="46.81972" lon="6.37532">
        <ele>1081</ele>
        <time>2022-08-14T07:16:01Z</time>
      </trkpt>
      <trkpt lat="46.81968" lon="6.37518">
        <ele>1082</ele>
        <time>2022-08-14T07:16:03Z</time>
      </trkpt>
      <trkpt lat="46.81967" lon="6.37503">
        <ele>1083</ele>
        <time>2022-08-14T07:16:06Z</time>
      </trkpt>
      <trkpt lat="46.81967" lon="6.37488">
        <ele>1085</ele>
        <time>2022-08-14T07:16:09Z</time>
      </trkpt>
      <trkpt lat="46.81966" lon="6.37471">
        <ele>1086</ele>
        <time>2022-08-14T07:16:12Z</time>
      </trkpt>
      <trkpt lat="46.81963" lon="6.37458">
        <ele>1087</ele>
        <time>2022-08-14T07:16:14Z</time>
      </trkpt>
      <trkpt lat="46.81958" lon="6.37444">
        <ele>1086</ele>
        <time>2022-08-14T07:16:17Z</time>
      </trkpt>
      <trkpt lat="46.81954" lon="6.37431">
        <ele>1086</ele>
        <time>2022-08-14T07:16:19Z</time>
      </trkpt>
      <trkpt lat="46.81949" lon="6.37417">
        <ele>1086</ele>
        <time>2022-08-14T07:16:21Z</time>
      </trkpt>
      <trkpt lat="46.81942" lon="6.37403">
        <ele>1085</ele>
        <time>2022-08-14T07:16:23Z</time>
      </trkpt>
      <trkpt lat="46.81934" lon="6.3739">
        <ele>1085</ele>
        <time>2022-08-14T07:16:25Z</time>
      </trkpt>
      <trkpt lat="46.81927" lon="6.37378">
        <ele>1085</ele>
        <time>2022-08-14T07:16:27Z</time>
      </trkpt>
      <trkpt lat="46.81918" lon="6.37369">
        <ele>1084</ele>
        <time>2022-08-14T07:16:29Z</time>
      </trkpt>
      <trkpt lat="46.81907" lon="6.37362">
        <ele>1084</ele>
        <time>2022-08-14T07:16:31Z</time>
      </trkpt>
      <trkpt lat="46.81895" lon="6.37356">
        <ele>1084</ele>
        <time>2022-08-14T07:16:33Z</time>
      </trkpt>
      <trkpt lat="46.81883" lon="6.37349">
        <ele>1085</ele>
        <time>2022-08-14T07:16:35Z</time>
      </trkpt>
      <trkpt lat="46.81871" lon="6.37343">
        <ele>1085</ele>
        <time>2022-08-14T07:16:37Z</time>
      </trkpt>
      <trkpt lat="46.81859" lon="6.37337">
        <ele>1084</ele>
        <time>2022-08-14T07:16:39Z</time>
      </trkpt>
      <trkpt lat="46.81847" lon="6.37331">
        <ele>1084</ele>
        <time>2022-08-14T07:16:41Z</time>
      </trkpt>
      <trkpt lat="46.81834" lon="6.37325">
        <ele>1084</ele>
        <time>2022-08-14T07:16:43Z</time>
      </trkpt>
      <trkpt lat="46.81823" lon="6.37321">
        <ele>1084</ele>
        <time>2022-08-14T07:16:45Z</time>
      </trkpt>
      <trkpt lat="46.81811" lon="6.37318">
        <ele>1084</ele>
        <time>2022-08-14T07:16:47Z</time>
      </trkpt>
      <trkpt lat="46.81801" lon="6.37315">
        <ele>1084</ele>
        <time>2022-08-14T07:16:49Z</time>
      </trkpt>
      <trkpt lat="46.8179" lon="6.37312">
        <ele>1083</ele>
        <time>2022-08-14T07:16:51Z</time>
      </trkpt>
      <trkpt lat="46.81777" lon="6.37312">
        <ele>1084</ele>
        <time>2022-08-14T07:16:54Z</time>
      </trkpt>
      <trkpt lat="46.81766" lon="6.3731">
        <ele>1085</ele>
        <time>2022-08-14T07:16:57Z</time>
      </trkpt>
      <trkpt lat="46.81756" lon="6.37314">
        <ele>1088</ele>
        <time>2022-08-14T07:17:00Z</time>
      </trkpt>
      <trkpt lat="46.81745" lon="6.37315">
        <ele>1085</ele>
        <time>2022-08-14T07:17:03Z</time>
      </trkpt>
      <trkpt lat="46.81726" lon="6.37315">
        <ele>1088</ele>
        <time>2022-08-14T07:17:10Z</time>
      </trkpt>
      <trkpt lat="46.81705" lon="6.37308">
        <ele>1088</ele>
        <time>2022-08-14T07:17:15Z</time>
      </trkpt>
      <trkpt lat="46.81682" lon="6.37305">
        <ele>1087</ele>
        <time>2022-08-14T07:17:19Z</time>
      </trkpt>
      <trkpt lat="46.81668" lon="6.37304">
        <ele>1085</ele>
        <time>2022-08-14T07:17:21Z</time>
      </trkpt>
      <trkpt lat="46.81653" lon="6.37304">
        <ele>1085</ele>
        <time>2022-08-14T07:17:23Z</time>
      </trkpt>
      <trkpt lat="46.81639" lon="6.37306">
        <ele>1085</ele>
        <time>2022-08-14T07:17:25Z</time>
      </trkpt>
      <trkpt lat="46.81627" lon="6.37308">
        <ele>1085</ele>
        <time>2022-08-14T07:17:27Z</time>
      </trkpt>
      <trkpt lat="46.81615" lon="6.37311">
        <ele>1085</ele>
        <time>2022-08-14T07:17:29Z</time>
      </trkpt>
      <trkpt lat="46.81597" lon="6.37318">
        <ele>1084</ele>
        <time>2022-08-14T07:17:32Z</time>
      </trkpt>
      <trkpt lat="46.81578" lon="6.37325">
        <ele>1084</ele>
        <time>2022-08-14T07:17:35Z</time>
      </trkpt>
      <trkpt lat="46.81559" lon="6.3733">
        <ele>1084</ele>
        <time>2022-08-14T07:17:38Z</time>
      </trkpt>
      <trkpt lat="46.81541" lon="6.37336">
        <ele>1085</ele>
        <time>2022-08-14T07:17:41Z</time>
      </trkpt>
      <trkpt lat="46.81518" lon="6.37341">
        <ele>1085</ele>
        <time>2022-08-14T07:17:45Z</time>
      </trkpt>
      <trkpt lat="46.81497" lon="6.37344">
        <ele>1085</ele>
        <time>2022-08-14T07:17:49Z</time>
      </trkpt>
      <trkpt lat="46.81485" lon="6.37344">
        <ele>1084</ele>
        <time>2022-08-14T07:17:51Z</time>
      </trkpt>
      <trkpt lat="46.81472" lon="6.37344">
        <ele>1083</ele>
        <time>2022-08-14T07:17:53Z</time>
      </trkpt>
      <trkpt lat="46.81459" lon="6.37344">
        <ele>1083</ele>
        <time>2022-08-14T07:17:55Z</time>
      </trkpt>
      <trkpt lat="46.81446" lon="6.37344">
        <ele>1082</ele>
        <time>2022-08-14T07:17:57Z</time>
      </trkpt>
      <trkpt lat="46.81433" lon="6.37343">
        <ele>1082</ele>
        <time>2022-08-14T07:17:59Z</time>
      </trkpt>
      <trkpt lat="46.8142" lon="6.37342">
        <ele>1082</ele>
        <time>2022-08-14T07:18:01Z</time>
      </trkpt>
      <trkpt lat="46.81407" lon="6.37339">
        <ele>1082</ele>
        <time>2022-08-14T07:18:03Z</time>
      </trkpt>
      <trkpt lat="46.81394" lon="6.37336">
        <ele>1081</ele>
        <time>2022-08-14T07:18:05Z</time>
      </trkpt>
      <trkpt lat="46.8138" lon="6.37332">
        <ele>1080</ele>
        <time>2022-08-14T07:18:07Z</time>
      </trkpt>
      <trkpt lat="46.81366" lon="6.37324">
        <ele>1080</ele>
        <time>2022-08-14T07:18:09Z</time>
      </trkpt>
      <trkpt lat="46.81353" lon="6.37311">
        <ele>1079</ele>
        <time>2022-08-14T07:18:11Z</time>
      </trkpt>
      <trkpt lat="46.8134" lon="6.37298">
        <ele>1079</ele>
        <time>2022-08-14T07:18:13Z</time>
      </trkpt>
      <trkpt lat="46.81328" lon="6.37284">
        <ele>1078</ele>
        <time>2022-08-14T07:18:15Z</time>
      </trkpt>
      <trkpt lat="46.81315" lon="6.37271">
        <ele>1078</ele>
        <time>2022-08-14T07:18:17Z</time>
      </trkpt>
      <trkpt lat="46.81303" lon="6.37258">
        <ele>1078</ele>
        <time>2022-08-14T07:18:19Z</time>
      </trkpt>
      <trkpt lat="46.81293" lon="6.37246">
        <ele>1078</ele>
        <time>2022-08-14T07:18:21Z</time>
      </trkpt>
      <trkpt lat="46.81283" lon="6.37235">
        <ele>1078</ele>
        <time>2022-08-14T07:18:23Z</time>
      </trkpt>
      <trkpt lat="46.81273" lon="6.37225">
        <ele>1079</ele>
        <time>2022-08-14T07:18:25Z</time>
      </trkpt>
      <trkpt lat="46.81264" lon="6.37216">
        <ele>1079</ele>
        <time>2022-08-14T07:18:27Z</time>
      </trkpt>
      <trkpt lat="46.81256" lon="6.37207">
        <ele>1080</ele>
        <time>2022-08-14T07:18:29Z</time>
      </trkpt>
      <trkpt lat="46.81249" lon="6.37199">
        <ele>1080</ele>
        <time>2022-08-14T07:18:31Z</time>
      </trkpt>
      <trkpt lat="46.81241" lon="6.3719">
        <ele>1080</ele>
        <time>2022-08-14T07:18:33Z</time>
      </trkpt>
      <trkpt lat="46.81232" lon="6.37181">
        <ele>1080</ele>
        <time>2022-08-14T07:18:35Z</time>
      </trkpt>
      <trkpt lat="46.81223" lon="6.3717">
        <ele>1080</ele>
        <time>2022-08-14T07:18:37Z</time>
      </trkpt>
      <trkpt lat="46.81205" lon="6.37151">
        <ele>1079</ele>
        <time>2022-08-14T07:18:41Z</time>
      </trkpt>
      <trkpt lat="46.81185" lon="6.37138">
        <ele>1079</ele>
        <time>2022-08-14T07:18:45Z</time>
      </trkpt>
      <trkpt lat="46.81163" lon="6.37127">
        <ele>1079</ele>
        <time>2022-08-14T07:18:49Z</time>
      </trkpt>
      <trkpt lat="46.81145" lon="6.3712">
        <ele>1079</ele>
        <time>2022-08-14T07:18:52Z</time>
      </trkpt>
      <trkpt lat="46.81128" lon="6.37113">
        <ele>1078</ele>
        <time>2022-08-14T07:18:55Z</time>
      </trkpt>
      <trkpt lat="46.81109" lon="6.37106">
        <ele>1078</ele>
        <time>2022-08-14T07:18:58Z</time>
      </trkpt>
      <trkpt lat="46.81096" lon="6.37103">
        <ele>1077</ele>
        <time>2022-08-14T07:19:00Z</time>
      </trkpt>
      <trkpt lat="46.81082" lon="6.37099">
        <ele>1076</ele>
        <time>2022-08-14T07:19:02Z</time>
      </trkpt>
      <trkpt lat="46.81066" lon="6.37097">
        <ele>1075</ele>
        <time>2022-08-14T07:19:04Z</time>
      </trkpt>
      <trkpt lat="46.8105" lon="6.37094">
        <ele>1074</ele>
        <time>2022-08-14T07:19:06Z</time>
      </trkpt>
      <trkpt lat="46.81032" lon="6.3709">
        <ele>1073</ele>
        <time>2022-08-14T07:19:08Z</time>
      </trkpt>
      <trkpt lat="46.81023" lon="6.37087">
        <ele>1073</ele>
        <time>2022-08-14T07:19:09Z</time>
      </trkpt>
      <trkpt lat="46.81014" lon="6.37083">
        <ele>1073</ele>
        <time>2022-08-14T07:19:10Z</time>
      </trkpt>
      <trkpt lat="46.81005" lon="6.37079">
        <ele>1072</ele>
        <time>2022-08-14T07:19:11Z</time>
      </trkpt>
      <trkpt lat="46.80996" lon="6.37074">
        <ele>1072</ele>
        <time>2022-08-14T07:19:12Z</time>
      </trkpt>
      <trkpt lat="46.80987" lon="6.37068">
        <ele>1071</ele>
        <time>2022-08-14T07:19:13Z</time>
      </trkpt>
      <trkpt lat="46.80978" lon="6.37063">
        <ele>1071</ele>
        <time>2022-08-14T07:19:14Z</time>
      </trkpt>
      <trkpt lat="46.80969" lon="6.37057">
        <ele>1071</ele>
        <time>2022-08-14T07:19:15Z</time>
      </trkpt>
      <trkpt lat="46.80953" lon="6.37049">
        <ele>1071</ele>
        <time>2022-08-14T07:19:17Z</time>
      </trkpt>
      <trkpt lat="46.80938" lon="6.37043">
        <ele>1071</ele>
        <time>2022-08-14T07:19:19Z</time>
      </trkpt>
      <trkpt lat="46.80922" lon="6.37038">
        <ele>1071</ele>
        <time>2022-08-14T07:19:21Z</time>
      </trkpt>
      <trkpt lat="46.80906" lon="6.37034">
        <ele>1071</ele>
        <time>2022-08-14T07:19:23Z</time>
      </trkpt>
      <trkpt lat="46.8089" lon="6.3703">
        <ele>1072</ele>
        <time>2022-08-14T07:19:25Z</time>
      </trkpt>
      <trkpt lat="46.80874" lon="6.37024">
        <ele>1072</ele>
        <time>2022-08-14T07:19:27Z</time>
      </trkpt>
      <trkpt lat="46.80851" lon="6.37015">
        <ele>1071</ele>
        <time>2022-08-14T07:19:30Z</time>
      </trkpt>
      <trkpt lat="46.8083" lon="6.37008">
        <ele>1071</ele>
        <time>2022-08-14T07:19:33Z</time>
      </trkpt>
      <trkpt lat="46.80811" lon="6.37">
        <ele>1072</ele>
        <time>2022-08-14T07:19:36Z</time>
      </trkpt>
      <trkpt lat="46.80792" lon="6.36988">
        <ele>1072</ele>
        <time>2022-08-14T07:19:39Z</time>
      </trkpt>
      <trkpt lat="46.80774" lon="6.36974">
        <ele>1072</ele>
        <time>2022-08-14T07:19:42Z</time>
      </trkpt>
      <trkpt lat="46.80757" lon="6.36963">
        <ele>1073</ele>
        <time>2022-08-14T07:19:45Z</time>
      </trkpt>
      <trkpt lat="46.80734" lon="6.36958">
        <ele>1073</ele>
        <time>2022-08-14T07:19:49Z</time>
      </trkpt>
      <trkpt lat="46.80711" lon="6.36959">
        <ele>1073</ele>
        <time>2022-08-14T07:19:53Z</time>
      </trkpt>
      <trkpt lat="46.80689" lon="6.36964">
        <ele>1073</ele>
        <time>2022-08-14T07:19:57Z</time>
      </trkpt>
      <trkpt lat="46.80669" lon="6.3697">
        <ele>1074</ele>
        <time>2022-08-14T07:20:01Z</time>
      </trkpt>
      <trkpt lat="46.80647" lon="6.36971">
        <ele>1074</ele>
        <time>2022-08-14T07:20:05Z</time>
      </trkpt>
      <trkpt lat="46.80635" lon="6.3697">
        <ele>1074</ele>
        <time>2022-08-14T07:20:07Z</time>
      </trkpt>
      <trkpt lat="46.80623" lon="6.36971">
        <ele>1074</ele>
        <time>2022-08-14T07:20:09Z</time>
      </trkpt>
      <trkpt lat="46.80612" lon="6.36974">
        <ele>1074</ele>
        <time>2022-08-14T07:20:11Z</time>
      </trkpt>
      <trkpt lat="46.80602" lon="6.36981">
        <ele>1075</ele>
        <time>2022-08-14T07:20:13Z</time>
      </trkpt>
      <trkpt lat="46.80592" lon="6.3699">
        <ele>1075</ele>
        <time>2022-08-14T07:20:15Z</time>
      </trkpt>
      <trkpt lat="46.80583" lon="6.36999">
        <ele>1074</ele>
        <time>2022-08-14T07:20:17Z</time>
      </trkpt>
      <trkpt lat="46.80573" lon="6.37008">
        <ele>1075</ele>
        <time>2022-08-14T07:20:19Z</time>
      </trkpt>
      <trkpt lat="46.80563" lon="6.37017">
        <ele>1075</ele>
        <time>2022-08-14T07:20:21Z</time>
      </trkpt>
      <trkpt lat="46.80554" lon="6.37026">
        <ele>1074</ele>
        <time>2022-08-14T07:20:23Z</time>
      </trkpt>
      <trkpt lat="46.80543" lon="6.37033">
        <ele>1074</ele>
        <time>2022-08-14T07:20:25Z</time>
      </trkpt>
      <trkpt lat="46.80532" lon="6.3704">
        <ele>1073</ele>
        <time>2022-08-14T07:20:27Z</time>
      </trkpt>
      <trkpt lat="46.80516" lon="6.37045">
        <ele>1072</ele>
        <time>2022-08-14T07:20:29Z</time>
      </trkpt>
      <trkpt lat="46.80499" lon="6.37052">
        <ele>1071</ele>
        <time>2022-08-14T07:20:31Z</time>
      </trkpt>
      <trkpt lat="46.8049" lon="6.37055">
        <ele>1070</ele>
        <time>2022-08-14T07:20:32Z</time>
      </trkpt>
      <trkpt lat="46.80481" lon="6.37059">
        <ele>1069</ele>
        <time>2022-08-14T07:20:33Z</time>
      </trkpt>
      <trkpt lat="46.80471" lon="6.37063">
        <ele>1068</ele>
        <time>2022-08-14T07:20:34Z</time>
      </trkpt>
      <trkpt lat="46.80461" lon="6.37069">
        <ele>1066</ele>
        <time>2022-08-14T07:20:35Z</time>
      </trkpt>
      <trkpt lat="46.80449" lon="6.37074">
        <ele>1065</ele>
        <time>2022-08-14T07:20:36Z</time>
      </trkpt>
      <trkpt lat="46.80438" lon="6.37079">
        <ele>1064</ele>
        <time>2022-08-14T07:20:37Z</time>
      </trkpt>
      <trkpt lat="46.80426" lon="6.3708">
        <ele>1063</ele>
        <time>2022-08-14T07:20:38Z</time>
      </trkpt>
      <trkpt lat="46.80415" lon="6.3708">
        <ele>1062</ele>
        <time>2022-08-14T07:20:39Z</time>
      </trkpt>
      <trkpt lat="46.80404" lon="6.37079">
        <ele>1061</ele>
        <time>2022-08-14T07:20:40Z</time>
      </trkpt>
      <trkpt lat="46.80392" lon="6.37078">
        <ele>1060</ele>
        <time>2022-08-14T07:20:41Z</time>
      </trkpt>
      <trkpt lat="46.80381" lon="6.37077">
        <ele>1058</ele>
        <time>2022-08-14T07:20:42Z</time>
      </trkpt>
      <trkpt lat="46.80369" lon="6.37075">
        <ele>1057</ele>
        <time>2022-08-14T07:20:43Z</time>
      </trkpt>
      <trkpt lat="46.80357" lon="6.37072">
        <ele>1056</ele>
        <time>2022-08-14T07:20:44Z</time>
      </trkpt>
      <trkpt lat="46.80346" lon="6.37066">
        <ele>1056</ele>
        <time>2022-08-14T07:20:45Z</time>
      </trkpt>
      <trkpt lat="46.80327" lon="6.37048">
        <ele>1054</ele>
        <time>2022-08-14T07:20:47Z</time>
      </trkpt>
      <trkpt lat="46.80306" lon="6.37033">
        <ele>1053</ele>
        <time>2022-08-14T07:20:49Z</time>
      </trkpt>
      <trkpt lat="46.80284" lon="6.37029">
        <ele>1052</ele>
        <time>2022-08-14T07:20:51Z</time>
      </trkpt>
      <trkpt lat="46.80263" lon="6.37033">
        <ele>1051</ele>
        <time>2022-08-14T07:20:53Z</time>
      </trkpt>
      <trkpt lat="46.80241" lon="6.37035">
        <ele>1050</ele>
        <time>2022-08-14T07:20:55Z</time>
      </trkpt>
      <trkpt lat="46.80219" lon="6.37035">
        <ele>1049</ele>
        <time>2022-08-14T07:20:57Z</time>
      </trkpt>
      <trkpt lat="46.80199" lon="6.37033">
        <ele>1049</ele>
        <time>2022-08-14T07:20:59Z</time>
      </trkpt>
      <trkpt lat="46.80179" lon="6.37029">
        <ele>1048</ele>
        <time>2022-08-14T07:21:01Z</time>
      </trkpt>
      <trkpt lat="46.8016" lon="6.37023">
        <ele>1048</ele>
        <time>2022-08-14T07:21:03Z</time>
      </trkpt>
      <trkpt lat="46.8014" lon="6.37016">
        <ele>1047</ele>
        <time>2022-08-14T07:21:05Z</time>
      </trkpt>
      <trkpt lat="46.8012" lon="6.37009">
        <ele>1047</ele>
        <time>2022-08-14T07:21:07Z</time>
      </trkpt>
      <trkpt lat="46.80101" lon="6.37001">
        <ele>1047</ele>
        <time>2022-08-14T07:21:09Z</time>
      </trkpt>
      <trkpt lat="46.80082" lon="6.36994">
        <ele>1047</ele>
        <time>2022-08-14T07:21:11Z</time>
      </trkpt>
      <trkpt lat="46.80064" lon="6.36986">
        <ele>1047</ele>
        <time>2022-08-14T07:21:13Z</time>
      </trkpt>
      <trkpt lat="46.8004" lon="6.36976">
        <ele>1047</ele>
        <time>2022-08-14T07:21:16Z</time>
      </trkpt>
      <trkpt lat="46.8002" lon="6.36968">
        <ele>1048</ele>
        <time>2022-08-14T07:21:19Z</time>
      </trkpt>
      <trkpt lat="46.80002" lon="6.36962">
        <ele>1048</ele>
        <time>2022-08-14T07:21:23Z</time>
      </trkpt>
      <trkpt lat="46.79983" lon="6.36957">
        <ele>1048</ele>
        <time>2022-08-14T07:21:26Z</time>
      </trkpt>
      <trkpt lat="46.79962" lon="6.36954">
        <ele>1048</ele>
        <time>2022-08-14T07:21:29Z</time>
      </trkpt>
      <trkpt lat="46.79941" lon="6.36963">
        <ele>1046</ele>
        <time>2022-08-14T07:21:32Z</time>
      </trkpt>
      <trkpt lat="46.79923" lon="6.3699">
        <ele>1045</ele>
        <time>2022-08-14T07:21:35Z</time>
      </trkpt>
      <trkpt lat="46.79908" lon="6.3702">
        <ele>1044</ele>
        <time>2022-08-14T07:21:38Z</time>
      </trkpt>
      <trkpt lat="46.79897" lon="6.37037">
        <ele>1044</ele>
        <time>2022-08-14T07:21:40Z</time>
      </trkpt>
      <trkpt lat="46.79886" lon="6.37053">
        <ele>1044</ele>
        <time>2022-08-14T07:21:42Z</time>
      </trkpt>
      <trkpt lat="46.79874" lon="6.37069">
        <ele>1044</ele>
        <time>2022-08-14T07:21:44Z</time>
      </trkpt>
      <trkpt lat="46.79854" lon="6.37086">
        <ele>1043</ele>
        <time>2022-08-14T07:21:47Z</time>
      </trkpt>
      <trkpt lat="46.79832" lon="6.37103">
        <ele>1043</ele>
        <time>2022-08-14T07:21:50Z</time>
      </trkpt>
      <trkpt lat="46.79811" lon="6.37119">
        <ele>1043</ele>
        <time>2022-08-14T07:21:53Z</time>
      </trkpt>
      <trkpt lat="46.79793" lon="6.37139">
        <ele>1042</ele>
        <time>2022-08-14T07:21:56Z</time>
      </trkpt>
      <trkpt lat="46.79772" lon="6.37156">
        <ele>1042</ele>
        <time>2022-08-14T07:21:59Z</time>
      </trkpt>
      <trkpt lat="46.79748" lon="6.37167">
        <ele>1041</ele>
        <time>2022-08-14T07:22:02Z</time>
      </trkpt>
      <trkpt lat="46.79725" lon="6.37177">
        <ele>1041</ele>
        <time>2022-08-14T07:22:05Z</time>
      </trkpt>
      <trkpt lat="46.79702" lon="6.37187">
        <ele>1041</ele>
        <time>2022-08-14T07:22:08Z</time>
      </trkpt>
      <trkpt lat="46.79683" lon="6.37199">
        <ele>1041</ele>
        <time>2022-08-14T07:22:11Z</time>
      </trkpt>
      <trkpt lat="46.79681" lon="6.37227">
        <ele>1041</ele>
        <time>2022-08-14T07:22:14Z</time>
      </trkpt>
      <trkpt lat="46.79685" lon="6.37255">
        <ele>1041</ele>
        <time>2022-08-14T07:22:17Z</time>
      </trkpt>
      <trkpt lat="46.79685" lon="6.37282">
        <ele>1041</ele>
        <time>2022-08-14T07:22:20Z</time>
      </trkpt>
      <trkpt lat="46.79674" lon="6.37306">
        <ele>1043</ele>
        <time>2022-08-14T07:22:24Z</time>
      </trkpt>
      <trkpt lat="46.79657" lon="6.37314">
        <ele>1044</ele>
        <time>2022-08-14T07:22:28Z</time>
      </trkpt>
      <trkpt lat="46.79639" lon="6.37322">
        <ele>1044</ele>
        <time>2022-08-14T07:22:32Z</time>
      </trkpt>
      <trkpt lat="46.79624" lon="6.37336">
        <ele>1045</ele>
        <time>2022-08-14T07:22:36Z</time>
      </trkpt>
      <trkpt lat="46.7961" lon="6.37354">
        <ele>1046</ele>
        <time>2022-08-14T07:22:41Z</time>
      </trkpt>
      <trkpt lat="46.79605" lon="6.37365">
        <ele>1047</ele>
        <time>2022-08-14T07:22:45Z</time>
      </trkpt>
      <trkpt lat="46.79591" lon="6.37385">
        <ele>1047</ele>
        <time>2022-08-14T07:22:52Z</time>
      </trkpt>
      <trkpt lat="46.79591" lon="6.37416">
        <ele>1048</ele>
        <time>2022-08-14T07:23:01Z</time>
      </trkpt>
      <trkpt lat="46.79591" lon="6.3743">
        <ele>1048</ele>
        <time>2022-08-14T07:23:04Z</time>
      </trkpt>
      <trkpt lat="46.79591" lon="6.37443">
        <ele>1050</ele>
        <time>2022-08-14T07:23:08Z</time>
      </trkpt>
      <trkpt lat="46.79592" lon="6.37457">
        <ele>1052</ele>
        <time>2022-08-14T07:23:12Z</time>
      </trkpt>
      <trkpt lat="46.79593" lon="6.37473">
        <ele>1054</ele>
        <time>2022-08-14T07:23:19Z</time>
      </trkpt>
      <trkpt lat="46.79594" lon="6.37488">
        <ele>1056</ele>
        <time>2022-08-14T07:23:25Z</time>
      </trkpt>
      <trkpt lat="46.79595" lon="6.37502">
        <ele>1058</ele>
        <time>2022-08-14T07:23:31Z</time>
      </trkpt>
      <trkpt lat="46.79594" lon="6.37517">
        <ele>1060</ele>
        <time>2022-08-14T07:23:38Z</time>
      </trkpt>
      <trkpt lat="46.79594" lon="6.37531">
        <ele>1063</ele>
        <time>2022-08-14T07:23:45Z</time>
      </trkpt>
      <trkpt lat="46.79595" lon="6.37545">
        <ele>1065</ele>
        <time>2022-08-14T07:23:50Z</time>
      </trkpt>
      <trkpt lat="46.79592" lon="6.37559">
        <ele>1067</ele>
        <time>2022-08-14T07:23:58Z</time>
      </trkpt>
      <trkpt lat="46.79585" lon="6.37568">
        <ele>1068</ele>
        <time>2022-08-14T07:24:05Z</time>
      </trkpt>
      <trkpt lat="46.79575" lon="6.37575">
        <ele>1070</ele>
        <time>2022-08-14T07:24:10Z</time>
      </trkpt>
      <trkpt lat="46.79565" lon="6.37579">
        <ele>1069</ele>
        <time>2022-08-14T07:24:13Z</time>
      </trkpt>
      <trkpt lat="46.79556" lon="6.37582">
        <ele>1071</ele>
        <time>2022-08-14T07:24:17Z</time>
      </trkpt>
      <trkpt lat="46.79547" lon="6.37584">
        <ele>1071</ele>
        <time>2022-08-14T07:24:21Z</time>
      </trkpt>
      <trkpt lat="46.79538" lon="6.37587">
        <ele>1070</ele>
        <time>2022-08-14T07:24:26Z</time>
      </trkpt>
      <trkpt lat="46.79527" lon="6.37587">
        <ele>1070</ele>
        <time>2022-08-14T07:24:30Z</time>
      </trkpt>
      <trkpt lat="46.79507" lon="6.37586">
        <ele>1069</ele>
        <time>2022-08-14T07:24:34Z</time>
      </trkpt>
      <trkpt lat="46.79496" lon="6.37587">
        <ele>1068</ele>
        <time>2022-08-14T07:24:37Z</time>
      </trkpt>
      <trkpt lat="46.79485" lon="6.37585">
        <ele>1067</ele>
        <time>2022-08-14T07:24:38Z</time>
      </trkpt>
      <trkpt lat="46.79461" lon="6.3758">
        <ele>1068</ele>
        <time>2022-08-14T07:24:43Z</time>
      </trkpt>
      <trkpt lat="46.79449" lon="6.37575">
        <ele>1068</ele>
        <time>2022-08-14T07:24:45Z</time>
      </trkpt>
      <trkpt lat="46.79436" lon="6.37572">
        <ele>1065</ele>
        <time>2022-08-14T07:24:47Z</time>
      </trkpt>
      <trkpt lat="46.79425" lon="6.37572">
        <ele>1065</ele>
        <time>2022-08-14T07:24:49Z</time>
      </trkpt>
      <trkpt lat="46.79413" lon="6.37571">
        <ele>1065</ele>
        <time>2022-08-14T07:24:51Z</time>
      </trkpt>
      <trkpt lat="46.79401" lon="6.37567">
        <ele>1065</ele>
        <time>2022-08-14T07:24:53Z</time>
      </trkpt>
      <trkpt lat="46.79392" lon="6.3757">
        <ele>1065</ele>
        <time>2022-08-14T07:24:55Z</time>
      </trkpt>
      <trkpt lat="46.79383" lon="6.37575">
        <ele>1067</ele>
        <time>2022-08-14T07:24:58Z</time>
      </trkpt>
      <trkpt lat="46.79373" lon="6.37575">
        <ele>1067</ele>
        <time>2022-08-14T07:25:02Z</time>
      </trkpt>
      <trkpt lat="46.79363" lon="6.37577">
        <ele>1068</ele>
        <time>2022-08-14T07:25:05Z</time>
      </trkpt>
      <trkpt lat="46.79354" lon="6.37578">
        <ele>1070</ele>
        <time>2022-08-14T07:25:09Z</time>
      </trkpt>
      <trkpt lat="46.79345" lon="6.37582">
        <ele>1071</ele>
        <time>2022-08-14T07:25:12Z</time>
      </trkpt>
      <trkpt lat="46.79335" lon="6.37585">
        <ele>1072</ele>
        <time>2022-08-14T07:25:16Z</time>
      </trkpt>
      <trkpt lat="46.79322" lon="6.37582">
        <ele>1073</ele>
        <time>2022-08-14T07:25:18Z</time>
      </trkpt>
      <trkpt lat="46.79312" lon="6.37578">
        <ele>1072</ele>
        <time>2022-08-14T07:25:20Z</time>
      </trkpt>
      <trkpt lat="46.793" lon="6.37574">
        <ele>1072</ele>
        <time>2022-08-14T07:25:22Z</time>
      </trkpt>
      <trkpt lat="46.79287" lon="6.37569">
        <ele>1070</ele>
        <time>2022-08-14T07:25:24Z</time>
      </trkpt>
      <trkpt lat="46.79271" lon="6.37563">
        <ele>1069</ele>
        <time>2022-08-14T07:25:26Z</time>
      </trkpt>
      <trkpt lat="46.79255" lon="6.37557">
        <ele>1068</ele>
        <time>2022-08-14T07:25:28Z</time>
      </trkpt>
      <trkpt lat="46.79237" lon="6.3755">
        <ele>1066</ele>
        <time>2022-08-14T07:25:30Z</time>
      </trkpt>
      <trkpt lat="46.79228" lon="6.37546">
        <ele>1066</ele>
        <time>2022-08-14T07:25:31Z</time>
      </trkpt>
      <trkpt lat="46.79219" lon="6.37543">
        <ele>1065</ele>
        <time>2022-08-14T07:25:32Z</time>
      </trkpt>
      <trkpt lat="46.7921" lon="6.37539">
        <ele>1064</ele>
        <time>2022-08-14T07:25:33Z</time>
      </trkpt>
      <trkpt lat="46.79201" lon="6.37537">
        <ele>1063</ele>
        <time>2022-08-14T07:25:34Z</time>
      </trkpt>
      <trkpt lat="46.79191" lon="6.37535">
        <ele>1063</ele>
        <time>2022-08-14T07:25:35Z</time>
      </trkpt>
      <trkpt lat="46.79181" lon="6.37533">
        <ele>1062</ele>
        <time>2022-08-14T07:25:36Z</time>
      </trkpt>
      <trkpt lat="46.79172" lon="6.37531">
        <ele>1062</ele>
        <time>2022-08-14T07:25:37Z</time>
      </trkpt>
      <trkpt lat="46.79161" lon="6.37527">
        <ele>1060</ele>
        <time>2022-08-14T07:25:38Z</time>
      </trkpt>
      <trkpt lat="46.79151" lon="6.37524">
        <ele>1059</ele>
        <time>2022-08-14T07:25:39Z</time>
      </trkpt>
      <trkpt lat="46.79141" lon="6.3752">
        <ele>1058</ele>
        <time>2022-08-14T07:25:40Z</time>
      </trkpt>
      <trkpt lat="46.79131" lon="6.37515">
        <ele>1058</ele>
        <time>2022-08-14T07:25:41Z</time>
      </trkpt>
      <trkpt lat="46.79115" lon="6.37509">
        <ele>1057</ele>
        <time>2022-08-14T07:25:43Z</time>
      </trkpt>
      <trkpt lat="46.79101" lon="6.37509">
        <ele>1057</ele>
        <time>2022-08-14T07:25:45Z</time>
      </trkpt>
      <trkpt lat="46.79089" lon="6.37514">
        <ele>1058</ele>
        <time>2022-08-14T07:25:47Z</time>
      </trkpt>
      <trkpt lat="46.79078" lon="6.37518">
        <ele>1060</ele>
        <time>2022-08-14T07:25:49Z</time>
      </trkpt>
      <trkpt lat="46.79059" lon="6.3752">
        <ele>1062</ele>
        <time>2022-08-14T07:25:54Z</time>
      </trkpt>
      <trkpt lat="46.79041" lon="6.37524">
        <ele>1064</ele>
        <time>2022-08-14T07:26:01Z</time>
      </trkpt>
      <trkpt lat="46.7903" lon="6.37525">
        <ele>1065</ele>
        <time>2022-08-14T07:26:06Z</time>
      </trkpt>
      <trkpt lat="46.79019" lon="6.37526">
        <ele>1068</ele>
        <time>2022-08-14T07:26:11Z</time>
      </trkpt>
      <trkpt lat="46.79008" lon="6.37529">
        <ele>1070</ele>
        <time>2022-08-14T07:26:16Z</time>
      </trkpt>
      <trkpt lat="46.78998" lon="6.37533">
        <ele>1071</ele>
        <time>2022-08-14T07:26:20Z</time>
      </trkpt>
      <trkpt lat="46.78987" lon="6.37536">
        <ele>1072</ele>
        <time>2022-08-14T07:26:24Z</time>
      </trkpt>
      <trkpt lat="46.78978" lon="6.3754">
        <ele>1072</ele>
        <time>2022-08-14T07:26:28Z</time>
      </trkpt>
      <trkpt lat="46.78968" lon="6.37545">
        <ele>1073</ele>
        <time>2022-08-14T07:26:32Z</time>
      </trkpt>
      <trkpt lat="46.78959" lon="6.37553">
        <ele>1074</ele>
        <time>2022-08-14T07:26:35Z</time>
      </trkpt>
      <trkpt lat="46.7895" lon="6.3756">
        <ele>1075</ele>
        <time>2022-08-14T07:26:38Z</time>
      </trkpt>
      <trkpt lat="46.7894" lon="6.3756">
        <ele>1074</ele>
        <time>2022-08-14T07:26:42Z</time>
      </trkpt>
      <trkpt lat="46.78928" lon="6.37561">
        <ele>1074</ele>
        <time>2022-08-14T07:26:44Z</time>
      </trkpt>
      <trkpt lat="46.78917" lon="6.37563">
        <ele>1074</ele>
        <time>2022-08-14T07:26:47Z</time>
      </trkpt>
      <trkpt lat="46.78907" lon="6.37564">
        <ele>1073</ele>
        <time>2022-08-14T07:26:49Z</time>
      </trkpt>
      <trkpt lat="46.78896" lon="6.37562">
        <ele>1071</ele>
        <time>2022-08-14T07:26:51Z</time>
      </trkpt>
      <trkpt lat="46.78882" lon="6.37561">
        <ele>1070</ele>
        <time>2022-08-14T07:26:53Z</time>
      </trkpt>
      <trkpt lat="46.78869" lon="6.37562">
        <ele>1069</ele>
        <time>2022-08-14T07:26:55Z</time>
      </trkpt>
      <trkpt lat="46.78855" lon="6.37565">
        <ele>1069</ele>
        <time>2022-08-14T07:26:57Z</time>
      </trkpt>
      <trkpt lat="46.78842" lon="6.37569">
        <ele>1068</ele>
        <time>2022-08-14T07:26:59Z</time>
      </trkpt>
      <trkpt lat="46.78831" lon="6.37573">
        <ele>1068</ele>
        <time>2022-08-14T07:27:01Z</time>
      </trkpt>
      <trkpt lat="46.78822" lon="6.37577">
        <ele>1068</ele>
        <time>2022-08-14T07:27:03Z</time>
      </trkpt>
      <trkpt lat="46.78812" lon="6.3758">
        <ele>1069</ele>
        <time>2022-08-14T07:27:06Z</time>
      </trkpt>
      <trkpt lat="46.78802" lon="6.37579">
        <ele>1070</ele>
        <time>2022-08-14T07:27:09Z</time>
      </trkpt>
      <trkpt lat="46.78786" lon="6.37573">
        <ele>1070</ele>
        <time>2022-08-14T07:27:13Z</time>
      </trkpt>
      <trkpt lat="46.78774" lon="6.37564">
        <ele>1064</ele>
        <time>2022-08-14T07:27:15Z</time>
      </trkpt>
      <trkpt lat="46.78754" lon="6.37563">
        <ele>1060</ele>
        <time>2022-08-14T07:27:18Z</time>
      </trkpt>
      <trkpt lat="46.78744" lon="6.37569">
        <ele>1065</ele>
        <time>2022-08-14T07:27:20Z</time>
      </trkpt>
      <trkpt lat="46.78733" lon="6.37573">
        <ele>1065</ele>
        <time>2022-08-14T07:27:23Z</time>
      </trkpt>
      <trkpt lat="46.78723" lon="6.37579">
        <ele>1065</ele>
        <time>2022-08-14T07:27:25Z</time>
      </trkpt>
      <trkpt lat="46.78712" lon="6.37582">
        <ele>1065</ele>
        <time>2022-08-14T07:27:27Z</time>
      </trkpt>
      <trkpt lat="46.787" lon="6.37587">
        <ele>1066</ele>
        <time>2022-08-14T07:27:31Z</time>
      </trkpt>
      <trkpt lat="46.78691" lon="6.37591">
        <ele>1065</ele>
        <time>2022-08-14T07:27:33Z</time>
      </trkpt>
      <trkpt lat="46.7868" lon="6.37594">
        <ele>1066</ele>
        <time>2022-08-14T07:27:37Z</time>
      </trkpt>
      <trkpt lat="46.78672" lon="6.37601">
        <ele>1068</ele>
        <time>2022-08-14T07:27:42Z</time>
      </trkpt>
      <trkpt lat="46.78663" lon="6.3761">
        <ele>1070</ele>
        <time>2022-08-14T07:27:47Z</time>
      </trkpt>
      <trkpt lat="46.78655" lon="6.37618">
        <ele>1073</ele>
        <time>2022-08-14T07:27:52Z</time>
      </trkpt>
      <trkpt lat="46.78647" lon="6.37625">
        <ele>1074</ele>
        <time>2022-08-14T07:27:58Z</time>
      </trkpt>
      <trkpt lat="46.78638" lon="6.3763">
        <ele>1076</ele>
        <time>2022-08-14T07:28:03Z</time>
      </trkpt>
      <trkpt lat="46.78629" lon="6.37635">
        <ele>1079</ele>
        <time>2022-08-14T07:28:09Z</time>
      </trkpt>
      <trkpt lat="46.78619" lon="6.37639">
        <ele>1081</ele>
        <time>2022-08-14T07:28:15Z</time>
      </trkpt>
      <trkpt lat="46.7861" lon="6.37644">
        <ele>1078</ele>
        <time>2022-08-14T07:28:20Z</time>
      </trkpt>
      <trkpt lat="46.78601" lon="6.37646">
        <ele>1079</ele>
        <time>2022-08-14T07:28:23Z</time>
      </trkpt>
      <trkpt lat="46.78591" lon="6.3765">
        <ele>1081</ele>
        <time>2022-08-14T07:28:27Z</time>
      </trkpt>
      <trkpt lat="46.7858" lon="6.3765">
        <ele>1081</ele>
        <time>2022-08-14T07:28:33Z</time>
      </trkpt>
      <trkpt lat="46.78568" lon="6.37645">
        <ele>1081</ele>
        <time>2022-08-14T07:28:37Z</time>
      </trkpt>
      <trkpt lat="46.78555" lon="6.3764">
        <ele>1078</ele>
        <time>2022-08-14T07:28:40Z</time>
      </trkpt>
      <trkpt lat="46.78541" lon="6.3764">
        <ele>1078</ele>
        <time>2022-08-14T07:28:43Z</time>
      </trkpt>
      <trkpt lat="46.7853" lon="6.37641">
        <ele>1077</ele>
        <time>2022-08-14T07:28:45Z</time>
      </trkpt>
      <trkpt lat="46.78518" lon="6.37639">
        <ele>1077</ele>
        <time>2022-08-14T07:28:47Z</time>
      </trkpt>
      <trkpt lat="46.78509" lon="6.37638">
        <ele>1077</ele>
        <time>2022-08-14T07:28:49Z</time>
      </trkpt>
      <trkpt lat="46.78498" lon="6.37638">
        <ele>1077</ele>
        <time>2022-08-14T07:28:52Z</time>
      </trkpt>
      <trkpt lat="46.78488" lon="6.37638">
        <ele>1076</ele>
        <time>2022-08-14T07:28:54Z</time>
      </trkpt>
      <trkpt lat="46.78477" lon="6.37638">
        <ele>1076</ele>
        <time>2022-08-14T07:28:56Z</time>
      </trkpt>
      <trkpt lat="46.78467" lon="6.37638">
        <ele>1076</ele>
        <time>2022-08-14T07:28:58Z</time>
      </trkpt>
      <trkpt lat="46.78456" lon="6.37638">
        <ele>1076</ele>
        <time>2022-08-14T07:29:00Z</time>
      </trkpt>
      <trkpt lat="46.78446" lon="6.37637">
        <ele>1076</ele>
        <time>2022-08-14T07:29:02Z</time>
      </trkpt>
      <trkpt lat="46.78436" lon="6.37636">
        <ele>1075</ele>
        <time>2022-08-14T07:29:04Z</time>
      </trkpt>
      <trkpt lat="46.78426" lon="6.37633">
        <ele>1073</ele>
        <time>2022-08-14T07:29:06Z</time>
      </trkpt>
      <trkpt lat="46.78412" lon="6.37628">
        <ele>1074</ele>
        <time>2022-08-14T07:29:08Z</time>
      </trkpt>
      <trkpt lat="46.784" lon="6.37624">
        <ele>1073</ele>
        <time>2022-08-14T07:29:10Z</time>
      </trkpt>
      <trkpt lat="46.7839" lon="6.37621">
        <ele>1072</ele>
        <time>2022-08-14T07:29:12Z</time>
      </trkpt>
      <trkpt lat="46.78378" lon="6.37618">
        <ele>1070</ele>
        <time>2022-08-14T07:29:14Z</time>
      </trkpt>
      <trkpt lat="46.78365" lon="6.37613">
        <ele>1071</ele>
        <time>2022-08-14T07:29:16Z</time>
      </trkpt>
      <trkpt lat="46.78352" lon="6.37606">
        <ele>1071</ele>
        <time>2022-08-14T07:29:18Z</time>
      </trkpt>
      <trkpt lat="46.78334" lon="6.37601">
        <ele>1070</ele>
        <time>2022-08-14T07:29:21Z</time>
      </trkpt>
      <trkpt lat="46.78316" lon="6.376">
        <ele>1069</ele>
        <time>2022-08-14T07:29:24Z</time>
      </trkpt>
      <trkpt lat="46.78297" lon="6.37601">
        <ele>1069</ele>
        <time>2022-08-14T07:29:27Z</time>
      </trkpt>
      <trkpt lat="46.78286" lon="6.37601">
        <ele>1068</ele>
        <time>2022-08-14T07:29:29Z</time>
      </trkpt>
      <trkpt lat="46.78274" lon="6.37599">
        <ele>1067</ele>
        <time>2022-08-14T07:29:31Z</time>
      </trkpt>
      <trkpt lat="46.78261" lon="6.37595">
        <ele>1067</ele>
        <time>2022-08-14T07:29:33Z</time>
      </trkpt>
      <trkpt lat="46.78248" lon="6.37593">
        <ele>1067</ele>
        <time>2022-08-14T07:29:35Z</time>
      </trkpt>
      <trkpt lat="46.78234" lon="6.37589">
        <ele>1067</ele>
        <time>2022-08-14T07:29:37Z</time>
      </trkpt>
      <trkpt lat="46.78219" lon="6.37585">
        <ele>1066</ele>
        <time>2022-08-14T07:29:39Z</time>
      </trkpt>
      <trkpt lat="46.78203" lon="6.3758">
        <ele>1065</ele>
        <time>2022-08-14T07:29:41Z</time>
      </trkpt>
      <trkpt lat="46.78187" lon="6.37574">
        <ele>1065</ele>
        <time>2022-08-14T07:29:43Z</time>
      </trkpt>
      <trkpt lat="46.7817" lon="6.37569">
        <ele>1064</ele>
        <time>2022-08-14T07:29:45Z</time>
      </trkpt>
      <trkpt lat="46.78154" lon="6.37565">
        <ele>1062</ele>
        <time>2022-08-14T07:29:47Z</time>
      </trkpt>
      <trkpt lat="46.78138" lon="6.37563">
        <ele>1063</ele>
        <time>2022-08-14T07:29:49Z</time>
      </trkpt>
      <trkpt lat="46.7812" lon="6.37561">
        <ele>1061</ele>
        <time>2022-08-14T07:29:51Z</time>
      </trkpt>
      <trkpt lat="46.78111" lon="6.37562">
        <ele>1061</ele>
        <time>2022-08-14T07:29:52Z</time>
      </trkpt>
      <trkpt lat="46.78102" lon="6.37562">
        <ele>1060</ele>
        <time>2022-08-14T07:29:53Z</time>
      </trkpt>
      <trkpt lat="46.78085" lon="6.37563">
        <ele>1059</ele>
        <time>2022-08-14T07:29:55Z</time>
      </trkpt>
      <trkpt lat="46.78068" lon="6.37566">
        <ele>1057</ele>
        <time>2022-08-14T07:29:57Z</time>
      </trkpt>
      <trkpt lat="46.78059" lon="6.37567">
        <ele>1057</ele>
        <time>2022-08-14T07:29:58Z</time>
      </trkpt>
      <trkpt lat="46.78043" lon="6.37569">
        <ele>1057</ele>
        <time>2022-08-14T07:30:00Z</time>
      </trkpt>
      <trkpt lat="46.78029" lon="6.37577">
        <ele>1056</ele>
        <time>2022-08-14T07:30:02Z</time>
      </trkpt>
      <trkpt lat="46.78019" lon="6.37592">
        <ele>1056</ele>
        <time>2022-08-14T07:30:04Z</time>
      </trkpt>
      <trkpt lat="46.78013" lon="6.37606">
        <ele>1056</ele>
        <time>2022-08-14T07:30:06Z</time>
      </trkpt>
      <trkpt lat="46.78003" lon="6.3761">
        <ele>1056</ele>
        <time>2022-08-14T07:30:08Z</time>
      </trkpt>
      <trkpt lat="46.77991" lon="6.37604">
        <ele>1054</ele>
        <time>2022-08-14T07:30:10Z</time>
      </trkpt>
      <trkpt lat="46.77975" lon="6.37603">
        <ele>1052</ele>
        <time>2022-08-14T07:30:12Z</time>
      </trkpt>
      <trkpt lat="46.77958" lon="6.37604">
        <ele>1052</ele>
        <time>2022-08-14T07:30:14Z</time>
      </trkpt>
      <trkpt lat="46.77942" lon="6.376">
        <ele>1052</ele>
        <time>2022-08-14T07:30:16Z</time>
      </trkpt>
      <trkpt lat="46.77927" lon="6.37595">
        <ele>1052</ele>
        <time>2022-08-14T07:30:18Z</time>
      </trkpt>
      <trkpt lat="46.77911" lon="6.37593">
        <ele>1052</ele>
        <time>2022-08-14T07:30:20Z</time>
      </trkpt>
      <trkpt lat="46.77896" lon="6.37599">
        <ele>1051</ele>
        <time>2022-08-14T07:30:22Z</time>
      </trkpt>
      <trkpt lat="46.77879" lon="6.3761">
        <ele>1049</ele>
        <time>2022-08-14T07:30:24Z</time>
      </trkpt>
      <trkpt lat="46.77871" lon="6.37615">
        <ele>1049</ele>
        <time>2022-08-14T07:30:25Z</time>
      </trkpt>
      <trkpt lat="46.77863" lon="6.37622">
        <ele>1048</ele>
        <time>2022-08-14T07:30:26Z</time>
      </trkpt>
      <trkpt lat="46.77854" lon="6.3763">
        <ele>1047</ele>
        <time>2022-08-14T07:30:27Z</time>
      </trkpt>
      <trkpt lat="46.77846" lon="6.37636">
        <ele>1047</ele>
        <time>2022-08-14T07:30:28Z</time>
      </trkpt>
      <trkpt lat="46.77837" lon="6.37643">
        <ele>1046</ele>
        <time>2022-08-14T07:30:29Z</time>
      </trkpt>
      <trkpt lat="46.77827" lon="6.3765">
        <ele>1045</ele>
        <time>2022-08-14T07:30:30Z</time>
      </trkpt>
      <trkpt lat="46.77818" lon="6.37658">
        <ele>1044</ele>
        <time>2022-08-14T07:30:31Z</time>
      </trkpt>
      <trkpt lat="46.77809" lon="6.37667">
        <ele>1043</ele>
        <time>2022-08-14T07:30:32Z</time>
      </trkpt>
      <trkpt lat="46.778" lon="6.37677">
        <ele>1042</ele>
        <time>2022-08-14T07:30:33Z</time>
      </trkpt>
      <trkpt lat="46.77791" lon="6.37687">
        <ele>1041</ele>
        <time>2022-08-14T07:30:34Z</time>
      </trkpt>
      <trkpt lat="46.77781" lon="6.37695">
        <ele>1040</ele>
        <time>2022-08-14T07:30:35Z</time>
      </trkpt>
      <trkpt lat="46.7777" lon="6.37701">
        <ele>1039</ele>
        <time>2022-08-14T07:30:36Z</time>
      </trkpt>
      <trkpt lat="46.77759" lon="6.37706">
        <ele>1038</ele>
        <time>2022-08-14T07:30:37Z</time>
      </trkpt>
      <trkpt lat="46.77747" lon="6.37711">
        <ele>1037</ele>
        <time>2022-08-14T07:30:38Z</time>
      </trkpt>
      <trkpt lat="46.77736" lon="6.37717">
        <ele>1035</ele>
        <time>2022-08-14T07:30:39Z</time>
      </trkpt>
      <trkpt lat="46.77714" lon="6.37733">
        <ele>1033</ele>
        <time>2022-08-14T07:30:41Z</time>
      </trkpt>
      <trkpt lat="46.77691" lon="6.37749">
        <ele>1030</ele>
        <time>2022-08-14T07:30:43Z</time>
      </trkpt>
      <trkpt lat="46.77666" lon="6.37761">
        <ele>1029</ele>
        <time>2022-08-14T07:30:45Z</time>
      </trkpt>
      <trkpt lat="46.77641" lon="6.37773">
        <ele>1026</ele>
        <time>2022-08-14T07:30:47Z</time>
      </trkpt>
      <trkpt lat="46.77616" lon="6.37789">
        <ele>1023</ele>
        <time>2022-08-14T07:30:49Z</time>
      </trkpt>
      <trkpt lat="46.7759" lon="6.37803">
        <ele>1020</ele>
        <time>2022-08-14T07:30:51Z</time>
      </trkpt>
      <trkpt lat="46.77562" lon="6.37814">
        <ele>1018</ele>
        <time>2022-08-14T07:30:53Z</time>
      </trkpt>
      <trkpt lat="46.77538" lon="6.37826">
        <ele>1015</ele>
        <time>2022-08-14T07:30:55Z</time>
      </trkpt>
      <trkpt lat="46.77517" lon="6.37836">
        <ele>1013</ele>
        <time>2022-08-14T07:30:57Z</time>
      </trkpt>
      <trkpt lat="46.77497" lon="6.37832">
        <ele>1011</ele>
        <time>2022-08-14T07:30:59Z</time>
      </trkpt>
      <trkpt lat="46.77483" lon="6.37804">
        <ele>1009</ele>
        <time>2022-08-14T07:31:01Z</time>
      </trkpt>
      <trkpt lat="46.77474" lon="6.37776">
        <ele>1007</ele>
        <time>2022-08-14T07:31:03Z</time>
      </trkpt>
      <trkpt lat="46.77465" lon="6.37742">
        <ele>1004</ele>
        <time>2022-08-14T07:31:06Z</time>
      </trkpt>
      <trkpt lat="46.77451" lon="6.37725">
        <ele>1004</ele>
        <time>2022-08-14T07:31:09Z</time>
      </trkpt>
      <trkpt lat="46.77434" lon="6.37738">
        <ele>1004</ele>
        <time>2022-08-14T07:31:12Z</time>
      </trkpt>
      <trkpt lat="46.77417" lon="6.37732">
        <ele>1004</ele>
        <time>2022-08-14T07:31:16Z</time>
      </trkpt>
      <trkpt lat="46.77411" lon="6.377">
        <ele>1005</ele>
        <time>2022-08-14T07:31:20Z</time>
      </trkpt>
      <trkpt lat="46.77416" lon="6.37672">
        <ele>1006</ele>
        <time>2022-08-14T07:31:24Z</time>
      </trkpt>
      <trkpt lat="46.77431" lon="6.37656">
        <ele>1007</ele>
        <time>2022-08-14T07:31:28Z</time>
      </trkpt>
      <trkpt lat="46.77448" lon="6.37639">
        <ele>1009</ele>
        <time>2022-08-14T07:31:33Z</time>
      </trkpt>
      <trkpt lat="46.77463" lon="6.37619">
        <ele>1010</ele>
        <time>2022-08-14T07:31:39Z</time>
      </trkpt>
      <trkpt lat="46.77473" lon="6.37606">
        <ele>1011</ele>
        <time>2022-08-14T07:31:43Z</time>
      </trkpt>
      <trkpt lat="46.77479" lon="6.37595">
        <ele>1012</ele>
        <time>2022-08-14T07:31:46Z</time>
      </trkpt>
      <trkpt lat="46.77485" lon="6.37585">
        <ele>1013</ele>
        <time>2022-08-14T07:31:48Z</time>
      </trkpt>
      <trkpt lat="46.77493" lon="6.37571">
        <ele>1014</ele>
        <time>2022-08-14T07:31:51Z</time>
      </trkpt>
      <trkpt lat="46.77499" lon="6.37557">
        <ele>1015</ele>
        <time>2022-08-14T07:31:54Z</time>
      </trkpt>
      <trkpt lat="46.77505" lon="6.37545">
        <ele>1015</ele>
        <time>2022-08-14T07:31:57Z</time>
      </trkpt>
      <trkpt lat="46.77509" lon="6.37532">
        <ele>1016</ele>
        <time>2022-08-14T07:32:00Z</time>
      </trkpt>
      <trkpt lat="46.77515" lon="6.3752">
        <ele>1017</ele>
        <time>2022-08-14T07:32:03Z</time>
      </trkpt>
      <trkpt lat="46.7752" lon="6.37508">
        <ele>1018</ele>
        <time>2022-08-14T07:32:06Z</time>
      </trkpt>
      <trkpt lat="46.77528" lon="6.37495">
        <ele>1019</ele>
        <time>2022-08-14T07:32:10Z</time>
      </trkpt>
      <trkpt lat="46.77534" lon="6.3748">
        <ele>1020</ele>
        <time>2022-08-14T07:32:14Z</time>
      </trkpt>
      <trkpt lat="46.77538" lon="6.37464">
        <ele>1021</ele>
        <time>2022-08-14T07:32:18Z</time>
      </trkpt>
      <trkpt lat="46.77537" lon="6.37446">
        <ele>1022</ele>
        <time>2022-08-14T07:32:22Z</time>
      </trkpt>
      <trkpt lat="46.77532" lon="6.37434">
        <ele>1022</ele>
        <time>2022-08-14T07:32:25Z</time>
      </trkpt>
      <trkpt lat="46.77524" lon="6.37424">
        <ele>1022</ele>
        <time>2022-08-14T07:32:28Z</time>
      </trkpt>
      <trkpt lat="46.77514" lon="6.37416">
        <ele>1023</ele>
        <time>2022-08-14T07:32:31Z</time>
      </trkpt>
      <trkpt lat="46.77503" lon="6.3741">
        <ele>1022</ele>
        <time>2022-08-14T07:32:34Z</time>
      </trkpt>
      <trkpt lat="46.77491" lon="6.37407">
        <ele>1022</ele>
        <time>2022-08-14T07:32:37Z</time>
      </trkpt>
      <trkpt lat="46.77479" lon="6.37405">
        <ele>1023</ele>
        <time>2022-08-14T07:32:40Z</time>
      </trkpt>
      <trkpt lat="46.77461" lon="6.37402">
        <ele>1023</ele>
        <time>2022-08-14T07:32:44Z</time>
      </trkpt>
      <trkpt lat="46.7744" lon="6.37392">
        <ele>1022</ele>
        <time>2022-08-14T07:32:49Z</time>
      </trkpt>
      <trkpt lat="46.77421" lon="6.3738">
        <ele>1024</ele>
        <time>2022-08-14T07:32:54Z</time>
      </trkpt>
      <trkpt lat="46.77403" lon="6.37367">
        <ele>1024</ele>
        <time>2022-08-14T07:32:59Z</time>
      </trkpt>
      <trkpt lat="46.77383" lon="6.37352">
        <ele>1025</ele>
        <time>2022-08-14T07:33:04Z</time>
      </trkpt>
      <trkpt lat="46.77366" lon="6.37339">
        <ele>1026</ele>
        <time>2022-08-14T07:33:08Z</time>
      </trkpt>
      <trkpt lat="46.77349" lon="6.37326">
        <ele>1026</ele>
        <time>2022-08-14T07:33:12Z</time>
      </trkpt>
      <trkpt lat="46.77332" lon="6.37315">
        <ele>1026</ele>
        <time>2022-08-14T07:33:16Z</time>
      </trkpt>
      <trkpt lat="46.77314" lon="6.37305">
        <ele>1026</ele>
        <time>2022-08-14T07:33:20Z</time>
      </trkpt>
      <trkpt lat="46.77297" lon="6.37294">
        <ele>1026</ele>
        <time>2022-08-14T07:33:24Z</time>
      </trkpt>
      <trkpt lat="46.77276" lon="6.37283">
        <ele>1025</ele>
        <time>2022-08-14T07:33:28Z</time>
      </trkpt>
      <trkpt lat="46.77258" lon="6.3728">
        <ele>1025</ele>
        <time>2022-08-14T07:33:31Z</time>
      </trkpt>
      <trkpt lat="46.77237" lon="6.37273">
        <ele>1026</ele>
        <time>2022-08-14T07:33:35Z</time>
      </trkpt>
      <trkpt lat="46.77235" lon="6.37244">
        <ele>1025</ele>
        <time>2022-08-14T07:33:39Z</time>
      </trkpt>
      <trkpt lat="46.77241" lon="6.37214">
        <ele>1025</ele>
        <time>2022-08-14T07:33:43Z</time>
      </trkpt>
      <trkpt lat="46.77246" lon="6.37186">
        <ele>1025</ele>
        <time>2022-08-14T07:33:47Z</time>
      </trkpt>
      <trkpt lat="46.77251" lon="6.37158">
        <ele>1026</ele>
        <time>2022-08-14T07:33:51Z</time>
      </trkpt>
      <trkpt lat="46.77255" lon="6.37132">
        <ele>1026</ele>
        <time>2022-08-14T07:33:55Z</time>
      </trkpt>
      <trkpt lat="46.77258" lon="6.37106">
        <ele>1024</ele>
        <time>2022-08-14T07:33:58Z</time>
      </trkpt>
      <trkpt lat="46.77257" lon="6.37079">
        <ele>1024</ele>
        <time>2022-08-14T07:34:01Z</time>
      </trkpt>
      <trkpt lat="46.77249" lon="6.37052">
        <ele>1026</ele>
        <time>2022-08-14T07:34:05Z</time>
      </trkpt>
      <trkpt lat="46.77238" lon="6.37025">
        <ele>1026</ele>
        <time>2022-08-14T07:34:10Z</time>
      </trkpt>
      <trkpt lat="46.77222" lon="6.3701">
        <ele>1025</ele>
        <time>2022-08-14T07:34:13Z</time>
      </trkpt>
      <trkpt lat="46.77206" lon="6.36994">
        <ele>1023</ele>
        <time>2022-08-14T07:34:16Z</time>
      </trkpt>
      <trkpt lat="46.77194" lon="6.36982">
        <ele>1025</ele>
        <time>2022-08-14T07:34:18Z</time>
      </trkpt>
      <trkpt lat="46.77183" lon="6.36967">
        <ele>1025</ele>
        <time>2022-08-14T07:34:20Z</time>
      </trkpt>
      <trkpt lat="46.77169" lon="6.36944">
        <ele>1023</ele>
        <time>2022-08-14T07:34:23Z</time>
      </trkpt>
      <trkpt lat="46.77154" lon="6.36922">
        <ele>1023</ele>
        <time>2022-08-14T07:34:26Z</time>
      </trkpt>
      <trkpt lat="46.77142" lon="6.36907">
        <ele>1023</ele>
        <time>2022-08-14T07:34:28Z</time>
      </trkpt>
      <trkpt lat="46.77131" lon="6.36894">
        <ele>1024</ele>
        <time>2022-08-14T07:34:30Z</time>
      </trkpt>
      <trkpt lat="46.77122" lon="6.36882">
        <ele>1024</ele>
        <time>2022-08-14T07:34:32Z</time>
      </trkpt>
      <trkpt lat="46.77111" lon="6.36872">
        <ele>1024</ele>
        <time>2022-08-14T07:34:34Z</time>
      </trkpt>
      <trkpt lat="46.771" lon="6.36864">
        <ele>1024</ele>
        <time>2022-08-14T07:34:36Z</time>
      </trkpt>
      <trkpt lat="46.77089" lon="6.36854">
        <ele>1024</ele>
        <time>2022-08-14T07:34:38Z</time>
      </trkpt>
      <trkpt lat="46.77082" lon="6.36844">
        <ele>1024</ele>
        <time>2022-08-14T07:34:40Z</time>
      </trkpt>
      <trkpt lat="46.77074" lon="6.36834">
        <ele>1025</ele>
        <time>2022-08-14T07:34:42Z</time>
      </trkpt>
      <trkpt lat="46.77066" lon="6.36824">
        <ele>1025</ele>
        <time>2022-08-14T07:34:44Z</time>
      </trkpt>
      <trkpt lat="46.7706" lon="6.36814">
        <ele>1026</ele>
        <time>2022-08-14T07:34:46Z</time>
      </trkpt>
      <trkpt lat="46.77052" lon="6.36804">
        <ele>1027</ele>
        <time>2022-08-14T07:34:49Z</time>
      </trkpt>
      <trkpt lat="46.77043" lon="6.3679">
        <ele>1027</ele>
        <time>2022-08-14T07:34:52Z</time>
      </trkpt>
      <trkpt lat="46.77036" lon="6.36776">
        <ele>1027</ele>
        <time>2022-08-14T07:34:54Z</time>
      </trkpt>
      <trkpt lat="46.77028" lon="6.36765">
        <ele>1026</ele>
        <time>2022-08-14T07:34:56Z</time>
      </trkpt>
      <trkpt lat="46.7702" lon="6.36754">
        <ele>1028</ele>
        <time>2022-08-14T07:34:58Z</time>
      </trkpt>
      <trkpt lat="46.77015" lon="6.36744">
        <ele>1028</ele>
        <time>2022-08-14T07:35:00Z</time>
      </trkpt>
      <trkpt lat="46.77004" lon="6.36733">
        <ele>1029</ele>
        <time>2022-08-14T07:35:03Z</time>
      </trkpt>
      <trkpt lat="46.76997" lon="6.36721">
        <ele>1030</ele>
        <time>2022-08-14T07:35:07Z</time>
      </trkpt>
      <trkpt lat="46.76991" lon="6.3671">
        <ele>1030</ele>
        <time>2022-08-14T07:35:09Z</time>
      </trkpt>
      <trkpt lat="46.76986" lon="6.36699">
        <ele>1031</ele>
        <time>2022-08-14T07:35:12Z</time>
      </trkpt>
      <trkpt lat="46.7698" lon="6.36688">
        <ele>1032</ele>
        <time>2022-08-14T07:35:15Z</time>
      </trkpt>
      <trkpt lat="46.76969" lon="6.36686">
        <ele>1033</ele>
        <time>2022-08-14T07:35:17Z</time>
      </trkpt>
      <trkpt lat="46.76959" lon="6.36688">
        <ele>1032</ele>
        <time>2022-08-14T07:35:20Z</time>
      </trkpt>
      <trkpt lat="46.76945" lon="6.36687">
        <ele>1032</ele>
        <time>2022-08-14T07:35:23Z</time>
      </trkpt>
      <trkpt lat="46.76935" lon="6.36686">
        <ele>1033</ele>
        <time>2022-08-14T07:35:25Z</time>
      </trkpt>
      <trkpt lat="46.76926" lon="6.36685">
        <ele>1033</ele>
        <time>2022-08-14T07:35:27Z</time>
      </trkpt>
      <trkpt lat="46.76917" lon="6.36681">
        <ele>1033</ele>
        <time>2022-08-14T07:35:29Z</time>
      </trkpt>
      <trkpt lat="46.76914" lon="6.36668">
        <ele>1033</ele>
        <time>2022-08-14T07:35:31Z</time>
      </trkpt>
      <trkpt lat="46.76914" lon="6.36653">
        <ele>1033</ele>
        <time>2022-08-14T07:35:33Z</time>
      </trkpt>
      <trkpt lat="46.76912" lon="6.36639">
        <ele>1033</ele>
        <time>2022-08-14T07:35:35Z</time>
      </trkpt>
      <trkpt lat="46.76912" lon="6.36625">
        <ele>1034</ele>
        <time>2022-08-14T07:35:37Z</time>
      </trkpt>
      <trkpt lat="46.76912" lon="6.3661">
        <ele>1034</ele>
        <time>2022-08-14T07:35:39Z</time>
      </trkpt>
      <trkpt lat="46.76913" lon="6.36595">
        <ele>1034</ele>
        <time>2022-08-14T07:35:41Z</time>
      </trkpt>
      <trkpt lat="46.76915" lon="6.3658">
        <ele>1034</ele>
        <time>2022-08-14T07:35:43Z</time>
      </trkpt>
      <trkpt lat="46.76917" lon="6.36566">
        <ele>1034</ele>
        <time>2022-08-14T07:35:45Z</time>
      </trkpt>
      <trkpt lat="46.76918" lon="6.36553">
        <ele>1034</ele>
        <time>2022-08-14T07:35:47Z</time>
      </trkpt>
      <trkpt lat="46.7692" lon="6.36539">
        <ele>1035</ele>
        <time>2022-08-14T07:35:49Z</time>
      </trkpt>
      <trkpt lat="46.76918" lon="6.3651">
        <ele>1035</ele>
        <time>2022-08-14T07:35:54Z</time>
      </trkpt>
      <trkpt lat="46.76908" lon="6.36496">
        <ele>1038</ele>
        <time>2022-08-14T07:35:59Z</time>
      </trkpt>
      <trkpt lat="46.76902" lon="6.36484">
        <ele>1038</ele>
        <time>2022-08-14T07:36:03Z</time>
      </trkpt>
      <trkpt lat="46.76897" lon="6.3647">
        <ele>1040</ele>
        <time>2022-08-14T07:40:33Z</time>
      </trkpt>
      <trkpt lat="46.76887" lon="6.36447">
        <ele>1040</ele>
        <time>2022-08-14T07:40:39Z</time>
      </trkpt>
      <trkpt lat="46.76877" lon="6.36472">
        <ele>1041</ele>
        <time>2022-08-14T07:40:46Z</time>
      </trkpt>
      <trkpt lat="46.76872" lon="6.36487">
        <ele>1041</ele>
        <time>2022-08-14T07:40:50Z</time>
      </trkpt>
      <trkpt lat="46.76866" lon="6.36498">
        <ele>1041</ele>
        <time>2022-08-14T07:40:53Z</time>
      </trkpt>
      <trkpt lat="46.7686" lon="6.36512">
        <ele>1042</ele>
        <time>2022-08-14T07:40:57Z</time>
      </trkpt>
      <trkpt lat="46.76854" lon="6.36527">
        <ele>1043</ele>
        <time>2022-08-14T07:41:02Z</time>
      </trkpt>
      <trkpt lat="46.7685" lon="6.36538">
        <ele>1044</ele>
        <time>2022-08-14T07:41:05Z</time>
      </trkpt>
      <trkpt lat="46.76847" lon="6.36551">
        <ele>1044</ele>
        <time>2022-08-14T07:41:08Z</time>
      </trkpt>
      <trkpt lat="46.76842" lon="6.36565">
        <ele>1045</ele>
        <time>2022-08-14T07:41:12Z</time>
      </trkpt>
      <trkpt lat="46.76836" lon="6.3658">
        <ele>1046</ele>
        <time>2022-08-14T07:41:16Z</time>
      </trkpt>
      <trkpt lat="46.76833" lon="6.36593">
        <ele>1046</ele>
        <time>2022-08-14T07:41:18Z</time>
      </trkpt>
      <trkpt lat="46.7683" lon="6.36608">
        <ele>1046</ele>
        <time>2022-08-14T07:41:23Z</time>
      </trkpt>
      <trkpt lat="46.76824" lon="6.36635">
        <ele>1047</ele>
        <time>2022-08-14T07:41:29Z</time>
      </trkpt>
      <trkpt lat="46.7682" lon="6.36648">
        <ele>1046</ele>
        <time>2022-08-14T07:41:32Z</time>
      </trkpt>
      <trkpt lat="46.76813" lon="6.36667">
        <ele>1046</ele>
        <time>2022-08-14T07:41:36Z</time>
      </trkpt>
      <trkpt lat="46.76807" lon="6.36679">
        <ele>1047</ele>
        <time>2022-08-14T07:41:38Z</time>
      </trkpt>
      <trkpt lat="46.76801" lon="6.36691">
        <ele>1047</ele>
        <time>2022-08-14T07:41:41Z</time>
      </trkpt>
      <trkpt lat="46.76797" lon="6.36703">
        <ele>1046</ele>
        <time>2022-08-14T07:41:43Z</time>
      </trkpt>
      <trkpt lat="46.76798" lon="6.36722">
        <ele>1047</ele>
        <time>2022-08-14T07:41:46Z</time>
      </trkpt>
      <trkpt lat="46.76802" lon="6.36738">
        <ele>1047</ele>
        <time>2022-08-14T07:41:49Z</time>
      </trkpt>
      <trkpt lat="46.76805" lon="6.36754">
        <ele>1047</ele>
        <time>2022-08-14T07:41:52Z</time>
      </trkpt>
      <trkpt lat="46.7681" lon="6.36768">
        <ele>1049</ele>
        <time>2022-08-14T07:41:57Z</time>
      </trkpt>
      <trkpt lat="46.76818" lon="6.3678">
        <ele>1049</ele>
        <time>2022-08-14T07:42:03Z</time>
      </trkpt>
      <trkpt lat="46.76825" lon="6.3679">
        <ele>1049</ele>
        <time>2022-08-14T07:42:08Z</time>
      </trkpt>
      <trkpt lat="46.76831" lon="6.36802">
        <ele>1051</ele>
        <time>2022-08-14T07:42:12Z</time>
      </trkpt>
      <trkpt lat="46.76837" lon="6.36813">
        <ele>1052</ele>
        <time>2022-08-14T07:42:17Z</time>
      </trkpt>
      <trkpt lat="46.76842" lon="6.36825">
        <ele>1052</ele>
        <time>2022-08-14T07:42:22Z</time>
      </trkpt>
      <trkpt lat="46.76846" lon="6.36836">
        <ele>1054</ele>
        <time>2022-08-14T07:42:28Z</time>
      </trkpt>
      <trkpt lat="46.76851" lon="6.36849">
        <ele>1055</ele>
        <time>2022-08-14T07:42:33Z</time>
      </trkpt>
      <trkpt lat="46.76854" lon="6.36862">
        <ele>1056</ele>
        <time>2022-08-14T07:42:40Z</time>
      </trkpt>
      <trkpt lat="46.76858" lon="6.36874">
        <ele>1062</ele>
        <time>2022-08-14T07:42:46Z</time>
      </trkpt>
      <trkpt lat="46.76861" lon="6.36889">
        <ele>1063</ele>
        <time>2022-08-14T07:42:52Z</time>
      </trkpt>
      <trkpt lat="46.76865" lon="6.36903">
        <ele>1064</ele>
        <time>2022-08-14T07:42:57Z</time>
      </trkpt>
      <trkpt lat="46.76868" lon="6.36915">
        <ele>1066</ele>
        <time>2022-08-14T07:43:04Z</time>
      </trkpt>
      <trkpt lat="46.76873" lon="6.36928">
        <ele>1068</ele>
        <time>2022-08-14T07:43:13Z</time>
      </trkpt>
      <trkpt lat="46.76878" lon="6.36941">
        <ele>1069</ele>
        <time>2022-08-14T07:43:19Z</time>
      </trkpt>
      <trkpt lat="46.76882" lon="6.36953">
        <ele>1070</ele>
        <time>2022-08-14T07:43:25Z</time>
      </trkpt>
      <trkpt lat="46.76881" lon="6.36967">
        <ele>1072</ele>
        <time>2022-08-14T07:43:30Z</time>
      </trkpt>
      <trkpt lat="46.76878" lon="6.36981">
        <ele>1071</ele>
        <time>2022-08-14T07:43:35Z</time>
      </trkpt>
      <trkpt lat="46.76873" lon="6.36992">
        <ele>1072</ele>
        <time>2022-08-14T07:43:40Z</time>
      </trkpt>
      <trkpt lat="46.76865" lon="6.37">
        <ele>1072</ele>
        <time>2022-08-14T07:43:43Z</time>
      </trkpt>
      <trkpt lat="46.76855" lon="6.37">
        <ele>1072</ele>
        <time>2022-08-14T07:43:47Z</time>
      </trkpt>
      <trkpt lat="46.76846" lon="6.37003">
        <ele>1072</ele>
        <time>2022-08-14T07:43:53Z</time>
      </trkpt>
      <trkpt lat="46.76837" lon="6.37009">
        <ele>1073</ele>
        <time>2022-08-14T07:44:00Z</time>
      </trkpt>
      <trkpt lat="46.76833" lon="6.37022">
        <ele>1075</ele>
        <time>2022-08-14T07:44:05Z</time>
      </trkpt>
      <trkpt lat="46.76831" lon="6.37037">
        <ele>1075</ele>
        <time>2022-08-14T07:44:09Z</time>
      </trkpt>
      <trkpt lat="46.76827" lon="6.37051">
        <ele>1075</ele>
        <time>2022-08-14T07:44:12Z</time>
      </trkpt>
      <trkpt lat="46.76822" lon="6.37062">
        <ele>1075</ele>
        <time>2022-08-14T07:44:15Z</time>
      </trkpt>
      <trkpt lat="46.76814" lon="6.37074">
        <ele>1074</ele>
        <time>2022-08-14T07:44:17Z</time>
      </trkpt>
      <trkpt lat="46.76799" lon="6.37087">
        <ele>1074</ele>
        <time>2022-08-14T07:44:21Z</time>
      </trkpt>
      <trkpt lat="46.76787" lon="6.37093">
        <ele>1071</ele>
        <time>2022-08-14T07:44:23Z</time>
      </trkpt>
      <trkpt lat="46.76775" lon="6.37099">
        <ele>1071</ele>
        <time>2022-08-14T07:44:25Z</time>
      </trkpt>
      <trkpt lat="46.76764" lon="6.37103">
        <ele>1070</ele>
        <time>2022-08-14T07:44:27Z</time>
      </trkpt>
      <trkpt lat="46.7675" lon="6.37107">
        <ele>1070</ele>
        <time>2022-08-14T07:44:31Z</time>
      </trkpt>
      <trkpt lat="46.76733" lon="6.37111">
        <ele>1071</ele>
        <time>2022-08-14T07:44:33Z</time>
      </trkpt>
      <trkpt lat="46.76721" lon="6.37114">
        <ele>1071</ele>
        <time>2022-08-14T07:44:35Z</time>
      </trkpt>
      <trkpt lat="46.76711" lon="6.37117">
        <ele>1070</ele>
        <time>2022-08-14T07:44:37Z</time>
      </trkpt>
      <trkpt lat="46.76701" lon="6.37119">
        <ele>1071</ele>
        <time>2022-08-14T07:44:39Z</time>
      </trkpt>
      <trkpt lat="46.76687" lon="6.37122">
        <ele>1071</ele>
        <time>2022-08-14T07:44:42Z</time>
      </trkpt>
      <trkpt lat="46.76677" lon="6.37127">
        <ele>1072</ele>
        <time>2022-08-14T07:44:44Z</time>
      </trkpt>
      <trkpt lat="46.76663" lon="6.37136">
        <ele>1072</ele>
        <time>2022-08-14T07:44:47Z</time>
      </trkpt>
      <trkpt lat="46.76653" lon="6.37137">
        <ele>1072</ele>
        <time>2022-08-14T07:44:50Z</time>
      </trkpt>
      <trkpt lat="46.76637" lon="6.37126">
        <ele>1072</ele>
        <time>2022-08-14T07:44:54Z</time>
      </trkpt>
      <trkpt lat="46.76624" lon="6.3712">
        <ele>1075</ele>
        <time>2022-08-14T07:44:59Z</time>
      </trkpt>
      <trkpt lat="46.76614" lon="6.37118">
        <ele>1077</ele>
        <time>2022-08-14T07:45:04Z</time>
      </trkpt>
      <trkpt lat="46.76604" lon="6.37114">
        <ele>1077</ele>
        <time>2022-08-14T07:45:07Z</time>
      </trkpt>
      <trkpt lat="46.76595" lon="6.37108">
        <ele>1077</ele>
        <time>2022-08-14T07:45:11Z</time>
      </trkpt>
      <trkpt lat="46.76585" lon="6.37106">
        <ele>1079</ele>
        <time>2022-08-14T07:45:16Z</time>
      </trkpt>
      <trkpt lat="46.76574" lon="6.37105">
        <ele>1080</ele>
        <time>2022-08-14T07:45:19Z</time>
      </trkpt>
      <trkpt lat="46.76565" lon="6.37106">
        <ele>1081</ele>
        <time>2022-08-14T07:45:24Z</time>
      </trkpt>
      <trkpt lat="46.76554" lon="6.37106">
        <ele>1082</ele>
        <time>2022-08-14T07:45:28Z</time>
      </trkpt>
      <trkpt lat="46.76545" lon="6.37102">
        <ele>1083</ele>
        <time>2022-08-14T07:45:32Z</time>
      </trkpt>
      <trkpt lat="46.76534" lon="6.371">
        <ele>1084</ele>
        <time>2022-08-14T07:45:36Z</time>
      </trkpt>
      <trkpt lat="46.76523" lon="6.37104">
        <ele>1085</ele>
        <time>2022-08-14T07:45:39Z</time>
      </trkpt>
      <trkpt lat="46.76513" lon="6.37101">
        <ele>1085</ele>
        <time>2022-08-14T07:45:42Z</time>
      </trkpt>
      <trkpt lat="46.765" lon="6.37096">
        <ele>1085</ele>
        <time>2022-08-14T07:45:45Z</time>
      </trkpt>
      <trkpt lat="46.7649" lon="6.3709">
        <ele>1085</ele>
        <time>2022-08-14T07:45:49Z</time>
      </trkpt>
      <trkpt lat="46.76482" lon="6.37082">
        <ele>1086</ele>
        <time>2022-08-14T07:45:55Z</time>
      </trkpt>
      <trkpt lat="46.76477" lon="6.37072">
        <ele>1088</ele>
        <time>2022-08-14T07:46:00Z</time>
      </trkpt>
      <trkpt lat="46.7647" lon="6.37061">
        <ele>1088</ele>
        <time>2022-08-14T07:46:05Z</time>
      </trkpt>
      <trkpt lat="46.76466" lon="6.37049">
        <ele>1088</ele>
        <time>2022-08-14T07:46:08Z</time>
      </trkpt>
      <trkpt lat="46.76464" lon="6.37034">
        <ele>1090</ele>
        <time>2022-08-14T07:46:13Z</time>
      </trkpt>
      <trkpt lat="46.76459" lon="6.37022">
        <ele>1092</ele>
        <time>2022-08-14T07:46:20Z</time>
      </trkpt>
      <trkpt lat="46.76456" lon="6.37008">
        <ele>1091</ele>
        <time>2022-08-14T07:46:27Z</time>
      </trkpt>
      <trkpt lat="46.76452" lon="6.36995">
        <ele>1092</ele>
        <time>2022-08-14T07:46:34Z</time>
      </trkpt>
      <trkpt lat="46.76448" lon="6.36982">
        <ele>1094</ele>
        <time>2022-08-14T07:46:41Z</time>
      </trkpt>
      <trkpt lat="46.76442" lon="6.36971">
        <ele>1095</ele>
        <time>2022-08-14T07:46:48Z</time>
      </trkpt>
      <trkpt lat="46.76439" lon="6.36958">
        <ele>1097</ele>
        <time>2022-08-14T07:46:54Z</time>
      </trkpt>
      <trkpt lat="46.76436" lon="6.36943">
        <ele>1098</ele>
        <time>2022-08-14T07:46:59Z</time>
      </trkpt>
      <trkpt lat="46.76435" lon="6.36929">
        <ele>1098</ele>
        <time>2022-08-14T07:47:02Z</time>
      </trkpt>
      <trkpt lat="46.76428" lon="6.36903">
        <ele>1100</ele>
        <time>2022-08-14T07:47:11Z</time>
      </trkpt>
      <trkpt lat="46.76419" lon="6.3688">
        <ele>1098</ele>
        <time>2022-08-14T07:47:15Z</time>
      </trkpt>
      <trkpt lat="46.76409" lon="6.3685">
        <ele>1095</ele>
        <time>2022-08-14T07:47:19Z</time>
      </trkpt>
      <trkpt lat="46.76399" lon="6.36817">
        <ele>1092</ele>
        <time>2022-08-14T07:47:22Z</time>
      </trkpt>
      <trkpt lat="46.76389" lon="6.36783">
        <ele>1092</ele>
        <time>2022-08-14T07:47:25Z</time>
      </trkpt>
      <trkpt lat="46.76388" lon="6.36762">
        <ele>1092</ele>
        <time>2022-08-14T07:47:27Z</time>
      </trkpt>
      <trkpt lat="46.76387" lon="6.36744">
        <ele>1093</ele>
        <time>2022-08-14T07:47:29Z</time>
      </trkpt>
      <trkpt lat="46.76386" lon="6.36731">
        <ele>1093</ele>
        <time>2022-08-14T07:47:31Z</time>
      </trkpt>
      <trkpt lat="46.76386" lon="6.36717">
        <ele>1092</ele>
        <time>2022-08-14T07:47:34Z</time>
      </trkpt>
      <trkpt lat="46.76388" lon="6.36702">
        <ele>1095</ele>
        <time>2022-08-14T07:47:37Z</time>
      </trkpt>
      <trkpt lat="46.7639" lon="6.36677">
        <ele>1096</ele>
        <time>2022-08-14T07:47:41Z</time>
      </trkpt>
      <trkpt lat="46.76392" lon="6.3666">
        <ele>1095</ele>
        <time>2022-08-14T07:47:43Z</time>
      </trkpt>
      <trkpt lat="46.76397" lon="6.36639">
        <ele>1095</ele>
        <time>2022-08-14T07:47:47Z</time>
      </trkpt>
      <trkpt lat="46.76398" lon="6.36622">
        <ele>1096</ele>
        <time>2022-08-14T07:47:49Z</time>
      </trkpt>
      <trkpt lat="46.76398" lon="6.36603">
        <ele>1094</ele>
        <time>2022-08-14T07:47:52Z</time>
      </trkpt>
      <trkpt lat="46.76397" lon="6.36582">
        <ele>1092</ele>
        <time>2022-08-14T07:47:54Z</time>
      </trkpt>
      <trkpt lat="46.76395" lon="6.36548">
        <ele>1091</ele>
        <time>2022-08-14T07:47:57Z</time>
      </trkpt>
      <trkpt lat="46.76394" lon="6.3652">
        <ele>1093</ele>
        <time>2022-08-14T07:48:00Z</time>
      </trkpt>
      <trkpt lat="46.76394" lon="6.36492">
        <ele>1095</ele>
        <time>2022-08-14T07:48:06Z</time>
      </trkpt>
      <trkpt lat="46.76392" lon="6.36477">
        <ele>1097</ele>
        <time>2022-08-14T07:48:09Z</time>
      </trkpt>
      <trkpt lat="46.76391" lon="6.36458">
        <ele>1097</ele>
        <time>2022-08-14T07:48:15Z</time>
      </trkpt>
      <trkpt lat="46.76382" lon="6.36443">
        <ele>1101</ele>
        <time>2022-08-14T07:48:21Z</time>
      </trkpt>
      <trkpt lat="46.7639" lon="6.36435">
        <ele>1098</ele>
        <time>2022-08-14T07:48:27Z</time>
      </trkpt>
      <trkpt lat="46.76391" lon="6.3642">
        <ele>1098</ele>
        <time>2022-08-14T07:48:33Z</time>
      </trkpt>
      <trkpt lat="46.76383" lon="6.36411">
        <ele>1100</ele>
        <time>2022-08-14T07:48:40Z</time>
      </trkpt>
      <trkpt lat="46.76379" lon="6.364">
        <ele>1103</ele>
        <time>2022-08-14T07:48:47Z</time>
      </trkpt>
      <trkpt lat="46.76374" lon="6.36386">
        <ele>1104</ele>
        <time>2022-08-14T07:48:54Z</time>
      </trkpt>
      <trkpt lat="46.7637" lon="6.36373">
        <ele>1107</ele>
        <time>2022-08-14T07:49:00Z</time>
      </trkpt>
      <trkpt lat="46.76367" lon="6.3636">
        <ele>1108</ele>
        <time>2022-08-14T07:49:07Z</time>
      </trkpt>
      <trkpt lat="46.76362" lon="6.36346">
        <ele>1110</ele>
        <time>2022-08-14T07:49:15Z</time>
      </trkpt>
      <trkpt lat="46.76357" lon="6.36335">
        <ele>1112</ele>
        <time>2022-08-14T07:49:23Z</time>
      </trkpt>
      <trkpt lat="46.76353" lon="6.36324">
        <ele>1113</ele>
        <time>2022-08-14T07:49:30Z</time>
      </trkpt>
      <trkpt lat="46.76349" lon="6.36311">
        <ele>1114</ele>
        <time>2022-08-14T07:49:37Z</time>
      </trkpt>
      <trkpt lat="46.76345" lon="6.36298">
        <ele>1116</ele>
        <time>2022-08-14T07:49:43Z</time>
      </trkpt>
      <trkpt lat="46.76339" lon="6.36287">
        <ele>1118</ele>
        <time>2022-08-14T07:49:50Z</time>
      </trkpt>
      <trkpt lat="46.76334" lon="6.36275">
        <ele>1119</ele>
        <time>2022-08-14T07:49:58Z</time>
      </trkpt>
      <trkpt lat="46.76329" lon="6.36262">
        <ele>1122</ele>
        <time>2022-08-14T07:50:05Z</time>
      </trkpt>
      <trkpt lat="46.76325" lon="6.3625">
        <ele>1124</ele>
        <time>2022-08-14T07:50:13Z</time>
      </trkpt>
      <trkpt lat="46.7632" lon="6.36237">
        <ele>1125</ele>
        <time>2022-08-14T07:50:21Z</time>
      </trkpt>
      <trkpt lat="46.76314" lon="6.36227">
        <ele>1127</ele>
        <time>2022-08-14T07:50:28Z</time>
      </trkpt>
      <trkpt lat="46.76308" lon="6.36216">
        <ele>1128</ele>
        <time>2022-08-14T07:50:36Z</time>
      </trkpt>
      <trkpt lat="46.76304" lon="6.36203">
        <ele>1130</ele>
        <time>2022-08-14T07:50:44Z</time>
      </trkpt>
      <trkpt lat="46.76306" lon="6.36183">
        <ele>1129</ele>
        <time>2022-08-14T07:50:49Z</time>
      </trkpt>
      <trkpt lat="46.7631" lon="6.3617">
        <ele>1129</ele>
        <time>2022-08-14T07:50:53Z</time>
      </trkpt>
      <trkpt lat="46.76315" lon="6.36155">
        <ele>1128</ele>
        <time>2022-08-14T07:50:56Z</time>
      </trkpt>
      <trkpt lat="46.76316" lon="6.36126">
        <ele>1130</ele>
        <time>2022-08-14T07:51:05Z</time>
      </trkpt>
      <trkpt lat="46.76306" lon="6.36098">
        <ele>1129</ele>
        <time>2022-08-14T07:51:11Z</time>
      </trkpt>
      <trkpt lat="46.76296" lon="6.36072">
        <ele>1129</ele>
        <time>2022-08-14T07:51:16Z</time>
      </trkpt>
      <trkpt lat="46.7629" lon="6.36045">
        <ele>1131</ele>
        <time>2022-08-14T07:51:22Z</time>
      </trkpt>
      <trkpt lat="46.76286" lon="6.36031">
        <ele>1133</ele>
        <time>2022-08-14T07:51:28Z</time>
      </trkpt>
      <trkpt lat="46.76282" lon="6.36018">
        <ele>1132</ele>
        <time>2022-08-14T07:51:32Z</time>
      </trkpt>
      <trkpt lat="46.76278" lon="6.36005">
        <ele>1132</ele>
        <time>2022-08-14T07:51:35Z</time>
      </trkpt>
      <trkpt lat="46.76273" lon="6.35992">
        <ele>1132</ele>
        <time>2022-08-14T07:51:39Z</time>
      </trkpt>
      <trkpt lat="46.76267" lon="6.35981">
        <ele>1132</ele>
        <time>2022-08-14T07:51:41Z</time>
      </trkpt>
      <trkpt lat="46.76264" lon="6.35969">
        <ele>1132</ele>
        <time>2022-08-14T07:51:54Z</time>
      </trkpt>
      <trkpt lat="46.76251" lon="6.35953">
        <ele>1132</ele>
        <time>2022-08-14T07:51:59Z</time>
      </trkpt>
      <trkpt lat="46.76239" lon="6.35945">
        <ele>1133</ele>
        <time>2022-08-14T07:52:03Z</time>
      </trkpt>
      <trkpt lat="46.76243" lon="6.35933">
        <ele>1135</ele>
        <time>2022-08-14T07:52:06Z</time>
      </trkpt>
      <trkpt lat="46.76246" lon="6.35921">
        <ele>1135</ele>
        <time>2022-08-14T07:52:08Z</time>
      </trkpt>
      <trkpt lat="46.76244" lon="6.35908">
        <ele>1134</ele>
        <time>2022-08-14T07:52:12Z</time>
      </trkpt>
      <trkpt lat="46.76245" lon="6.35893">
        <ele>1135</ele>
        <time>2022-08-14T07:52:17Z</time>
      </trkpt>
      <trkpt lat="46.76246" lon="6.35877">
        <ele>1135</ele>
        <time>2022-08-14T07:52:21Z</time>
      </trkpt>
      <trkpt lat="46.76248" lon="6.35863">
        <ele>1136</ele>
        <time>2022-08-14T07:52:25Z</time>
      </trkpt>
      <trkpt lat="46.76254" lon="6.35852">
        <ele>1136</ele>
        <time>2022-08-14T07:52:28Z</time>
      </trkpt>
      <trkpt lat="46.7626" lon="6.35836">
        <ele>1134</ele>
        <time>2022-08-14T07:52:31Z</time>
      </trkpt>
      <trkpt lat="46.76265" lon="6.35812">
        <ele>1132</ele>
        <time>2022-08-14T07:52:33Z</time>
      </trkpt>
      <trkpt lat="46.76266" lon="6.35789">
        <ele>1131</ele>
        <time>2022-08-14T07:52:35Z</time>
      </trkpt>
      <trkpt lat="46.76267" lon="6.3577">
        <ele>1128</ele>
        <time>2022-08-14T07:52:37Z</time>
      </trkpt>
      <trkpt lat="46.7627" lon="6.35756">
        <ele>1127</ele>
        <time>2022-08-14T07:52:39Z</time>
      </trkpt>
      <trkpt lat="46.76277" lon="6.35743">
        <ele>1123</ele>
        <time>2022-08-14T07:52:41Z</time>
      </trkpt>
      <trkpt lat="46.76283" lon="6.35727">
        <ele>1120</ele>
        <time>2022-08-14T07:52:43Z</time>
      </trkpt>
      <trkpt lat="46.76289" lon="6.35713">
        <ele>1118</ele>
        <time>2022-08-14T07:52:45Z</time>
      </trkpt>
      <trkpt lat="46.76292" lon="6.357">
        <ele>1116</ele>
        <time>2022-08-14T07:52:47Z</time>
      </trkpt>
      <trkpt lat="46.76295" lon="6.35686">
        <ele>1114</ele>
        <time>2022-08-14T07:52:49Z</time>
      </trkpt>
      <trkpt lat="46.76295" lon="6.35671">
        <ele>1112</ele>
        <time>2022-08-14T07:52:51Z</time>
      </trkpt>
      <trkpt lat="46.76295" lon="6.3565">
        <ele>1109</ele>
        <time>2022-08-14T07:52:53Z</time>
      </trkpt>
      <trkpt lat="46.76294" lon="6.35628">
        <ele>1107</ele>
        <time>2022-08-14T07:52:55Z</time>
      </trkpt>
      <trkpt lat="46.7629" lon="6.35603">
        <ele>1105</ele>
        <time>2022-08-14T07:52:57Z</time>
      </trkpt>
      <trkpt lat="46.76286" lon="6.35591">
        <ele>1106</ele>
        <time>2022-08-14T07:52:58Z</time>
      </trkpt>
      <trkpt lat="46.76279" lon="6.35569">
        <ele>1104</ele>
        <time>2022-08-14T07:53:00Z</time>
      </trkpt>
      <trkpt lat="46.76274" lon="6.35548">
        <ele>1103</ele>
        <time>2022-08-14T07:53:02Z</time>
      </trkpt>
      <trkpt lat="46.7627" lon="6.35529">
        <ele>1103</ele>
        <time>2022-08-14T07:53:04Z</time>
      </trkpt>
      <trkpt lat="46.76267" lon="6.35514">
        <ele>1103</ele>
        <time>2022-08-14T07:53:06Z</time>
      </trkpt>
      <trkpt lat="46.76266" lon="6.355">
        <ele>1102</ele>
        <time>2022-08-14T07:53:08Z</time>
      </trkpt>
      <trkpt lat="46.76264" lon="6.35487">
        <ele>1103</ele>
        <time>2022-08-14T07:53:10Z</time>
      </trkpt>
      <trkpt lat="46.76259" lon="6.3547">
        <ele>1102</ele>
        <time>2022-08-14T07:53:13Z</time>
      </trkpt>
      <trkpt lat="46.76256" lon="6.35457">
        <ele>1104</ele>
        <time>2022-08-14T07:53:15Z</time>
      </trkpt>
      <trkpt lat="46.76251" lon="6.3544">
        <ele>1104</ele>
        <time>2022-08-14T07:53:18Z</time>
      </trkpt>
      <trkpt lat="46.7625" lon="6.35423">
        <ele>1102</ele>
        <time>2022-08-14T07:53:20Z</time>
      </trkpt>
      <trkpt lat="46.76247" lon="6.35405">
        <ele>1103</ele>
        <time>2022-08-14T07:53:23Z</time>
      </trkpt>
      <trkpt lat="46.76241" lon="6.3538">
        <ele>1101</ele>
        <time>2022-08-14T07:53:26Z</time>
      </trkpt>
      <trkpt lat="46.76237" lon="6.35365">
        <ele>1100</ele>
        <time>2022-08-14T07:53:28Z</time>
      </trkpt>
      <trkpt lat="46.76234" lon="6.35349">
        <ele>1100</ele>
        <time>2022-08-14T07:53:30Z</time>
      </trkpt>
      <trkpt lat="46.7623" lon="6.35332">
        <ele>1101</ele>
        <time>2022-08-14T07:53:32Z</time>
      </trkpt>
      <trkpt lat="46.76225" lon="6.35318">
        <ele>1100</ele>
        <time>2022-08-14T07:53:34Z</time>
      </trkpt>
      <trkpt lat="46.76221" lon="6.35305">
        <ele>1099</ele>
        <time>2022-08-14T07:53:36Z</time>
      </trkpt>
      <trkpt lat="46.76217" lon="6.35293">
        <ele>1100</ele>
        <time>2022-08-14T07:53:38Z</time>
      </trkpt>
      <trkpt lat="46.76214" lon="6.35279">
        <ele>1099</ele>
        <time>2022-08-14T07:53:40Z</time>
      </trkpt>
      <trkpt lat="46.7621" lon="6.35265">
        <ele>1099</ele>
        <time>2022-08-14T07:53:42Z</time>
      </trkpt>
      <trkpt lat="46.76206" lon="6.35252">
        <ele>1098</ele>
        <time>2022-08-14T07:53:44Z</time>
      </trkpt>
      <trkpt lat="46.76199" lon="6.35241">
        <ele>1098</ele>
        <time>2022-08-14T07:53:46Z</time>
      </trkpt>
      <trkpt lat="46.7619" lon="6.35227">
        <ele>1099</ele>
        <time>2022-08-14T07:53:48Z</time>
      </trkpt>
      <trkpt lat="46.76182" lon="6.35213">
        <ele>1099</ele>
        <time>2022-08-14T07:53:51Z</time>
      </trkpt>
      <trkpt lat="46.76176" lon="6.35202">
        <ele>1099</ele>
        <time>2022-08-14T07:53:53Z</time>
      </trkpt>
      <trkpt lat="46.7617" lon="6.35192">
        <ele>1099</ele>
        <time>2022-08-14T07:53:55Z</time>
      </trkpt>
      <trkpt lat="46.76162" lon="6.35176">
        <ele>1099</ele>
        <time>2022-08-14T07:53:58Z</time>
      </trkpt>
      <trkpt lat="46.76156" lon="6.35164">
        <ele>1100</ele>
        <time>2022-08-14T07:54:00Z</time>
      </trkpt>
      <trkpt lat="46.76149" lon="6.3515">
        <ele>1098</ele>
        <time>2022-08-14T07:54:03Z</time>
      </trkpt>
      <trkpt lat="46.76139" lon="6.35135">
        <ele>1098</ele>
        <time>2022-08-14T07:54:06Z</time>
      </trkpt>
      <trkpt lat="46.76131" lon="6.35119">
        <ele>1096</ele>
        <time>2022-08-14T07:54:08Z</time>
      </trkpt>
      <trkpt lat="46.76121" lon="6.35103">
        <ele>1097</ele>
        <time>2022-08-14T07:54:10Z</time>
      </trkpt>
      <trkpt lat="46.76111" lon="6.35089">
        <ele>1096</ele>
        <time>2022-08-14T07:54:12Z</time>
      </trkpt>
      <trkpt lat="46.76103" lon="6.35074">
        <ele>1096</ele>
        <time>2022-08-14T07:54:14Z</time>
      </trkpt>
      <trkpt lat="46.76096" lon="6.35057">
        <ele>1096</ele>
        <time>2022-08-14T07:54:16Z</time>
      </trkpt>
      <trkpt lat="46.76089" lon="6.35039">
        <ele>1095</ele>
        <time>2022-08-14T07:54:18Z</time>
      </trkpt>
      <trkpt lat="46.76082" lon="6.35019">
        <ele>1095</ele>
        <time>2022-08-14T07:54:20Z</time>
      </trkpt>
      <trkpt lat="46.76076" lon="6.34998">
        <ele>1093</ele>
        <time>2022-08-14T07:54:22Z</time>
      </trkpt>
      <trkpt lat="46.76069" lon="6.34977">
        <ele>1092</ele>
        <time>2022-08-14T07:54:24Z</time>
      </trkpt>
      <trkpt lat="46.76061" lon="6.34955">
        <ele>1091</ele>
        <time>2022-08-14T07:54:26Z</time>
      </trkpt>
      <trkpt lat="46.76053" lon="6.34933">
        <ele>1090</ele>
        <time>2022-08-14T07:54:28Z</time>
      </trkpt>
      <trkpt lat="46.76046" lon="6.34912">
        <ele>1090</ele>
        <time>2022-08-14T07:54:30Z</time>
      </trkpt>
      <trkpt lat="46.76038" lon="6.34891">
        <ele>1088</ele>
        <time>2022-08-14T07:54:32Z</time>
      </trkpt>
      <trkpt lat="46.76029" lon="6.34871">
        <ele>1086</ele>
        <time>2022-08-14T07:54:34Z</time>
      </trkpt>
      <trkpt lat="46.76019" lon="6.34853">
        <ele>1085</ele>
        <time>2022-08-14T07:54:36Z</time>
      </trkpt>
      <trkpt lat="46.76012" lon="6.34835">
        <ele>1082</ele>
        <time>2022-08-14T07:54:38Z</time>
      </trkpt>
      <trkpt lat="46.76006" lon="6.34813">
        <ele>1081</ele>
        <time>2022-08-14T07:54:40Z</time>
      </trkpt>
      <trkpt lat="46.76003" lon="6.34792">
        <ele>1080</ele>
        <time>2022-08-14T07:54:42Z</time>
      </trkpt>
      <trkpt lat="46.75999" lon="6.34768">
        <ele>1074</ele>
        <time>2022-08-14T07:54:44Z</time>
      </trkpt>
      <trkpt lat="46.75998" lon="6.34754">
        <ele>1073</ele>
        <time>2022-08-14T07:54:45Z</time>
      </trkpt>
      <trkpt lat="46.75993" lon="6.34734">
        <ele>1071</ele>
        <time>2022-08-14T07:54:47Z</time>
      </trkpt>
      <trkpt lat="46.75986" lon="6.3472">
        <ele>1071</ele>
        <time>2022-08-14T07:54:49Z</time>
      </trkpt>
      <trkpt lat="46.75977" lon="6.34715">
        <ele>1071</ele>
        <time>2022-08-14T07:54:52Z</time>
      </trkpt>
      <trkpt lat="46.75967" lon="6.34723">
        <ele>1071</ele>
        <time>2022-08-14T07:54:56Z</time>
      </trkpt>
      <trkpt lat="46.75956" lon="6.34725">
        <ele>1071</ele>
        <time>2022-08-14T07:54:59Z</time>
      </trkpt>
      <trkpt lat="46.75946" lon="6.34723">
        <ele>1073</ele>
        <time>2022-08-14T07:55:02Z</time>
      </trkpt>
      <trkpt lat="46.75937" lon="6.3472">
        <ele>1075</ele>
        <time>2022-08-14T07:55:07Z</time>
      </trkpt>
      <trkpt lat="46.75928" lon="6.34715">
        <ele>1075</ele>
        <time>2022-08-14T07:55:11Z</time>
      </trkpt>
      <trkpt lat="46.75918" lon="6.34712">
        <ele>1079</ele>
        <time>2022-08-14T07:55:18Z</time>
      </trkpt>
      <trkpt lat="46.75909" lon="6.3471">
        <ele>1080</ele>
        <time>2022-08-14T07:55:24Z</time>
      </trkpt>
      <trkpt lat="46.75899" lon="6.34707">
        <ele>1084</ele>
        <time>2022-08-14T07:55:31Z</time>
      </trkpt>
      <trkpt lat="46.75889" lon="6.34705">
        <ele>1085</ele>
        <time>2022-08-14T07:55:37Z</time>
      </trkpt>
      <trkpt lat="46.7588" lon="6.34702">
        <ele>1086</ele>
        <time>2022-08-14T07:55:43Z</time>
      </trkpt>
      <trkpt lat="46.75871" lon="6.34703">
        <ele>1087</ele>
        <time>2022-08-14T07:55:51Z</time>
      </trkpt>
      <trkpt lat="46.75862" lon="6.34706">
        <ele>1088</ele>
        <time>2022-08-14T07:55:56Z</time>
      </trkpt>
      <trkpt lat="46.75852" lon="6.34702">
        <ele>1089</ele>
        <time>2022-08-14T07:56:03Z</time>
      </trkpt>
      <trkpt lat="46.75843" lon="6.34696">
        <ele>1091</ele>
        <time>2022-08-14T07:56:07Z</time>
      </trkpt>
      <trkpt lat="46.75829" lon="6.34684">
        <ele>1089</ele>
        <time>2022-08-14T07:56:16Z</time>
      </trkpt>
      <trkpt lat="46.7582" lon="6.34678">
        <ele>1091</ele>
        <time>2022-08-14T07:56:20Z</time>
      </trkpt>
      <trkpt lat="46.75811" lon="6.34673">
        <ele>1089</ele>
        <time>2022-08-14T07:56:24Z</time>
      </trkpt>
      <trkpt lat="46.75803" lon="6.34666">
        <ele>1088</ele>
        <time>2022-08-14T07:56:28Z</time>
      </trkpt>
      <trkpt lat="46.75794" lon="6.34654">
        <ele>1088</ele>
        <time>2022-08-14T07:56:31Z</time>
      </trkpt>
      <trkpt lat="46.75789" lon="6.34644">
        <ele>1088</ele>
        <time>2022-08-14T07:56:33Z</time>
      </trkpt>
      <trkpt lat="46.75783" lon="6.34633">
        <ele>1087</ele>
        <time>2022-08-14T07:56:35Z</time>
      </trkpt>
      <trkpt lat="46.75775" lon="6.34622">
        <ele>1087</ele>
        <time>2022-08-14T07:56:38Z</time>
      </trkpt>
      <trkpt lat="46.75769" lon="6.34613">
        <ele>1089</ele>
        <time>2022-08-14T07:56:41Z</time>
      </trkpt>
      <trkpt lat="46.7576" lon="6.34601">
        <ele>1090</ele>
        <time>2022-08-14T07:56:45Z</time>
      </trkpt>
      <trkpt lat="46.75754" lon="6.34587">
        <ele>1089</ele>
        <time>2022-08-14T07:56:48Z</time>
      </trkpt>
      <trkpt lat="46.75747" lon="6.34576">
        <ele>1089</ele>
        <time>2022-08-14T07:56:50Z</time>
      </trkpt>
      <trkpt lat="46.75739" lon="6.34564">
        <ele>1089</ele>
        <time>2022-08-14T07:56:54Z</time>
      </trkpt>
      <trkpt lat="46.75734" lon="6.34551">
        <ele>1090</ele>
        <time>2022-08-14T07:56:57Z</time>
      </trkpt>
      <trkpt lat="46.75732" lon="6.34536">
        <ele>1089</ele>
        <time>2022-08-14T07:56:59Z</time>
      </trkpt>
      <trkpt lat="46.75734" lon="6.34523">
        <ele>1088</ele>
        <time>2022-08-14T07:57:02Z</time>
      </trkpt>
      <trkpt lat="46.75739" lon="6.34509">
        <ele>1086</ele>
        <time>2022-08-14T07:57:05Z</time>
      </trkpt>
      <trkpt lat="46.75735" lon="6.34496">
        <ele>1083</ele>
        <time>2022-08-14T07:57:11Z</time>
      </trkpt>
      <trkpt lat="46.7573" lon="6.34484">
        <ele>1083</ele>
        <time>2022-08-14T07:57:14Z</time>
      </trkpt>
      <trkpt lat="46.75723" lon="6.34472">
        <ele>1082</ele>
        <time>2022-08-14T07:57:17Z</time>
      </trkpt>
      <trkpt lat="46.75717" lon="6.34462">
        <ele>1083</ele>
        <time>2022-08-14T07:57:20Z</time>
      </trkpt>
      <trkpt lat="46.75711" lon="6.34452">
        <ele>1085</ele>
        <time>2022-08-14T07:57:25Z</time>
      </trkpt>
      <trkpt lat="46.75703" lon="6.34441">
        <ele>1087</ele>
        <time>2022-08-14T07:57:30Z</time>
      </trkpt>
      <trkpt lat="46.75695" lon="6.34432">
        <ele>1089</ele>
        <time>2022-08-14T07:57:33Z</time>
      </trkpt>
      <trkpt lat="46.75687" lon="6.34424">
        <ele>1091</ele>
        <time>2022-08-14T07:57:36Z</time>
      </trkpt>
      <trkpt lat="46.75679" lon="6.34417">
        <ele>1090</ele>
        <time>2022-08-14T07:57:41Z</time>
      </trkpt>
      <trkpt lat="46.75673" lon="6.34406">
        <ele>1091</ele>
        <time>2022-08-14T07:57:45Z</time>
      </trkpt>
      <trkpt lat="46.75669" lon="6.3439">
        <ele>1092</ele>
        <time>2022-08-14T07:57:51Z</time>
      </trkpt>
      <trkpt lat="46.75666" lon="6.34377">
        <ele>1093</ele>
        <time>2022-08-14T07:57:55Z</time>
      </trkpt>
      <trkpt lat="46.75665" lon="6.34364">
        <ele>1095</ele>
        <time>2022-08-14T07:58:01Z</time>
      </trkpt>
      <trkpt lat="46.75664" lon="6.34351">
        <ele>1096</ele>
        <time>2022-08-14T07:58:06Z</time>
      </trkpt>
      <trkpt lat="46.75659" lon="6.34337">
        <ele>1095</ele>
        <time>2022-08-14T07:58:11Z</time>
      </trkpt>
      <trkpt lat="46.75654" lon="6.34326">
        <ele>1098</ele>
        <time>2022-08-14T07:58:17Z</time>
      </trkpt>
      <trkpt lat="46.75647" lon="6.34316">
        <ele>1101</ele>
        <time>2022-08-14T07:58:22Z</time>
      </trkpt>
      <trkpt lat="46.75641" lon="6.34305">
        <ele>1103</ele>
        <time>2022-08-14T07:58:28Z</time>
      </trkpt>
      <trkpt lat="46.75626" lon="6.34277">
        <ele>1105</ele>
        <time>2022-08-14T07:58:47Z</time>
      </trkpt>
      <trkpt lat="46.75609" lon="6.34259">
        <ele>1109</ele>
        <time>2022-08-14T07:59:00Z</time>
      </trkpt>
      <trkpt lat="46.75602" lon="6.3425">
        <ele>1109</ele>
        <time>2022-08-14T07:59:04Z</time>
      </trkpt>
      <trkpt lat="46.75596" lon="6.3424">
        <ele>1110</ele>
        <time>2022-08-14T07:59:11Z</time>
      </trkpt>
      <trkpt lat="46.75588" lon="6.3423">
        <ele>1111</ele>
        <time>2022-08-14T07:59:20Z</time>
      </trkpt>
      <trkpt lat="46.75552" lon="6.34202">
        <ele>1119</ele>
        <time>2022-08-14T07:59:56Z</time>
      </trkpt>
      <trkpt lat="46.75543" lon="6.34199">
        <ele>1120</ele>
        <time>2022-08-14T08:00:01Z</time>
      </trkpt>
      <trkpt lat="46.75533" lon="6.34195">
        <ele>1121</ele>
        <time>2022-08-14T08:00:08Z</time>
      </trkpt>
      <trkpt lat="46.75526" lon="6.34187">
        <ele>1122</ele>
        <time>2022-08-14T08:00:15Z</time>
      </trkpt>
      <trkpt lat="46.75516" lon="6.34182">
        <ele>1123</ele>
        <time>2022-08-14T08:00:21Z</time>
      </trkpt>
      <trkpt lat="46.75507" lon="6.34177">
        <ele>1124</ele>
        <time>2022-08-14T08:00:28Z</time>
      </trkpt>
      <trkpt lat="46.75497" lon="6.34174">
        <ele>1126</ele>
        <time>2022-08-14T08:00:36Z</time>
      </trkpt>
      <trkpt lat="46.75489" lon="6.34169">
        <ele>1126</ele>
        <time>2022-08-14T08:00:42Z</time>
      </trkpt>
      <trkpt lat="46.75481" lon="6.34161">
        <ele>1126</ele>
        <time>2022-08-14T08:00:49Z</time>
      </trkpt>
      <trkpt lat="46.75472" lon="6.34156">
        <ele>1126</ele>
        <time>2022-08-14T08:00:54Z</time>
      </trkpt>
      <trkpt lat="46.75463" lon="6.34149">
        <ele>1126</ele>
        <time>2022-08-14T08:00:58Z</time>
      </trkpt>
      <trkpt lat="46.75456" lon="6.34139">
        <ele>1126</ele>
        <time>2022-08-14T08:01:01Z</time>
      </trkpt>
      <trkpt lat="46.7545" lon="6.34129">
        <ele>1127</ele>
        <time>2022-08-14T08:01:03Z</time>
      </trkpt>
      <trkpt lat="46.75444" lon="6.34118">
        <ele>1126</ele>
        <time>2022-08-14T08:01:05Z</time>
      </trkpt>
      <trkpt lat="46.75435" lon="6.34107">
        <ele>1123</ele>
        <time>2022-08-14T08:01:08Z</time>
      </trkpt>
      <trkpt lat="46.75428" lon="6.34099">
        <ele>1123</ele>
        <time>2022-08-14T08:01:09Z</time>
      </trkpt>
      <trkpt lat="46.75418" lon="6.34086">
        <ele>1125</ele>
        <time>2022-08-14T08:01:13Z</time>
      </trkpt>
      <trkpt lat="46.75408" lon="6.34073">
        <ele>1123</ele>
        <time>2022-08-14T08:01:17Z</time>
      </trkpt>
      <trkpt lat="46.75399" lon="6.34063">
        <ele>1122</ele>
        <time>2022-08-14T08:01:19Z</time>
      </trkpt>
      <trkpt lat="46.75391" lon="6.34053">
        <ele>1122</ele>
        <time>2022-08-14T08:01:21Z</time>
      </trkpt>
      <trkpt lat="46.75377" lon="6.34036">
        <ele>1121</ele>
        <time>2022-08-14T08:01:24Z</time>
      </trkpt>
      <trkpt lat="46.75366" lon="6.34021">
        <ele>1118</ele>
        <time>2022-08-14T08:01:26Z</time>
      </trkpt>
      <trkpt lat="46.75354" lon="6.34004">
        <ele>1117</ele>
        <time>2022-08-14T08:01:28Z</time>
      </trkpt>
      <trkpt lat="46.75341" lon="6.33987">
        <ele>1115</ele>
        <time>2022-08-14T08:01:30Z</time>
      </trkpt>
      <trkpt lat="46.75327" lon="6.3397">
        <ele>1113</ele>
        <time>2022-08-14T08:01:32Z</time>
      </trkpt>
      <trkpt lat="46.75313" lon="6.33954">
        <ele>1111</ele>
        <time>2022-08-14T08:01:34Z</time>
      </trkpt>
      <trkpt lat="46.75305" lon="6.33947">
        <ele>1110</ele>
        <time>2022-08-14T08:01:35Z</time>
      </trkpt>
      <trkpt lat="46.75297" lon="6.33938">
        <ele>1109</ele>
        <time>2022-08-14T08:01:36Z</time>
      </trkpt>
      <trkpt lat="46.7529" lon="6.33928">
        <ele>1108</ele>
        <time>2022-08-14T08:01:37Z</time>
      </trkpt>
      <trkpt lat="46.75282" lon="6.33918">
        <ele>1107</ele>
        <time>2022-08-14T08:01:38Z</time>
      </trkpt>
      <trkpt lat="46.75275" lon="6.33908">
        <ele>1106</ele>
        <time>2022-08-14T08:01:39Z</time>
      </trkpt>
      <trkpt lat="46.75268" lon="6.33899">
        <ele>1105</ele>
        <time>2022-08-14T08:01:40Z</time>
      </trkpt>
      <trkpt lat="46.75261" lon="6.33889">
        <ele>1104</ele>
        <time>2022-08-14T08:01:41Z</time>
      </trkpt>
      <trkpt lat="46.75255" lon="6.33879">
        <ele>1103</ele>
        <time>2022-08-14T08:01:42Z</time>
      </trkpt>
      <trkpt lat="46.75248" lon="6.33868">
        <ele>1103</ele>
        <time>2022-08-14T08:01:43Z</time>
      </trkpt>
      <trkpt lat="46.75242" lon="6.33855">
        <ele>1102</ele>
        <time>2022-08-14T08:01:44Z</time>
      </trkpt>
      <trkpt lat="46.75236" lon="6.33842">
        <ele>1102</ele>
        <time>2022-08-14T08:01:45Z</time>
      </trkpt>
      <trkpt lat="46.7523" lon="6.33828">
        <ele>1101</ele>
        <time>2022-08-14T08:01:46Z</time>
      </trkpt>
      <trkpt lat="46.75225" lon="6.33814">
        <ele>1100</ele>
        <time>2022-08-14T08:01:47Z</time>
      </trkpt>
      <trkpt lat="46.7522" lon="6.338">
        <ele>1099</ele>
        <time>2022-08-14T08:01:48Z</time>
      </trkpt>
      <trkpt lat="46.75215" lon="6.33786">
        <ele>1099</ele>
        <time>2022-08-14T08:01:49Z</time>
      </trkpt>
      <trkpt lat="46.75209" lon="6.33772">
        <ele>1097</ele>
        <time>2022-08-14T08:01:50Z</time>
      </trkpt>
      <trkpt lat="46.75203" lon="6.33758">
        <ele>1096</ele>
        <time>2022-08-14T08:01:51Z</time>
      </trkpt>
      <trkpt lat="46.75197" lon="6.33745">
        <ele>1095</ele>
        <time>2022-08-14T08:01:52Z</time>
      </trkpt>
      <trkpt lat="46.75191" lon="6.33732">
        <ele>1094</ele>
        <time>2022-08-14T08:01:53Z</time>
      </trkpt>
      <trkpt lat="46.75184" lon="6.33721">
        <ele>1093</ele>
        <time>2022-08-14T08:01:54Z</time>
      </trkpt>
      <trkpt lat="46.75177" lon="6.3371">
        <ele>1093</ele>
        <time>2022-08-14T08:01:55Z</time>
      </trkpt>
      <trkpt lat="46.75169" lon="6.337">
        <ele>1092</ele>
        <time>2022-08-14T08:01:56Z</time>
      </trkpt>
      <trkpt lat="46.75161" lon="6.3369">
        <ele>1091</ele>
        <time>2022-08-14T08:01:57Z</time>
      </trkpt>
      <trkpt lat="46.75154" lon="6.33679">
        <ele>1090</ele>
        <time>2022-08-14T08:01:58Z</time>
      </trkpt>
      <trkpt lat="46.75149" lon="6.33668">
        <ele>1089</ele>
        <time>2022-08-14T08:01:59Z</time>
      </trkpt>
      <trkpt lat="46.75145" lon="6.33657">
        <ele>1089</ele>
        <time>2022-08-14T08:02:00Z</time>
      </trkpt>
      <trkpt lat="46.75143" lon="6.33643">
        <ele>1088</ele>
        <time>2022-08-14T08:02:01Z</time>
      </trkpt>
      <trkpt lat="46.75141" lon="6.33628">
        <ele>1088</ele>
        <time>2022-08-14T08:02:02Z</time>
      </trkpt>
      <trkpt lat="46.75141" lon="6.33614">
        <ele>1087</ele>
        <time>2022-08-14T08:02:03Z</time>
      </trkpt>
      <trkpt lat="46.75141" lon="6.33599">
        <ele>1086</ele>
        <time>2022-08-14T08:02:04Z</time>
      </trkpt>
      <trkpt lat="46.75141" lon="6.33584">
        <ele>1086</ele>
        <time>2022-08-14T08:02:05Z</time>
      </trkpt>
      <trkpt lat="46.75141" lon="6.33568">
        <ele>1085</ele>
        <time>2022-08-14T08:02:06Z</time>
      </trkpt>
      <trkpt lat="46.75141" lon="6.33553">
        <ele>1084</ele>
        <time>2022-08-14T08:02:07Z</time>
      </trkpt>
      <trkpt lat="46.75141" lon="6.33538">
        <ele>1083</ele>
        <time>2022-08-14T08:02:08Z</time>
      </trkpt>
      <trkpt lat="46.7514" lon="6.33523">
        <ele>1082</ele>
        <time>2022-08-14T08:02:09Z</time>
      </trkpt>
      <trkpt lat="46.7514" lon="6.33508">
        <ele>1082</ele>
        <time>2022-08-14T08:02:10Z</time>
      </trkpt>
      <trkpt lat="46.7514" lon="6.33493">
        <ele>1081</ele>
        <time>2022-08-14T08:02:11Z</time>
      </trkpt>
      <trkpt lat="46.75138" lon="6.33478">
        <ele>1081</ele>
        <time>2022-08-14T08:02:12Z</time>
      </trkpt>
      <trkpt lat="46.75136" lon="6.33463">
        <ele>1080</ele>
        <time>2022-08-14T08:02:13Z</time>
      </trkpt>
      <trkpt lat="46.75132" lon="6.33449">
        <ele>1079</ele>
        <time>2022-08-14T08:02:14Z</time>
      </trkpt>
      <trkpt lat="46.75129" lon="6.33434">
        <ele>1078</ele>
        <time>2022-08-14T08:02:15Z</time>
      </trkpt>
      <trkpt lat="46.75125" lon="6.3342">
        <ele>1077</ele>
        <time>2022-08-14T08:02:16Z</time>
      </trkpt>
      <trkpt lat="46.75121" lon="6.33405">
        <ele>1077</ele>
        <time>2022-08-14T08:02:17Z</time>
      </trkpt>
      <trkpt lat="46.75117" lon="6.33391">
        <ele>1076</ele>
        <time>2022-08-14T08:02:18Z</time>
      </trkpt>
      <trkpt lat="46.75113" lon="6.33377">
        <ele>1076</ele>
        <time>2022-08-14T08:02:19Z</time>
      </trkpt>
      <trkpt lat="46.75111" lon="6.33363">
        <ele>1075</ele>
        <time>2022-08-14T08:02:20Z</time>
      </trkpt>
      <trkpt lat="46.75107" lon="6.33348">
        <ele>1074</ele>
        <time>2022-08-14T08:02:21Z</time>
      </trkpt>
      <trkpt lat="46.75105" lon="6.33334">
        <ele>1073</ele>
        <time>2022-08-14T08:02:22Z</time>
      </trkpt>
      <trkpt lat="46.75101" lon="6.3332">
        <ele>1072</ele>
        <time>2022-08-14T08:02:23Z</time>
      </trkpt>
      <trkpt lat="46.75097" lon="6.33308">
        <ele>1071</ele>
        <time>2022-08-14T08:02:24Z</time>
      </trkpt>
      <trkpt lat="46.75093" lon="6.33295">
        <ele>1071</ele>
        <time>2022-08-14T08:02:25Z</time>
      </trkpt>
      <trkpt lat="46.75088" lon="6.33284">
        <ele>1070</ele>
        <time>2022-08-14T08:02:26Z</time>
      </trkpt>
      <trkpt lat="46.75079" lon="6.33253">
        <ele>1069</ele>
        <time>2022-08-14T08:02:29Z</time>
      </trkpt>
      <trkpt lat="46.75087" lon="6.33227">
        <ele>1067</ele>
        <time>2022-08-14T08:02:33Z</time>
      </trkpt>
      <trkpt lat="46.75106" lon="6.33215">
        <ele>1065</ele>
        <time>2022-08-14T08:02:38Z</time>
      </trkpt>
      <trkpt lat="46.75119" lon="6.33187">
        <ele>1061</ele>
        <time>2022-08-14T08:02:42Z</time>
      </trkpt>
      <trkpt lat="46.75121" lon="6.33153">
        <ele>1063</ele>
        <time>2022-08-14T08:02:46Z</time>
      </trkpt>
      <trkpt lat="46.75118" lon="6.33122">
        <ele>1062</ele>
        <time>2022-08-14T08:02:50Z</time>
      </trkpt>
      <trkpt lat="46.75109" lon="6.33092">
        <ele>1062</ele>
        <time>2022-08-14T08:02:54Z</time>
      </trkpt>
      <trkpt lat="46.75094" lon="6.3307">
        <ele>1059</ele>
        <time>2022-08-14T08:02:58Z</time>
      </trkpt>
      <trkpt lat="46.75085" lon="6.3306">
        <ele>1057</ele>
        <time>2022-08-14T08:03:00Z</time>
      </trkpt>
      <trkpt lat="46.75076" lon="6.3305">
        <ele>1056</ele>
        <time>2022-08-14T08:03:02Z</time>
      </trkpt>
      <trkpt lat="46.75065" lon="6.33038">
        <ele>1056</ele>
        <time>2022-08-14T08:03:04Z</time>
      </trkpt>
      <trkpt lat="46.75056" lon="6.33021">
        <ele>1055</ele>
        <time>2022-08-14T08:03:06Z</time>
      </trkpt>
      <trkpt lat="46.75049" lon="6.33002">
        <ele>1055</ele>
        <time>2022-08-14T08:03:08Z</time>
      </trkpt>
      <trkpt lat="46.75042" lon="6.32983">
        <ele>1054</ele>
        <time>2022-08-14T08:03:10Z</time>
      </trkpt>
      <trkpt lat="46.75037" lon="6.32967">
        <ele>1054</ele>
        <time>2022-08-14T08:03:12Z</time>
      </trkpt>
      <trkpt lat="46.75031" lon="6.32948">
        <ele>1053</ele>
        <time>2022-08-14T08:03:14Z</time>
      </trkpt>
      <trkpt lat="46.75025" lon="6.32929">
        <ele>1052</ele>
        <time>2022-08-14T08:03:16Z</time>
      </trkpt>
      <trkpt lat="46.75019" lon="6.3291">
        <ele>1052</ele>
        <time>2022-08-14T08:03:18Z</time>
      </trkpt>
      <trkpt lat="46.75013" lon="6.32891">
        <ele>1051</ele>
        <time>2022-08-14T08:03:20Z</time>
      </trkpt>
      <trkpt lat="46.75008" lon="6.32871">
        <ele>1050</ele>
        <time>2022-08-14T08:03:22Z</time>
      </trkpt>
      <trkpt lat="46.75003" lon="6.3285">
        <ele>1049</ele>
        <time>2022-08-14T08:03:24Z</time>
      </trkpt>
      <trkpt lat="46.74998" lon="6.32828">
        <ele>1048</ele>
        <time>2022-08-14T08:03:26Z</time>
      </trkpt>
      <trkpt lat="46.74993" lon="6.32804">
        <ele>1047</ele>
        <time>2022-08-14T08:03:28Z</time>
      </trkpt>
      <trkpt lat="46.74991" lon="6.32791">
        <ele>1047</ele>
        <time>2022-08-14T08:03:29Z</time>
      </trkpt>
      <trkpt lat="46.74986" lon="6.32767">
        <ele>1046</ele>
        <time>2022-08-14T08:03:31Z</time>
      </trkpt>
      <trkpt lat="46.7498" lon="6.32743">
        <ele>1045</ele>
        <time>2022-08-14T08:03:33Z</time>
      </trkpt>
      <trkpt lat="46.74977" lon="6.32719">
        <ele>1044</ele>
        <time>2022-08-14T08:03:35Z</time>
      </trkpt>
      <trkpt lat="46.74976" lon="6.32695">
        <ele>1042</ele>
        <time>2022-08-14T08:03:37Z</time>
      </trkpt>
      <trkpt lat="46.74975" lon="6.3267">
        <ele>1042</ele>
        <time>2022-08-14T08:03:39Z</time>
      </trkpt>
      <trkpt lat="46.74972" lon="6.32645">
        <ele>1041</ele>
        <time>2022-08-14T08:03:41Z</time>
      </trkpt>
      <trkpt lat="46.74967" lon="6.32621">
        <ele>1040</ele>
        <time>2022-08-14T08:03:43Z</time>
      </trkpt>
      <trkpt lat="46.74961" lon="6.32598">
        <ele>1037</ele>
        <time>2022-08-14T08:03:45Z</time>
      </trkpt>
      <trkpt lat="46.74955" lon="6.32578">
        <ele>1035</ele>
        <time>2022-08-14T08:03:47Z</time>
      </trkpt>
      <trkpt lat="46.74952" lon="6.32559">
        <ele>1034</ele>
        <time>2022-08-14T08:03:49Z</time>
      </trkpt>
      <trkpt lat="46.74949" lon="6.32542">
        <ele>1033</ele>
        <time>2022-08-14T08:03:51Z</time>
      </trkpt>
      <trkpt lat="46.74944" lon="6.32524">
        <ele>1030</ele>
        <time>2022-08-14T08:03:53Z</time>
      </trkpt>
      <trkpt lat="46.7494" lon="6.32505">
        <ele>1029</ele>
        <time>2022-08-14T08:03:55Z</time>
      </trkpt>
      <trkpt lat="46.74936" lon="6.32487">
        <ele>1026</ele>
        <time>2022-08-14T08:03:57Z</time>
      </trkpt>
      <trkpt lat="46.74934" lon="6.32469">
        <ele>1023</ele>
        <time>2022-08-14T08:03:59Z</time>
      </trkpt>
      <trkpt lat="46.7493" lon="6.32452">
        <ele>1021</ele>
        <time>2022-08-14T08:04:01Z</time>
      </trkpt>
      <trkpt lat="46.74927" lon="6.32437">
        <ele>1018</ele>
        <time>2022-08-14T08:04:03Z</time>
      </trkpt>
      <trkpt lat="46.74924" lon="6.32421">
        <ele>1016</ele>
        <time>2022-08-14T08:04:06Z</time>
      </trkpt>
      <trkpt lat="46.7492" lon="6.32404">
        <ele>1009</ele>
        <time>2022-08-14T08:04:09Z</time>
      </trkpt>
      <trkpt lat="46.74916" lon="6.3239">
        <ele>1008</ele>
        <time>2022-08-14T08:04:11Z</time>
      </trkpt>
      <trkpt lat="46.74911" lon="6.32377">
        <ele>1004</ele>
        <time>2022-08-14T08:04:13Z</time>
      </trkpt>
      <trkpt lat="46.74907" lon="6.32364">
        <ele>1003</ele>
        <time>2022-08-14T08:04:15Z</time>
      </trkpt>
      <trkpt lat="46.74903" lon="6.32336">
        <ele>1003</ele>
        <time>2022-08-14T08:04:21Z</time>
      </trkpt>
      <trkpt lat="46.74912" lon="6.32307">
        <ele>998</ele>
        <time>2022-08-14T08:04:27Z</time>
      </trkpt>
      <trkpt lat="46.74918" lon="6.32293">
        <ele>991</ele>
        <time>2022-08-14T08:04:29Z</time>
      </trkpt>
      <trkpt lat="46.74926" lon="6.32279">
        <ele>990</ele>
        <time>2022-08-14T08:04:31Z</time>
      </trkpt>
      <trkpt lat="46.74934" lon="6.32265">
        <ele>992</ele>
        <time>2022-08-14T08:04:33Z</time>
      </trkpt>
      <trkpt lat="46.74943" lon="6.32258">
        <ele>991</ele>
        <time>2022-08-14T08:04:35Z</time>
      </trkpt>
      <trkpt lat="46.74936" lon="6.32248">
        <ele>990</ele>
        <time>2022-08-14T08:04:40Z</time>
      </trkpt>
      <trkpt lat="46.74926" lon="6.32257">
        <ele>990</ele>
        <time>2022-08-14T08:04:44Z</time>
      </trkpt>
      <trkpt lat="46.74917" lon="6.32267">
        <ele>990</ele>
        <time>2022-08-14T08:04:46Z</time>
      </trkpt>
      <trkpt lat="46.74906" lon="6.32277">
        <ele>990</ele>
        <time>2022-08-14T08:04:49Z</time>
      </trkpt>
      <trkpt lat="46.74897" lon="6.32284">
        <ele>990</ele>
        <time>2022-08-14T08:04:52Z</time>
      </trkpt>
      <trkpt lat="46.74889" lon="6.3229">
        <ele>990</ele>
        <time>2022-08-14T08:04:53Z</time>
      </trkpt>
      <trkpt lat="46.7488" lon="6.32296">
        <ele>990</ele>
        <time>2022-08-14T08:04:56Z</time>
      </trkpt>
      <trkpt lat="46.7487" lon="6.32303">
        <ele>988</ele>
        <time>2022-08-14T08:04:59Z</time>
      </trkpt>
      <trkpt lat="46.74862" lon="6.32311">
        <ele>988</ele>
        <time>2022-08-14T08:05:02Z</time>
      </trkpt>
      <trkpt lat="46.74852" lon="6.32317">
        <ele>989</ele>
        <time>2022-08-14T08:05:04Z</time>
      </trkpt>
      <trkpt lat="46.74843" lon="6.32326">
        <ele>990</ele>
        <time>2022-08-14T08:05:06Z</time>
      </trkpt>
      <trkpt lat="46.74836" lon="6.32335">
        <ele>989</ele>
        <time>2022-08-14T08:05:09Z</time>
      </trkpt>
      <trkpt lat="46.74828" lon="6.32351">
        <ele>990</ele>
        <time>2022-08-14T08:05:11Z</time>
      </trkpt>
      <trkpt lat="46.7482" lon="6.32359">
        <ele>989</ele>
        <time>2022-08-14T08:05:13Z</time>
      </trkpt>
      <trkpt lat="46.74809" lon="6.32353">
        <ele>990</ele>
        <time>2022-08-14T08:05:16Z</time>
      </trkpt>
      <trkpt lat="46.74806" lon="6.32335">
        <ele>989</ele>
        <time>2022-08-14T08:05:19Z</time>
      </trkpt>
      <trkpt lat="46.74807" lon="6.32318">
        <ele>990</ele>
        <time>2022-08-14T08:05:21Z</time>
      </trkpt>
      <trkpt lat="46.74808" lon="6.32303">
        <ele>990</ele>
        <time>2022-08-14T08:05:23Z</time>
      </trkpt>
      <trkpt lat="46.74812" lon="6.32287">
        <ele>989</ele>
        <time>2022-08-14T08:05:25Z</time>
      </trkpt>
      <trkpt lat="46.74816" lon="6.32271">
        <ele>989</ele>
        <time>2022-08-14T08:05:27Z</time>
      </trkpt>
      <trkpt lat="46.7482" lon="6.32257">
        <ele>989</ele>
        <time>2022-08-14T08:05:29Z</time>
      </trkpt>
      <trkpt lat="46.74825" lon="6.32241">
        <ele>988</ele>
        <time>2022-08-14T08:05:31Z</time>
      </trkpt>
      <trkpt lat="46.74828" lon="6.32224">
        <ele>989</ele>
        <time>2022-08-14T08:05:33Z</time>
      </trkpt>
      <trkpt lat="46.74832" lon="6.32209">
        <ele>990</ele>
        <time>2022-08-14T08:05:35Z</time>
      </trkpt>
      <trkpt lat="46.74833" lon="6.32195">
        <ele>990</ele>
        <time>2022-08-14T08:05:37Z</time>
      </trkpt>
      <trkpt lat="46.74834" lon="6.3218">
        <ele>990</ele>
        <time>2022-08-14T08:05:39Z</time>
      </trkpt>
      <trkpt lat="46.74835" lon="6.32167">
        <ele>991</ele>
        <time>2022-08-14T08:05:41Z</time>
      </trkpt>
      <trkpt lat="46.74837" lon="6.3215">
        <ele>992</ele>
        <time>2022-08-14T08:05:44Z</time>
      </trkpt>
      <trkpt lat="46.74839" lon="6.32134">
        <ele>988</ele>
        <time>2022-08-14T08:05:48Z</time>
      </trkpt>
      <trkpt lat="46.74841" lon="6.32119">
        <ele>990</ele>
        <time>2022-08-14T08:05:51Z</time>
      </trkpt>
      <trkpt lat="46.74844" lon="6.32103">
        <ele>991</ele>
        <time>2022-08-14T08:05:55Z</time>
      </trkpt>
      <trkpt lat="46.74847" lon="6.32073">
        <ele>997</ele>
        <time>2022-08-14T08:06:02Z</time>
      </trkpt>
      <trkpt lat="46.74848" lon="6.32046">
        <ele>997</ele>
        <time>2022-08-14T08:06:09Z</time>
      </trkpt>
      <trkpt lat="46.74845" lon="6.32033">
        <ele>999</ele>
        <time>2022-08-14T08:06:15Z</time>
      </trkpt>
      <trkpt lat="46.74841" lon="6.32019">
        <ele>995</ele>
        <time>2022-08-14T08:06:23Z</time>
      </trkpt>
      <trkpt lat="46.74839" lon="6.32006">
        <ele>997</ele>
        <time>2022-08-14T08:06:30Z</time>
      </trkpt>
      <trkpt lat="46.74833" lon="6.31993">
        <ele>998</ele>
        <time>2022-08-14T08:06:37Z</time>
      </trkpt>
      <trkpt lat="46.74828" lon="6.31982">
        <ele>1000</ele>
        <time>2022-08-14T08:06:44Z</time>
      </trkpt>
      <trkpt lat="46.74824" lon="6.31968">
        <ele>1001</ele>
        <time>2022-08-14T08:06:49Z</time>
      </trkpt>
      <trkpt lat="46.7482" lon="6.31955">
        <ele>1001</ele>
        <time>2022-08-14T08:06:53Z</time>
      </trkpt>
      <trkpt lat="46.74816" lon="6.31943">
        <ele>1007</ele>
        <time>2022-08-14T08:06:57Z</time>
      </trkpt>
      <trkpt lat="46.74812" lon="6.3193">
        <ele>1007</ele>
        <time>2022-08-14T08:07:01Z</time>
      </trkpt>
      <trkpt lat="46.74809" lon="6.31914">
        <ele>1007</ele>
        <time>2022-08-14T08:07:06Z</time>
      </trkpt>
      <trkpt lat="46.74806" lon="6.31897">
        <ele>1007</ele>
        <time>2022-08-14T08:07:10Z</time>
      </trkpt>
      <trkpt lat="46.74801" lon="6.31884">
        <ele>1008</ele>
        <time>2022-08-14T08:07:13Z</time>
      </trkpt>
      <trkpt lat="46.74796" lon="6.31873">
        <ele>1009</ele>
        <time>2022-08-14T08:07:18Z</time>
      </trkpt>
      <trkpt lat="46.7479" lon="6.31863">
        <ele>1010</ele>
        <time>2022-08-14T08:07:23Z</time>
      </trkpt>
      <trkpt lat="46.74784" lon="6.31853">
        <ele>1010</ele>
        <time>2022-08-14T08:07:27Z</time>
      </trkpt>
      <trkpt lat="46.74777" lon="6.31841">
        <ele>1010</ele>
        <time>2022-08-14T08:07:31Z</time>
      </trkpt>
      <trkpt lat="46.7477" lon="6.31829">
        <ele>1010</ele>
        <time>2022-08-14T08:07:34Z</time>
      </trkpt>
      <trkpt lat="46.74764" lon="6.31818">
        <ele>1010</ele>
        <time>2022-08-14T08:07:36Z</time>
      </trkpt>
      <trkpt lat="46.74759" lon="6.31806">
        <ele>1011</ele>
        <time>2022-08-14T08:07:40Z</time>
      </trkpt>
      <trkpt lat="46.74754" lon="6.31795">
        <ele>1011</ele>
        <time>2022-08-14T08:07:43Z</time>
      </trkpt>
      <trkpt lat="46.74748" lon="6.31783">
        <ele>1012</ele>
        <time>2022-08-14T08:07:46Z</time>
      </trkpt>
      <trkpt lat="46.74743" lon="6.31772">
        <ele>1012</ele>
        <time>2022-08-14T08:07:49Z</time>
      </trkpt>
      <trkpt lat="46.74736" lon="6.3176">
        <ele>1012</ele>
        <time>2022-08-14T08:07:52Z</time>
      </trkpt>
      <trkpt lat="46.7473" lon="6.31747">
        <ele>1012</ele>
        <time>2022-08-14T08:07:54Z</time>
      </trkpt>
      <trkpt lat="46.74725" lon="6.31736">
        <ele>1012</ele>
        <time>2022-08-14T08:07:57Z</time>
      </trkpt>
      <trkpt lat="46.74718" lon="6.31724">
        <ele>1011</ele>
        <time>2022-08-14T08:07:59Z</time>
      </trkpt>
      <trkpt lat="46.74709" lon="6.31708">
        <ele>1011</ele>
        <time>2022-08-14T08:08:03Z</time>
      </trkpt>
      <trkpt lat="46.74705" lon="6.31697">
        <ele>1011</ele>
        <time>2022-08-14T08:08:05Z</time>
      </trkpt>
      <trkpt lat="46.74696" lon="6.31683">
        <ele>1011</ele>
        <time>2022-08-14T08:08:08Z</time>
      </trkpt>
      <trkpt lat="46.7469" lon="6.31671">
        <ele>1010</ele>
        <time>2022-08-14T08:08:10Z</time>
      </trkpt>
      <trkpt lat="46.74684" lon="6.31658">
        <ele>1010</ele>
        <time>2022-08-14T08:08:12Z</time>
      </trkpt>
      <trkpt lat="46.7468" lon="6.31644">
        <ele>1009</ele>
        <time>2022-08-14T08:08:14Z</time>
      </trkpt>
      <trkpt lat="46.74676" lon="6.31627">
        <ele>1009</ele>
        <time>2022-08-14T08:08:16Z</time>
      </trkpt>
      <trkpt lat="46.74669" lon="6.31611">
        <ele>1009</ele>
        <time>2022-08-14T08:08:18Z</time>
      </trkpt>
      <trkpt lat="46.7466" lon="6.31599">
        <ele>1009</ele>
        <time>2022-08-14T08:08:20Z</time>
      </trkpt>
      <trkpt lat="46.74652" lon="6.3159">
        <ele>1010</ele>
        <time>2022-08-14T08:08:22Z</time>
      </trkpt>
      <trkpt lat="46.74642" lon="6.3158">
        <ele>1010</ele>
        <time>2022-08-14T08:08:25Z</time>
      </trkpt>
      <trkpt lat="46.74625" lon="6.31568">
        <ele>1008</ele>
        <time>2022-08-14T08:08:30Z</time>
      </trkpt>
      <trkpt lat="46.74606" lon="6.31562">
        <ele>1008</ele>
        <time>2022-08-14T08:08:33Z</time>
      </trkpt>
      <trkpt lat="46.74596" lon="6.31565">
        <ele>1008</ele>
        <time>2022-08-14T08:08:36Z</time>
      </trkpt>
      <trkpt lat="46.74584" lon="6.31574">
        <ele>1011</ele>
        <time>2022-08-14T08:08:39Z</time>
      </trkpt>
      <trkpt lat="46.74575" lon="6.31579">
        <ele>1012</ele>
        <time>2022-08-14T08:08:42Z</time>
      </trkpt>
      <trkpt lat="46.74564" lon="6.31584">
        <ele>1013</ele>
        <time>2022-08-14T08:08:46Z</time>
      </trkpt>
      <trkpt lat="46.74555" lon="6.31588">
        <ele>1014</ele>
        <time>2022-08-14T08:08:51Z</time>
      </trkpt>
      <trkpt lat="46.74547" lon="6.31593">
        <ele>1015</ele>
        <time>2022-08-14T08:08:56Z</time>
      </trkpt>
      <trkpt lat="46.74538" lon="6.31597">
        <ele>1016</ele>
        <time>2022-08-14T08:09:02Z</time>
      </trkpt>
      <trkpt lat="46.74528" lon="6.31598">
        <ele>1018</ele>
        <time>2022-08-14T08:09:09Z</time>
      </trkpt>
      <trkpt lat="46.74518" lon="6.31598">
        <ele>1018</ele>
        <time>2022-08-14T08:09:14Z</time>
      </trkpt>
      <trkpt lat="46.74508" lon="6.31598">
        <ele>1019</ele>
        <time>2022-08-14T08:09:21Z</time>
      </trkpt>
      <trkpt lat="46.74497" lon="6.31598">
        <ele>1019</ele>
        <time>2022-08-14T08:09:26Z</time>
      </trkpt>
      <trkpt lat="46.74488" lon="6.31593">
        <ele>1020</ele>
        <time>2022-08-14T08:09:30Z</time>
      </trkpt>
      <trkpt lat="46.74478" lon="6.31586">
        <ele>1021</ele>
        <time>2022-08-14T08:09:36Z</time>
      </trkpt>
      <trkpt lat="46.7447" lon="6.31573">
        <ele>1022</ele>
        <time>2022-08-14T08:09:39Z</time>
      </trkpt>
      <trkpt lat="46.74464" lon="6.3156">
        <ele>1021</ele>
        <time>2022-08-14T08:09:43Z</time>
      </trkpt>
      <trkpt lat="46.74459" lon="6.31547">
        <ele>1020</ele>
        <time>2022-08-14T08:09:47Z</time>
      </trkpt>
      <trkpt lat="46.74456" lon="6.3153">
        <ele>1020</ele>
        <time>2022-08-14T08:09:49Z</time>
      </trkpt>
      <trkpt lat="46.74451" lon="6.31516">
        <ele>1020</ele>
        <time>2022-08-14T08:09:53Z</time>
      </trkpt>
      <trkpt lat="46.74445" lon="6.31502">
        <ele>1021</ele>
        <time>2022-08-14T08:09:55Z</time>
      </trkpt>
      <trkpt lat="46.7444" lon="6.31491">
        <ele>1019</ele>
        <time>2022-08-14T08:09:57Z</time>
      </trkpt>
      <trkpt lat="46.74434" lon="6.31472">
        <ele>1021</ele>
        <time>2022-08-14T08:10:01Z</time>
      </trkpt>
      <trkpt lat="46.7443" lon="6.3146">
        <ele>1022</ele>
        <time>2022-08-14T08:10:03Z</time>
      </trkpt>
      <trkpt lat="46.74425" lon="6.31449">
        <ele>1022</ele>
        <time>2022-08-14T08:10:05Z</time>
      </trkpt>
      <trkpt lat="46.74419" lon="6.31437">
        <ele>1022</ele>
        <time>2022-08-14T08:10:08Z</time>
      </trkpt>
      <trkpt lat="46.74412" lon="6.31424">
        <ele>1022</ele>
        <time>2022-08-14T08:10:12Z</time>
      </trkpt>
      <trkpt lat="46.74406" lon="6.31412">
        <ele>1022</ele>
        <time>2022-08-14T08:10:15Z</time>
      </trkpt>
      <trkpt lat="46.74402" lon="6.31399">
        <ele>1022</ele>
        <time>2022-08-14T08:10:17Z</time>
      </trkpt>
      <trkpt lat="46.74395" lon="6.31383">
        <ele>1021</ele>
        <time>2022-08-14T08:10:20Z</time>
      </trkpt>
      <trkpt lat="46.74389" lon="6.31368">
        <ele>1020</ele>
        <time>2022-08-14T08:10:23Z</time>
      </trkpt>
      <trkpt lat="46.7438" lon="6.31343">
        <ele>1022</ele>
        <time>2022-08-14T08:10:29Z</time>
      </trkpt>
      <trkpt lat="46.7437" lon="6.31316">
        <ele>1025</ele>
        <time>2022-08-14T08:10:34Z</time>
      </trkpt>
      <trkpt lat="46.74364" lon="6.31304">
        <ele>1021</ele>
        <time>2022-08-14T08:10:37Z</time>
      </trkpt>
      <trkpt lat="46.74356" lon="6.31295">
        <ele>1026</ele>
        <time>2022-08-14T08:10:40Z</time>
      </trkpt>
      <trkpt lat="46.74346" lon="6.31291">
        <ele>1027</ele>
        <time>2022-08-14T08:10:47Z</time>
      </trkpt>
      <trkpt lat="46.74336" lon="6.3129">
        <ele>1028</ele>
        <time>2022-08-14T08:10:52Z</time>
      </trkpt>
      <trkpt lat="46.74326" lon="6.31285">
        <ele>1028</ele>
        <time>2022-08-14T08:11:00Z</time>
      </trkpt>
      <trkpt lat="46.74318" lon="6.31277">
        <ele>1028</ele>
        <time>2022-08-14T08:11:07Z</time>
      </trkpt>
      <trkpt lat="46.74312" lon="6.31267">
        <ele>1029</ele>
        <time>2022-08-14T08:11:14Z</time>
      </trkpt>
      <trkpt lat="46.74307" lon="6.31256">
        <ele>1029</ele>
        <time>2022-08-14T08:11:17Z</time>
      </trkpt>
      <trkpt lat="46.74302" lon="6.31244">
        <ele>1029</ele>
        <time>2022-08-14T08:11:20Z</time>
      </trkpt>
      <trkpt lat="46.74296" lon="6.31229">
        <ele>1029</ele>
        <time>2022-08-14T08:11:23Z</time>
      </trkpt>
      <trkpt lat="46.74291" lon="6.31218">
        <ele>1030</ele>
        <time>2022-08-14T08:11:26Z</time>
      </trkpt>
      <trkpt lat="46.74285" lon="6.31205">
        <ele>1028</ele>
        <time>2022-08-14T08:11:32Z</time>
      </trkpt>
      <trkpt lat="46.7428" lon="6.3119">
        <ele>1027</ele>
        <time>2022-08-14T08:11:36Z</time>
      </trkpt>
      <trkpt lat="46.74273" lon="6.31177">
        <ele>1028</ele>
        <time>2022-08-14T08:11:40Z</time>
      </trkpt>
      <trkpt lat="46.74265" lon="6.31166">
        <ele>1030</ele>
        <time>2022-08-14T08:11:42Z</time>
      </trkpt>
      <trkpt lat="46.74258" lon="6.31157">
        <ele>1030</ele>
        <time>2022-08-14T08:11:45Z</time>
      </trkpt>
      <trkpt lat="46.74249" lon="6.31147">
        <ele>1032</ele>
        <time>2022-08-14T08:11:48Z</time>
      </trkpt>
      <trkpt lat="46.74241" lon="6.3114">
        <ele>1032</ele>
        <time>2022-08-14T08:11:51Z</time>
      </trkpt>
      <trkpt lat="46.74232" lon="6.3113">
        <ele>1031</ele>
        <time>2022-08-14T08:11:54Z</time>
      </trkpt>
      <trkpt lat="46.74223" lon="6.31122">
        <ele>1034</ele>
        <time>2022-08-14T08:11:57Z</time>
      </trkpt>
      <trkpt lat="46.74214" lon="6.31115">
        <ele>1034</ele>
        <time>2022-08-14T08:11:59Z</time>
      </trkpt>
      <trkpt lat="46.74197" lon="6.31104">
        <ele>1036</ele>
        <time>2022-08-14T08:12:05Z</time>
      </trkpt>
      <trkpt lat="46.74186" lon="6.31098">
        <ele>1037</ele>
        <time>2022-08-14T08:12:10Z</time>
      </trkpt>
      <trkpt lat="46.74175" lon="6.31092">
        <ele>1038</ele>
        <time>2022-08-14T08:12:16Z</time>
      </trkpt>
      <trkpt lat="46.74166" lon="6.31084">
        <ele>1038</ele>
        <time>2022-08-14T08:12:19Z</time>
      </trkpt>
      <trkpt lat="46.74155" lon="6.31075">
        <ele>1038</ele>
        <time>2022-08-14T08:12:22Z</time>
      </trkpt>
      <trkpt lat="46.74146" lon="6.31068">
        <ele>1038</ele>
        <time>2022-08-14T08:12:25Z</time>
      </trkpt>
      <trkpt lat="46.74138" lon="6.31062">
        <ele>1038</ele>
        <time>2022-08-14T08:12:28Z</time>
      </trkpt>
      <trkpt lat="46.74129" lon="6.31054">
        <ele>1037</ele>
        <time>2022-08-14T08:12:31Z</time>
      </trkpt>
      <trkpt lat="46.74121" lon="6.31045">
        <ele>1037</ele>
        <time>2022-08-14T08:12:33Z</time>
      </trkpt>
      <trkpt lat="46.74114" lon="6.31034">
        <ele>1036</ele>
        <time>2022-08-14T08:12:36Z</time>
      </trkpt>
      <trkpt lat="46.74109" lon="6.3102">
        <ele>1034</ele>
        <time>2022-08-14T08:12:39Z</time>
      </trkpt>
      <trkpt lat="46.74102" lon="6.31007">
        <ele>1033</ele>
        <time>2022-08-14T08:12:41Z</time>
      </trkpt>
      <trkpt lat="46.74102" lon="6.30989">
        <ele>1029</ele>
        <time>2022-08-14T08:12:43Z</time>
      </trkpt>
      <trkpt lat="46.74109" lon="6.30975">
        <ele>1027</ele>
        <time>2022-08-14T08:12:45Z</time>
      </trkpt>
      <trkpt lat="46.74118" lon="6.30963">
        <ele>1025</ele>
        <time>2022-08-14T08:12:47Z</time>
      </trkpt>
      <trkpt lat="46.74127" lon="6.30956">
        <ele>1024</ele>
        <time>2022-08-14T08:12:49Z</time>
      </trkpt>
      <trkpt lat="46.7413" lon="6.30941">
        <ele>1023</ele>
        <time>2022-08-14T08:12:52Z</time>
      </trkpt>
      <trkpt lat="46.74121" lon="6.30935">
        <ele>1022</ele>
        <time>2022-08-14T08:12:55Z</time>
      </trkpt>
      <trkpt lat="46.74111" lon="6.30932">
        <ele>1022</ele>
        <time>2022-08-14T08:12:57Z</time>
      </trkpt>
      <trkpt lat="46.74103" lon="6.30927">
        <ele>1022</ele>
        <time>2022-08-14T08:12:59Z</time>
      </trkpt>
      <trkpt lat="46.74093" lon="6.30923">
        <ele>1022</ele>
        <time>2022-08-14T08:13:02Z</time>
      </trkpt>
      <trkpt lat="46.74084" lon="6.30921">
        <ele>1021</ele>
        <time>2022-08-14T08:13:07Z</time>
      </trkpt>
      <trkpt lat="46.74074" lon="6.30918">
        <ele>1021</ele>
        <time>2022-08-14T08:13:09Z</time>
      </trkpt>
      <trkpt lat="46.74064" lon="6.30916">
        <ele>1021</ele>
        <time>2022-08-14T08:13:12Z</time>
      </trkpt>
      <trkpt lat="46.74054" lon="6.30915">
        <ele>1021</ele>
        <time>2022-08-14T08:13:13Z</time>
      </trkpt>
      <trkpt lat="46.74044" lon="6.30915">
        <ele>1021</ele>
        <time>2022-08-14T08:13:15Z</time>
      </trkpt>
      <trkpt lat="46.74032" lon="6.30916">
        <ele>1021</ele>
        <time>2022-08-14T08:13:19Z</time>
      </trkpt>
      <trkpt lat="46.7402" lon="6.30917">
        <ele>1021</ele>
        <time>2022-08-14T08:13:22Z</time>
      </trkpt>
      <trkpt lat="46.74009" lon="6.30917">
        <ele>1021</ele>
        <time>2022-08-14T08:13:24Z</time>
      </trkpt>
      <trkpt lat="46.73997" lon="6.30914">
        <ele>1021</ele>
        <time>2022-08-14T08:13:27Z</time>
      </trkpt>
      <trkpt lat="46.73989" lon="6.30911">
        <ele>1021</ele>
        <time>2022-08-14T08:13:29Z</time>
      </trkpt>
      <trkpt lat="46.73979" lon="6.30908">
        <ele>1021</ele>
        <time>2022-08-14T08:13:31Z</time>
      </trkpt>
      <trkpt lat="46.7397" lon="6.30907">
        <ele>1022</ele>
        <time>2022-08-14T08:13:33Z</time>
      </trkpt>
      <trkpt lat="46.73958" lon="6.30901">
        <ele>1022</ele>
        <time>2022-08-14T08:13:36Z</time>
      </trkpt>
      <trkpt lat="46.73946" lon="6.30902">
        <ele>1022</ele>
        <time>2022-08-14T08:13:39Z</time>
      </trkpt>
      <trkpt lat="46.73936" lon="6.30901">
        <ele>1022</ele>
        <time>2022-08-14T08:13:42Z</time>
      </trkpt>
      <trkpt lat="46.73925" lon="6.30897">
        <ele>1023</ele>
        <time>2022-08-14T08:13:45Z</time>
      </trkpt>
      <trkpt lat="46.73915" lon="6.30892">
        <ele>1023</ele>
        <time>2022-08-14T08:13:47Z</time>
      </trkpt>
      <trkpt lat="46.73904" lon="6.30888">
        <ele>1024</ele>
        <time>2022-08-14T08:13:50Z</time>
      </trkpt>
      <trkpt lat="46.73893" lon="6.30886">
        <ele>1023</ele>
        <time>2022-08-14T08:13:53Z</time>
      </trkpt>
      <trkpt lat="46.73883" lon="6.30885">
        <ele>1023</ele>
        <time>2022-08-14T08:13:56Z</time>
      </trkpt>
      <trkpt lat="46.73875" lon="6.30889">
        <ele>1025</ele>
        <time>2022-08-14T08:14:02Z</time>
      </trkpt>
      <trkpt lat="46.73865" lon="6.30889">
        <ele>1026</ele>
        <time>2022-08-14T08:14:09Z</time>
      </trkpt>
      <trkpt lat="46.73862" lon="6.30876">
        <ele>1027</ele>
        <time>2022-08-14T08:14:16Z</time>
      </trkpt>
      <trkpt lat="46.7386" lon="6.30861">
        <ele>1028</ele>
        <time>2022-08-14T08:14:21Z</time>
      </trkpt>
      <trkpt lat="46.73857" lon="6.30848">
        <ele>1029</ele>
        <time>2022-08-14T08:14:27Z</time>
      </trkpt>
      <trkpt lat="46.73856" lon="6.30817">
        <ele>1033</ele>
        <time>2022-08-14T08:14:42Z</time>
      </trkpt>
      <trkpt lat="46.73859" lon="6.30802">
        <ele>1029</ele>
        <time>2022-08-14T08:14:44Z</time>
      </trkpt>
      <trkpt lat="46.73861" lon="6.30784">
        <ele>1028</ele>
        <time>2022-08-14T08:14:47Z</time>
      </trkpt>
      <trkpt lat="46.73866" lon="6.30762">
        <ele>1024</ele>
        <time>2022-08-14T08:14:52Z</time>
      </trkpt>
      <trkpt lat="46.73855" lon="6.30711">
        <ele>1028</ele>
        <time>2022-08-14T08:15:18Z</time>
      </trkpt>
      <trkpt lat="46.73852" lon="6.30698">
        <ele>1029</ele>
        <time>2022-08-14T08:15:22Z</time>
      </trkpt>
      <trkpt lat="46.73847" lon="6.30685">
        <ele>1030</ele>
        <time>2022-08-14T08:15:28Z</time>
      </trkpt>
      <trkpt lat="46.73815" lon="6.30614">
        <ele>1039</ele>
        <time>2022-08-14T08:16:10Z</time>
      </trkpt>
      <trkpt lat="46.73811" lon="6.306">
        <ele>1039</ele>
        <time>2022-08-14T08:16:14Z</time>
      </trkpt>
      <trkpt lat="46.73808" lon="6.30587">
        <ele>1039</ele>
        <time>2022-08-14T08:16:18Z</time>
      </trkpt>
      <trkpt lat="46.73806" lon="6.30573">
        <ele>1039</ele>
        <time>2022-08-14T08:16:21Z</time>
      </trkpt>
      <trkpt lat="46.73802" lon="6.3056">
        <ele>1039</ele>
        <time>2022-08-14T08:16:24Z</time>
      </trkpt>
      <trkpt lat="46.73798" lon="6.30547">
        <ele>1040</ele>
        <time>2022-08-14T08:16:26Z</time>
      </trkpt>
      <trkpt lat="46.73792" lon="6.30519">
        <ele>1040</ele>
        <time>2022-08-14T08:16:32Z</time>
      </trkpt>
      <trkpt lat="46.73786" lon="6.30495">
        <ele>1040</ele>
        <time>2022-08-14T08:16:40Z</time>
      </trkpt>
      <trkpt lat="46.73782" lon="6.30482">
        <ele>1040</ele>
        <time>2022-08-14T08:16:44Z</time>
      </trkpt>
      <trkpt lat="46.73774" lon="6.30472">
        <ele>1041</ele>
        <time>2022-08-14T08:16:47Z</time>
      </trkpt>
      <trkpt lat="46.73768" lon="6.30458">
        <ele>1041</ele>
        <time>2022-08-14T08:16:50Z</time>
      </trkpt>
      <trkpt lat="46.73767" lon="6.30442">
        <ele>1040</ele>
        <time>2022-08-14T08:16:53Z</time>
      </trkpt>
      <trkpt lat="46.73775" lon="6.30433">
        <ele>1038</ele>
        <time>2022-08-14T08:16:56Z</time>
      </trkpt>
      <trkpt lat="46.73781" lon="6.30422">
        <ele>1037</ele>
        <time>2022-08-14T08:16:59Z</time>
      </trkpt>
      <trkpt lat="46.73793" lon="6.30395">
        <ele>1035</ele>
        <time>2022-08-14T08:17:03Z</time>
      </trkpt>
      <trkpt lat="46.73795" lon="6.30372">
        <ele>1033</ele>
        <time>2022-08-14T08:17:05Z</time>
      </trkpt>
      <trkpt lat="46.73795" lon="6.30348">
        <ele>1031</ele>
        <time>2022-08-14T08:17:07Z</time>
      </trkpt>
      <trkpt lat="46.73795" lon="6.30324">
        <ele>1028</ele>
        <time>2022-08-14T08:17:09Z</time>
      </trkpt>
      <trkpt lat="46.73793" lon="6.30299">
        <ele>1028</ele>
        <time>2022-08-14T08:17:11Z</time>
      </trkpt>
      <trkpt lat="46.73791" lon="6.30274">
        <ele>1026</ele>
        <time>2022-08-14T08:17:13Z</time>
      </trkpt>
      <trkpt lat="46.73788" lon="6.30254">
        <ele>1025</ele>
        <time>2022-08-14T08:17:15Z</time>
      </trkpt>
      <trkpt lat="46.73786" lon="6.30238">
        <ele>1024</ele>
        <time>2022-08-14T08:17:17Z</time>
      </trkpt>
      <trkpt lat="46.73784" lon="6.30225">
        <ele>1025</ele>
        <time>2022-08-14T08:17:19Z</time>
      </trkpt>
      <trkpt lat="46.7378" lon="6.30212">
        <ele>1025</ele>
        <time>2022-08-14T08:17:22Z</time>
      </trkpt>
      <trkpt lat="46.73775" lon="6.30199">
        <ele>1023</ele>
        <time>2022-08-14T08:17:25Z</time>
      </trkpt>
      <trkpt lat="46.73772" lon="6.30186">
        <ele>1025</ele>
        <time>2022-08-14T08:17:28Z</time>
      </trkpt>
      <trkpt lat="46.73766" lon="6.30171">
        <ele>1025</ele>
        <time>2022-08-14T08:17:31Z</time>
      </trkpt>
      <trkpt lat="46.73754" lon="6.3015">
        <ele>1027</ele>
        <time>2022-08-14T08:17:39Z</time>
      </trkpt>
      <trkpt lat="46.73747" lon="6.30137">
        <ele>1027</ele>
        <time>2022-08-14T08:17:45Z</time>
      </trkpt>
      <trkpt lat="46.73743" lon="6.30125">
        <ele>1028</ele>
        <time>2022-08-14T08:17:50Z</time>
      </trkpt>
      <trkpt lat="46.73739" lon="6.30112">
        <ele>1030</ele>
        <time>2022-08-14T08:17:56Z</time>
      </trkpt>
      <trkpt lat="46.73733" lon="6.30101">
        <ele>1031</ele>
        <time>2022-08-14T08:18:02Z</time>
      </trkpt>
      <trkpt lat="46.73727" lon="6.30091">
        <ele>1032</ele>
        <time>2022-08-14T08:18:05Z</time>
      </trkpt>
      <trkpt lat="46.7372" lon="6.30082">
        <ele>1032</ele>
        <time>2022-08-14T08:18:09Z</time>
      </trkpt>
      <trkpt lat="46.73712" lon="6.30073">
        <ele>1032</ele>
        <time>2022-08-14T08:18:11Z</time>
      </trkpt>
      <trkpt lat="46.73706" lon="6.30064">
        <ele>1032</ele>
        <time>2022-08-14T08:18:15Z</time>
      </trkpt>
      <trkpt lat="46.73702" lon="6.30051">
        <ele>1031</ele>
        <time>2022-08-14T08:18:19Z</time>
      </trkpt>
      <trkpt lat="46.73697" lon="6.30037">
        <ele>1032</ele>
        <time>2022-08-14T08:18:23Z</time>
      </trkpt>
      <trkpt lat="46.73693" lon="6.30022">
        <ele>1033</ele>
        <time>2022-08-14T08:18:26Z</time>
      </trkpt>
      <trkpt lat="46.73692" lon="6.30008">
        <ele>1034</ele>
        <time>2022-08-14T08:18:29Z</time>
      </trkpt>
      <trkpt lat="46.73688" lon="6.29994">
        <ele>1034</ele>
        <time>2022-08-14T08:18:32Z</time>
      </trkpt>
      <trkpt lat="46.73684" lon="6.29982">
        <ele>1035</ele>
        <time>2022-08-14T08:18:35Z</time>
      </trkpt>
      <trkpt lat="46.7368" lon="6.29971">
        <ele>1036</ele>
        <time>2022-08-14T08:18:37Z</time>
      </trkpt>
      <trkpt lat="46.73675" lon="6.29956">
        <ele>1038</ele>
        <time>2022-08-14T08:18:41Z</time>
      </trkpt>
      <trkpt lat="46.7367" lon="6.29943">
        <ele>1036</ele>
        <time>2022-08-14T08:18:45Z</time>
      </trkpt>
      <trkpt lat="46.73667" lon="6.29929">
        <ele>1034</ele>
        <time>2022-08-14T08:18:50Z</time>
      </trkpt>
      <trkpt lat="46.73664" lon="6.29914">
        <ele>1034</ele>
        <time>2022-08-14T08:18:53Z</time>
      </trkpt>
      <trkpt lat="46.73659" lon="6.29887">
        <ele>1031</ele>
        <time>2022-08-14T08:18:59Z</time>
      </trkpt>
      <trkpt lat="46.73651" lon="6.29863">
        <ele>1028</ele>
        <time>2022-08-14T08:19:04Z</time>
      </trkpt>
      <trkpt lat="46.73645" lon="6.29842">
        <ele>1027</ele>
        <time>2022-08-14T08:19:06Z</time>
      </trkpt>
      <trkpt lat="46.73636" lon="6.29815">
        <ele>1028</ele>
        <time>2022-08-14T08:19:10Z</time>
      </trkpt>
      <trkpt lat="46.73627" lon="6.29787">
        <ele>1026</ele>
        <time>2022-08-14T08:19:14Z</time>
      </trkpt>
      <trkpt lat="46.73616" lon="6.29757">
        <ele>1024</ele>
        <time>2022-08-14T08:19:17Z</time>
      </trkpt>
      <trkpt lat="46.73602" lon="6.29714">
        <ele>1024</ele>
        <time>2022-08-14T08:19:21Z</time>
      </trkpt>
      <trkpt lat="46.73594" lon="6.2968">
        <ele>1022</ele>
        <time>2022-08-14T08:19:24Z</time>
      </trkpt>
      <trkpt lat="46.73588" lon="6.29664">
        <ele>1019</ele>
        <time>2022-08-14T08:19:26Z</time>
      </trkpt>
      <trkpt lat="46.73582" lon="6.29652">
        <ele>1021</ele>
        <time>2022-08-14T08:19:27Z</time>
      </trkpt>
      <trkpt lat="46.73578" lon="6.29639">
        <ele>1021</ele>
        <time>2022-08-14T08:19:29Z</time>
      </trkpt>
      <trkpt lat="46.73571" lon="6.29625">
        <ele>1021</ele>
        <time>2022-08-14T08:19:32Z</time>
      </trkpt>
      <trkpt lat="46.73561" lon="6.29615">
        <ele>1022</ele>
        <time>2022-08-14T08:19:35Z</time>
      </trkpt>
      <trkpt lat="46.73551" lon="6.296">
        <ele>1021</ele>
        <time>2022-08-14T08:19:37Z</time>
      </trkpt>
      <trkpt lat="46.73549" lon="6.29584">
        <ele>1018</ele>
        <time>2022-08-14T08:19:39Z</time>
      </trkpt>
      <trkpt lat="46.73543" lon="6.29566">
        <ele>1017</ele>
        <time>2022-08-14T08:19:41Z</time>
      </trkpt>
      <trkpt lat="46.73538" lon="6.29549">
        <ele>1016</ele>
        <time>2022-08-14T08:19:43Z</time>
      </trkpt>
      <trkpt lat="46.73532" lon="6.29535">
        <ele>1017</ele>
        <time>2022-08-14T08:19:45Z</time>
      </trkpt>
      <trkpt lat="46.73526" lon="6.29522">
        <ele>1017</ele>
        <time>2022-08-14T08:19:47Z</time>
      </trkpt>
      <trkpt lat="46.73523" lon="6.29509">
        <ele>1017</ele>
        <time>2022-08-14T08:19:49Z</time>
      </trkpt>
      <trkpt lat="46.73517" lon="6.29496">
        <ele>1017</ele>
        <time>2022-08-14T08:19:52Z</time>
      </trkpt>
      <trkpt lat="46.73511" lon="6.29482">
        <ele>1016</ele>
        <time>2022-08-14T08:19:56Z</time>
      </trkpt>
      <trkpt lat="46.73505" lon="6.29468">
        <ele>1016</ele>
        <time>2022-08-14T08:19:59Z</time>
      </trkpt>
      <trkpt lat="46.73498" lon="6.29456">
        <ele>1017</ele>
        <time>2022-08-14T08:20:02Z</time>
      </trkpt>
      <trkpt lat="46.73492" lon="6.29445">
        <ele>1017</ele>
        <time>2022-08-14T08:20:05Z</time>
      </trkpt>
      <trkpt lat="46.73487" lon="6.29434">
        <ele>1018</ele>
        <time>2022-08-14T08:20:09Z</time>
      </trkpt>
      <trkpt lat="46.73478" lon="6.29427">
        <ele>1020</ele>
        <time>2022-08-14T08:20:16Z</time>
      </trkpt>
      <trkpt lat="46.73469" lon="6.29423">
        <ele>1021</ele>
        <time>2022-08-14T08:20:23Z</time>
      </trkpt>
      <trkpt lat="46.73461" lon="6.29414">
        <ele>1025</ele>
        <time>2022-08-14T08:20:31Z</time>
      </trkpt>
      <trkpt lat="46.73453" lon="6.29406">
        <ele>1026</ele>
        <time>2022-08-14T08:20:38Z</time>
      </trkpt>
      <trkpt lat="46.73444" lon="6.294">
        <ele>1030</ele>
        <time>2022-08-14T08:20:44Z</time>
      </trkpt>
      <trkpt lat="46.73437" lon="6.29393">
        <ele>1031</ele>
        <time>2022-08-14T08:20:51Z</time>
      </trkpt>
      <trkpt lat="46.7343" lon="6.29381">
        <ele>1032</ele>
        <time>2022-08-14T08:20:59Z</time>
      </trkpt>
      <trkpt lat="46.73426" lon="6.29368">
        <ele>1031</ele>
        <time>2022-08-14T08:21:02Z</time>
      </trkpt>
      <trkpt lat="46.73422" lon="6.29353">
        <ele>1033</ele>
        <time>2022-08-14T08:21:07Z</time>
      </trkpt>
      <trkpt lat="46.73417" lon="6.29339">
        <ele>1031</ele>
        <time>2022-08-14T08:21:12Z</time>
      </trkpt>
      <trkpt lat="46.73413" lon="6.29324">
        <ele>1032</ele>
        <time>2022-08-14T08:21:18Z</time>
      </trkpt>
      <trkpt lat="46.7341" lon="6.29312">
        <ele>1032</ele>
        <time>2022-08-14T08:21:23Z</time>
      </trkpt>
      <trkpt lat="46.73406" lon="6.29299">
        <ele>1033</ele>
        <time>2022-08-14T08:21:27Z</time>
      </trkpt>
      <trkpt lat="46.73401" lon="6.29287">
        <ele>1032</ele>
        <time>2022-08-14T08:21:31Z</time>
      </trkpt>
      <trkpt lat="46.73399" lon="6.29268">
        <ele>1032</ele>
        <time>2022-08-14T08:21:35Z</time>
      </trkpt>
      <trkpt lat="46.73396" lon="6.29255">
        <ele>1034</ele>
        <time>2022-08-14T08:21:39Z</time>
      </trkpt>
      <trkpt lat="46.73392" lon="6.29242">
        <ele>1033</ele>
        <time>2022-08-14T08:21:45Z</time>
      </trkpt>
      <trkpt lat="46.73386" lon="6.2923">
        <ele>1036</ele>
        <time>2022-08-14T08:21:50Z</time>
      </trkpt>
      <trkpt lat="46.73379" lon="6.29216">
        <ele>1039</ele>
        <time>2022-08-14T08:21:56Z</time>
      </trkpt>
      <trkpt lat="46.73373" lon="6.29202">
        <ele>1034</ele>
        <time>2022-08-14T08:22:02Z</time>
      </trkpt>
      <trkpt lat="46.73366" lon="6.29189">
        <ele>1039</ele>
        <time>2022-08-14T08:22:09Z</time>
      </trkpt>
      <trkpt lat="46.73361" lon="6.29177">
        <ele>1039</ele>
        <time>2022-08-14T08:22:15Z</time>
      </trkpt>
      <trkpt lat="46.73356" lon="6.29166">
        <ele>1040</ele>
        <time>2022-08-14T08:22:21Z</time>
      </trkpt>
      <trkpt lat="46.7335" lon="6.29155">
        <ele>1040</ele>
        <time>2022-08-14T08:22:24Z</time>
      </trkpt>
      <trkpt lat="46.73344" lon="6.29144">
        <ele>1041</ele>
        <time>2022-08-14T08:22:31Z</time>
      </trkpt>
      <trkpt lat="46.73338" lon="6.29133">
        <ele>1043</ele>
        <time>2022-08-14T08:22:36Z</time>
      </trkpt>
      <trkpt lat="46.73333" lon="6.29121">
        <ele>1044</ele>
        <time>2022-08-14T08:22:40Z</time>
      </trkpt>
      <trkpt lat="46.73329" lon="6.29109">
        <ele>1043</ele>
        <time>2022-08-14T08:22:45Z</time>
      </trkpt>
      <trkpt lat="46.73323" lon="6.29099">
        <ele>1043</ele>
        <time>2022-08-14T08:22:48Z</time>
      </trkpt>
      <trkpt lat="46.73315" lon="6.29091">
        <ele>1045</ele>
        <time>2022-08-14T08:22:52Z</time>
      </trkpt>
      <trkpt lat="46.73308" lon="6.29082">
        <ele>1044</ele>
        <time>2022-08-14T08:22:58Z</time>
      </trkpt>
      <trkpt lat="46.73301" lon="6.29072">
        <ele>1046</ele>
        <time>2022-08-14T08:23:03Z</time>
      </trkpt>
      <trkpt lat="46.73293" lon="6.29063">
        <ele>1048</ele>
        <time>2022-08-14T08:23:08Z</time>
      </trkpt>
      <trkpt lat="46.73285" lon="6.29056">
        <ele>1048</ele>
        <time>2022-08-14T08:23:12Z</time>
      </trkpt>
      <trkpt lat="46.73278" lon="6.29048">
        <ele>1049</ele>
        <time>2022-08-14T08:23:16Z</time>
      </trkpt>
      <trkpt lat="46.7327" lon="6.2904">
        <ele>1051</ele>
        <time>2022-08-14T08:23:21Z</time>
      </trkpt>
      <trkpt lat="46.73263" lon="6.29031">
        <ele>1052</ele>
        <time>2022-08-14T08:23:27Z</time>
      </trkpt>
      <trkpt lat="46.73255" lon="6.2902">
        <ele>1052</ele>
        <time>2022-08-14T08:23:31Z</time>
      </trkpt>
      <trkpt lat="46.73246" lon="6.29012">
        <ele>1054</ele>
        <time>2022-08-14T08:23:38Z</time>
      </trkpt>
      <trkpt lat="46.73238" lon="6.29002">
        <ele>1056</ele>
        <time>2022-08-14T08:23:45Z</time>
      </trkpt>
      <trkpt lat="46.73229" lon="6.28999">
        <ele>1058</ele>
        <time>2022-08-14T08:23:53Z</time>
      </trkpt>
      <trkpt lat="46.73219" lon="6.29001">
        <ele>1059</ele>
        <time>2022-08-14T08:24:03Z</time>
      </trkpt>
      <trkpt lat="46.73209" lon="6.29003">
        <ele>1061</ele>
        <time>2022-08-14T08:24:07Z</time>
      </trkpt>
      <trkpt lat="46.732" lon="6.29007">
        <ele>1061</ele>
        <time>2022-08-14T08:24:12Z</time>
      </trkpt>
      <trkpt lat="46.73191" lon="6.29011">
        <ele>1061</ele>
        <time>2022-08-14T08:24:18Z</time>
      </trkpt>
      <trkpt lat="46.73182" lon="6.29018">
        <ele>1064</ele>
        <time>2022-08-14T08:24:27Z</time>
      </trkpt>
      <trkpt lat="46.73174" lon="6.29027">
        <ele>1066</ele>
        <time>2022-08-14T08:24:33Z</time>
      </trkpt>
      <trkpt lat="46.73164" lon="6.29034">
        <ele>1067</ele>
        <time>2022-08-14T08:24:39Z</time>
      </trkpt>
      <trkpt lat="46.73155" lon="6.29039">
        <ele>1068</ele>
        <time>2022-08-14T08:24:46Z</time>
      </trkpt>
      <trkpt lat="46.73147" lon="6.29047">
        <ele>1068</ele>
        <time>2022-08-14T08:24:53Z</time>
      </trkpt>
      <trkpt lat="46.7314" lon="6.29057">
        <ele>1069</ele>
        <time>2022-08-14T08:25:00Z</time>
      </trkpt>
      <trkpt lat="46.73136" lon="6.2907">
        <ele>1070</ele>
        <time>2022-08-14T08:25:06Z</time>
      </trkpt>
      <trkpt lat="46.73134" lon="6.29084">
        <ele>1071</ele>
        <time>2022-08-14T08:25:11Z</time>
      </trkpt>
      <trkpt lat="46.73132" lon="6.29097">
        <ele>1070</ele>
        <time>2022-08-14T08:25:16Z</time>
      </trkpt>
      <trkpt lat="46.7313" lon="6.2911">
        <ele>1072</ele>
        <time>2022-08-14T08:25:22Z</time>
      </trkpt>
      <trkpt lat="46.73128" lon="6.29124">
        <ele>1072</ele>
        <time>2022-08-14T08:25:30Z</time>
      </trkpt>
      <trkpt lat="46.73127" lon="6.29137">
        <ele>1074</ele>
        <time>2022-08-14T08:25:34Z</time>
      </trkpt>
      <trkpt lat="46.73125" lon="6.29151">
        <ele>1075</ele>
        <time>2022-08-14T08:25:40Z</time>
      </trkpt>
      <trkpt lat="46.73126" lon="6.29165">
        <ele>1077</ele>
        <time>2022-08-14T08:25:46Z</time>
      </trkpt>
      <trkpt lat="46.73124" lon="6.29179">
        <ele>1077</ele>
        <time>2022-08-14T08:25:51Z</time>
      </trkpt>
      <trkpt lat="46.73123" lon="6.29193">
        <ele>1078</ele>
        <time>2022-08-14T08:25:57Z</time>
      </trkpt>
      <trkpt lat="46.73124" lon="6.29206">
        <ele>1081</ele>
        <time>2022-08-14T08:26:01Z</time>
      </trkpt>
      <trkpt lat="46.73122" lon="6.29221">
        <ele>1081</ele>
        <time>2022-08-14T08:26:08Z</time>
      </trkpt>
      <trkpt lat="46.73122" lon="6.29235">
        <ele>1081</ele>
        <time>2022-08-14T08:26:15Z</time>
      </trkpt>
      <trkpt lat="46.73121" lon="6.2925">
        <ele>1083</ele>
        <time>2022-08-14T08:26:21Z</time>
      </trkpt>
      <trkpt lat="46.7312" lon="6.29263">
        <ele>1083</ele>
        <time>2022-08-14T08:26:27Z</time>
      </trkpt>
      <trkpt lat="46.7312" lon="6.29278">
        <ele>1086</ele>
        <time>2022-08-14T08:26:34Z</time>
      </trkpt>
      <trkpt lat="46.7312" lon="6.29292">
        <ele>1087</ele>
        <time>2022-08-14T08:26:40Z</time>
      </trkpt>
      <trkpt lat="46.73117" lon="6.29304">
        <ele>1088</ele>
        <time>2022-08-14T08:26:45Z</time>
      </trkpt>
      <trkpt lat="46.7311" lon="6.29314">
        <ele>1089</ele>
        <time>2022-08-14T08:26:52Z</time>
      </trkpt>
      <trkpt lat="46.73103" lon="6.29323">
        <ele>1091</ele>
        <time>2022-08-14T08:26:57Z</time>
      </trkpt>
      <trkpt lat="46.73095" lon="6.2933">
        <ele>1092</ele>
        <time>2022-08-14T08:27:01Z</time>
      </trkpt>
      <trkpt lat="46.73086" lon="6.29335">
        <ele>1093</ele>
        <time>2022-08-14T08:27:08Z</time>
      </trkpt>
      <trkpt lat="46.73077" lon="6.2934">
        <ele>1095</ele>
        <time>2022-08-14T08:27:14Z</time>
      </trkpt>
      <trkpt lat="46.73068" lon="6.29345">
        <ele>1095</ele>
        <time>2022-08-14T08:27:19Z</time>
      </trkpt>
      <trkpt lat="46.73059" lon="6.29352">
        <ele>1096</ele>
        <time>2022-08-14T08:27:25Z</time>
      </trkpt>
      <trkpt lat="46.7305" lon="6.29357">
        <ele>1097</ele>
        <time>2022-08-14T08:27:30Z</time>
      </trkpt>
      <trkpt lat="46.7304" lon="6.29362">
        <ele>1097</ele>
        <time>2022-08-14T08:27:36Z</time>
      </trkpt>
      <trkpt lat="46.73031" lon="6.29369">
        <ele>1096</ele>
        <time>2022-08-14T08:27:41Z</time>
      </trkpt>
      <trkpt lat="46.73024" lon="6.29382">
        <ele>1098</ele>
        <time>2022-08-14T08:27:47Z</time>
      </trkpt>
      <trkpt lat="46.73016" lon="6.29393">
        <ele>1098</ele>
        <time>2022-08-14T08:27:52Z</time>
      </trkpt>
      <trkpt lat="46.73009" lon="6.29402">
        <ele>1103</ele>
        <time>2022-08-14T08:27:58Z</time>
      </trkpt>
      <trkpt lat="46.73001" lon="6.29409">
        <ele>1102</ele>
        <time>2022-08-14T08:28:04Z</time>
      </trkpt>
      <trkpt lat="46.72995" lon="6.29419">
        <ele>1103</ele>
        <time>2022-08-14T08:28:11Z</time>
      </trkpt>
      <trkpt lat="46.72998" lon="6.29434">
        <ele>1103</ele>
        <time>2022-08-14T08:28:18Z</time>
      </trkpt>
      <trkpt lat="46.72998" lon="6.29447">
        <ele>1105</ele>
        <time>2022-08-14T08:28:24Z</time>
      </trkpt>
      <trkpt lat="46.72991" lon="6.29457">
        <ele>1105</ele>
        <time>2022-08-14T08:28:30Z</time>
      </trkpt>
      <trkpt lat="46.72983" lon="6.29463">
        <ele>1107</ele>
        <time>2022-08-14T08:28:36Z</time>
      </trkpt>
      <trkpt lat="46.72974" lon="6.29475">
        <ele>1110</ele>
        <time>2022-08-14T08:28:47Z</time>
      </trkpt>
      <trkpt lat="46.72966" lon="6.29482">
        <ele>1112</ele>
        <time>2022-08-14T08:28:54Z</time>
      </trkpt>
      <trkpt lat="46.72958" lon="6.2949">
        <ele>1114</ele>
        <time>2022-08-14T08:29:01Z</time>
      </trkpt>
      <trkpt lat="46.72951" lon="6.29499">
        <ele>1115</ele>
        <time>2022-08-14T08:29:08Z</time>
      </trkpt>
      <trkpt lat="46.72943" lon="6.29507">
        <ele>1118</ele>
        <time>2022-08-14T08:29:15Z</time>
      </trkpt>
      <trkpt lat="46.72934" lon="6.29515">
        <ele>1117</ele>
        <time>2022-08-14T08:29:22Z</time>
      </trkpt>
      <trkpt lat="46.72926" lon="6.29523">
        <ele>1118</ele>
        <time>2022-08-14T08:29:28Z</time>
      </trkpt>
      <trkpt lat="46.72918" lon="6.29531">
        <ele>1118</ele>
        <time>2022-08-14T08:29:33Z</time>
      </trkpt>
      <trkpt lat="46.7291" lon="6.29537">
        <ele>1120</ele>
        <time>2022-08-14T08:29:40Z</time>
      </trkpt>
      <trkpt lat="46.72902" lon="6.29544">
        <ele>1120</ele>
        <time>2022-08-14T08:29:46Z</time>
      </trkpt>
      <trkpt lat="46.72896" lon="6.29556">
        <ele>1122</ele>
        <time>2022-08-14T08:29:54Z</time>
      </trkpt>
      <trkpt lat="46.7289" lon="6.29567">
        <ele>1123</ele>
        <time>2022-08-14T08:30:00Z</time>
      </trkpt>
      <trkpt lat="46.72884" lon="6.2958">
        <ele>1125</ele>
        <time>2022-08-14T08:30:07Z</time>
      </trkpt>
      <trkpt lat="46.72879" lon="6.29592">
        <ele>1126</ele>
        <time>2022-08-14T08:30:13Z</time>
      </trkpt>
      <trkpt lat="46.72874" lon="6.29602">
        <ele>1127</ele>
        <time>2022-08-14T08:30:19Z</time>
      </trkpt>
      <trkpt lat="46.72869" lon="6.29616">
        <ele>1130</ele>
        <time>2022-08-14T08:30:27Z</time>
      </trkpt>
      <trkpt lat="46.72866" lon="6.2963">
        <ele>1131</ele>
        <time>2022-08-14T08:30:33Z</time>
      </trkpt>
      <trkpt lat="46.72864" lon="6.29644">
        <ele>1132</ele>
        <time>2022-08-14T08:30:42Z</time>
      </trkpt>
      <trkpt lat="46.72864" lon="6.29658">
        <ele>1133</ele>
        <time>2022-08-14T08:30:50Z</time>
      </trkpt>
      <trkpt lat="46.72863" lon="6.29672">
        <ele>1136</ele>
        <time>2022-08-14T08:30:59Z</time>
      </trkpt>
      <trkpt lat="46.72862" lon="6.29687">
        <ele>1136</ele>
        <time>2022-08-14T08:31:06Z</time>
      </trkpt>
      <trkpt lat="46.72859" lon="6.29701">
        <ele>1137</ele>
        <time>2022-08-14T08:31:12Z</time>
      </trkpt>
      <trkpt lat="46.72857" lon="6.29715">
        <ele>1138</ele>
        <time>2022-08-14T08:31:18Z</time>
      </trkpt>
      <trkpt lat="46.72855" lon="6.29728">
        <ele>1139</ele>
        <time>2022-08-14T08:31:24Z</time>
      </trkpt>
      <trkpt lat="46.72853" lon="6.29741">
        <ele>1140</ele>
        <time>2022-08-14T08:31:30Z</time>
      </trkpt>
      <trkpt lat="46.72852" lon="6.29755">
        <ele>1141</ele>
        <time>2022-08-14T08:31:35Z</time>
      </trkpt>
      <trkpt lat="46.7285" lon="6.29768">
        <ele>1141</ele>
        <time>2022-08-14T08:31:41Z</time>
      </trkpt>
      <trkpt lat="46.7285" lon="6.29781">
        <ele>1141</ele>
        <time>2022-08-14T08:31:46Z</time>
      </trkpt>
      <trkpt lat="46.72849" lon="6.29796">
        <ele>1142</ele>
        <time>2022-08-14T08:31:52Z</time>
      </trkpt>
      <trkpt lat="46.72841" lon="6.29803">
        <ele>1143</ele>
        <time>2022-08-14T08:31:57Z</time>
      </trkpt>
      <trkpt lat="46.72831" lon="6.29811">
        <ele>1144</ele>
        <time>2022-08-14T08:32:04Z</time>
      </trkpt>
      <trkpt lat="46.72822" lon="6.29816">
        <ele>1144</ele>
        <time>2022-08-14T08:32:10Z</time>
      </trkpt>
      <trkpt lat="46.72813" lon="6.29819">
        <ele>1146</ele>
        <time>2022-08-14T08:32:17Z</time>
      </trkpt>
      <trkpt lat="46.72804" lon="6.29825">
        <ele>1149</ele>
        <time>2022-08-14T08:32:23Z</time>
      </trkpt>
      <trkpt lat="46.72795" lon="6.2983">
        <ele>1150</ele>
        <time>2022-08-14T08:32:31Z</time>
      </trkpt>
      <trkpt lat="46.72785" lon="6.29835">
        <ele>1151</ele>
        <time>2022-08-14T08:32:39Z</time>
      </trkpt>
      <trkpt lat="46.72776" lon="6.2984">
        <ele>1152</ele>
        <time>2022-08-14T08:32:45Z</time>
      </trkpt>
      <trkpt lat="46.72769" lon="6.29847">
        <ele>1152</ele>
        <time>2022-08-14T08:32:50Z</time>
      </trkpt>
      <trkpt lat="46.7276" lon="6.29853">
        <ele>1153</ele>
        <time>2022-08-14T08:32:53Z</time>
      </trkpt>
      <trkpt lat="46.72751" lon="6.29859">
        <ele>1153</ele>
        <time>2022-08-14T08:33:01Z</time>
      </trkpt>
      <trkpt lat="46.72742" lon="6.29863">
        <ele>1156</ele>
        <time>2022-08-14T08:33:09Z</time>
      </trkpt>
      <trkpt lat="46.72733" lon="6.29868">
        <ele>1158</ele>
        <time>2022-08-14T08:33:18Z</time>
      </trkpt>
      <trkpt lat="46.72724" lon="6.29869">
        <ele>1160</ele>
        <time>2022-08-14T08:33:25Z</time>
      </trkpt>
      <trkpt lat="46.72715" lon="6.29874">
        <ele>1161</ele>
        <time>2022-08-14T08:33:31Z</time>
      </trkpt>
      <trkpt lat="46.72706" lon="6.29881">
        <ele>1163</ele>
        <time>2022-08-14T08:33:38Z</time>
      </trkpt>
      <trkpt lat="46.72697" lon="6.29884">
        <ele>1164</ele>
        <time>2022-08-14T08:33:46Z</time>
      </trkpt>
      <trkpt lat="46.72688" lon="6.29889">
        <ele>1165</ele>
        <time>2022-08-14T08:33:52Z</time>
      </trkpt>
      <trkpt lat="46.7268" lon="6.29896">
        <ele>1166</ele>
        <time>2022-08-14T08:33:57Z</time>
      </trkpt>
      <trkpt lat="46.72671" lon="6.29904">
        <ele>1165</ele>
        <time>2022-08-14T08:34:02Z</time>
      </trkpt>
      <trkpt lat="46.72666" lon="6.29915">
        <ele>1166</ele>
        <time>2022-08-14T08:34:08Z</time>
      </trkpt>
      <trkpt lat="46.72659" lon="6.29926">
        <ele>1167</ele>
        <time>2022-08-14T08:34:13Z</time>
      </trkpt>
      <trkpt lat="46.72652" lon="6.29935">
        <ele>1166</ele>
        <time>2022-08-14T08:34:18Z</time>
      </trkpt>
      <trkpt lat="46.72644" lon="6.29945">
        <ele>1166</ele>
        <time>2022-08-14T08:34:23Z</time>
      </trkpt>
      <trkpt lat="46.72635" lon="6.29956">
        <ele>1167</ele>
        <time>2022-08-14T08:34:26Z</time>
      </trkpt>
      <trkpt lat="46.72627" lon="6.29966">
        <ele>1164</ele>
        <time>2022-08-14T08:34:28Z</time>
      </trkpt>
      <trkpt lat="46.72619" lon="6.29973">
        <ele>1163</ele>
        <time>2022-08-14T08:34:30Z</time>
      </trkpt>
      <trkpt lat="46.72605" lon="6.29988">
        <ele>1160</ele>
        <time>2022-08-14T08:34:32Z</time>
      </trkpt>
      <trkpt lat="46.72586" lon="6.30007">
        <ele>1157</ele>
        <time>2022-08-14T08:34:35Z</time>
      </trkpt>
      <trkpt lat="46.72576" lon="6.30016">
        <ele>1156</ele>
        <time>2022-08-14T08:34:37Z</time>
      </trkpt>
      <trkpt lat="46.72561" lon="6.30031">
        <ele>1152</ele>
        <time>2022-08-14T08:34:41Z</time>
      </trkpt>
      <trkpt lat="46.72552" lon="6.30042">
        <ele>1149</ele>
        <time>2022-08-14T08:34:44Z</time>
      </trkpt>
      <trkpt lat="46.72538" lon="6.30058">
        <ele>1146</ele>
        <time>2022-08-14T08:34:47Z</time>
      </trkpt>
      <trkpt lat="46.72525" lon="6.30074">
        <ele>1143</ele>
        <time>2022-08-14T08:34:50Z</time>
      </trkpt>
      <trkpt lat="46.72515" lon="6.3008">
        <ele>1142</ele>
        <time>2022-08-14T08:34:52Z</time>
      </trkpt>
      <trkpt lat="46.72505" lon="6.30087">
        <ele>1140</ele>
        <time>2022-08-14T08:34:54Z</time>
      </trkpt>
      <trkpt lat="46.72502" lon="6.30103">
        <ele>1140</ele>
        <time>2022-08-14T08:34:57Z</time>
      </trkpt>
      <trkpt lat="46.72502" lon="6.3012">
        <ele>1140</ele>
        <time>2022-08-14T08:35:00Z</time>
      </trkpt>
      <trkpt lat="46.72495" lon="6.3013">
        <ele>1140</ele>
        <time>2022-08-14T08:35:02Z</time>
      </trkpt>
      <trkpt lat="46.72487" lon="6.30139">
        <ele>1140</ele>
        <time>2022-08-14T08:35:04Z</time>
      </trkpt>
      <trkpt lat="46.72478" lon="6.30164">
        <ele>1141</ele>
        <time>2022-08-14T08:35:12Z</time>
      </trkpt>
      <trkpt lat="46.72475" lon="6.3019">
        <ele>1141</ele>
        <time>2022-08-14T08:35:17Z</time>
      </trkpt>
      <trkpt lat="46.72473" lon="6.30208">
        <ele>1140</ele>
        <time>2022-08-14T08:35:20Z</time>
      </trkpt>
      <trkpt lat="46.7247" lon="6.30224">
        <ele>1139</ele>
        <time>2022-08-14T08:35:22Z</time>
      </trkpt>
      <trkpt lat="46.72464" lon="6.30239">
        <ele>1139</ele>
        <time>2022-08-14T08:35:24Z</time>
      </trkpt>
      <trkpt lat="46.7246" lon="6.30254">
        <ele>1138</ele>
        <time>2022-08-14T08:35:26Z</time>
      </trkpt>
      <trkpt lat="46.72455" lon="6.30269">
        <ele>1138</ele>
        <time>2022-08-14T08:35:28Z</time>
      </trkpt>
      <trkpt lat="46.72452" lon="6.30285">
        <ele>1138</ele>
        <time>2022-08-14T08:35:30Z</time>
      </trkpt>
      <trkpt lat="46.7245" lon="6.303">
        <ele>1138</ele>
        <time>2022-08-14T08:35:32Z</time>
      </trkpt>
      <trkpt lat="46.72448" lon="6.30314">
        <ele>1138</ele>
        <time>2022-08-14T08:35:34Z</time>
      </trkpt>
      <trkpt lat="46.72446" lon="6.30328">
        <ele>1138</ele>
        <time>2022-08-14T08:35:36Z</time>
      </trkpt>
      <trkpt lat="46.72443" lon="6.30346">
        <ele>1138</ele>
        <time>2022-08-14T08:35:39Z</time>
      </trkpt>
      <trkpt lat="46.72441" lon="6.30362">
        <ele>1139</ele>
        <time>2022-08-14T08:35:42Z</time>
      </trkpt>
      <trkpt lat="46.7244" lon="6.30376">
        <ele>1139</ele>
        <time>2022-08-14T08:35:45Z</time>
      </trkpt>
      <trkpt lat="46.72437" lon="6.30393">
        <ele>1138</ele>
        <time>2022-08-14T08:35:47Z</time>
      </trkpt>
      <trkpt lat="46.72432" lon="6.30424">
        <ele>1140</ele>
        <time>2022-08-14T08:35:52Z</time>
      </trkpt>
      <trkpt lat="46.7243" lon="6.30454">
        <ele>1142</ele>
        <time>2022-08-14T08:35:59Z</time>
      </trkpt>
      <trkpt lat="46.72427" lon="6.30482">
        <ele>1143</ele>
        <time>2022-08-14T08:36:05Z</time>
      </trkpt>
      <trkpt lat="46.72425" lon="6.30495">
        <ele>1144</ele>
        <time>2022-08-14T08:36:08Z</time>
      </trkpt>
      <trkpt lat="46.72423" lon="6.30512">
        <ele>1145</ele>
        <time>2022-08-14T08:36:12Z</time>
      </trkpt>
      <trkpt lat="46.7242" lon="6.30529">
        <ele>1146</ele>
        <time>2022-08-14T08:36:16Z</time>
      </trkpt>
      <trkpt lat="46.72418" lon="6.30545">
        <ele>1147</ele>
        <time>2022-08-14T08:36:20Z</time>
      </trkpt>
      <trkpt lat="46.72416" lon="6.30559">
        <ele>1147</ele>
        <time>2022-08-14T08:36:23Z</time>
      </trkpt>
      <trkpt lat="46.72414" lon="6.30573">
        <ele>1148</ele>
        <time>2022-08-14T08:36:26Z</time>
      </trkpt>
      <trkpt lat="46.72411" lon="6.30587">
        <ele>1148</ele>
        <time>2022-08-14T08:36:30Z</time>
      </trkpt>
      <trkpt lat="46.72409" lon="6.30601">
        <ele>1148</ele>
        <time>2022-08-14T08:36:36Z</time>
      </trkpt>
      <trkpt lat="46.72416" lon="6.30612">
        <ele>1150</ele>
        <time>2022-08-14T08:36:41Z</time>
      </trkpt>
      <trkpt lat="46.72417" lon="6.30626">
        <ele>1150</ele>
        <time>2022-08-14T08:36:48Z</time>
      </trkpt>
      <trkpt lat="46.72419" lon="6.3064">
        <ele>1151</ele>
        <time>2022-08-14T08:36:53Z</time>
      </trkpt>
      <trkpt lat="46.72422" lon="6.30653">
        <ele>1154</ele>
        <time>2022-08-14T08:36:58Z</time>
      </trkpt>
      <trkpt lat="46.72429" lon="6.3066">
        <ele>1153</ele>
        <time>2022-08-14T08:37:04Z</time>
      </trkpt>
      <trkpt lat="46.72439" lon="6.30657">
        <ele>1155</ele>
        <time>2022-08-14T08:37:09Z</time>
      </trkpt>
      <trkpt lat="46.72448" lon="6.30651">
        <ele>1155</ele>
        <time>2022-08-14T08:37:16Z</time>
      </trkpt>
      <trkpt lat="46.72459" lon="6.30648">
        <ele>1156</ele>
        <time>2022-08-14T08:37:19Z</time>
      </trkpt>
      <trkpt lat="46.72471" lon="6.30649">
        <ele>1157</ele>
        <time>2022-08-14T08:37:23Z</time>
      </trkpt>
      <trkpt lat="46.7248" lon="6.30657">
        <ele>1157</ele>
        <time>2022-08-14T08:37:28Z</time>
      </trkpt>
      <trkpt lat="46.72489" lon="6.30661">
        <ele>1157</ele>
        <time>2022-08-14T08:37:31Z</time>
      </trkpt>
      <trkpt lat="46.72498" lon="6.30662">
        <ele>1158</ele>
        <time>2022-08-14T08:37:37Z</time>
      </trkpt>
      <trkpt lat="46.72508" lon="6.30669">
        <ele>1159</ele>
        <time>2022-08-14T08:37:44Z</time>
      </trkpt>
      <trkpt lat="46.72516" lon="6.30678">
        <ele>1158</ele>
        <time>2022-08-14T08:37:48Z</time>
      </trkpt>
      <trkpt lat="46.72523" lon="6.30689">
        <ele>1157</ele>
        <time>2022-08-14T08:37:50Z</time>
      </trkpt>
      <trkpt lat="46.7253" lon="6.30699">
        <ele>1158</ele>
        <time>2022-08-14T08:37:54Z</time>
      </trkpt>
      <trkpt lat="46.72539" lon="6.30704">
        <ele>1159</ele>
        <time>2022-08-14T08:37:59Z</time>
      </trkpt>
      <trkpt lat="46.72548" lon="6.30712">
        <ele>1160</ele>
        <time>2022-08-14T08:38:04Z</time>
      </trkpt>
      <trkpt lat="46.72554" lon="6.30722">
        <ele>1160</ele>
        <time>2022-08-14T08:38:10Z</time>
      </trkpt>
      <trkpt lat="46.7256" lon="6.30733">
        <ele>1162</ele>
        <time>2022-08-14T08:38:16Z</time>
      </trkpt>
      <trkpt lat="46.72564" lon="6.30746">
        <ele>1163</ele>
        <time>2022-08-14T08:38:23Z</time>
      </trkpt>
      <trkpt lat="46.72563" lon="6.30759">
        <ele>1163</ele>
        <time>2022-08-14T08:38:27Z</time>
      </trkpt>
      <trkpt lat="46.72564" lon="6.30775">
        <ele>1163</ele>
        <time>2022-08-14T08:38:32Z</time>
      </trkpt>
      <trkpt lat="46.72566" lon="6.30788">
        <ele>1163</ele>
        <time>2022-08-14T08:38:36Z</time>
      </trkpt>
      <trkpt lat="46.72566" lon="6.30802">
        <ele>1164</ele>
        <time>2022-08-14T08:38:42Z</time>
      </trkpt>
      <trkpt lat="46.72567" lon="6.30818">
        <ele>1165</ele>
        <time>2022-08-14T08:38:48Z</time>
      </trkpt>
      <trkpt lat="46.72567" lon="6.30832">
        <ele>1166</ele>
        <time>2022-08-14T08:38:53Z</time>
      </trkpt>
      <trkpt lat="46.72568" lon="6.30845">
        <ele>1168</ele>
        <time>2022-08-14T08:38:58Z</time>
      </trkpt>
      <trkpt lat="46.72569" lon="6.30858">
        <ele>1169</ele>
        <time>2022-08-14T08:39:04Z</time>
      </trkpt>
      <trkpt lat="46.7257" lon="6.30874">
        <ele>1169</ele>
        <time>2022-08-14T08:39:10Z</time>
      </trkpt>
      <trkpt lat="46.72569" lon="6.30888">
        <ele>1170</ele>
        <time>2022-08-14T08:39:15Z</time>
      </trkpt>
      <trkpt lat="46.72568" lon="6.30901">
        <ele>1172</ele>
        <time>2022-08-14T08:39:20Z</time>
      </trkpt>
      <trkpt lat="46.72564" lon="6.30913">
        <ele>1173</ele>
        <time>2022-08-14T08:39:26Z</time>
      </trkpt>
      <trkpt lat="46.72564" lon="6.30928">
        <ele>1174</ele>
        <time>2022-08-14T08:39:34Z</time>
      </trkpt>
      <trkpt lat="46.72563" lon="6.30944">
        <ele>1174</ele>
        <time>2022-08-14T08:39:38Z</time>
      </trkpt>
      <trkpt lat="46.72563" lon="6.30958">
        <ele>1174</ele>
        <time>2022-08-14T08:39:41Z</time>
      </trkpt>
      <trkpt lat="46.72565" lon="6.30972">
        <ele>1174</ele>
        <time>2022-08-14T08:39:46Z</time>
      </trkpt>
      <trkpt lat="46.72569" lon="6.30986">
        <ele>1175</ele>
        <time>2022-08-14T08:39:51Z</time>
      </trkpt>
      <trkpt lat="46.72572" lon="6.30999">
        <ele>1177</ele>
        <time>2022-08-14T08:39:57Z</time>
      </trkpt>
      <trkpt lat="46.72575" lon="6.31012">
        <ele>1178</ele>
        <time>2022-08-14T08:40:02Z</time>
      </trkpt>
      <trkpt lat="46.72579" lon="6.31025">
        <ele>1180</ele>
        <time>2022-08-14T08:40:07Z</time>
      </trkpt>
      <trkpt lat="46.72582" lon="6.31038">
        <ele>1182</ele>
        <time>2022-08-14T08:40:13Z</time>
      </trkpt>
      <trkpt lat="46.72585" lon="6.3105">
        <ele>1184</ele>
        <time>2022-08-14T08:40:20Z</time>
      </trkpt>
      <trkpt lat="46.72588" lon="6.31063">
        <ele>1186</ele>
        <time>2022-08-14T08:40:27Z</time>
      </trkpt>
      <trkpt lat="46.72591" lon="6.31077">
        <ele>1187</ele>
        <time>2022-08-14T08:40:34Z</time>
      </trkpt>
      <trkpt lat="46.72595" lon="6.31089">
        <ele>1188</ele>
        <time>2022-08-14T08:40:41Z</time>
      </trkpt>
      <trkpt lat="46.72599" lon="6.311">
        <ele>1189</ele>
        <time>2022-08-14T08:40:47Z</time>
      </trkpt>
      <trkpt lat="46.72604" lon="6.31113">
        <ele>1189</ele>
        <time>2022-08-14T08:40:51Z</time>
      </trkpt>
      <trkpt lat="46.72609" lon="6.31127">
        <ele>1191</ele>
        <time>2022-08-14T08:40:57Z</time>
      </trkpt>
      <trkpt lat="46.72609" lon="6.31144">
        <ele>1191</ele>
        <time>2022-08-14T08:41:02Z</time>
      </trkpt>
      <trkpt lat="46.72608" lon="6.31158">
        <ele>1191</ele>
        <time>2022-08-14T08:41:06Z</time>
      </trkpt>
      <trkpt lat="46.72611" lon="6.31173">
        <ele>1191</ele>
        <time>2022-08-14T08:41:10Z</time>
      </trkpt>
      <trkpt lat="46.72615" lon="6.31187">
        <ele>1191</ele>
        <time>2022-08-14T08:41:14Z</time>
      </trkpt>
      <trkpt lat="46.7262" lon="6.31198">
        <ele>1191</ele>
        <time>2022-08-14T08:41:18Z</time>
      </trkpt>
      <trkpt lat="46.72625" lon="6.31209">
        <ele>1191</ele>
        <time>2022-08-14T08:41:21Z</time>
      </trkpt>
      <trkpt lat="46.72628" lon="6.31222">
        <ele>1192</ele>
        <time>2022-08-14T08:41:25Z</time>
      </trkpt>
      <trkpt lat="46.72631" lon="6.31236">
        <ele>1193</ele>
        <time>2022-08-14T08:41:30Z</time>
      </trkpt>
      <trkpt lat="46.72634" lon="6.31249">
        <ele>1194</ele>
        <time>2022-08-14T08:41:36Z</time>
      </trkpt>
      <trkpt lat="46.72636" lon="6.31262">
        <ele>1196</ele>
        <time>2022-08-14T08:41:41Z</time>
      </trkpt>
      <trkpt lat="46.72641" lon="6.31276">
        <ele>1198</ele>
        <time>2022-08-14T08:41:46Z</time>
      </trkpt>
      <trkpt lat="46.72644" lon="6.3129">
        <ele>1199</ele>
        <time>2022-08-14T08:41:52Z</time>
      </trkpt>
      <trkpt lat="46.72648" lon="6.31303">
        <ele>1200</ele>
        <time>2022-08-14T08:41:58Z</time>
      </trkpt>
      <trkpt lat="46.72652" lon="6.31317">
        <ele>1200</ele>
        <time>2022-08-14T08:42:04Z</time>
      </trkpt>
      <trkpt lat="46.72656" lon="6.31332">
        <ele>1200</ele>
        <time>2022-08-14T08:42:07Z</time>
      </trkpt>
      <trkpt lat="46.7266" lon="6.31348">
        <ele>1200</ele>
        <time>2022-08-14T08:42:11Z</time>
      </trkpt>
      <trkpt lat="46.72663" lon="6.31361">
        <ele>1200</ele>
        <time>2022-08-14T08:42:13Z</time>
      </trkpt>
      <trkpt lat="46.72668" lon="6.31374">
        <ele>1201</ele>
        <time>2022-08-14T08:42:17Z</time>
      </trkpt>
      <trkpt lat="46.72672" lon="6.31386">
        <ele>1202</ele>
        <time>2022-08-14T08:42:20Z</time>
      </trkpt>
      <trkpt lat="46.72676" lon="6.31399">
        <ele>1202</ele>
        <time>2022-08-14T08:42:25Z</time>
      </trkpt>
      <trkpt lat="46.7268" lon="6.31413">
        <ele>1202</ele>
        <time>2022-08-14T08:42:29Z</time>
      </trkpt>
      <trkpt lat="46.72686" lon="6.31427">
        <ele>1202</ele>
        <time>2022-08-14T08:42:33Z</time>
      </trkpt>
      <trkpt lat="46.7269" lon="6.31439">
        <ele>1202</ele>
        <time>2022-08-14T08:42:36Z</time>
      </trkpt>
      <trkpt lat="46.72693" lon="6.31452">
        <ele>1203</ele>
        <time>2022-08-14T08:42:39Z</time>
      </trkpt>
      <trkpt lat="46.72695" lon="6.31466">
        <ele>1203</ele>
        <time>2022-08-14T08:42:43Z</time>
      </trkpt>
      <trkpt lat="46.72697" lon="6.3148">
        <ele>1204</ele>
        <time>2022-08-14T08:42:47Z</time>
      </trkpt>
      <trkpt lat="46.72699" lon="6.31493">
        <ele>1204</ele>
        <time>2022-08-14T08:42:51Z</time>
      </trkpt>
      <trkpt lat="46.72703" lon="6.3151">
        <ele>1204</ele>
        <time>2022-08-14T08:42:55Z</time>
      </trkpt>
      <trkpt lat="46.72707" lon="6.31525">
        <ele>1204</ele>
        <time>2022-08-14T08:42:59Z</time>
      </trkpt>
      <trkpt lat="46.7271" lon="6.31539">
        <ele>1204</ele>
        <time>2022-08-14T08:43:03Z</time>
      </trkpt>
      <trkpt lat="46.72713" lon="6.31552">
        <ele>1205</ele>
        <time>2022-08-14T08:43:07Z</time>
      </trkpt>
      <trkpt lat="46.72716" lon="6.31565">
        <ele>1205</ele>
        <time>2022-08-14T08:43:10Z</time>
      </trkpt>
      <trkpt lat="46.72719" lon="6.31578">
        <ele>1206</ele>
        <time>2022-08-14T08:43:15Z</time>
      </trkpt>
      <trkpt lat="46.72722" lon="6.31593">
        <ele>1207</ele>
        <time>2022-08-14T08:43:20Z</time>
      </trkpt>
      <trkpt lat="46.72725" lon="6.31607">
        <ele>1208</ele>
        <time>2022-08-14T08:43:25Z</time>
      </trkpt>
      <trkpt lat="46.72728" lon="6.3162">
        <ele>1209</ele>
        <time>2022-08-14T08:43:30Z</time>
      </trkpt>
      <trkpt lat="46.7273" lon="6.31634">
        <ele>1209</ele>
        <time>2022-08-14T08:43:35Z</time>
      </trkpt>
      <trkpt lat="46.72732" lon="6.31648">
        <ele>1210</ele>
        <time>2022-08-14T08:43:41Z</time>
      </trkpt>
      <trkpt lat="46.72736" lon="6.31663">
        <ele>1211</ele>
        <time>2022-08-14T08:43:46Z</time>
      </trkpt>
      <trkpt lat="46.72742" lon="6.31674">
        <ele>1211</ele>
        <time>2022-08-14T08:43:49Z</time>
      </trkpt>
      <trkpt lat="46.72746" lon="6.31691">
        <ele>1211</ele>
        <time>2022-08-14T08:43:52Z</time>
      </trkpt>
      <trkpt lat="46.72752" lon="6.31704">
        <ele>1211</ele>
        <time>2022-08-14T08:43:54Z</time>
      </trkpt>
      <trkpt lat="46.72756" lon="6.31716">
        <ele>1211</ele>
        <time>2022-08-14T08:43:56Z</time>
      </trkpt>
      <trkpt lat="46.72759" lon="6.31729">
        <ele>1212</ele>
        <time>2022-08-14T08:43:58Z</time>
      </trkpt>
      <trkpt lat="46.72764" lon="6.31744">
        <ele>1212</ele>
        <time>2022-08-14T08:44:01Z</time>
      </trkpt>
      <trkpt lat="46.72767" lon="6.3176">
        <ele>1213</ele>
        <time>2022-08-14T08:44:04Z</time>
      </trkpt>
      <trkpt lat="46.72769" lon="6.31776">
        <ele>1213</ele>
        <time>2022-08-14T08:44:08Z</time>
      </trkpt>
      <trkpt lat="46.72772" lon="6.31792">
        <ele>1215</ele>
        <time>2022-08-14T08:44:12Z</time>
      </trkpt>
      <trkpt lat="46.72774" lon="6.31805">
        <ele>1216</ele>
        <time>2022-08-14T08:44:16Z</time>
      </trkpt>
      <trkpt lat="46.72777" lon="6.31819">
        <ele>1217</ele>
        <time>2022-08-14T08:44:20Z</time>
      </trkpt>
      <trkpt lat="46.72781" lon="6.31833">
        <ele>1218</ele>
        <time>2022-08-14T08:44:25Z</time>
      </trkpt>
      <trkpt lat="46.72783" lon="6.31846">
        <ele>1218</ele>
        <time>2022-08-14T08:44:29Z</time>
      </trkpt>
      <trkpt lat="46.72785" lon="6.31859">
        <ele>1219</ele>
        <time>2022-08-14T08:44:34Z</time>
      </trkpt>
      <trkpt lat="46.72789" lon="6.31873">
        <ele>1219</ele>
        <time>2022-08-14T08:44:38Z</time>
      </trkpt>
      <trkpt lat="46.72794" lon="6.31885">
        <ele>1220</ele>
        <time>2022-08-14T08:44:42Z</time>
      </trkpt>
      <trkpt lat="46.72798" lon="6.31897">
        <ele>1220</ele>
        <time>2022-08-14T08:44:46Z</time>
      </trkpt>
      <trkpt lat="46.72802" lon="6.31911">
        <ele>1221</ele>
        <time>2022-08-14T08:44:51Z</time>
      </trkpt>
      <trkpt lat="46.72805" lon="6.31924">
        <ele>1221</ele>
        <time>2022-08-14T08:44:54Z</time>
      </trkpt>
      <trkpt lat="46.72807" lon="6.31937">
        <ele>1222</ele>
        <time>2022-08-14T08:44:58Z</time>
      </trkpt>
      <trkpt lat="46.7281" lon="6.31952">
        <ele>1222</ele>
        <time>2022-08-14T08:45:03Z</time>
      </trkpt>
      <trkpt lat="46.72815" lon="6.31965">
        <ele>1222</ele>
        <time>2022-08-14T08:45:08Z</time>
      </trkpt>
      <trkpt lat="46.7282" lon="6.31975">
        <ele>1222</ele>
        <time>2022-08-14T08:45:13Z</time>
      </trkpt>
      <trkpt lat="46.72831" lon="6.31992">
        <ele>1222</ele>
        <time>2022-08-14T08:49:22Z</time>
      </trkpt>
      <trkpt lat="46.72838" lon="6.32002">
        <ele>1221</ele>
        <time>2022-08-14T08:49:26Z</time>
      </trkpt>
      <trkpt lat="46.72844" lon="6.32012">
        <ele>1221</ele>
        <time>2022-08-14T08:49:32Z</time>
      </trkpt>
      <trkpt lat="46.72851" lon="6.32023">
        <ele>1221</ele>
        <time>2022-08-14T08:49:37Z</time>
      </trkpt>
      <trkpt lat="46.7286" lon="6.32032">
        <ele>1222</ele>
        <time>2022-08-14T08:49:41Z</time>
      </trkpt>
      <trkpt lat="46.72867" lon="6.32039">
        <ele>1221</ele>
        <time>2022-08-14T08:49:45Z</time>
      </trkpt>
      <trkpt lat="46.72877" lon="6.32044">
        <ele>1221</ele>
        <time>2022-08-14T08:49:48Z</time>
      </trkpt>
      <trkpt lat="46.72887" lon="6.32046">
        <ele>1222</ele>
        <time>2022-08-14T08:49:51Z</time>
      </trkpt>
      <trkpt lat="46.72897" lon="6.32048">
        <ele>1223</ele>
        <time>2022-08-14T08:49:55Z</time>
      </trkpt>
      <trkpt lat="46.72907" lon="6.32052">
        <ele>1223</ele>
        <time>2022-08-14T08:50:00Z</time>
      </trkpt>
      <trkpt lat="46.72917" lon="6.32055">
        <ele>1222</ele>
        <time>2022-08-14T08:50:04Z</time>
      </trkpt>
      <trkpt lat="46.72926" lon="6.32061">
        <ele>1221</ele>
        <time>2022-08-14T08:50:07Z</time>
      </trkpt>
      <trkpt lat="46.72934" lon="6.32071">
        <ele>1220</ele>
        <time>2022-08-14T08:50:13Z</time>
      </trkpt>
      <trkpt lat="46.72942" lon="6.3208">
        <ele>1219</ele>
        <time>2022-08-14T08:50:17Z</time>
      </trkpt>
      <trkpt lat="46.72956" lon="6.3209">
        <ele>1217</ele>
        <time>2022-08-14T08:50:19Z</time>
      </trkpt>
      <trkpt lat="46.72965" lon="6.32099">
        <ele>1215</ele>
        <time>2022-08-14T08:50:21Z</time>
      </trkpt>
      <trkpt lat="46.72972" lon="6.32109">
        <ele>1214</ele>
        <time>2022-08-14T08:50:23Z</time>
      </trkpt>
      <trkpt lat="46.72974" lon="6.32123">
        <ele>1212</ele>
        <time>2022-08-14T08:50:26Z</time>
      </trkpt>
      <trkpt lat="46.72978" lon="6.32136">
        <ele>1212</ele>
        <time>2022-08-14T08:50:28Z</time>
      </trkpt>
      <trkpt lat="46.72985" lon="6.32149">
        <ele>1210</ele>
        <time>2022-08-14T08:50:32Z</time>
      </trkpt>
      <trkpt lat="46.72995" lon="6.3216">
        <ele>1208</ele>
        <time>2022-08-14T08:50:36Z</time>
      </trkpt>
      <trkpt lat="46.73003" lon="6.32174">
        <ele>1206</ele>
        <time>2022-08-14T08:50:38Z</time>
      </trkpt>
      <trkpt lat="46.73014" lon="6.32188">
        <ele>1205</ele>
        <time>2022-08-14T08:50:40Z</time>
      </trkpt>
      <trkpt lat="46.73026" lon="6.32201">
        <ele>1205</ele>
        <time>2022-08-14T08:50:42Z</time>
      </trkpt>
      <trkpt lat="46.73036" lon="6.32213">
        <ele>1204</ele>
        <time>2022-08-14T08:50:44Z</time>
      </trkpt>
      <trkpt lat="46.73044" lon="6.32224">
        <ele>1205</ele>
        <time>2022-08-14T08:50:46Z</time>
      </trkpt>
      <trkpt lat="46.73051" lon="6.32234">
        <ele>1206</ele>
        <time>2022-08-14T08:50:49Z</time>
      </trkpt>
      <trkpt lat="46.73058" lon="6.32244">
        <ele>1208</ele>
        <time>2022-08-14T08:50:52Z</time>
      </trkpt>
      <trkpt lat="46.73061" lon="6.32257">
        <ele>1206</ele>
        <time>2022-08-14T08:50:55Z</time>
      </trkpt>
      <trkpt lat="46.73065" lon="6.3227">
        <ele>1209</ele>
        <time>2022-08-14T08:50:58Z</time>
      </trkpt>
      <trkpt lat="46.7307" lon="6.32296">
        <ele>1211</ele>
        <time>2022-08-14T08:51:07Z</time>
      </trkpt>
      <trkpt lat="46.73079" lon="6.32312">
        <ele>1212</ele>
        <time>2022-08-14T08:51:14Z</time>
      </trkpt>
      <trkpt lat="46.73088" lon="6.32317">
        <ele>1212</ele>
        <time>2022-08-14T08:51:18Z</time>
      </trkpt>
      <trkpt lat="46.73098" lon="6.32317">
        <ele>1213</ele>
        <time>2022-08-14T08:51:23Z</time>
      </trkpt>
      <trkpt lat="46.73108" lon="6.32316">
        <ele>1213</ele>
        <time>2022-08-14T08:51:27Z</time>
      </trkpt>
      <trkpt lat="46.73118" lon="6.32313">
        <ele>1213</ele>
        <time>2022-08-14T08:51:30Z</time>
      </trkpt>
      <trkpt lat="46.73129" lon="6.32307">
        <ele>1214</ele>
        <time>2022-08-14T08:51:34Z</time>
      </trkpt>
      <trkpt lat="46.73138" lon="6.3231">
        <ele>1215</ele>
        <time>2022-08-14T08:51:39Z</time>
      </trkpt>
      <trkpt lat="46.73145" lon="6.32322">
        <ele>1215</ele>
        <time>2022-08-14T08:51:42Z</time>
      </trkpt>
      <trkpt lat="46.73151" lon="6.32331">
        <ele>1216</ele>
        <time>2022-08-14T08:51:46Z</time>
      </trkpt>
      <trkpt lat="46.73159" lon="6.32341">
        <ele>1216</ele>
        <time>2022-08-14T08:51:51Z</time>
      </trkpt>
      <trkpt lat="46.73169" lon="6.32342">
        <ele>1215</ele>
        <time>2022-08-14T08:51:54Z</time>
      </trkpt>
      <trkpt lat="46.7318" lon="6.3234">
        <ele>1214</ele>
        <time>2022-08-14T08:51:57Z</time>
      </trkpt>
      <trkpt lat="46.73191" lon="6.32337">
        <ele>1212</ele>
        <time>2022-08-14T08:52:01Z</time>
      </trkpt>
      <trkpt lat="46.73201" lon="6.32337">
        <ele>1212</ele>
        <time>2022-08-14T08:52:02Z</time>
      </trkpt>
      <trkpt lat="46.73211" lon="6.32338">
        <ele>1212</ele>
        <time>2022-08-14T08:52:04Z</time>
      </trkpt>
      <trkpt lat="46.7322" lon="6.32338">
        <ele>1211</ele>
        <time>2022-08-14T08:52:06Z</time>
      </trkpt>
      <trkpt lat="46.7323" lon="6.32339">
        <ele>1212</ele>
        <time>2022-08-14T08:52:08Z</time>
      </trkpt>
      <trkpt lat="46.7324" lon="6.32337">
        <ele>1211</ele>
        <time>2022-08-14T08:52:10Z</time>
      </trkpt>
      <trkpt lat="46.73251" lon="6.32341">
        <ele>1212</ele>
        <time>2022-08-14T08:52:13Z</time>
      </trkpt>
      <trkpt lat="46.73261" lon="6.32347">
        <ele>1211</ele>
        <time>2022-08-14T08:52:15Z</time>
      </trkpt>
      <trkpt lat="46.73268" lon="6.32357">
        <ele>1212</ele>
        <time>2022-08-14T08:52:17Z</time>
      </trkpt>
      <trkpt lat="46.73273" lon="6.32369">
        <ele>1213</ele>
        <time>2022-08-14T08:52:19Z</time>
      </trkpt>
      <trkpt lat="46.7328" lon="6.32384">
        <ele>1214</ele>
        <time>2022-08-14T08:52:22Z</time>
      </trkpt>
      <trkpt lat="46.73283" lon="6.32398">
        <ele>1214</ele>
        <time>2022-08-14T08:52:25Z</time>
      </trkpt>
      <trkpt lat="46.73288" lon="6.32412">
        <ele>1215</ele>
        <time>2022-08-14T08:52:28Z</time>
      </trkpt>
      <trkpt lat="46.73293" lon="6.32424">
        <ele>1216</ele>
        <time>2022-08-14T08:52:31Z</time>
      </trkpt>
      <trkpt lat="46.73301" lon="6.32432">
        <ele>1216</ele>
        <time>2022-08-14T08:52:34Z</time>
      </trkpt>
      <trkpt lat="46.7331" lon="6.3244">
        <ele>1217</ele>
        <time>2022-08-14T08:52:38Z</time>
      </trkpt>
      <trkpt lat="46.7332" lon="6.32448">
        <ele>1217</ele>
        <time>2022-08-14T08:52:40Z</time>
      </trkpt>
      <trkpt lat="46.7333" lon="6.32458">
        <ele>1216</ele>
        <time>2022-08-14T08:52:44Z</time>
      </trkpt>
      <trkpt lat="46.73339" lon="6.32467">
        <ele>1214</ele>
        <time>2022-08-14T08:52:46Z</time>
      </trkpt>
      <trkpt lat="46.73347" lon="6.32479">
        <ele>1213</ele>
        <time>2022-08-14T08:52:48Z</time>
      </trkpt>
      <trkpt lat="46.73354" lon="6.32492">
        <ele>1212</ele>
        <time>2022-08-14T08:52:50Z</time>
      </trkpt>
      <trkpt lat="46.7336" lon="6.32503">
        <ele>1211</ele>
        <time>2022-08-14T08:52:52Z</time>
      </trkpt>
      <trkpt lat="46.73368" lon="6.32511">
        <ele>1209</ele>
        <time>2022-08-14T08:52:56Z</time>
      </trkpt>
      <trkpt lat="46.73375" lon="6.32521">
        <ele>1207</ele>
        <time>2022-08-14T08:53:01Z</time>
      </trkpt>
      <trkpt lat="46.73383" lon="6.32527">
        <ele>1205</ele>
        <time>2022-08-14T08:53:07Z</time>
      </trkpt>
      <trkpt lat="46.73393" lon="6.32538">
        <ele>1209</ele>
        <time>2022-08-14T08:53:11Z</time>
      </trkpt>
      <trkpt lat="46.73399" lon="6.32548">
        <ele>1209</ele>
        <time>2022-08-14T08:53:14Z</time>
      </trkpt>
      <trkpt lat="46.73406" lon="6.3256">
        <ele>1205</ele>
        <time>2022-08-14T08:53:16Z</time>
      </trkpt>
      <trkpt lat="46.73413" lon="6.3257">
        <ele>1205</ele>
        <time>2022-08-14T08:53:18Z</time>
      </trkpt>
      <trkpt lat="46.7342" lon="6.32581">
        <ele>1205</ele>
        <time>2022-08-14T08:53:20Z</time>
      </trkpt>
      <trkpt lat="46.73429" lon="6.32588">
        <ele>1206</ele>
        <time>2022-08-14T08:53:22Z</time>
      </trkpt>
      <trkpt lat="46.73438" lon="6.32595">
        <ele>1206</ele>
        <time>2022-08-14T08:53:24Z</time>
      </trkpt>
      <trkpt lat="46.73451" lon="6.32603">
        <ele>1205</ele>
        <time>2022-08-14T08:53:27Z</time>
      </trkpt>
      <trkpt lat="46.73463" lon="6.32605">
        <ele>1205</ele>
        <time>2022-08-14T08:53:29Z</time>
      </trkpt>
      <trkpt lat="46.73474" lon="6.32608">
        <ele>1206</ele>
        <time>2022-08-14T08:53:32Z</time>
      </trkpt>
      <trkpt lat="46.73484" lon="6.32609">
        <ele>1206</ele>
        <time>2022-08-14T08:53:34Z</time>
      </trkpt>
      <trkpt lat="46.73494" lon="6.32611">
        <ele>1206</ele>
        <time>2022-08-14T08:53:36Z</time>
      </trkpt>
      <trkpt lat="46.73505" lon="6.32615">
        <ele>1205</ele>
        <time>2022-08-14T08:53:39Z</time>
      </trkpt>
      <trkpt lat="46.73515" lon="6.32616">
        <ele>1204</ele>
        <time>2022-08-14T08:53:41Z</time>
      </trkpt>
      <trkpt lat="46.73526" lon="6.32618">
        <ele>1203</ele>
        <time>2022-08-14T08:53:43Z</time>
      </trkpt>
      <trkpt lat="46.7354" lon="6.32619">
        <ele>1201</ele>
        <time>2022-08-14T08:53:45Z</time>
      </trkpt>
      <trkpt lat="46.73556" lon="6.3262">
        <ele>1199</ele>
        <time>2022-08-14T08:53:47Z</time>
      </trkpt>
      <trkpt lat="46.73573" lon="6.32623">
        <ele>1197</ele>
        <time>2022-08-14T08:53:49Z</time>
      </trkpt>
      <trkpt lat="46.7359" lon="6.3263">
        <ele>1195</ele>
        <time>2022-08-14T08:53:51Z</time>
      </trkpt>
      <trkpt lat="46.73598" lon="6.32637">
        <ele>1193</ele>
        <time>2022-08-14T08:53:52Z</time>
      </trkpt>
      <trkpt lat="46.73608" lon="6.32644">
        <ele>1192</ele>
        <time>2022-08-14T08:53:53Z</time>
      </trkpt>
      <trkpt lat="46.73617" lon="6.32651">
        <ele>1191</ele>
        <time>2022-08-14T08:53:54Z</time>
      </trkpt>
      <trkpt lat="46.73627" lon="6.32659">
        <ele>1190</ele>
        <time>2022-08-14T08:53:55Z</time>
      </trkpt>
      <trkpt lat="46.73636" lon="6.32666">
        <ele>1191</ele>
        <time>2022-08-14T08:53:56Z</time>
      </trkpt>
      <trkpt lat="46.73643" lon="6.32674">
        <ele>1191</ele>
        <time>2022-08-14T08:53:57Z</time>
      </trkpt>
      <trkpt lat="46.73652" lon="6.32688">
        <ele>1191</ele>
        <time>2022-08-14T08:53:59Z</time>
      </trkpt>
      <trkpt lat="46.73658" lon="6.32701">
        <ele>1191</ele>
        <time>2022-08-14T08:54:03Z</time>
      </trkpt>
      <trkpt lat="46.73668" lon="6.32713">
        <ele>1191</ele>
        <time>2022-08-14T08:54:08Z</time>
      </trkpt>
      <trkpt lat="46.73676" lon="6.32721">
        <ele>1189</ele>
        <time>2022-08-14T08:54:11Z</time>
      </trkpt>
      <trkpt lat="46.73685" lon="6.32732">
        <ele>1191</ele>
        <time>2022-08-14T08:54:14Z</time>
      </trkpt>
      <trkpt lat="46.73694" lon="6.32742">
        <ele>1192</ele>
        <time>2022-08-14T08:54:18Z</time>
      </trkpt>
      <trkpt lat="46.73701" lon="6.32753">
        <ele>1189</ele>
        <time>2022-08-14T08:54:20Z</time>
      </trkpt>
      <trkpt lat="46.73707" lon="6.32763">
        <ele>1189</ele>
        <time>2022-08-14T08:54:22Z</time>
      </trkpt>
      <trkpt lat="46.73714" lon="6.32775">
        <ele>1191</ele>
        <time>2022-08-14T08:54:25Z</time>
      </trkpt>
      <trkpt lat="46.73714" lon="6.32792">
        <ele>1191</ele>
        <time>2022-08-14T08:54:28Z</time>
      </trkpt>
      <trkpt lat="46.73712" lon="6.32805">
        <ele>1191</ele>
        <time>2022-08-14T08:54:31Z</time>
      </trkpt>
      <trkpt lat="46.7371" lon="6.32823">
        <ele>1191</ele>
        <time>2022-08-14T08:54:33Z</time>
      </trkpt>
      <trkpt lat="46.73709" lon="6.32836">
        <ele>1192</ele>
        <time>2022-08-14T08:54:35Z</time>
      </trkpt>
      <trkpt lat="46.73708" lon="6.32854">
        <ele>1192</ele>
        <time>2022-08-14T08:54:39Z</time>
      </trkpt>
      <trkpt lat="46.73706" lon="6.3287">
        <ele>1193</ele>
        <time>2022-08-14T08:54:42Z</time>
      </trkpt>
      <trkpt lat="46.73704" lon="6.32887">
        <ele>1193</ele>
        <time>2022-08-14T08:54:45Z</time>
      </trkpt>
      <trkpt lat="46.73702" lon="6.32901">
        <ele>1194</ele>
        <time>2022-08-14T08:54:47Z</time>
      </trkpt>
      <trkpt lat="46.73701" lon="6.32918">
        <ele>1195</ele>
        <time>2022-08-14T08:54:51Z</time>
      </trkpt>
      <trkpt lat="46.73698" lon="6.32932">
        <ele>1195</ele>
        <time>2022-08-14T08:54:54Z</time>
      </trkpt>
      <trkpt lat="46.73695" lon="6.32946">
        <ele>1195</ele>
        <time>2022-08-14T08:54:57Z</time>
      </trkpt>
      <trkpt lat="46.73691" lon="6.32958">
        <ele>1196</ele>
        <time>2022-08-14T08:55:00Z</time>
      </trkpt>
      <trkpt lat="46.73688" lon="6.32972">
        <ele>1197</ele>
        <time>2022-08-14T08:55:03Z</time>
      </trkpt>
      <trkpt lat="46.73685" lon="6.32985">
        <ele>1198</ele>
        <time>2022-08-14T08:55:06Z</time>
      </trkpt>
      <trkpt lat="46.73683" lon="6.33">
        <ele>1198</ele>
        <time>2022-08-14T08:55:09Z</time>
      </trkpt>
      <trkpt lat="46.73682" lon="6.33014">
        <ele>1199</ele>
        <time>2022-08-14T08:55:13Z</time>
      </trkpt>
      <trkpt lat="46.73681" lon="6.33027">
        <ele>1199</ele>
        <time>2022-08-14T08:55:17Z</time>
      </trkpt>
      <trkpt lat="46.73681" lon="6.33043">
        <ele>1200</ele>
        <time>2022-08-14T08:55:21Z</time>
      </trkpt>
      <trkpt lat="46.73682" lon="6.33058">
        <ele>1201</ele>
        <time>2022-08-14T08:55:25Z</time>
      </trkpt>
      <trkpt lat="46.73683" lon="6.33073">
        <ele>1202</ele>
        <time>2022-08-14T08:55:29Z</time>
      </trkpt>
      <trkpt lat="46.73684" lon="6.33087">
        <ele>1202</ele>
        <time>2022-08-14T08:55:33Z</time>
      </trkpt>
      <trkpt lat="46.73684" lon="6.33102">
        <ele>1203</ele>
        <time>2022-08-14T08:55:37Z</time>
      </trkpt>
      <trkpt lat="46.73683" lon="6.33115">
        <ele>1203</ele>
        <time>2022-08-14T08:55:41Z</time>
      </trkpt>
      <trkpt lat="46.73683" lon="6.33129">
        <ele>1204</ele>
        <time>2022-08-14T08:55:44Z</time>
      </trkpt>
      <trkpt lat="46.73691" lon="6.33138">
        <ele>1205</ele>
        <time>2022-08-14T08:55:49Z</time>
      </trkpt>
      <trkpt lat="46.73701" lon="6.33137">
        <ele>1206</ele>
        <time>2022-08-14T08:55:53Z</time>
      </trkpt>
      <trkpt lat="46.73711" lon="6.33133">
        <ele>1206</ele>
        <time>2022-08-14T08:55:58Z</time>
      </trkpt>
      <trkpt lat="46.73722" lon="6.33128">
        <ele>1207</ele>
        <time>2022-08-14T08:56:02Z</time>
      </trkpt>
      <trkpt lat="46.73732" lon="6.33127">
        <ele>1207</ele>
        <time>2022-08-14T08:56:06Z</time>
      </trkpt>
      <trkpt lat="46.73743" lon="6.33125">
        <ele>1208</ele>
        <time>2022-08-14T08:56:10Z</time>
      </trkpt>
      <trkpt lat="46.73754" lon="6.33126">
        <ele>1209</ele>
        <time>2022-08-14T08:56:14Z</time>
      </trkpt>
      <trkpt lat="46.73764" lon="6.33127">
        <ele>1211</ele>
        <time>2022-08-14T08:56:19Z</time>
      </trkpt>
      <trkpt lat="46.73773" lon="6.33131">
        <ele>1212</ele>
        <time>2022-08-14T08:56:24Z</time>
      </trkpt>
      <trkpt lat="46.73783" lon="6.33135">
        <ele>1213</ele>
        <time>2022-08-14T08:56:30Z</time>
      </trkpt>
      <trkpt lat="46.73792" lon="6.3314">
        <ele>1214</ele>
        <time>2022-08-14T08:56:36Z</time>
      </trkpt>
      <trkpt lat="46.73787" lon="6.33152">
        <ele>1213</ele>
        <time>2022-08-14T08:56:51Z</time>
      </trkpt>
      <trkpt lat="46.73786" lon="6.33165">
        <ele>1215</ele>
        <time>2022-08-14T08:56:55Z</time>
      </trkpt>
      <trkpt lat="46.73784" lon="6.33178">
        <ele>1215</ele>
        <time>2022-08-14T08:57:00Z</time>
      </trkpt>
      <trkpt lat="46.73778" lon="6.33189">
        <ele>1215</ele>
        <time>2022-08-14T08:57:06Z</time>
      </trkpt>
      <trkpt lat="46.73778" lon="6.33203">
        <ele>1218</ele>
        <time>2022-08-14T08:57:12Z</time>
      </trkpt>
      <trkpt lat="46.73778" lon="6.33216">
        <ele>1219</ele>
        <time>2022-08-14T08:57:18Z</time>
      </trkpt>
      <trkpt lat="46.73777" lon="6.3323">
        <ele>1220</ele>
        <time>2022-08-14T08:57:25Z</time>
      </trkpt>
      <trkpt lat="46.73775" lon="6.33243">
        <ele>1221</ele>
        <time>2022-08-14T08:57:31Z</time>
      </trkpt>
      <trkpt lat="46.73776" lon="6.33257">
        <ele>1222</ele>
        <time>2022-08-14T08:57:36Z</time>
      </trkpt>
      <trkpt lat="46.73777" lon="6.3327">
        <ele>1223</ele>
        <time>2022-08-14T08:57:43Z</time>
      </trkpt>
      <trkpt lat="46.73781" lon="6.33283">
        <ele>1224</ele>
        <time>2022-08-14T08:57:49Z</time>
      </trkpt>
      <trkpt lat="46.7379" lon="6.33293">
        <ele>1225</ele>
        <time>2022-08-14T08:57:56Z</time>
      </trkpt>
      <trkpt lat="46.73797" lon="6.33305">
        <ele>1226</ele>
        <time>2022-08-14T08:58:01Z</time>
      </trkpt>
      <trkpt lat="46.738" lon="6.33318">
        <ele>1227</ele>
        <time>2022-08-14T08:58:07Z</time>
      </trkpt>
      <trkpt lat="46.73801" lon="6.33334">
        <ele>1228</ele>
        <time>2022-08-14T08:58:12Z</time>
      </trkpt>
      <trkpt lat="46.73803" lon="6.33347">
        <ele>1229</ele>
        <time>2022-08-14T08:58:18Z</time>
      </trkpt>
      <trkpt lat="46.73803" lon="6.33363">
        <ele>1230</ele>
        <time>2022-08-14T08:58:24Z</time>
      </trkpt>
      <trkpt lat="46.738" lon="6.33377">
        <ele>1231</ele>
        <time>2022-08-14T08:58:30Z</time>
      </trkpt>
      <trkpt lat="46.738" lon="6.33392">
        <ele>1232</ele>
        <time>2022-08-14T08:58:35Z</time>
      </trkpt>
      <trkpt lat="46.738" lon="6.33405">
        <ele>1233</ele>
        <time>2022-08-14T08:58:41Z</time>
      </trkpt>
      <trkpt lat="46.73805" lon="6.33418">
        <ele>1234</ele>
        <time>2022-08-14T08:58:45Z</time>
      </trkpt>
      <trkpt lat="46.7381" lon="6.33429">
        <ele>1234</ele>
        <time>2022-08-14T08:58:49Z</time>
      </trkpt>
      <trkpt lat="46.73815" lon="6.33443">
        <ele>1234</ele>
        <time>2022-08-14T08:58:54Z</time>
      </trkpt>
      <trkpt lat="46.73815" lon="6.33458">
        <ele>1235</ele>
        <time>2022-08-14T08:58:59Z</time>
      </trkpt>
      <trkpt lat="46.73815" lon="6.33473">
        <ele>1237</ele>
        <time>2022-08-14T08:59:05Z</time>
      </trkpt>
      <trkpt lat="46.73815" lon="6.33488">
        <ele>1238</ele>
        <time>2022-08-14T08:59:12Z</time>
      </trkpt>
      <trkpt lat="46.73816" lon="6.33502">
        <ele>1239</ele>
        <time>2022-08-14T08:59:18Z</time>
      </trkpt>
      <trkpt lat="46.7382" lon="6.33516">
        <ele>1240</ele>
        <time>2022-08-14T08:59:23Z</time>
      </trkpt>
      <trkpt lat="46.7382" lon="6.33531">
        <ele>1241</ele>
        <time>2022-08-14T08:59:30Z</time>
      </trkpt>
      <trkpt lat="46.73822" lon="6.33545">
        <ele>1242</ele>
        <time>2022-08-14T08:59:36Z</time>
      </trkpt>
      <trkpt lat="46.73825" lon="6.33559">
        <ele>1243</ele>
        <time>2022-08-14T08:59:42Z</time>
      </trkpt>
      <trkpt lat="46.73829" lon="6.33573">
        <ele>1244</ele>
        <time>2022-08-14T08:59:48Z</time>
      </trkpt>
      <trkpt lat="46.73831" lon="6.33588">
        <ele>1246</ele>
        <time>2022-08-14T08:59:54Z</time>
      </trkpt>
      <trkpt lat="46.73832" lon="6.33601">
        <ele>1246</ele>
        <time>2022-08-14T08:59:58Z</time>
      </trkpt>
      <trkpt lat="46.73833" lon="6.33614">
        <ele>1247</ele>
        <time>2022-08-14T09:00:02Z</time>
      </trkpt>
      <trkpt lat="46.73835" lon="6.3363">
        <ele>1248</ele>
        <time>2022-08-14T09:00:07Z</time>
      </trkpt>
      <trkpt lat="46.73837" lon="6.33645">
        <ele>1248</ele>
        <time>2022-08-14T09:00:13Z</time>
      </trkpt>
      <trkpt lat="46.73839" lon="6.3366">
        <ele>1249</ele>
        <time>2022-08-14T09:00:17Z</time>
      </trkpt>
      <trkpt lat="46.73841" lon="6.33674">
        <ele>1249</ele>
        <time>2022-08-14T09:00:22Z</time>
      </trkpt>
      <trkpt lat="46.73843" lon="6.33688">
        <ele>1250</ele>
        <time>2022-08-14T09:00:27Z</time>
      </trkpt>
      <trkpt lat="46.73842" lon="6.33703">
        <ele>1250</ele>
        <time>2022-08-14T09:00:32Z</time>
      </trkpt>
      <trkpt lat="46.73842" lon="6.33718">
        <ele>1251</ele>
        <time>2022-08-14T09:00:36Z</time>
      </trkpt>
      <trkpt lat="46.73837" lon="6.33731">
        <ele>1251</ele>
        <time>2022-08-14T09:00:41Z</time>
      </trkpt>
      <trkpt lat="46.73833" lon="6.33745">
        <ele>1252</ele>
        <time>2022-08-14T09:00:45Z</time>
      </trkpt>
      <trkpt lat="46.73836" lon="6.33758">
        <ele>1251</ele>
        <time>2022-08-14T09:00:49Z</time>
      </trkpt>
      <trkpt lat="46.73838" lon="6.33771">
        <ele>1251</ele>
        <time>2022-08-14T09:00:52Z</time>
      </trkpt>
      <trkpt lat="46.73839" lon="6.33785">
        <ele>1252</ele>
        <time>2022-08-14T09:00:55Z</time>
      </trkpt>
      <trkpt lat="46.73838" lon="6.33798">
        <ele>1252</ele>
        <time>2022-08-14T09:00:59Z</time>
      </trkpt>
      <trkpt lat="46.73838" lon="6.33813">
        <ele>1253</ele>
        <time>2022-08-14T09:01:03Z</time>
      </trkpt>
      <trkpt lat="46.73836" lon="6.33827">
        <ele>1253</ele>
        <time>2022-08-14T09:01:07Z</time>
      </trkpt>
      <trkpt lat="46.73835" lon="6.33841">
        <ele>1254</ele>
        <time>2022-08-14T09:01:10Z</time>
      </trkpt>
      <trkpt lat="46.73829" lon="6.33853">
        <ele>1254</ele>
        <time>2022-08-14T09:01:14Z</time>
      </trkpt>
      <trkpt lat="46.73823" lon="6.33866">
        <ele>1255</ele>
        <time>2022-08-14T09:01:19Z</time>
      </trkpt>
      <trkpt lat="46.73821" lon="6.33879">
        <ele>1256</ele>
        <time>2022-08-14T09:01:23Z</time>
      </trkpt>
      <trkpt lat="46.73822" lon="6.33893">
        <ele>1257</ele>
        <time>2022-08-14T09:01:28Z</time>
      </trkpt>
      <trkpt lat="46.73823" lon="6.33907">
        <ele>1260</ele>
        <time>2022-08-14T09:01:34Z</time>
      </trkpt>
      <trkpt lat="46.73822" lon="6.33922">
        <ele>1260</ele>
        <time>2022-08-14T09:01:39Z</time>
      </trkpt>
      <trkpt lat="46.73821" lon="6.33936">
        <ele>1262</ele>
        <time>2022-08-14T09:01:44Z</time>
      </trkpt>
      <trkpt lat="46.73819" lon="6.33951">
        <ele>1263</ele>
        <time>2022-08-14T09:01:49Z</time>
      </trkpt>
      <trkpt lat="46.7382" lon="6.33964">
        <ele>1263</ele>
        <time>2022-08-14T09:01:54Z</time>
      </trkpt>
      <trkpt lat="46.73821" lon="6.33978">
        <ele>1263</ele>
        <time>2022-08-14T09:01:59Z</time>
      </trkpt>
      <trkpt lat="46.73822" lon="6.33991">
        <ele>1264</ele>
        <time>2022-08-14T09:02:04Z</time>
      </trkpt>
      <trkpt lat="46.7382" lon="6.34008">
        <ele>1265</ele>
        <time>2022-08-14T09:02:10Z</time>
      </trkpt>
      <trkpt lat="46.73817" lon="6.3402">
        <ele>1266</ele>
        <time>2022-08-14T09:02:14Z</time>
      </trkpt>
      <trkpt lat="46.7382" lon="6.34033">
        <ele>1265</ele>
        <time>2022-08-14T09:02:19Z</time>
      </trkpt>
      <trkpt lat="46.73827" lon="6.34045">
        <ele>1265</ele>
        <time>2022-08-14T09:02:23Z</time>
      </trkpt>
      <trkpt lat="46.7383" lon="6.34059">
        <ele>1266</ele>
        <time>2022-08-14T09:02:28Z</time>
      </trkpt>
      <trkpt lat="46.73831" lon="6.34074">
        <ele>1268</ele>
        <time>2022-08-14T09:02:34Z</time>
      </trkpt>
      <trkpt lat="46.73836" lon="6.34086">
        <ele>1266</ele>
        <time>2022-08-14T09:02:41Z</time>
      </trkpt>
      <trkpt lat="46.73835" lon="6.34099">
        <ele>1267</ele>
        <time>2022-08-14T09:02:47Z</time>
      </trkpt>
      <trkpt lat="46.73837" lon="6.34114">
        <ele>1268</ele>
        <time>2022-08-14T09:02:52Z</time>
      </trkpt>
      <trkpt lat="46.73841" lon="6.34127">
        <ele>1267</ele>
        <time>2022-08-14T09:02:57Z</time>
      </trkpt>
      <trkpt lat="46.73847" lon="6.34136">
        <ele>1266</ele>
        <time>2022-08-14T09:03:03Z</time>
      </trkpt>
      <trkpt lat="46.73855" lon="6.34145">
        <ele>1266</ele>
        <time>2022-08-14T09:03:07Z</time>
      </trkpt>
      <trkpt lat="46.73862" lon="6.34157">
        <ele>1266</ele>
        <time>2022-08-14T09:03:10Z</time>
      </trkpt>
      <trkpt lat="46.73868" lon="6.34168">
        <ele>1266</ele>
        <time>2022-08-14T09:03:12Z</time>
      </trkpt>
      <trkpt lat="46.73872" lon="6.34183">
        <ele>1267</ele>
        <time>2022-08-14T09:03:15Z</time>
      </trkpt>
      <trkpt lat="46.73876" lon="6.34197">
        <ele>1268</ele>
        <time>2022-08-14T09:03:18Z</time>
      </trkpt>
      <trkpt lat="46.7388" lon="6.34212">
        <ele>1269</ele>
        <time>2022-08-14T09:03:22Z</time>
      </trkpt>
      <trkpt lat="46.73884" lon="6.34224">
        <ele>1269</ele>
        <time>2022-08-14T09:03:25Z</time>
      </trkpt>
      <trkpt lat="46.7389" lon="6.34242">
        <ele>1269</ele>
        <time>2022-08-14T09:03:30Z</time>
      </trkpt>
      <trkpt lat="46.73894" lon="6.34257">
        <ele>1269</ele>
        <time>2022-08-14T09:03:33Z</time>
      </trkpt>
      <trkpt lat="46.73897" lon="6.34271">
        <ele>1268</ele>
        <time>2022-08-14T09:03:36Z</time>
      </trkpt>
      <trkpt lat="46.73901" lon="6.34285">
        <ele>1267</ele>
        <time>2022-08-14T09:03:39Z</time>
      </trkpt>
      <trkpt lat="46.73907" lon="6.34299">
        <ele>1267</ele>
        <time>2022-08-14T09:03:42Z</time>
      </trkpt>
      <trkpt lat="46.73913" lon="6.34313">
        <ele>1267</ele>
        <time>2022-08-14T09:03:45Z</time>
      </trkpt>
      <trkpt lat="46.73916" lon="6.34326">
        <ele>1266</ele>
        <time>2022-08-14T09:03:48Z</time>
      </trkpt>
      <trkpt lat="46.73921" lon="6.34342">
        <ele>1266</ele>
        <time>2022-08-14T09:03:51Z</time>
      </trkpt>
      <trkpt lat="46.73926" lon="6.34354">
        <ele>1266</ele>
        <time>2022-08-14T09:03:54Z</time>
      </trkpt>
      <trkpt lat="46.73931" lon="6.3437">
        <ele>1266</ele>
        <time>2022-08-14T09:03:56Z</time>
      </trkpt>
      <trkpt lat="46.73936" lon="6.34383">
        <ele>1266</ele>
        <time>2022-08-14T09:03:59Z</time>
      </trkpt>
      <trkpt lat="46.7394" lon="6.34396">
        <ele>1266</ele>
        <time>2022-08-14T09:04:02Z</time>
      </trkpt>
      <trkpt lat="46.73939" lon="6.34411">
        <ele>1266</ele>
        <time>2022-08-14T09:04:05Z</time>
      </trkpt>
      <trkpt lat="46.73936" lon="6.34424">
        <ele>1267</ele>
        <time>2022-08-14T09:04:10Z</time>
      </trkpt>
      <trkpt lat="46.73934" lon="6.34438">
        <ele>1269</ele>
        <time>2022-08-14T09:04:16Z</time>
      </trkpt>
      <trkpt lat="46.73928" lon="6.3445">
        <ele>1270</ele>
        <time>2022-08-14T09:04:22Z</time>
      </trkpt>
      <trkpt lat="46.73928" lon="6.34466">
        <ele>1272</ele>
        <time>2022-08-14T09:04:28Z</time>
      </trkpt>
      <trkpt lat="46.73927" lon="6.34479">
        <ele>1273</ele>
        <time>2022-08-14T09:04:34Z</time>
      </trkpt>
      <trkpt lat="46.73933" lon="6.34492">
        <ele>1274</ele>
        <time>2022-08-14T09:04:41Z</time>
      </trkpt>
      <trkpt lat="46.7394" lon="6.34503">
        <ele>1275</ele>
        <time>2022-08-14T09:04:44Z</time>
      </trkpt>
      <trkpt lat="46.73948" lon="6.34513">
        <ele>1274</ele>
        <time>2022-08-14T09:04:48Z</time>
      </trkpt>
      <trkpt lat="46.73956" lon="6.34526">
        <ele>1274</ele>
        <time>2022-08-14T09:04:53Z</time>
      </trkpt>
      <trkpt lat="46.73963" lon="6.34538">
        <ele>1272</ele>
        <time>2022-08-14T09:04:55Z</time>
      </trkpt>
      <trkpt lat="46.7397" lon="6.3455">
        <ele>1272</ele>
        <time>2022-08-14T09:04:57Z</time>
      </trkpt>
      <trkpt lat="46.73976" lon="6.34562">
        <ele>1272</ele>
        <time>2022-08-14T09:05:00Z</time>
      </trkpt>
      <trkpt lat="46.73983" lon="6.34575">
        <ele>1271</ele>
        <time>2022-08-14T09:05:03Z</time>
      </trkpt>
      <trkpt lat="46.73991" lon="6.34589">
        <ele>1272</ele>
        <time>2022-08-14T09:05:05Z</time>
      </trkpt>
      <trkpt lat="46.74" lon="6.34601">
        <ele>1271</ele>
        <time>2022-08-14T09:05:08Z</time>
      </trkpt>
      <trkpt lat="46.74006" lon="6.3461">
        <ele>1271</ele>
        <time>2022-08-14T09:05:10Z</time>
      </trkpt>
      <trkpt lat="46.74014" lon="6.34618">
        <ele>1271</ele>
        <time>2022-08-14T09:05:12Z</time>
      </trkpt>
      <trkpt lat="46.74025" lon="6.34626">
        <ele>1271</ele>
        <time>2022-08-14T09:05:17Z</time>
      </trkpt>
      <trkpt lat="46.74034" lon="6.3463">
        <ele>1271</ele>
        <time>2022-08-14T09:05:20Z</time>
      </trkpt>
      <trkpt lat="46.74042" lon="6.34638">
        <ele>1270</ele>
        <time>2022-08-14T09:05:22Z</time>
      </trkpt>
      <trkpt lat="46.74052" lon="6.34641">
        <ele>1269</ele>
        <time>2022-08-14T09:05:25Z</time>
      </trkpt>
      <trkpt lat="46.74063" lon="6.34646">
        <ele>1267</ele>
        <time>2022-08-14T09:05:28Z</time>
      </trkpt>
      <trkpt lat="46.74074" lon="6.34647">
        <ele>1266</ele>
        <time>2022-08-14T09:05:30Z</time>
      </trkpt>
      <trkpt lat="46.74085" lon="6.34653">
        <ele>1266</ele>
        <time>2022-08-14T09:05:32Z</time>
      </trkpt>
      <trkpt lat="46.74096" lon="6.34656">
        <ele>1264</ele>
        <time>2022-08-14T09:05:34Z</time>
      </trkpt>
      <trkpt lat="46.74112" lon="6.34652">
        <ele>1262</ele>
        <time>2022-08-14T09:05:36Z</time>
      </trkpt>
      <trkpt lat="46.74127" lon="6.34648">
        <ele>1259</ele>
        <time>2022-08-14T09:05:38Z</time>
      </trkpt>
      <trkpt lat="46.74137" lon="6.34645">
        <ele>1257</ele>
        <time>2022-08-14T09:05:40Z</time>
      </trkpt>
      <trkpt lat="46.74147" lon="6.34642">
        <ele>1256</ele>
        <time>2022-08-14T09:05:42Z</time>
      </trkpt>
      <trkpt lat="46.74157" lon="6.34643">
        <ele>1255</ele>
        <time>2022-08-14T09:05:44Z</time>
      </trkpt>
      <trkpt lat="46.74168" lon="6.34648">
        <ele>1255</ele>
        <time>2022-08-14T09:05:46Z</time>
      </trkpt>
      <trkpt lat="46.74179" lon="6.34655">
        <ele>1254</ele>
        <time>2022-08-14T09:05:50Z</time>
      </trkpt>
      <trkpt lat="46.7419" lon="6.34662">
        <ele>1255</ele>
        <time>2022-08-14T09:05:52Z</time>
      </trkpt>
      <trkpt lat="46.74202" lon="6.34667">
        <ele>1260</ele>
        <time>2022-08-14T09:05:54Z</time>
      </trkpt>
      <trkpt lat="46.74215" lon="6.34671">
        <ele>1260</ele>
        <time>2022-08-14T09:05:56Z</time>
      </trkpt>
      <trkpt lat="46.74227" lon="6.34673">
        <ele>1258</ele>
        <time>2022-08-14T09:05:58Z</time>
      </trkpt>
      <trkpt lat="46.74239" lon="6.34675">
        <ele>1257</ele>
        <time>2022-08-14T09:06:00Z</time>
      </trkpt>
      <trkpt lat="46.7425" lon="6.34677">
        <ele>1255</ele>
        <time>2022-08-14T09:06:02Z</time>
      </trkpt>
      <trkpt lat="46.74266" lon="6.34682">
        <ele>1256</ele>
        <time>2022-08-14T09:06:05Z</time>
      </trkpt>
      <trkpt lat="46.74277" lon="6.34684">
        <ele>1257</ele>
        <time>2022-08-14T09:06:08Z</time>
      </trkpt>
      <trkpt lat="46.74292" lon="6.34688">
        <ele>1254</ele>
        <time>2022-08-14T09:06:12Z</time>
      </trkpt>
      <trkpt lat="46.74302" lon="6.34685">
        <ele>1253</ele>
        <time>2022-08-14T09:06:14Z</time>
      </trkpt>
      <trkpt lat="46.74313" lon="6.3468">
        <ele>1250</ele>
        <time>2022-08-14T09:06:17Z</time>
      </trkpt>
      <trkpt lat="46.74326" lon="6.3468">
        <ele>1248</ele>
        <time>2022-08-14T09:06:19Z</time>
      </trkpt>
      <trkpt lat="46.74341" lon="6.34683">
        <ele>1248</ele>
        <time>2022-08-14T09:06:23Z</time>
      </trkpt>
      <trkpt lat="46.74354" lon="6.34684">
        <ele>1246</ele>
        <time>2022-08-14T09:06:26Z</time>
      </trkpt>
      <trkpt lat="46.74364" lon="6.34684">
        <ele>1247</ele>
        <time>2022-08-14T09:06:28Z</time>
      </trkpt>
      <trkpt lat="46.74374" lon="6.34687">
        <ele>1244</ele>
        <time>2022-08-14T09:06:30Z</time>
      </trkpt>
      <trkpt lat="46.74384" lon="6.34693">
        <ele>1245</ele>
        <time>2022-08-14T09:06:32Z</time>
      </trkpt>
      <trkpt lat="46.74393" lon="6.34693">
        <ele>1244</ele>
        <time>2022-08-14T09:06:34Z</time>
      </trkpt>
      <trkpt lat="46.74403" lon="6.34705">
        <ele>1242</ele>
        <time>2022-08-14T09:06:37Z</time>
      </trkpt>
      <trkpt lat="46.74412" lon="6.34715">
        <ele>1241</ele>
        <time>2022-08-14T09:06:39Z</time>
      </trkpt>
      <trkpt lat="46.74421" lon="6.34725">
        <ele>1242</ele>
        <time>2022-08-14T09:06:41Z</time>
      </trkpt>
      <trkpt lat="46.74433" lon="6.34737">
        <ele>1242</ele>
        <time>2022-08-14T09:06:43Z</time>
      </trkpt>
      <trkpt lat="46.74442" lon="6.34746">
        <ele>1242</ele>
        <time>2022-08-14T09:06:45Z</time>
      </trkpt>
      <trkpt lat="46.74451" lon="6.34754">
        <ele>1241</ele>
        <time>2022-08-14T09:06:47Z</time>
      </trkpt>
      <trkpt lat="46.74462" lon="6.3476">
        <ele>1239</ele>
        <time>2022-08-14T09:06:49Z</time>
      </trkpt>
      <trkpt lat="46.74472" lon="6.34774">
        <ele>1240</ele>
        <time>2022-08-14T09:06:51Z</time>
      </trkpt>
      <trkpt lat="46.74481" lon="6.3479">
        <ele>1238</ele>
        <time>2022-08-14T09:06:53Z</time>
      </trkpt>
      <trkpt lat="46.7449" lon="6.34802">
        <ele>1238</ele>
        <time>2022-08-14T09:06:55Z</time>
      </trkpt>
      <trkpt lat="46.74505" lon="6.34815">
        <ele>1239</ele>
        <time>2022-08-14T09:06:58Z</time>
      </trkpt>
      <trkpt lat="46.74515" lon="6.34829">
        <ele>1239</ele>
        <time>2022-08-14T09:07:00Z</time>
      </trkpt>
      <trkpt lat="46.74522" lon="6.3484">
        <ele>1240</ele>
        <time>2022-08-14T09:07:03Z</time>
      </trkpt>
      <trkpt lat="46.74539" lon="6.34851">
        <ele>1242</ele>
        <time>2022-08-14T09:07:29Z</time>
      </trkpt>
      <trkpt lat="46.74547" lon="6.34858">
        <ele>1240</ele>
        <time>2022-08-14T09:07:33Z</time>
      </trkpt>
      <trkpt lat="46.74555" lon="6.34868">
        <ele>1241</ele>
        <time>2022-08-14T09:07:37Z</time>
      </trkpt>
      <trkpt lat="46.74566" lon="6.34867">
        <ele>1240</ele>
        <time>2022-08-14T09:07:41Z</time>
      </trkpt>
      <trkpt lat="46.74576" lon="6.34863">
        <ele>1239</ele>
        <time>2022-08-14T09:07:43Z</time>
      </trkpt>
      <trkpt lat="46.74586" lon="6.34859">
        <ele>1240</ele>
        <time>2022-08-14T09:07:45Z</time>
      </trkpt>
      <trkpt lat="46.74595" lon="6.34857">
        <ele>1242</ele>
        <time>2022-08-14T09:07:50Z</time>
      </trkpt>
      <trkpt lat="46.74604" lon="6.34854">
        <ele>1244</ele>
        <time>2022-08-14T09:07:56Z</time>
      </trkpt>
      <trkpt lat="46.74614" lon="6.34856">
        <ele>1248</ele>
        <time>2022-08-14T09:08:02Z</time>
      </trkpt>
      <trkpt lat="46.74613" lon="6.34871">
        <ele>1250</ele>
        <time>2022-08-14T09:08:12Z</time>
      </trkpt>
      <trkpt lat="46.74623" lon="6.34871">
        <ele>1253</ele>
        <time>2022-08-14T09:08:18Z</time>
      </trkpt>
      <trkpt lat="46.7463" lon="6.34863">
        <ele>1252</ele>
        <time>2022-08-14T09:08:24Z</time>
      </trkpt>
      <trkpt lat="46.74634" lon="6.34849">
        <ele>1252</ele>
        <time>2022-08-14T09:08:27Z</time>
      </trkpt>
      <trkpt lat="46.74641" lon="6.3483">
        <ele>1253</ele>
        <time>2022-08-14T09:08:32Z</time>
      </trkpt>
      <trkpt lat="46.74643" lon="6.34815">
        <ele>1254</ele>
        <time>2022-08-14T09:08:39Z</time>
      </trkpt>
      <trkpt lat="46.74647" lon="6.34802">
        <ele>1254</ele>
        <time>2022-08-14T09:08:43Z</time>
      </trkpt>
      <trkpt lat="46.74651" lon="6.34789">
        <ele>1255</ele>
        <time>2022-08-14T09:08:48Z</time>
      </trkpt>
      <trkpt lat="46.74656" lon="6.34779">
        <ele>1256</ele>
        <time>2022-08-14T09:08:54Z</time>
      </trkpt>
      <trkpt lat="46.74661" lon="6.34767">
        <ele>1257</ele>
        <time>2022-08-14T09:08:59Z</time>
      </trkpt>
      <trkpt lat="46.74667" lon="6.34756">
        <ele>1258</ele>
        <time>2022-08-14T09:09:05Z</time>
      </trkpt>
      <trkpt lat="46.74672" lon="6.34743">
        <ele>1259</ele>
        <time>2022-08-14T09:09:11Z</time>
      </trkpt>
      <trkpt lat="46.74679" lon="6.34732">
        <ele>1259</ele>
        <time>2022-08-14T09:09:16Z</time>
      </trkpt>
      <trkpt lat="46.74682" lon="6.34717">
        <ele>1259</ele>
        <time>2022-08-14T09:09:21Z</time>
      </trkpt>
      <trkpt lat="46.74687" lon="6.34704">
        <ele>1259</ele>
        <time>2022-08-14T09:09:26Z</time>
      </trkpt>
      <trkpt lat="46.7469" lon="6.34691">
        <ele>1260</ele>
        <time>2022-08-14T09:09:31Z</time>
      </trkpt>
      <trkpt lat="46.74695" lon="6.3468">
        <ele>1261</ele>
        <time>2022-08-14T09:09:35Z</time>
      </trkpt>
      <trkpt lat="46.747" lon="6.34666">
        <ele>1262</ele>
        <time>2022-08-14T09:09:40Z</time>
      </trkpt>
      <trkpt lat="46.74704" lon="6.34655">
        <ele>1263</ele>
        <time>2022-08-14T09:09:45Z</time>
      </trkpt>
      <trkpt lat="46.74709" lon="6.34642">
        <ele>1263</ele>
        <time>2022-08-14T09:09:50Z</time>
      </trkpt>
      <trkpt lat="46.74714" lon="6.34631">
        <ele>1264</ele>
        <time>2022-08-14T09:09:55Z</time>
      </trkpt>
      <trkpt lat="46.7472" lon="6.3462">
        <ele>1266</ele>
        <time>2022-08-14T09:10:01Z</time>
      </trkpt>
      <trkpt lat="46.74727" lon="6.34609">
        <ele>1267</ele>
        <time>2022-08-14T09:10:07Z</time>
      </trkpt>
      <trkpt lat="46.74733" lon="6.34599">
        <ele>1269</ele>
        <time>2022-08-14T09:10:13Z</time>
      </trkpt>
      <trkpt lat="46.7474" lon="6.34588">
        <ele>1272</ele>
        <time>2022-08-14T09:10:21Z</time>
      </trkpt>
      <trkpt lat="46.74746" lon="6.34577">
        <ele>1273</ele>
        <time>2022-08-14T09:10:27Z</time>
      </trkpt>
      <trkpt lat="46.74752" lon="6.34568">
        <ele>1274</ele>
        <time>2022-08-14T09:10:33Z</time>
      </trkpt>
      <trkpt lat="46.74757" lon="6.34556">
        <ele>1275</ele>
        <time>2022-08-14T09:10:40Z</time>
      </trkpt>
      <trkpt lat="46.74764" lon="6.34547">
        <ele>1276</ele>
        <time>2022-08-14T09:10:47Z</time>
      </trkpt>
      <trkpt lat="46.7477" lon="6.34535">
        <ele>1277</ele>
        <time>2022-08-14T09:10:54Z</time>
      </trkpt>
      <trkpt lat="46.74778" lon="6.34527">
        <ele>1278</ele>
        <time>2022-08-14T09:11:01Z</time>
      </trkpt>
      <trkpt lat="46.74785" lon="6.3452">
        <ele>1281</ele>
        <time>2022-08-14T09:11:25Z</time>
      </trkpt>
      <trkpt lat="46.74794" lon="6.34512">
        <ele>1281</ele>
        <time>2022-08-14T09:11:30Z</time>
      </trkpt>
      <trkpt lat="46.74803" lon="6.34504">
        <ele>1284</ele>
        <time>2022-08-14T09:11:38Z</time>
      </trkpt>
      <trkpt lat="46.74811" lon="6.345">
        <ele>1286</ele>
        <time>2022-08-14T09:11:45Z</time>
      </trkpt>
      <trkpt lat="46.7482" lon="6.34492">
        <ele>1285</ele>
        <time>2022-08-14T09:11:52Z</time>
      </trkpt>
      <trkpt lat="46.74828" lon="6.34482">
        <ele>1287</ele>
        <time>2022-08-14T09:11:57Z</time>
      </trkpt>
      <trkpt lat="46.74836" lon="6.34476">
        <ele>1289</ele>
        <time>2022-08-14T09:12:04Z</time>
      </trkpt>
      <trkpt lat="46.74846" lon="6.34471">
        <ele>1288</ele>
        <time>2022-08-14T09:12:10Z</time>
      </trkpt>
      <trkpt lat="46.74854" lon="6.34465">
        <ele>1289</ele>
        <time>2022-08-14T09:12:15Z</time>
      </trkpt>
      <trkpt lat="46.74863" lon="6.3446">
        <ele>1292</ele>
        <time>2022-08-14T09:12:22Z</time>
      </trkpt>
      <trkpt lat="46.74873" lon="6.34458">
        <ele>1292</ele>
        <time>2022-08-14T09:12:26Z</time>
      </trkpt>
      <trkpt lat="46.74883" lon="6.34454">
        <ele>1292</ele>
        <time>2022-08-14T09:12:30Z</time>
      </trkpt>
      <trkpt lat="46.74892" lon="6.34449">
        <ele>1290</ele>
        <time>2022-08-14T09:12:34Z</time>
      </trkpt>
      <trkpt lat="46.74902" lon="6.34448">
        <ele>1291</ele>
        <time>2022-08-14T09:12:39Z</time>
      </trkpt>
      <trkpt lat="46.74912" lon="6.34448">
        <ele>1293</ele>
        <time>2022-08-14T09:12:43Z</time>
      </trkpt>
      <trkpt lat="46.74921" lon="6.34451">
        <ele>1294</ele>
        <time>2022-08-14T09:12:47Z</time>
      </trkpt>
      <trkpt lat="46.74931" lon="6.34452">
        <ele>1297</ele>
        <time>2022-08-14T09:12:54Z</time>
      </trkpt>
      <trkpt lat="46.74941" lon="6.3445">
        <ele>1301</ele>
        <time>2022-08-14T09:13:02Z</time>
      </trkpt>
      <trkpt lat="46.74952" lon="6.3445">
        <ele>1300</ele>
        <time>2022-08-14T09:13:09Z</time>
      </trkpt>
      <trkpt lat="46.74961" lon="6.34452">
        <ele>1301</ele>
        <time>2022-08-14T09:13:14Z</time>
      </trkpt>
      <trkpt lat="46.7497" lon="6.34455">
        <ele>1300</ele>
        <time>2022-08-14T09:13:19Z</time>
      </trkpt>
      <trkpt lat="46.74979" lon="6.34458">
        <ele>1304</ele>
        <time>2022-08-14T09:13:25Z</time>
      </trkpt>
      <trkpt lat="46.74989" lon="6.34461">
        <ele>1304</ele>
        <time>2022-08-14T09:13:29Z</time>
      </trkpt>
      <trkpt lat="46.74999" lon="6.34464">
        <ele>1302</ele>
        <time>2022-08-14T09:13:36Z</time>
      </trkpt>
      <trkpt lat="46.75007" lon="6.34472">
        <ele>1305</ele>
        <time>2022-08-14T09:13:44Z</time>
      </trkpt>
      <trkpt lat="46.75014" lon="6.34481">
        <ele>1308</ele>
        <time>2022-08-14T09:13:50Z</time>
      </trkpt>
      <trkpt lat="46.75022" lon="6.34489">
        <ele>1309</ele>
        <time>2022-08-14T09:13:54Z</time>
      </trkpt>
      <trkpt lat="46.75031" lon="6.34497">
        <ele>1307</ele>
        <time>2022-08-14T09:13:58Z</time>
      </trkpt>
      <trkpt lat="46.7504" lon="6.34502">
        <ele>1305</ele>
        <time>2022-08-14T09:14:03Z</time>
      </trkpt>
      <trkpt lat="46.7505" lon="6.34512">
        <ele>1306</ele>
        <time>2022-08-14T09:14:08Z</time>
      </trkpt>
      <trkpt lat="46.75059" lon="6.34518">
        <ele>1305</ele>
        <time>2022-08-14T09:14:11Z</time>
      </trkpt>
      <trkpt lat="46.75071" lon="6.34521">
        <ele>1305</ele>
        <time>2022-08-14T09:14:16Z</time>
      </trkpt>
      <trkpt lat="46.75081" lon="6.34521">
        <ele>1304</ele>
        <time>2022-08-14T09:14:19Z</time>
      </trkpt>
      <trkpt lat="46.75091" lon="6.34519">
        <ele>1304</ele>
        <time>2022-08-14T09:14:23Z</time>
      </trkpt>
      <trkpt lat="46.751" lon="6.34519">
        <ele>1302</ele>
        <time>2022-08-14T09:14:27Z</time>
      </trkpt>
      <trkpt lat="46.7511" lon="6.34525">
        <ele>1303</ele>
        <time>2022-08-14T09:14:30Z</time>
      </trkpt>
      <trkpt lat="46.75119" lon="6.34534">
        <ele>1303</ele>
        <time>2022-08-14T09:14:32Z</time>
      </trkpt>
      <trkpt lat="46.75128" lon="6.34542">
        <ele>1302</ele>
        <time>2022-08-14T09:14:33Z</time>
      </trkpt>
      <trkpt lat="46.75138" lon="6.34552">
        <ele>1303</ele>
        <time>2022-08-14T09:14:36Z</time>
      </trkpt>
      <trkpt lat="46.75146" lon="6.3456">
        <ele>1303</ele>
        <time>2022-08-14T09:14:38Z</time>
      </trkpt>
      <trkpt lat="46.75155" lon="6.3457">
        <ele>1302</ele>
        <time>2022-08-14T09:14:41Z</time>
      </trkpt>
      <trkpt lat="46.75163" lon="6.34579">
        <ele>1302</ele>
        <time>2022-08-14T09:14:43Z</time>
      </trkpt>
      <trkpt lat="46.75171" lon="6.34589">
        <ele>1303</ele>
        <time>2022-08-14T09:14:45Z</time>
      </trkpt>
      <trkpt lat="46.7518" lon="6.34598">
        <ele>1303</ele>
        <time>2022-08-14T09:14:47Z</time>
      </trkpt>
      <trkpt lat="46.7519" lon="6.34614">
        <ele>1303</ele>
        <time>2022-08-14T09:14:49Z</time>
      </trkpt>
      <trkpt lat="46.75198" lon="6.34628">
        <ele>1304</ele>
        <time>2022-08-14T09:14:52Z</time>
      </trkpt>
      <trkpt lat="46.75206" lon="6.34641">
        <ele>1304</ele>
        <time>2022-08-14T09:14:54Z</time>
      </trkpt>
      <trkpt lat="46.75213" lon="6.34652">
        <ele>1304</ele>
        <time>2022-08-14T09:14:56Z</time>
      </trkpt>
      <trkpt lat="46.75221" lon="6.3466">
        <ele>1305</ele>
        <time>2022-08-14T09:14:59Z</time>
      </trkpt>
      <trkpt lat="46.75225" lon="6.34676">
        <ele>1304</ele>
        <time>2022-08-14T09:15:03Z</time>
      </trkpt>
      <trkpt lat="46.75232" lon="6.34685">
        <ele>1306</ele>
        <time>2022-08-14T09:15:08Z</time>
      </trkpt>
      <trkpt lat="46.75237" lon="6.34696">
        <ele>1307</ele>
        <time>2022-08-14T09:15:11Z</time>
      </trkpt>
      <trkpt lat="46.75243" lon="6.3471">
        <ele>1306</ele>
        <time>2022-08-14T09:15:15Z</time>
      </trkpt>
      <trkpt lat="46.75249" lon="6.34722">
        <ele>1307</ele>
        <time>2022-08-14T09:15:18Z</time>
      </trkpt>
      <trkpt lat="46.75254" lon="6.34735">
        <ele>1308</ele>
        <time>2022-08-14T09:15:20Z</time>
      </trkpt>
      <trkpt lat="46.75258" lon="6.34748">
        <ele>1309</ele>
        <time>2022-08-14T09:15:23Z</time>
      </trkpt>
      <trkpt lat="46.75264" lon="6.34763">
        <ele>1309</ele>
        <time>2022-08-14T09:15:25Z</time>
      </trkpt>
      <trkpt lat="46.75269" lon="6.34774">
        <ele>1309</ele>
        <time>2022-08-14T09:15:27Z</time>
      </trkpt>
      <trkpt lat="46.75276" lon="6.34789">
        <ele>1309</ele>
        <time>2022-08-14T09:15:29Z</time>
      </trkpt>
      <trkpt lat="46.75283" lon="6.34798">
        <ele>1310</ele>
        <time>2022-08-14T09:15:32Z</time>
      </trkpt>
      <trkpt lat="46.7529" lon="6.34808">
        <ele>1310</ele>
        <time>2022-08-14T09:15:36Z</time>
      </trkpt>
      <trkpt lat="46.7529" lon="6.34822">
        <ele>1311</ele>
        <time>2022-08-14T09:15:40Z</time>
      </trkpt>
      <trkpt lat="46.75284" lon="6.34835">
        <ele>1312</ele>
        <time>2022-08-14T09:15:42Z</time>
      </trkpt>
      <trkpt lat="46.75283" lon="6.3485">
        <ele>1312</ele>
        <time>2022-08-14T09:15:45Z</time>
      </trkpt>
      <trkpt lat="46.75289" lon="6.34861">
        <ele>1313</ele>
        <time>2022-08-14T09:15:49Z</time>
      </trkpt>
      <trkpt lat="46.75299" lon="6.3487">
        <ele>1314</ele>
        <time>2022-08-14T09:15:53Z</time>
      </trkpt>
      <trkpt lat="46.75308" lon="6.34879">
        <ele>1316</ele>
        <time>2022-08-14T09:15:57Z</time>
      </trkpt>
      <trkpt lat="46.75315" lon="6.34888">
        <ele>1316</ele>
        <time>2022-08-14T09:16:01Z</time>
      </trkpt>
      <trkpt lat="46.75322" lon="6.34898">
        <ele>1317</ele>
        <time>2022-08-14T09:16:05Z</time>
      </trkpt>
      <trkpt lat="46.75328" lon="6.3491">
        <ele>1318</ele>
        <time>2022-08-14T09:16:09Z</time>
      </trkpt>
      <trkpt lat="46.75329" lon="6.34924">
        <ele>1318</ele>
        <time>2022-08-14T09:16:13Z</time>
      </trkpt>
      <trkpt lat="46.75328" lon="6.3494">
        <ele>1319</ele>
        <time>2022-08-14T09:16:18Z</time>
      </trkpt>
      <trkpt lat="46.75326" lon="6.34956">
        <ele>1320</ele>
        <time>2022-08-14T09:16:23Z</time>
      </trkpt>
      <trkpt lat="46.75326" lon="6.3497">
        <ele>1321</ele>
        <time>2022-08-14T09:16:27Z</time>
      </trkpt>
      <trkpt lat="46.7533" lon="6.34984">
        <ele>1322</ele>
        <time>2022-08-14T09:16:32Z</time>
      </trkpt>
      <trkpt lat="46.75336" lon="6.34997">
        <ele>1323</ele>
        <time>2022-08-14T09:16:37Z</time>
      </trkpt>
      <trkpt lat="46.75338" lon="6.35012">
        <ele>1324</ele>
        <time>2022-08-14T09:16:43Z</time>
      </trkpt>
      <trkpt lat="46.75339" lon="6.35026">
        <ele>1324</ele>
        <time>2022-08-14T09:16:48Z</time>
      </trkpt>
      <trkpt lat="46.75337" lon="6.35042">
        <ele>1323</ele>
        <time>2022-08-14T09:17:32Z</time>
      </trkpt>
      <trkpt lat="46.75347" lon="6.35075">
        <ele>1322</ele>
        <time>2022-08-14T09:17:36Z</time>
      </trkpt>
      <trkpt lat="46.75354" lon="6.35085">
        <ele>1321</ele>
        <time>2022-08-14T09:17:38Z</time>
      </trkpt>
      <trkpt lat="46.7536" lon="6.35097">
        <ele>1324</ele>
        <time>2022-08-14T09:17:41Z</time>
      </trkpt>
      <trkpt lat="46.75364" lon="6.3511">
        <ele>1324</ele>
        <time>2022-08-14T09:17:44Z</time>
      </trkpt>
      <trkpt lat="46.75369" lon="6.35122">
        <ele>1324</ele>
        <time>2022-08-14T09:17:46Z</time>
      </trkpt>
      <trkpt lat="46.75373" lon="6.35136">
        <ele>1322</ele>
        <time>2022-08-14T09:17:49Z</time>
      </trkpt>
      <trkpt lat="46.75376" lon="6.35148">
        <ele>1323</ele>
        <time>2022-08-14T09:17:51Z</time>
      </trkpt>
      <trkpt lat="46.75382" lon="6.35163">
        <ele>1321</ele>
        <time>2022-08-14T09:17:54Z</time>
      </trkpt>
      <trkpt lat="46.75385" lon="6.35176">
        <ele>1320</ele>
        <time>2022-08-14T09:17:56Z</time>
      </trkpt>
      <trkpt lat="46.75386" lon="6.3519">
        <ele>1319</ele>
        <time>2022-08-14T09:17:58Z</time>
      </trkpt>
      <trkpt lat="46.75385" lon="6.35211">
        <ele>1317</ele>
        <time>2022-08-14T09:18:01Z</time>
      </trkpt>
      <trkpt lat="46.75387" lon="6.35231">
        <ele>1314</ele>
        <time>2022-08-14T09:18:03Z</time>
      </trkpt>
      <trkpt lat="46.75386" lon="6.35254">
        <ele>1315</ele>
        <time>2022-08-14T09:18:05Z</time>
      </trkpt>
      <trkpt lat="46.75393" lon="6.35271">
        <ele>1314</ele>
        <time>2022-08-14T09:18:07Z</time>
      </trkpt>
      <trkpt lat="46.75401" lon="6.35286">
        <ele>1314</ele>
        <time>2022-08-14T09:18:10Z</time>
      </trkpt>
      <trkpt lat="46.75408" lon="6.35276">
        <ele>1311</ele>
        <time>2022-08-14T09:18:16Z</time>
      </trkpt>
      <trkpt lat="46.75414" lon="6.35264">
        <ele>1312</ele>
        <time>2022-08-14T09:18:18Z</time>
      </trkpt>
      <trkpt lat="46.75429" lon="6.3527">
        <ele>1310</ele>
        <time>2022-08-14T09:18:25Z</time>
      </trkpt>
      <trkpt lat="46.75434" lon="6.35284">
        <ele>1309</ele>
        <time>2022-08-14T09:18:27Z</time>
      </trkpt>
      <trkpt lat="46.75439" lon="6.35297">
        <ele>1308</ele>
        <time>2022-08-14T09:18:30Z</time>
      </trkpt>
      <trkpt lat="46.75447" lon="6.35315">
        <ele>1306</ele>
        <time>2022-08-14T09:18:33Z</time>
      </trkpt>
      <trkpt lat="46.75466" lon="6.35306">
        <ele>1306</ele>
        <time>2022-08-14T09:18:37Z</time>
      </trkpt>
      <trkpt lat="46.75473" lon="6.35293">
        <ele>1305</ele>
        <time>2022-08-14T09:18:39Z</time>
      </trkpt>
      <trkpt lat="46.75481" lon="6.35302">
        <ele>1304</ele>
        <time>2022-08-14T09:18:43Z</time>
      </trkpt>
      <trkpt lat="46.75483" lon="6.35322">
        <ele>1303</ele>
        <time>2022-08-14T09:18:45Z</time>
      </trkpt>
      <trkpt lat="46.75493" lon="6.35313">
        <ele>1302</ele>
        <time>2022-08-14T09:18:49Z</time>
      </trkpt>
      <trkpt lat="46.75504" lon="6.35309">
        <ele>1301</ele>
        <time>2022-08-14T09:18:52Z</time>
      </trkpt>
      <trkpt lat="46.75516" lon="6.35316">
        <ele>1299</ele>
        <time>2022-08-14T09:18:54Z</time>
      </trkpt>
      <trkpt lat="46.75527" lon="6.35322">
        <ele>1298</ele>
        <time>2022-08-14T09:18:56Z</time>
      </trkpt>
      <trkpt lat="46.75537" lon="6.3532">
        <ele>1297</ele>
        <time>2022-08-14T09:18:58Z</time>
      </trkpt>
      <trkpt lat="46.75545" lon="6.35326">
        <ele>1297</ele>
        <time>2022-08-14T09:19:00Z</time>
      </trkpt>
      <trkpt lat="46.75556" lon="6.35325">
        <ele>1297</ele>
        <time>2022-08-14T09:19:03Z</time>
      </trkpt>
      <trkpt lat="46.75567" lon="6.35329">
        <ele>1296</ele>
        <time>2022-08-14T09:19:05Z</time>
      </trkpt>
      <trkpt lat="46.75578" lon="6.35335">
        <ele>1296</ele>
        <time>2022-08-14T09:19:07Z</time>
      </trkpt>
      <trkpt lat="46.7559" lon="6.35333">
        <ele>1293</ele>
        <time>2022-08-14T09:19:09Z</time>
      </trkpt>
      <trkpt lat="46.75603" lon="6.35325">
        <ele>1293</ele>
        <time>2022-08-14T09:19:11Z</time>
      </trkpt>
      <trkpt lat="46.75618" lon="6.3532">
        <ele>1293</ele>
        <time>2022-08-14T09:19:13Z</time>
      </trkpt>
      <trkpt lat="46.7563" lon="6.35313">
        <ele>1292</ele>
        <time>2022-08-14T09:19:15Z</time>
      </trkpt>
      <trkpt lat="46.75642" lon="6.35312">
        <ele>1293</ele>
        <time>2022-08-14T09:19:17Z</time>
      </trkpt>
      <trkpt lat="46.75654" lon="6.35311">
        <ele>1292</ele>
        <time>2022-08-14T09:19:19Z</time>
      </trkpt>
      <trkpt lat="46.75664" lon="6.3531">
        <ele>1290</ele>
        <time>2022-08-14T09:19:21Z</time>
      </trkpt>
      <trkpt lat="46.75674" lon="6.35313">
        <ele>1290</ele>
        <time>2022-08-14T09:19:23Z</time>
      </trkpt>
      <trkpt lat="46.75685" lon="6.35319">
        <ele>1288</ele>
        <time>2022-08-14T09:19:25Z</time>
      </trkpt>
      <trkpt lat="46.75696" lon="6.35328">
        <ele>1288</ele>
        <time>2022-08-14T09:19:27Z</time>
      </trkpt>
      <trkpt lat="46.75706" lon="6.35338">
        <ele>1288</ele>
        <time>2022-08-14T09:19:29Z</time>
      </trkpt>
      <trkpt lat="46.75716" lon="6.35349">
        <ele>1288</ele>
        <time>2022-08-14T09:19:31Z</time>
      </trkpt>
      <trkpt lat="46.75728" lon="6.35361">
        <ele>1287</ele>
        <time>2022-08-14T09:19:33Z</time>
      </trkpt>
      <trkpt lat="46.75739" lon="6.35372">
        <ele>1286</ele>
        <time>2022-08-14T09:19:35Z</time>
      </trkpt>
      <trkpt lat="46.75754" lon="6.35378">
        <ele>1285</ele>
        <time>2022-08-14T09:19:37Z</time>
      </trkpt>
      <trkpt lat="46.75766" lon="6.3539">
        <ele>1284</ele>
        <time>2022-08-14T09:19:39Z</time>
      </trkpt>
      <trkpt lat="46.75776" lon="6.35406">
        <ele>1283</ele>
        <time>2022-08-14T09:19:41Z</time>
      </trkpt>
      <trkpt lat="46.75787" lon="6.35422">
        <ele>1282</ele>
        <time>2022-08-14T09:19:43Z</time>
      </trkpt>
      <trkpt lat="46.758" lon="6.35429">
        <ele>1280</ele>
        <time>2022-08-14T09:19:45Z</time>
      </trkpt>
      <trkpt lat="46.75811" lon="6.35442">
        <ele>1279</ele>
        <time>2022-08-14T09:19:47Z</time>
      </trkpt>
      <trkpt lat="46.75817" lon="6.35457">
        <ele>1278</ele>
        <time>2022-08-14T09:19:49Z</time>
      </trkpt>
      <trkpt lat="46.75822" lon="6.35472">
        <ele>1278</ele>
        <time>2022-08-14T09:19:51Z</time>
      </trkpt>
      <trkpt lat="46.75831" lon="6.35467">
        <ele>1278</ele>
        <time>2022-08-14T09:19:54Z</time>
      </trkpt>
      <trkpt lat="46.75838" lon="6.35484">
        <ele>1278</ele>
        <time>2022-08-14T09:19:58Z</time>
      </trkpt>
      <trkpt lat="46.7584" lon="6.35498">
        <ele>1277</ele>
        <time>2022-08-14T09:20:00Z</time>
      </trkpt>
      <trkpt lat="46.75841" lon="6.35512">
        <ele>1275</ele>
        <time>2022-08-14T09:20:02Z</time>
      </trkpt>
      <trkpt lat="46.75843" lon="6.3553">
        <ele>1275</ele>
        <time>2022-08-14T09:20:04Z</time>
      </trkpt>
      <trkpt lat="46.75862" lon="6.35511">
        <ele>1270</ele>
        <time>2022-08-14T09:20:12Z</time>
      </trkpt>
      <trkpt lat="46.75866" lon="6.35495">
        <ele>1269</ele>
        <time>2022-08-14T09:20:14Z</time>
      </trkpt>
      <trkpt lat="46.75864" lon="6.35465">
        <ele>1268</ele>
        <time>2022-08-14T09:20:17Z</time>
      </trkpt>
      <trkpt lat="46.75853" lon="6.35438">
        <ele>1266</ele>
        <time>2022-08-14T09:20:21Z</time>
      </trkpt>
      <trkpt lat="46.75856" lon="6.35424">
        <ele>1262</ele>
        <time>2022-08-14T09:20:29Z</time>
      </trkpt>
      <trkpt lat="46.75869" lon="6.35436">
        <ele>1260</ele>
        <time>2022-08-14T09:20:32Z</time>
      </trkpt>
      <trkpt lat="46.75868" lon="6.3545">
        <ele>1259</ele>
        <time>2022-08-14T09:20:34Z</time>
      </trkpt>
      <trkpt lat="46.75885" lon="6.3546">
        <ele>1258</ele>
        <time>2022-08-14T09:20:37Z</time>
      </trkpt>
      <trkpt lat="46.75893" lon="6.35466">
        <ele>1258</ele>
        <time>2022-08-14T09:20:38Z</time>
      </trkpt>
      <trkpt lat="46.75907" lon="6.35479">
        <ele>1254</ele>
        <time>2022-08-14T09:20:40Z</time>
      </trkpt>
      <trkpt lat="46.75915" lon="6.35487">
        <ele>1253</ele>
        <time>2022-08-14T09:20:41Z</time>
      </trkpt>
      <trkpt lat="46.75922" lon="6.35496">
        <ele>1253</ele>
        <time>2022-08-14T09:20:42Z</time>
      </trkpt>
      <trkpt lat="46.75934" lon="6.35513">
        <ele>1252</ele>
        <time>2022-08-14T09:20:44Z</time>
      </trkpt>
      <trkpt lat="46.75944" lon="6.35534">
        <ele>1251</ele>
        <time>2022-08-14T09:20:46Z</time>
      </trkpt>
      <trkpt lat="46.7595" lon="6.35556">
        <ele>1250</ele>
        <time>2022-08-14T09:20:48Z</time>
      </trkpt>
      <trkpt lat="46.75954" lon="6.35569">
        <ele>1250</ele>
        <time>2022-08-14T09:20:50Z</time>
      </trkpt>
      <trkpt lat="46.7596" lon="6.35583">
        <ele>1250</ele>
        <time>2022-08-14T09:20:53Z</time>
      </trkpt>
      <trkpt lat="46.75965" lon="6.35594">
        <ele>1251</ele>
        <time>2022-08-14T09:20:57Z</time>
      </trkpt>
      <trkpt lat="46.75981" lon="6.3562">
        <ele>1248</ele>
        <time>2022-08-14T09:21:04Z</time>
      </trkpt>
      <trkpt lat="46.75986" lon="6.35638">
        <ele>1244</ele>
        <time>2022-08-14T09:21:07Z</time>
      </trkpt>
      <trkpt lat="46.75995" lon="6.35647">
        <ele>1246</ele>
        <time>2022-08-14T09:21:09Z</time>
      </trkpt>
      <trkpt lat="46.76001" lon="6.35656">
        <ele>1245</ele>
        <time>2022-08-14T09:21:11Z</time>
      </trkpt>
      <trkpt lat="46.76011" lon="6.3566">
        <ele>1241</ele>
        <time>2022-08-14T09:21:16Z</time>
      </trkpt>
      <trkpt lat="46.76018" lon="6.35679">
        <ele>1238</ele>
        <time>2022-08-14T09:21:21Z</time>
      </trkpt>
      <trkpt lat="46.76018" lon="6.35696">
        <ele>1240</ele>
        <time>2022-08-14T09:21:25Z</time>
      </trkpt>
      <trkpt lat="46.76024" lon="6.35708">
        <ele>1241</ele>
        <time>2022-08-14T09:21:28Z</time>
      </trkpt>
      <trkpt lat="46.7603" lon="6.35719">
        <ele>1241</ele>
        <time>2022-08-14T09:21:30Z</time>
      </trkpt>
      <trkpt lat="46.76038" lon="6.35733">
        <ele>1237</ele>
        <time>2022-08-14T09:21:32Z</time>
      </trkpt>
      <trkpt lat="46.76042" lon="6.35748">
        <ele>1237</ele>
        <time>2022-08-14T09:21:35Z</time>
      </trkpt>
      <trkpt lat="46.76057" lon="6.35795">
        <ele>1232</ele>
        <time>2022-08-14T09:21:42Z</time>
      </trkpt>
      <trkpt lat="46.76066" lon="6.35818">
        <ele>1229</ele>
        <time>2022-08-14T09:21:45Z</time>
      </trkpt>
      <trkpt lat="46.76062" lon="6.35836">
        <ele>1228</ele>
        <time>2022-08-14T09:21:47Z</time>
      </trkpt>
      <trkpt lat="46.76056" lon="6.35855">
        <ele>1227</ele>
        <time>2022-08-14T09:21:49Z</time>
      </trkpt>
      <trkpt lat="46.76054" lon="6.35871">
        <ele>1226</ele>
        <time>2022-08-14T09:21:51Z</time>
      </trkpt>
      <trkpt lat="46.76059" lon="6.3589">
        <ele>1225</ele>
        <time>2022-08-14T09:21:53Z</time>
      </trkpt>
      <trkpt lat="46.76064" lon="6.35908">
        <ele>1223</ele>
        <time>2022-08-14T09:21:55Z</time>
      </trkpt>
      <trkpt lat="46.76066" lon="6.35923">
        <ele>1222</ele>
        <time>2022-08-14T09:21:57Z</time>
      </trkpt>
      <trkpt lat="46.76075" lon="6.35932">
        <ele>1219</ele>
        <time>2022-08-14T09:21:59Z</time>
      </trkpt>
      <trkpt lat="46.76087" lon="6.35933">
        <ele>1218</ele>
        <time>2022-08-14T09:22:01Z</time>
      </trkpt>
      <trkpt lat="46.76082" lon="6.35951">
        <ele>1215</ele>
        <time>2022-08-14T09:22:07Z</time>
      </trkpt>
      <trkpt lat="46.76074" lon="6.35963">
        <ele>1215</ele>
        <time>2022-08-14T09:22:09Z</time>
      </trkpt>
      <trkpt lat="46.76065" lon="6.35967">
        <ele>1215</ele>
        <time>2022-08-14T09:22:10Z</time>
      </trkpt>
      <trkpt lat="46.76079" lon="6.35983">
        <ele>1210</ele>
        <time>2022-08-14T09:22:19Z</time>
      </trkpt>
      <trkpt lat="46.76094" lon="6.3598">
        <ele>1203</ele>
        <time>2022-08-14T09:22:21Z</time>
      </trkpt>
      <trkpt lat="46.76103" lon="6.35977">
        <ele>1205</ele>
        <time>2022-08-14T09:22:23Z</time>
      </trkpt>
      <trkpt lat="46.76092" lon="6.36003">
        <ele>1203</ele>
        <time>2022-08-14T09:22:28Z</time>
      </trkpt>
      <trkpt lat="46.76087" lon="6.36016">
        <ele>1201</ele>
        <time>2022-08-14T09:22:31Z</time>
      </trkpt>
      <trkpt lat="46.76093" lon="6.36033">
        <ele>1197</ele>
        <time>2022-08-14T09:22:34Z</time>
      </trkpt>
      <trkpt lat="46.76103" lon="6.36066">
        <ele>1194</ele>
        <time>2022-08-14T09:22:37Z</time>
      </trkpt>
      <trkpt lat="46.76104" lon="6.36081">
        <ele>1193</ele>
        <time>2022-08-14T09:22:38Z</time>
      </trkpt>
      <trkpt lat="46.76106" lon="6.36095">
        <ele>1192</ele>
        <time>2022-08-14T09:22:39Z</time>
      </trkpt>
      <trkpt lat="46.76108" lon="6.36108">
        <ele>1192</ele>
        <time>2022-08-14T09:22:40Z</time>
      </trkpt>
      <trkpt lat="46.7611" lon="6.36129">
        <ele>1191</ele>
        <time>2022-08-14T09:22:42Z</time>
      </trkpt>
      <trkpt lat="46.76112" lon="6.36146">
        <ele>1191</ele>
        <time>2022-08-14T09:22:44Z</time>
      </trkpt>
      <trkpt lat="46.76112" lon="6.36164">
        <ele>1191</ele>
        <time>2022-08-14T09:22:46Z</time>
      </trkpt>
      <trkpt lat="46.76109" lon="6.36177">
        <ele>1189</ele>
        <time>2022-08-14T09:22:48Z</time>
      </trkpt>
      <trkpt lat="46.76105" lon="6.36197">
        <ele>1188</ele>
        <time>2022-08-14T09:22:51Z</time>
      </trkpt>
      <trkpt lat="46.76103" lon="6.36213">
        <ele>1188</ele>
        <time>2022-08-14T09:22:53Z</time>
      </trkpt>
      <trkpt lat="46.76101" lon="6.36232">
        <ele>1186</ele>
        <time>2022-08-14T09:22:55Z</time>
      </trkpt>
      <trkpt lat="46.76099" lon="6.36253">
        <ele>1186</ele>
        <time>2022-08-14T09:22:59Z</time>
      </trkpt>
      <trkpt lat="46.76096" lon="6.36267">
        <ele>1185</ele>
        <time>2022-08-14T09:23:02Z</time>
      </trkpt>
      <trkpt lat="46.76086" lon="6.363">
        <ele>1178</ele>
        <time>2022-08-14T09:23:18Z</time>
      </trkpt>
      <trkpt lat="46.76082" lon="6.36321">
        <ele>1178</ele>
        <time>2022-08-14T09:23:20Z</time>
      </trkpt>
      <trkpt lat="46.76078" lon="6.36341">
        <ele>1178</ele>
        <time>2022-08-14T09:23:22Z</time>
      </trkpt>
      <trkpt lat="46.76076" lon="6.36359">
        <ele>1178</ele>
        <time>2022-08-14T09:23:24Z</time>
      </trkpt>
      <trkpt lat="46.76077" lon="6.36375">
        <ele>1177</ele>
        <time>2022-08-14T09:23:26Z</time>
      </trkpt>
      <trkpt lat="46.76081" lon="6.36389">
        <ele>1176</ele>
        <time>2022-08-14T09:23:30Z</time>
      </trkpt>
      <trkpt lat="46.76063" lon="6.36376">
        <ele>1171</ele>
        <time>2022-08-14T09:23:42Z</time>
      </trkpt>
      <trkpt lat="46.76058" lon="6.36402">
        <ele>1170</ele>
        <time>2022-08-14T09:23:45Z</time>
      </trkpt>
      <trkpt lat="46.76061" lon="6.36437">
        <ele>1167</ele>
        <time>2022-08-14T09:23:50Z</time>
      </trkpt>
      <trkpt lat="46.76067" lon="6.36451">
        <ele>1166</ele>
        <time>2022-08-14T09:23:52Z</time>
      </trkpt>
      <trkpt lat="46.76074" lon="6.36463">
        <ele>1165</ele>
        <time>2022-08-14T09:23:54Z</time>
      </trkpt>
      <trkpt lat="46.76081" lon="6.36476">
        <ele>1163</ele>
        <time>2022-08-14T09:23:56Z</time>
      </trkpt>
      <trkpt lat="46.76089" lon="6.36489">
        <ele>1164</ele>
        <time>2022-08-14T09:23:58Z</time>
      </trkpt>
      <trkpt lat="46.76097" lon="6.36499">
        <ele>1163</ele>
        <time>2022-08-14T09:24:00Z</time>
      </trkpt>
      <trkpt lat="46.76078" lon="6.36478">
        <ele>1158</ele>
        <time>2022-08-14T09:24:10Z</time>
      </trkpt>
      <trkpt lat="46.76069" lon="6.36469">
        <ele>1158</ele>
        <time>2022-08-14T09:24:12Z</time>
      </trkpt>
      <trkpt lat="46.7606" lon="6.36449">
        <ele>1158</ele>
        <time>2022-08-14T09:24:15Z</time>
      </trkpt>
      <trkpt lat="46.7606" lon="6.36476">
        <ele>1154</ele>
        <time>2022-08-14T09:24:24Z</time>
      </trkpt>
      <trkpt lat="46.76042" lon="6.36494">
        <ele>1148</ele>
        <time>2022-08-14T09:24:36Z</time>
      </trkpt>
      <trkpt lat="46.76033" lon="6.36472">
        <ele>1148</ele>
        <time>2022-08-14T09:24:45Z</time>
      </trkpt>
      <trkpt lat="46.76015" lon="6.36483">
        <ele>1148</ele>
        <time>2022-08-14T09:24:49Z</time>
      </trkpt>
      <trkpt lat="46.76004" lon="6.3652">
        <ele>1143</ele>
        <time>2022-08-14T09:24:59Z</time>
      </trkpt>
      <trkpt lat="46.75998" lon="6.36539">
        <ele>1137</ele>
        <time>2022-08-14T09:25:05Z</time>
      </trkpt>
      <trkpt lat="46.76005" lon="6.36551">
        <ele>1138</ele>
        <time>2022-08-14T09:25:09Z</time>
      </trkpt>
      <trkpt lat="46.76013" lon="6.36565">
        <ele>1135</ele>
        <time>2022-08-14T09:25:11Z</time>
      </trkpt>
      <trkpt lat="46.76018" lon="6.36583">
        <ele>1135</ele>
        <time>2022-08-14T09:25:22Z</time>
      </trkpt>
      <trkpt lat="46.76032" lon="6.36597">
        <ele>1134</ele>
        <time>2022-08-14T09:25:26Z</time>
      </trkpt>
      <trkpt lat="46.76042" lon="6.3661">
        <ele>1132</ele>
        <time>2022-08-14T09:25:28Z</time>
      </trkpt>
      <trkpt lat="46.76047" lon="6.36621">
        <ele>1131</ele>
        <time>2022-08-14T09:25:29Z</time>
      </trkpt>
      <trkpt lat="46.7606" lon="6.36634">
        <ele>1132</ele>
        <time>2022-08-14T09:25:31Z</time>
      </trkpt>
      <trkpt lat="46.7608" lon="6.36645">
        <ele>1133</ele>
        <time>2022-08-14T09:25:34Z</time>
      </trkpt>
      <trkpt lat="46.76096" lon="6.3666">
        <ele>1129</ele>
        <time>2022-08-14T09:25:37Z</time>
      </trkpt>
      <trkpt lat="46.7611" lon="6.36675">
        <ele>1128</ele>
        <time>2022-08-14T09:25:40Z</time>
      </trkpt>
      <trkpt lat="46.76129" lon="6.36686">
        <ele>1125</ele>
        <time>2022-08-14T09:25:44Z</time>
      </trkpt>
      <trkpt lat="46.7614" lon="6.3669">
        <ele>1124</ele>
        <time>2022-08-14T09:25:46Z</time>
      </trkpt>
      <trkpt lat="46.76152" lon="6.36688">
        <ele>1119</ele>
        <time>2022-08-14T09:25:48Z</time>
      </trkpt>
      <trkpt lat="46.76164" lon="6.36693">
        <ele>1118</ele>
        <time>2022-08-14T09:25:50Z</time>
      </trkpt>
      <trkpt lat="46.76178" lon="6.36684">
        <ele>1119</ele>
        <time>2022-08-14T09:25:52Z</time>
      </trkpt>
      <trkpt lat="46.76203" lon="6.36661">
        <ele>1116</ele>
        <time>2022-08-14T09:25:56Z</time>
      </trkpt>
      <trkpt lat="46.7622" lon="6.36647">
        <ele>1113</ele>
        <time>2022-08-14T09:25:59Z</time>
      </trkpt>
      <trkpt lat="46.7624" lon="6.36649">
        <ele>1111</ele>
        <time>2022-08-14T09:26:02Z</time>
      </trkpt>
      <trkpt lat="46.76252" lon="6.36649">
        <ele>1106</ele>
        <time>2022-08-14T09:26:04Z</time>
      </trkpt>
      <trkpt lat="46.76262" lon="6.3664">
        <ele>1106</ele>
        <time>2022-08-14T09:26:07Z</time>
      </trkpt>
      <trkpt lat="46.7627" lon="6.36649">
        <ele>1104</ele>
        <time>2022-08-14T09:26:11Z</time>
      </trkpt>
      <trkpt lat="46.76259" lon="6.36658">
        <ele>1104</ele>
        <time>2022-08-14T09:26:13Z</time>
      </trkpt>
      <trkpt lat="46.76245" lon="6.36665">
        <ele>1110</ele>
        <time>2022-08-14T09:26:17Z</time>
      </trkpt>
      <trkpt lat="46.76226" lon="6.36664">
        <ele>1110</ele>
        <time>2022-08-14T09:26:22Z</time>
      </trkpt>
      <trkpt lat="46.76207" lon="6.36684">
        <ele>1111</ele>
        <time>2022-08-14T09:26:26Z</time>
      </trkpt>
      <trkpt lat="46.76196" lon="6.3671">
        <ele>1109</ele>
        <time>2022-08-14T09:26:30Z</time>
      </trkpt>
      <trkpt lat="46.76183" lon="6.36733">
        <ele>1107</ele>
        <time>2022-08-14T09:26:34Z</time>
      </trkpt>
      <trkpt lat="46.76172" lon="6.36741">
        <ele>1106</ele>
        <time>2022-08-14T09:26:36Z</time>
      </trkpt>
      <trkpt lat="46.76161" lon="6.36744">
        <ele>1106</ele>
        <time>2022-08-14T09:26:38Z</time>
      </trkpt>
      <trkpt lat="46.76149" lon="6.36749">
        <ele>1106</ele>
        <time>2022-08-14T09:26:40Z</time>
      </trkpt>
      <trkpt lat="46.76136" lon="6.36754">
        <ele>1107</ele>
        <time>2022-08-14T09:26:42Z</time>
      </trkpt>
      <trkpt lat="46.76127" lon="6.36759">
        <ele>1107</ele>
        <time>2022-08-14T09:26:44Z</time>
      </trkpt>
      <trkpt lat="46.76118" lon="6.36763">
        <ele>1106</ele>
        <time>2022-08-14T09:26:46Z</time>
      </trkpt>
      <trkpt lat="46.76107" lon="6.36768">
        <ele>1107</ele>
        <time>2022-08-14T09:26:48Z</time>
      </trkpt>
      <trkpt lat="46.76095" lon="6.36772">
        <ele>1105</ele>
        <time>2022-08-14T09:26:50Z</time>
      </trkpt>
      <trkpt lat="46.76084" lon="6.36777">
        <ele>1104</ele>
        <time>2022-08-14T09:26:52Z</time>
      </trkpt>
      <trkpt lat="46.76073" lon="6.36784">
        <ele>1104</ele>
        <time>2022-08-14T09:26:54Z</time>
      </trkpt>
      <trkpt lat="46.76062" lon="6.36791">
        <ele>1103</ele>
        <time>2022-08-14T09:26:56Z</time>
      </trkpt>
      <trkpt lat="46.76052" lon="6.36796">
        <ele>1101</ele>
        <time>2022-08-14T09:27:00Z</time>
      </trkpt>
      <trkpt lat="46.76062" lon="6.36796">
        <ele>1099</ele>
        <time>2022-08-14T09:27:12Z</time>
      </trkpt>
      <trkpt lat="46.7607" lon="6.36808">
        <ele>1102</ele>
        <time>2022-08-14T09:27:14Z</time>
      </trkpt>
      <trkpt lat="46.76078" lon="6.36816">
        <ele>1103</ele>
        <time>2022-08-14T09:27:17Z</time>
      </trkpt>
      <trkpt lat="46.76085" lon="6.36827">
        <ele>1105</ele>
        <time>2022-08-14T09:27:23Z</time>
      </trkpt>
      <trkpt lat="46.76091" lon="6.36837">
        <ele>1108</ele>
        <time>2022-08-14T09:27:30Z</time>
      </trkpt>
      <trkpt lat="46.76098" lon="6.36846">
        <ele>1111</ele>
        <time>2022-08-14T09:27:37Z</time>
      </trkpt>
      <trkpt lat="46.76105" lon="6.36855">
        <ele>1112</ele>
        <time>2022-08-14T09:27:44Z</time>
      </trkpt>
      <trkpt lat="46.76113" lon="6.36863">
        <ele>1110</ele>
        <time>2022-08-14T09:27:48Z</time>
      </trkpt>
      <trkpt lat="46.76123" lon="6.36871">
        <ele>1113</ele>
        <time>2022-08-14T09:27:53Z</time>
      </trkpt>
      <trkpt lat="46.76133" lon="6.36878">
        <ele>1114</ele>
        <time>2022-08-14T09:27:57Z</time>
      </trkpt>
      <trkpt lat="46.76142" lon="6.36883">
        <ele>1117</ele>
        <time>2022-08-14T09:28:01Z</time>
      </trkpt>
      <trkpt lat="46.76152" lon="6.36887">
        <ele>1117</ele>
        <time>2022-08-14T09:28:04Z</time>
      </trkpt>
      <trkpt lat="46.76162" lon="6.36891">
        <ele>1116</ele>
        <time>2022-08-14T09:28:08Z</time>
      </trkpt>
      <trkpt lat="46.76172" lon="6.36893">
        <ele>1116</ele>
        <time>2022-08-14T09:28:10Z</time>
      </trkpt>
      <trkpt lat="46.76181" lon="6.36893">
        <ele>1116</ele>
        <time>2022-08-14T09:28:15Z</time>
      </trkpt>
      <trkpt lat="46.76193" lon="6.36896">
        <ele>1115</ele>
        <time>2022-08-14T09:28:17Z</time>
      </trkpt>
      <trkpt lat="46.76202" lon="6.36906">
        <ele>1115</ele>
        <time>2022-08-14T09:28:20Z</time>
      </trkpt>
      <trkpt lat="46.76209" lon="6.36916">
        <ele>1114</ele>
        <time>2022-08-14T09:28:22Z</time>
      </trkpt>
      <trkpt lat="46.76217" lon="6.36925">
        <ele>1113</ele>
        <time>2022-08-14T09:28:25Z</time>
      </trkpt>
      <trkpt lat="46.76229" lon="6.36933">
        <ele>1110</ele>
        <time>2022-08-14T09:28:27Z</time>
      </trkpt>
      <trkpt lat="46.76238" lon="6.36936">
        <ele>1110</ele>
        <time>2022-08-14T09:28:30Z</time>
      </trkpt>
      <trkpt lat="46.76246" lon="6.36942">
        <ele>1109</ele>
        <time>2022-08-14T09:28:35Z</time>
      </trkpt>
      <trkpt lat="46.76257" lon="6.36947">
        <ele>1105</ele>
        <time>2022-08-14T09:28:40Z</time>
      </trkpt>
      <trkpt lat="46.76268" lon="6.36955">
        <ele>1105</ele>
        <time>2022-08-14T09:28:42Z</time>
      </trkpt>
      <trkpt lat="46.7628" lon="6.36959">
        <ele>1103</ele>
        <time>2022-08-14T09:28:45Z</time>
      </trkpt>
      <trkpt lat="46.76289" lon="6.36962">
        <ele>1100</ele>
        <time>2022-08-14T09:28:48Z</time>
      </trkpt>
      <trkpt lat="46.76316" lon="6.36979">
        <ele>1098</ele>
        <time>2022-08-14T09:28:52Z</time>
      </trkpt>
      <trkpt lat="46.76323" lon="6.3699">
        <ele>1097</ele>
        <time>2022-08-14T09:28:53Z</time>
      </trkpt>
      <trkpt lat="46.7633" lon="6.36999">
        <ele>1095</ele>
        <time>2022-08-14T09:28:56Z</time>
      </trkpt>
      <trkpt lat="46.76328" lon="6.37014">
        <ele>1096</ele>
        <time>2022-08-14T09:29:00Z</time>
      </trkpt>
      <trkpt lat="46.7632" lon="6.3703">
        <ele>1097</ele>
        <time>2022-08-14T09:29:04Z</time>
      </trkpt>
      <trkpt lat="46.76323" lon="6.37046">
        <ele>1094</ele>
        <time>2022-08-14T09:29:09Z</time>
      </trkpt>
      <trkpt lat="46.7633" lon="6.37056">
        <ele>1092</ele>
        <time>2022-08-14T09:29:13Z</time>
      </trkpt>
      <trkpt lat="46.76334" lon="6.37069">
        <ele>1091</ele>
        <time>2022-08-14T09:29:16Z</time>
      </trkpt>
      <trkpt lat="46.76336" lon="6.37084">
        <ele>1088</ele>
        <time>2022-08-14T09:29:21Z</time>
      </trkpt>
      <trkpt lat="46.76336" lon="6.37097">
        <ele>1084</ele>
        <time>2022-08-14T09:29:26Z</time>
      </trkpt>
      <trkpt lat="46.76345" lon="6.37105">
        <ele>1082</ele>
        <time>2022-08-14T09:29:28Z</time>
      </trkpt>
      <trkpt lat="46.76354" lon="6.37112">
        <ele>1080</ele>
        <time>2022-08-14T09:29:31Z</time>
      </trkpt>
      <trkpt lat="46.76367" lon="6.37113">
        <ele>1078</ele>
        <time>2022-08-14T09:29:34Z</time>
      </trkpt>
      <trkpt lat="46.76381" lon="6.37116">
        <ele>1075</ele>
        <time>2022-08-14T09:29:37Z</time>
      </trkpt>
      <trkpt lat="46.76395" lon="6.37116">
        <ele>1074</ele>
        <time>2022-08-14T09:29:39Z</time>
      </trkpt>
      <trkpt lat="46.76406" lon="6.37111">
        <ele>1074</ele>
        <time>2022-08-14T09:29:41Z</time>
      </trkpt>
      <trkpt lat="46.76416" lon="6.37112">
        <ele>1075</ele>
        <time>2022-08-14T09:29:43Z</time>
      </trkpt>
      <trkpt lat="46.76427" lon="6.37104">
        <ele>1074</ele>
        <time>2022-08-14T09:29:47Z</time>
      </trkpt>
      <trkpt lat="46.76436" lon="6.371">
        <ele>1073</ele>
        <time>2022-08-14T09:29:50Z</time>
      </trkpt>
      <trkpt lat="46.76446" lon="6.37103">
        <ele>1075</ele>
        <time>2022-08-14T09:29:54Z</time>
      </trkpt>
      <trkpt lat="46.76453" lon="6.37112">
        <ele>1073</ele>
        <time>2022-08-14T09:29:55Z</time>
      </trkpt>
      <trkpt lat="46.76461" lon="6.37128">
        <ele>1073</ele>
        <time>2022-08-14T09:29:58Z</time>
      </trkpt>
      <trkpt lat="46.7647" lon="6.37153">
        <ele>1069</ele>
        <time>2022-08-14T09:30:02Z</time>
      </trkpt>
      <trkpt lat="46.76475" lon="6.37179">
        <ele>1066</ele>
        <time>2022-08-14T09:30:06Z</time>
      </trkpt>
      <trkpt lat="46.76475" lon="6.37196">
        <ele>1065</ele>
        <time>2022-08-14T09:30:08Z</time>
      </trkpt>
      <trkpt lat="46.76466" lon="6.37203">
        <ele>1063</ele>
        <time>2022-08-14T09:30:11Z</time>
      </trkpt>
      <trkpt lat="46.76453" lon="6.37209">
        <ele>1062</ele>
        <time>2022-08-14T09:30:14Z</time>
      </trkpt>
      <trkpt lat="46.76443" lon="6.37211">
        <ele>1061</ele>
        <time>2022-08-14T09:30:16Z</time>
      </trkpt>
      <trkpt lat="46.76432" lon="6.37216">
        <ele>1061</ele>
        <time>2022-08-14T09:30:18Z</time>
      </trkpt>
      <trkpt lat="46.76417" lon="6.37219">
        <ele>1061</ele>
        <time>2022-08-14T09:30:20Z</time>
      </trkpt>
      <trkpt lat="46.76402" lon="6.37224">
        <ele>1060</ele>
        <time>2022-08-14T09:30:22Z</time>
      </trkpt>
      <trkpt lat="46.76388" lon="6.37227">
        <ele>1058</ele>
        <time>2022-08-14T09:30:24Z</time>
      </trkpt>
      <trkpt lat="46.76373" lon="6.37231">
        <ele>1059</ele>
        <time>2022-08-14T09:30:26Z</time>
      </trkpt>
      <trkpt lat="46.76362" lon="6.37241">
        <ele>1059</ele>
        <time>2022-08-14T09:30:28Z</time>
      </trkpt>
      <trkpt lat="46.76359" lon="6.37258">
        <ele>1060</ele>
        <time>2022-08-14T09:30:30Z</time>
      </trkpt>
      <trkpt lat="46.76356" lon="6.37274">
        <ele>1060</ele>
        <time>2022-08-14T09:30:32Z</time>
      </trkpt>
      <trkpt lat="46.76352" lon="6.37288">
        <ele>1061</ele>
        <time>2022-08-14T09:30:34Z</time>
      </trkpt>
      <trkpt lat="46.76345" lon="6.37302">
        <ele>1062</ele>
        <time>2022-08-14T09:30:37Z</time>
      </trkpt>
      <trkpt lat="46.76339" lon="6.37315">
        <ele>1062</ele>
        <time>2022-08-14T09:30:39Z</time>
      </trkpt>
      <trkpt lat="46.76336" lon="6.37328">
        <ele>1056</ele>
        <time>2022-08-14T09:30:41Z</time>
      </trkpt>
      <trkpt lat="46.76325" lon="6.37337">
        <ele>1056</ele>
        <time>2022-08-14T09:30:45Z</time>
      </trkpt>
      <trkpt lat="46.76314" lon="6.3734">
        <ele>1062</ele>
        <time>2022-08-14T09:30:47Z</time>
      </trkpt>
      <trkpt lat="46.76304" lon="6.37338">
        <ele>1061</ele>
        <time>2022-08-14T09:30:50Z</time>
      </trkpt>
      <trkpt lat="46.76293" lon="6.37329">
        <ele>1063</ele>
        <time>2022-08-14T09:30:54Z</time>
      </trkpt>
      <trkpt lat="46.76284" lon="6.37318">
        <ele>1063</ele>
        <time>2022-08-14T09:30:56Z</time>
      </trkpt>
      <trkpt lat="46.76274" lon="6.37302">
        <ele>1064</ele>
        <time>2022-08-14T09:31:00Z</time>
      </trkpt>
      <trkpt lat="46.7626" lon="6.37282">
        <ele>1064</ele>
        <time>2022-08-14T09:31:04Z</time>
      </trkpt>
      <trkpt lat="46.76253" lon="6.37268">
        <ele>1057</ele>
        <time>2022-08-14T09:31:08Z</time>
      </trkpt>
      <trkpt lat="46.76244" lon="6.37264">
        <ele>1059</ele>
        <time>2022-08-14T09:31:10Z</time>
      </trkpt>
      <trkpt lat="46.76231" lon="6.37262">
        <ele>1061</ele>
        <time>2022-08-14T09:31:12Z</time>
      </trkpt>
      <trkpt lat="46.76219" lon="6.37256">
        <ele>1061</ele>
        <time>2022-08-14T09:31:14Z</time>
      </trkpt>
      <trkpt lat="46.76209" lon="6.37257">
        <ele>1063</ele>
        <time>2022-08-14T09:31:16Z</time>
      </trkpt>
      <trkpt lat="46.76194" lon="6.37267">
        <ele>1064</ele>
        <time>2022-08-14T09:31:21Z</time>
      </trkpt>
      <trkpt lat="46.76184" lon="6.37266">
        <ele>1064</ele>
        <time>2022-08-14T09:31:25Z</time>
      </trkpt>
      <trkpt lat="46.76175" lon="6.37257">
        <ele>1064</ele>
        <time>2022-08-14T09:31:28Z</time>
      </trkpt>
      <trkpt lat="46.76164" lon="6.3725">
        <ele>1064</ele>
        <time>2022-08-14T09:31:31Z</time>
      </trkpt>
      <trkpt lat="46.76155" lon="6.37245">
        <ele>1064</ele>
        <time>2022-08-14T09:31:33Z</time>
      </trkpt>
      <trkpt lat="46.76147" lon="6.3724">
        <ele>1064</ele>
        <time>2022-08-14T09:31:35Z</time>
      </trkpt>
      <trkpt lat="46.76135" lon="6.37235">
        <ele>1065</ele>
        <time>2022-08-14T09:31:38Z</time>
      </trkpt>
      <trkpt lat="46.76126" lon="6.37231">
        <ele>1066</ele>
        <time>2022-08-14T09:31:41Z</time>
      </trkpt>
      <trkpt lat="46.76116" lon="6.37226">
        <ele>1066</ele>
        <time>2022-08-14T09:31:42Z</time>
      </trkpt>
      <trkpt lat="46.76106" lon="6.37221">
        <ele>1066</ele>
        <time>2022-08-14T09:31:46Z</time>
      </trkpt>
      <trkpt lat="46.76096" lon="6.37216">
        <ele>1066</ele>
        <time>2022-08-14T09:31:48Z</time>
      </trkpt>
      <trkpt lat="46.76081" lon="6.37214">
        <ele>1066</ele>
        <time>2022-08-14T09:31:52Z</time>
      </trkpt>
      <trkpt lat="46.76065" lon="6.3721">
        <ele>1067</ele>
        <time>2022-08-14T09:31:56Z</time>
      </trkpt>
      <trkpt lat="46.76056" lon="6.37208">
        <ele>1067</ele>
        <time>2022-08-14T09:32:00Z</time>
      </trkpt>
      <trkpt lat="46.76042" lon="6.37204">
        <ele>1066</ele>
        <time>2022-08-14T09:32:03Z</time>
      </trkpt>
      <trkpt lat="46.76032" lon="6.37205">
        <ele>1066</ele>
        <time>2022-08-14T09:32:05Z</time>
      </trkpt>
      <trkpt lat="46.76022" lon="6.37207">
        <ele>1065</ele>
        <time>2022-08-14T09:32:07Z</time>
      </trkpt>
      <trkpt lat="46.76011" lon="6.37208">
        <ele>1065</ele>
        <time>2022-08-14T09:32:09Z</time>
      </trkpt>
      <trkpt lat="46.75999" lon="6.37212">
        <ele>1064</ele>
        <time>2022-08-14T09:32:11Z</time>
      </trkpt>
      <trkpt lat="46.75987" lon="6.37217">
        <ele>1064</ele>
        <time>2022-08-14T09:32:13Z</time>
      </trkpt>
      <trkpt lat="46.75976" lon="6.37221">
        <ele>1064</ele>
        <time>2022-08-14T09:32:15Z</time>
      </trkpt>
      <trkpt lat="46.75965" lon="6.37225">
        <ele>1064</ele>
        <time>2022-08-14T09:32:17Z</time>
      </trkpt>
      <trkpt lat="46.75955" lon="6.3723">
        <ele>1064</ele>
        <time>2022-08-14T09:32:19Z</time>
      </trkpt>
      <trkpt lat="46.75946" lon="6.37235">
        <ele>1064</ele>
        <time>2022-08-14T09:32:21Z</time>
      </trkpt>
      <trkpt lat="46.75933" lon="6.37241">
        <ele>1064</ele>
        <time>2022-08-14T09:32:24Z</time>
      </trkpt>
      <trkpt lat="46.75922" lon="6.37243">
        <ele>1063</ele>
        <time>2022-08-14T09:32:26Z</time>
      </trkpt>
      <trkpt lat="46.75913" lon="6.37245">
        <ele>1057</ele>
        <time>2022-08-14T09:32:28Z</time>
      </trkpt>
      <trkpt lat="46.75903" lon="6.37247">
        <ele>1058</ele>
        <time>2022-08-14T09:32:30Z</time>
      </trkpt>
      <trkpt lat="46.7589" lon="6.3725">
        <ele>1059</ele>
        <time>2022-08-14T09:32:32Z</time>
      </trkpt>
      <trkpt lat="46.75877" lon="6.37254">
        <ele>1060</ele>
        <time>2022-08-14T09:32:34Z</time>
      </trkpt>
      <trkpt lat="46.75863" lon="6.37258">
        <ele>1060</ele>
        <time>2022-08-14T09:32:36Z</time>
      </trkpt>
      <trkpt lat="46.75842" lon="6.37264">
        <ele>1060</ele>
        <time>2022-08-14T09:32:39Z</time>
      </trkpt>
      <trkpt lat="46.7583" lon="6.37267">
        <ele>1059</ele>
        <time>2022-08-14T09:32:41Z</time>
      </trkpt>
      <trkpt lat="46.75814" lon="6.37273">
        <ele>1060</ele>
        <time>2022-08-14T09:32:45Z</time>
      </trkpt>
      <trkpt lat="46.75805" lon="6.37278">
        <ele>1060</ele>
        <time>2022-08-14T09:32:47Z</time>
      </trkpt>
      <trkpt lat="46.75796" lon="6.37282">
        <ele>1060</ele>
        <time>2022-08-14T09:32:49Z</time>
      </trkpt>
      <trkpt lat="46.75783" lon="6.37287">
        <ele>1056</ele>
        <time>2022-08-14T09:32:51Z</time>
      </trkpt>
      <trkpt lat="46.75774" lon="6.37291">
        <ele>1056</ele>
        <time>2022-08-14T09:32:53Z</time>
      </trkpt>
      <trkpt lat="46.75764" lon="6.37294">
        <ele>1059</ele>
        <time>2022-08-14T09:32:55Z</time>
      </trkpt>
      <trkpt lat="46.75755" lon="6.37297">
        <ele>1056</ele>
        <time>2022-08-14T09:32:57Z</time>
      </trkpt>
      <trkpt lat="46.75742" lon="6.37302">
        <ele>1056</ele>
        <time>2022-08-14T09:32:59Z</time>
      </trkpt>
      <trkpt lat="46.7573" lon="6.37306">
        <ele>1062</ele>
        <time>2022-08-14T09:33:01Z</time>
      </trkpt>
      <trkpt lat="46.7572" lon="6.37308">
        <ele>1061</ele>
        <time>2022-08-14T09:33:03Z</time>
      </trkpt>
      <trkpt lat="46.7571" lon="6.37311">
        <ele>1062</ele>
        <time>2022-08-14T09:33:05Z</time>
      </trkpt>
      <trkpt lat="46.75699" lon="6.37314">
        <ele>1061</ele>
        <time>2022-08-14T09:33:07Z</time>
      </trkpt>
      <trkpt lat="46.75688" lon="6.37317">
        <ele>1062</ele>
        <time>2022-08-14T09:33:09Z</time>
      </trkpt>
      <trkpt lat="46.75678" lon="6.37319">
        <ele>1060</ele>
        <time>2022-08-14T09:33:11Z</time>
      </trkpt>
      <trkpt lat="46.75665" lon="6.37322">
        <ele>1060</ele>
        <time>2022-08-14T09:33:13Z</time>
      </trkpt>
      <trkpt lat="46.75653" lon="6.37324">
        <ele>1059</ele>
        <time>2022-08-14T09:33:15Z</time>
      </trkpt>
      <trkpt lat="46.75639" lon="6.37323">
        <ele>1059</ele>
        <time>2022-08-14T09:33:17Z</time>
      </trkpt>
      <trkpt lat="46.75626" lon="6.37324">
        <ele>1057</ele>
        <time>2022-08-14T09:33:19Z</time>
      </trkpt>
      <trkpt lat="46.75611" lon="6.37327">
        <ele>1056</ele>
        <time>2022-08-14T09:33:21Z</time>
      </trkpt>
      <trkpt lat="46.75597" lon="6.37335">
        <ele>1056</ele>
        <time>2022-08-14T09:33:23Z</time>
      </trkpt>
      <trkpt lat="46.75584" lon="6.37343">
        <ele>1055</ele>
        <time>2022-08-14T09:33:25Z</time>
      </trkpt>
      <trkpt lat="46.75574" lon="6.37349">
        <ele>1054</ele>
        <time>2022-08-14T09:33:27Z</time>
      </trkpt>
      <trkpt lat="46.7556" lon="6.37353">
        <ele>1053</ele>
        <time>2022-08-14T09:33:29Z</time>
      </trkpt>
      <trkpt lat="46.7555" lon="6.37354">
        <ele>1047</ele>
        <time>2022-08-14T09:33:31Z</time>
      </trkpt>
      <trkpt lat="46.75541" lon="6.37355">
        <ele>1046</ele>
        <time>2022-08-14T09:33:33Z</time>
      </trkpt>
      <trkpt lat="46.75531" lon="6.37359">
        <ele>1054</ele>
        <time>2022-08-14T09:33:36Z</time>
      </trkpt>
      <trkpt lat="46.75521" lon="6.37361">
        <ele>1051</ele>
        <time>2022-08-14T09:33:40Z</time>
      </trkpt>
      <trkpt lat="46.75512" lon="6.37363">
        <ele>1055</ele>
        <time>2022-08-14T09:33:43Z</time>
      </trkpt>
      <trkpt lat="46.75501" lon="6.37365">
        <ele>1054</ele>
        <time>2022-08-14T09:33:46Z</time>
      </trkpt>
      <trkpt lat="46.75481" lon="6.37364">
        <ele>1054</ele>
        <time>2022-08-14T09:33:49Z</time>
      </trkpt>
      <trkpt lat="46.75463" lon="6.37359">
        <ele>1052</ele>
        <time>2022-08-14T09:33:53Z</time>
      </trkpt>
      <trkpt lat="46.75447" lon="6.37362">
        <ele>1054</ele>
        <time>2022-08-14T09:33:57Z</time>
      </trkpt>
      <trkpt lat="46.75435" lon="6.37363">
        <ele>1053</ele>
        <time>2022-08-14T09:33:59Z</time>
      </trkpt>
      <trkpt lat="46.75423" lon="6.37365">
        <ele>1053</ele>
        <time>2022-08-14T09:34:01Z</time>
      </trkpt>
      <trkpt lat="46.75414" lon="6.37369">
        <ele>1052</ele>
        <time>2022-08-14T09:34:03Z</time>
      </trkpt>
      <trkpt lat="46.75397" lon="6.37378">
        <ele>1053</ele>
        <time>2022-08-14T09:34:09Z</time>
      </trkpt>
      <trkpt lat="46.75388" lon="6.37379">
        <ele>1054</ele>
        <time>2022-08-14T09:34:13Z</time>
      </trkpt>
      <trkpt lat="46.75357" lon="6.37387">
        <ele>1060</ele>
        <time>2022-08-14T09:34:27Z</time>
      </trkpt>
      <trkpt lat="46.75347" lon="6.37388">
        <ele>1057</ele>
        <time>2022-08-14T09:34:31Z</time>
      </trkpt>
      <trkpt lat="46.75337" lon="6.37391">
        <ele>1062</ele>
        <time>2022-08-14T09:34:37Z</time>
      </trkpt>
      <trkpt lat="46.75323" lon="6.37394">
        <ele>1063</ele>
        <time>2022-08-14T09:34:45Z</time>
      </trkpt>
      <trkpt lat="46.75312" lon="6.37398">
        <ele>1062</ele>
        <time>2022-08-14T09:34:50Z</time>
      </trkpt>
      <trkpt lat="46.75302" lon="6.374">
        <ele>1065</ele>
        <time>2022-08-14T09:34:56Z</time>
      </trkpt>
      <trkpt lat="46.75293" lon="6.37402">
        <ele>1064</ele>
        <time>2022-08-14T09:35:01Z</time>
      </trkpt>
      <trkpt lat="46.75283" lon="6.37403">
        <ele>1067</ele>
        <time>2022-08-14T09:35:05Z</time>
      </trkpt>
      <trkpt lat="46.75272" lon="6.37403">
        <ele>1066</ele>
        <time>2022-08-14T09:35:09Z</time>
      </trkpt>
      <trkpt lat="46.75263" lon="6.37401">
        <ele>1064</ele>
        <time>2022-08-14T09:35:13Z</time>
      </trkpt>
      <trkpt lat="46.75248" lon="6.37404">
        <ele>1061</ele>
        <time>2022-08-14T09:35:18Z</time>
      </trkpt>
      <trkpt lat="46.75222" lon="6.37421">
        <ele>1050</ele>
        <time>2022-08-14T09:35:25Z</time>
      </trkpt>
      <trkpt lat="46.75209" lon="6.37428">
        <ele>1050</ele>
        <time>2022-08-14T09:35:27Z</time>
      </trkpt>
      <trkpt lat="46.752" lon="6.37435">
        <ele>1048</ele>
        <time>2022-08-14T09:35:29Z</time>
      </trkpt>
      <trkpt lat="46.75187" lon="6.37446">
        <ele>1055</ele>
        <time>2022-08-14T09:35:31Z</time>
      </trkpt>
      <trkpt lat="46.75175" lon="6.37454">
        <ele>1054</ele>
        <time>2022-08-14T09:35:33Z</time>
      </trkpt>
      <trkpt lat="46.75165" lon="6.37459">
        <ele>1055</ele>
        <time>2022-08-14T09:35:35Z</time>
      </trkpt>
      <trkpt lat="46.75156" lon="6.37465">
        <ele>1054</ele>
        <time>2022-08-14T09:35:38Z</time>
      </trkpt>
      <trkpt lat="46.75148" lon="6.37473">
        <ele>1054</ele>
        <time>2022-08-14T09:35:41Z</time>
      </trkpt>
      <trkpt lat="46.75147" lon="6.37489">
        <ele>1052</ele>
        <time>2022-08-14T09:35:45Z</time>
      </trkpt>
      <trkpt lat="46.75152" lon="6.37501">
        <ele>1053</ele>
        <time>2022-08-14T09:35:48Z</time>
      </trkpt>
      <trkpt lat="46.75161" lon="6.37508">
        <ele>1057</ele>
        <time>2022-08-14T09:35:52Z</time>
      </trkpt>
      <trkpt lat="46.7517" lon="6.37514">
        <ele>1054</ele>
        <time>2022-08-14T09:35:55Z</time>
      </trkpt>
      <trkpt lat="46.75179" lon="6.3752">
        <ele>1055</ele>
        <time>2022-08-14T09:35:59Z</time>
      </trkpt>
      <trkpt lat="46.75191" lon="6.37526">
        <ele>1052</ele>
        <time>2022-08-14T09:36:02Z</time>
      </trkpt>
      <trkpt lat="46.75203" lon="6.37535">
        <ele>1055</ele>
        <time>2022-08-14T09:36:07Z</time>
      </trkpt>
      <trkpt lat="46.75211" lon="6.37541">
        <ele>1056</ele>
        <time>2022-08-14T09:36:10Z</time>
      </trkpt>
      <trkpt lat="46.75218" lon="6.37551">
        <ele>1047</ele>
        <time>2022-08-14T09:36:13Z</time>
      </trkpt>
      <trkpt lat="46.75226" lon="6.37564">
        <ele>1044</ele>
        <time>2022-08-14T09:36:16Z</time>
      </trkpt>
      <trkpt lat="46.75238" lon="6.37592">
        <ele>1048</ele>
        <time>2022-08-14T09:36:19Z</time>
      </trkpt>
      <trkpt lat="46.75251" lon="6.37618">
        <ele>1048</ele>
        <time>2022-08-14T09:36:23Z</time>
      </trkpt>
      <trkpt lat="46.75329" lon="6.37728">
        <ele>1046</ele>
        <time>2022-08-14T09:36:47Z</time>
      </trkpt>
      <trkpt lat="46.75338" lon="6.37739">
        <ele>1044</ele>
        <time>2022-08-14T09:36:49Z</time>
      </trkpt>
      <trkpt lat="46.75345" lon="6.37751">
        <ele>1043</ele>
        <time>2022-08-14T09:36:51Z</time>
      </trkpt>
      <trkpt lat="46.75353" lon="6.37764">
        <ele>1041</ele>
        <time>2022-08-14T09:36:53Z</time>
      </trkpt>
      <trkpt lat="46.75362" lon="6.37779">
        <ele>1041</ele>
        <time>2022-08-14T09:36:55Z</time>
      </trkpt>
      <trkpt lat="46.75373" lon="6.37786">
        <ele>1042</ele>
        <time>2022-08-14T09:36:57Z</time>
      </trkpt>
      <trkpt lat="46.75384" lon="6.37796">
        <ele>1040</ele>
        <time>2022-08-14T09:36:59Z</time>
      </trkpt>
      <trkpt lat="46.75392" lon="6.37802">
        <ele>1039</ele>
        <time>2022-08-14T09:37:01Z</time>
      </trkpt>
      <trkpt lat="46.75401" lon="6.37807">
        <ele>1038</ele>
        <time>2022-08-14T09:37:03Z</time>
      </trkpt>
      <trkpt lat="46.7541" lon="6.37813">
        <ele>1037</ele>
        <time>2022-08-14T09:37:05Z</time>
      </trkpt>
      <trkpt lat="46.75419" lon="6.37816">
        <ele>1037</ele>
        <time>2022-08-14T09:37:07Z</time>
      </trkpt>
      <trkpt lat="46.75429" lon="6.37827">
        <ele>1037</ele>
        <time>2022-08-14T09:37:09Z</time>
      </trkpt>
      <trkpt lat="46.7544" lon="6.3784">
        <ele>1034</ele>
        <time>2022-08-14T09:37:11Z</time>
      </trkpt>
      <trkpt lat="46.75449" lon="6.37852">
        <ele>1031</ele>
        <time>2022-08-14T09:37:13Z</time>
      </trkpt>
      <trkpt lat="46.75458" lon="6.37866">
        <ele>1030</ele>
        <time>2022-08-14T09:37:15Z</time>
      </trkpt>
      <trkpt lat="46.75467" lon="6.37882">
        <ele>1034</ele>
        <time>2022-08-14T09:37:17Z</time>
      </trkpt>
      <trkpt lat="46.75476" lon="6.37898">
        <ele>1034</ele>
        <time>2022-08-14T09:37:19Z</time>
      </trkpt>
      <trkpt lat="46.75484" lon="6.37907">
        <ele>1035</ele>
        <time>2022-08-14T09:37:22Z</time>
      </trkpt>
      <trkpt lat="46.75492" lon="6.37915">
        <ele>1037</ele>
        <time>2022-08-14T09:37:27Z</time>
      </trkpt>
      <trkpt lat="46.75501" lon="6.3792">
        <ele>1038</ele>
        <time>2022-08-14T09:37:30Z</time>
      </trkpt>
      <trkpt lat="46.7551" lon="6.37926">
        <ele>1040</ele>
        <time>2022-08-14T09:37:35Z</time>
      </trkpt>
      <trkpt lat="46.75518" lon="6.37934">
        <ele>1040</ele>
        <time>2022-08-14T09:37:40Z</time>
      </trkpt>
      <trkpt lat="46.7553" lon="6.37942">
        <ele>1041</ele>
        <time>2022-08-14T09:37:47Z</time>
      </trkpt>
      <trkpt lat="46.75538" lon="6.37949">
        <ele>1042</ele>
        <time>2022-08-14T09:37:52Z</time>
      </trkpt>
      <trkpt lat="46.75547" lon="6.37954">
        <ele>1043</ele>
        <time>2022-08-14T09:37:59Z</time>
      </trkpt>
      <trkpt lat="46.75555" lon="6.37962">
        <ele>1045</ele>
        <time>2022-08-14T09:38:05Z</time>
      </trkpt>
      <trkpt lat="46.75563" lon="6.3797">
        <ele>1045</ele>
        <time>2022-08-14T09:38:10Z</time>
      </trkpt>
      <trkpt lat="46.75568" lon="6.37982">
        <ele>1047</ele>
        <time>2022-08-14T09:38:17Z</time>
      </trkpt>
      <trkpt lat="46.75574" lon="6.37993">
        <ele>1046</ele>
        <time>2022-08-14T09:38:20Z</time>
      </trkpt>
      <trkpt lat="46.75592" lon="6.38002">
        <ele>1046</ele>
        <time>2022-08-14T09:38:26Z</time>
      </trkpt>
      <trkpt lat="46.75611" lon="6.38011">
        <ele>1048</ele>
        <time>2022-08-14T09:38:34Z</time>
      </trkpt>
      <trkpt lat="46.75629" lon="6.38019">
        <ele>1048</ele>
        <time>2022-08-14T09:38:40Z</time>
      </trkpt>
      <trkpt lat="46.75644" lon="6.38035">
        <ele>1047</ele>
        <time>2022-08-14T09:38:47Z</time>
      </trkpt>
      <trkpt lat="46.75659" lon="6.38052">
        <ele>1047</ele>
        <time>2022-08-14T09:38:52Z</time>
      </trkpt>
      <trkpt lat="46.75677" lon="6.38065">
        <ele>1045</ele>
        <time>2022-08-14T09:38:58Z</time>
      </trkpt>
      <trkpt lat="46.75699" lon="6.3808">
        <ele>1046</ele>
        <time>2022-08-14T09:39:03Z</time>
      </trkpt>
      <trkpt lat="46.75718" lon="6.38089">
        <ele>1046</ele>
        <time>2022-08-14T09:39:05Z</time>
      </trkpt>
      <trkpt lat="46.75738" lon="6.38097">
        <ele>1045</ele>
        <time>2022-08-14T09:39:08Z</time>
      </trkpt>
      <trkpt lat="46.7576" lon="6.3811">
        <ele>1046</ele>
        <time>2022-08-14T09:39:12Z</time>
      </trkpt>
      <trkpt lat="46.7577" lon="6.38116">
        <ele>1046</ele>
        <time>2022-08-14T09:39:14Z</time>
      </trkpt>
      <trkpt lat="46.7578" lon="6.38123">
        <ele>1046</ele>
        <time>2022-08-14T09:39:16Z</time>
      </trkpt>
      <trkpt lat="46.7579" lon="6.3813">
        <ele>1045</ele>
        <time>2022-08-14T09:39:18Z</time>
      </trkpt>
      <trkpt lat="46.75801" lon="6.3814">
        <ele>1045</ele>
        <time>2022-08-14T09:39:20Z</time>
      </trkpt>
      <trkpt lat="46.75811" lon="6.38147">
        <ele>1045</ele>
        <time>2022-08-14T09:39:22Z</time>
      </trkpt>
      <trkpt lat="46.75821" lon="6.38156">
        <ele>1045</ele>
        <time>2022-08-14T09:39:24Z</time>
      </trkpt>
      <trkpt lat="46.7583" lon="6.38164">
        <ele>1045</ele>
        <time>2022-08-14T09:39:26Z</time>
      </trkpt>
      <trkpt lat="46.7584" lon="6.38172">
        <ele>1044</ele>
        <time>2022-08-14T09:39:28Z</time>
      </trkpt>
      <trkpt lat="46.7585" lon="6.38181">
        <ele>1044</ele>
        <time>2022-08-14T09:39:30Z</time>
      </trkpt>
      <trkpt lat="46.75861" lon="6.3819">
        <ele>1044</ele>
        <time>2022-08-14T09:39:32Z</time>
      </trkpt>
      <trkpt lat="46.75872" lon="6.38198">
        <ele>1044</ele>
        <time>2022-08-14T09:39:34Z</time>
      </trkpt>
      <trkpt lat="46.75883" lon="6.38206">
        <ele>1044</ele>
        <time>2022-08-14T09:39:36Z</time>
      </trkpt>
      <trkpt lat="46.75894" lon="6.38213">
        <ele>1044</ele>
        <time>2022-08-14T09:39:38Z</time>
      </trkpt>
      <trkpt lat="46.75904" lon="6.3822">
        <ele>1044</ele>
        <time>2022-08-14T09:39:40Z</time>
      </trkpt>
      <trkpt lat="46.75914" lon="6.38227">
        <ele>1044</ele>
        <time>2022-08-14T09:39:42Z</time>
      </trkpt>
      <trkpt lat="46.75924" lon="6.38233">
        <ele>1044</ele>
        <time>2022-08-14T09:39:44Z</time>
      </trkpt>
      <trkpt lat="46.75933" lon="6.3824">
        <ele>1045</ele>
        <time>2022-08-14T09:39:46Z</time>
      </trkpt>
      <trkpt lat="46.75942" lon="6.38246">
        <ele>1045</ele>
        <time>2022-08-14T09:39:48Z</time>
      </trkpt>
      <trkpt lat="46.7595" lon="6.38253">
        <ele>1045</ele>
        <time>2022-08-14T09:39:50Z</time>
      </trkpt>
      <trkpt lat="46.7596" lon="6.38261">
        <ele>1046</ele>
        <time>2022-08-14T09:39:53Z</time>
      </trkpt>
      <trkpt lat="46.75971" lon="6.3827">
        <ele>1046</ele>
        <time>2022-08-14T09:39:56Z</time>
      </trkpt>
      <trkpt lat="46.75984" lon="6.38279">
        <ele>1045</ele>
        <time>2022-08-14T09:39:59Z</time>
      </trkpt>
      <trkpt lat="46.75993" lon="6.38286">
        <ele>1045</ele>
        <time>2022-08-14T09:40:01Z</time>
      </trkpt>
      <trkpt lat="46.76002" lon="6.38293">
        <ele>1045</ele>
        <time>2022-08-14T09:40:03Z</time>
      </trkpt>
      <trkpt lat="46.76011" lon="6.38301">
        <ele>1045</ele>
        <time>2022-08-14T09:40:05Z</time>
      </trkpt>
      <trkpt lat="46.7602" lon="6.38309">
        <ele>1046</ele>
        <time>2022-08-14T09:40:07Z</time>
      </trkpt>
      <trkpt lat="46.76028" lon="6.38316">
        <ele>1046</ele>
        <time>2022-08-14T09:40:09Z</time>
      </trkpt>
      <trkpt lat="46.76039" lon="6.38323">
        <ele>1047</ele>
        <time>2022-08-14T09:40:12Z</time>
      </trkpt>
      <trkpt lat="46.7605" lon="6.38328">
        <ele>1044</ele>
        <time>2022-08-14T09:40:15Z</time>
      </trkpt>
      <trkpt lat="46.76068" lon="6.38338">
        <ele>1045</ele>
        <time>2022-08-14T09:40:21Z</time>
      </trkpt>
      <trkpt lat="46.76083" lon="6.38348">
        <ele>1045</ele>
        <time>2022-08-14T09:40:23Z</time>
      </trkpt>
      <trkpt lat="46.76093" lon="6.38355">
        <ele>1044</ele>
        <time>2022-08-14T09:40:25Z</time>
      </trkpt>
      <trkpt lat="46.76105" lon="6.38364">
        <ele>1048</ele>
        <time>2022-08-14T09:40:33Z</time>
      </trkpt>
      <trkpt lat="46.76114" lon="6.38369">
        <ele>1047</ele>
        <time>2022-08-14T09:40:35Z</time>
      </trkpt>
      <trkpt lat="46.76131" lon="6.38376">
        <ele>1047</ele>
        <time>2022-08-14T09:40:38Z</time>
      </trkpt>
      <trkpt lat="46.76149" lon="6.38381">
        <ele>1047</ele>
        <time>2022-08-14T09:40:42Z</time>
      </trkpt>
      <trkpt lat="46.76168" lon="6.38387">
        <ele>1047</ele>
        <time>2022-08-14T09:40:46Z</time>
      </trkpt>
      <trkpt lat="46.76222" lon="6.38396">
        <ele>1048</ele>
        <time>2022-08-14T09:40:59Z</time>
      </trkpt>
      <trkpt lat="46.76232" lon="6.38396">
        <ele>1049</ele>
        <time>2022-08-14T09:41:03Z</time>
      </trkpt>
      <trkpt lat="46.7624" lon="6.38401">
        <ele>1049</ele>
        <time>2022-08-14T09:41:07Z</time>
      </trkpt>
      <trkpt lat="46.76245" lon="6.38415">
        <ele>1048</ele>
        <time>2022-08-14T09:41:10Z</time>
      </trkpt>
      <trkpt lat="46.76248" lon="6.38429">
        <ele>1047</ele>
        <time>2022-08-14T09:41:12Z</time>
      </trkpt>
      <trkpt lat="46.76247" lon="6.38447">
        <ele>1045</ele>
        <time>2022-08-14T09:41:14Z</time>
      </trkpt>
      <trkpt lat="46.76242" lon="6.38478">
        <ele>1045</ele>
        <time>2022-08-14T09:41:17Z</time>
      </trkpt>
      <trkpt lat="46.76237" lon="6.3851">
        <ele>1041</ele>
        <time>2022-08-14T09:41:20Z</time>
      </trkpt>
      <trkpt lat="46.76238" lon="6.3854">
        <ele>1038</ele>
        <time>2022-08-14T09:41:23Z</time>
      </trkpt>
      <trkpt lat="46.76249" lon="6.38566">
        <ele>1035</ele>
        <time>2022-08-14T09:41:26Z</time>
      </trkpt>
      <trkpt lat="46.76261" lon="6.38588">
        <ele>1032</ele>
        <time>2022-08-14T09:41:29Z</time>
      </trkpt>
      <trkpt lat="46.76275" lon="6.38608">
        <ele>1028</ele>
        <time>2022-08-14T09:41:32Z</time>
      </trkpt>
      <trkpt lat="46.76291" lon="6.38624">
        <ele>1025</ele>
        <time>2022-08-14T09:41:35Z</time>
      </trkpt>
      <trkpt lat="46.76313" lon="6.38635">
        <ele>1022</ele>
        <time>2022-08-14T09:41:39Z</time>
      </trkpt>
      <trkpt lat="46.76325" lon="6.38661">
        <ele>1020</ele>
        <time>2022-08-14T09:41:43Z</time>
      </trkpt>
      <trkpt lat="46.76324" lon="6.38681">
        <ele>1018</ele>
        <time>2022-08-14T09:41:45Z</time>
      </trkpt>
      <trkpt lat="46.76323" lon="6.387">
        <ele>1016</ele>
        <time>2022-08-14T09:41:47Z</time>
      </trkpt>
      <trkpt lat="46.76323" lon="6.38718">
        <ele>1014</ele>
        <time>2022-08-14T09:41:49Z</time>
      </trkpt>
      <trkpt lat="46.7633" lon="6.38732">
        <ele>1013</ele>
        <time>2022-08-14T09:41:51Z</time>
      </trkpt>
      <trkpt lat="46.76342" lon="6.38738">
        <ele>1011</ele>
        <time>2022-08-14T09:41:53Z</time>
      </trkpt>
      <trkpt lat="46.76355" lon="6.38739">
        <ele>1010</ele>
        <time>2022-08-14T09:41:55Z</time>
      </trkpt>
      <trkpt lat="46.76368" lon="6.38741">
        <ele>1009</ele>
        <time>2022-08-14T09:41:57Z</time>
      </trkpt>
      <trkpt lat="46.76381" lon="6.38743">
        <ele>1007</ele>
        <time>2022-08-14T09:41:59Z</time>
      </trkpt>
      <trkpt lat="46.76394" lon="6.38745">
        <ele>1006</ele>
        <time>2022-08-14T09:42:01Z</time>
      </trkpt>
      <trkpt lat="46.76405" lon="6.3875">
        <ele>1004</ele>
        <time>2022-08-14T09:42:03Z</time>
      </trkpt>
      <trkpt lat="46.76413" lon="6.38761">
        <ele>1003</ele>
        <time>2022-08-14T09:42:05Z</time>
      </trkpt>
      <trkpt lat="46.76414" lon="6.38776">
        <ele>1001</ele>
        <time>2022-08-14T09:42:07Z</time>
      </trkpt>
      <trkpt lat="46.76411" lon="6.38791">
        <ele>1000</ele>
        <time>2022-08-14T09:42:09Z</time>
      </trkpt>
      <trkpt lat="46.76404" lon="6.38805">
        <ele>999</ele>
        <time>2022-08-14T09:42:11Z</time>
      </trkpt>
      <trkpt lat="46.76399" lon="6.38821">
        <ele>998</ele>
        <time>2022-08-14T09:42:13Z</time>
      </trkpt>
      <trkpt lat="46.76398" lon="6.38837">
        <ele>997</ele>
        <time>2022-08-14T09:42:15Z</time>
      </trkpt>
      <trkpt lat="46.76393" lon="6.38849">
        <ele>997</ele>
        <time>2022-08-14T09:42:17Z</time>
      </trkpt>
      <trkpt lat="46.76386" lon="6.38859">
        <ele>997</ele>
        <time>2022-08-14T09:42:19Z</time>
      </trkpt>
      <trkpt lat="46.76375" lon="6.38867">
        <ele>997</ele>
        <time>2022-08-14T09:42:22Z</time>
      </trkpt>
      <trkpt lat="46.76366" lon="6.38873">
        <ele>995</ele>
        <time>2022-08-14T09:45:37Z</time>
      </trkpt>
      <trkpt lat="46.76362" lon="6.38888">
        <ele>995</ele>
        <time>2022-08-14T09:45:41Z</time>
      </trkpt>
      <trkpt lat="46.76381" lon="6.38891">
        <ele>996</ele>
        <time>2022-08-14T09:45:48Z</time>
      </trkpt>
      <trkpt lat="46.76399" lon="6.38881">
        <ele>999</ele>
        <time>2022-08-14T09:45:54Z</time>
      </trkpt>
      <trkpt lat="46.76417" lon="6.38874">
        <ele>999</ele>
        <time>2022-08-14T09:46:00Z</time>
      </trkpt>
      <trkpt lat="46.76427" lon="6.3887">
        <ele>999</ele>
        <time>2022-08-14T09:46:03Z</time>
      </trkpt>
      <trkpt lat="46.76436" lon="6.38866">
        <ele>1000</ele>
        <time>2022-08-14T09:46:06Z</time>
      </trkpt>
      <trkpt lat="46.76445" lon="6.38861">
        <ele>1001</ele>
        <time>2022-08-14T09:46:10Z</time>
      </trkpt>
      <trkpt lat="46.76457" lon="6.3885">
        <ele>1002</ele>
        <time>2022-08-14T09:46:15Z</time>
      </trkpt>
      <trkpt lat="46.76466" lon="6.38842">
        <ele>1003</ele>
        <time>2022-08-14T09:46:19Z</time>
      </trkpt>
      <trkpt lat="46.76475" lon="6.38835">
        <ele>1004</ele>
        <time>2022-08-14T09:46:23Z</time>
      </trkpt>
      <trkpt lat="46.76485" lon="6.38826">
        <ele>1004</ele>
        <time>2022-08-14T09:46:27Z</time>
      </trkpt>
      <trkpt lat="46.76495" lon="6.38819">
        <ele>1005</ele>
        <time>2022-08-14T09:46:31Z</time>
      </trkpt>
      <trkpt lat="46.76504" lon="6.38809">
        <ele>1006</ele>
        <time>2022-08-14T09:46:35Z</time>
      </trkpt>
      <trkpt lat="46.76512" lon="6.38797">
        <ele>1006</ele>
        <time>2022-08-14T09:46:39Z</time>
      </trkpt>
      <trkpt lat="46.76522" lon="6.388">
        <ele>1008</ele>
        <time>2022-08-14T09:46:44Z</time>
      </trkpt>
      <trkpt lat="46.76528" lon="6.38812">
        <ele>1009</ele>
        <time>2022-08-14T09:46:50Z</time>
      </trkpt>
      <trkpt lat="46.76536" lon="6.38821">
        <ele>1010</ele>
        <time>2022-08-14T09:46:56Z</time>
      </trkpt>
      <trkpt lat="46.76545" lon="6.3883">
        <ele>1011</ele>
        <time>2022-08-14T09:47:02Z</time>
      </trkpt>
      <trkpt lat="46.76553" lon="6.38836">
        <ele>1012</ele>
        <time>2022-08-14T09:47:08Z</time>
      </trkpt>
      <trkpt lat="46.76561" lon="6.38845">
        <ele>1013</ele>
        <time>2022-08-14T09:47:14Z</time>
      </trkpt>
      <trkpt lat="46.76568" lon="6.38854">
        <ele>1014</ele>
        <time>2022-08-14T09:47:20Z</time>
      </trkpt>
      <trkpt lat="46.76576" lon="6.38861">
        <ele>1015</ele>
        <time>2022-08-14T09:47:26Z</time>
      </trkpt>
      <trkpt lat="46.76584" lon="6.3887">
        <ele>1016</ele>
        <time>2022-08-14T09:47:33Z</time>
      </trkpt>
      <trkpt lat="46.76592" lon="6.38878">
        <ele>1017</ele>
        <time>2022-08-14T09:47:40Z</time>
      </trkpt>
      <trkpt lat="46.766" lon="6.38885">
        <ele>1019</ele>
        <time>2022-08-14T09:47:47Z</time>
      </trkpt>
      <trkpt lat="46.76607" lon="6.38895">
        <ele>1021</ele>
        <time>2022-08-14T09:47:54Z</time>
      </trkpt>
      <trkpt lat="46.76615" lon="6.38904">
        <ele>1022</ele>
        <time>2022-08-14T09:48:01Z</time>
      </trkpt>
      <trkpt lat="46.76622" lon="6.38914">
        <ele>1023</ele>
        <time>2022-08-14T09:48:08Z</time>
      </trkpt>
      <trkpt lat="46.76628" lon="6.38925">
        <ele>1025</ele>
        <time>2022-08-14T09:48:16Z</time>
      </trkpt>
      <trkpt lat="46.76636" lon="6.38933">
        <ele>1027</ele>
        <time>2022-08-14T09:48:23Z</time>
      </trkpt>
      <trkpt lat="46.76644" lon="6.3894">
        <ele>1029</ele>
        <time>2022-08-14T09:48:30Z</time>
      </trkpt>
      <trkpt lat="46.76652" lon="6.38945">
        <ele>1030</ele>
        <time>2022-08-14T09:48:37Z</time>
      </trkpt>
      <trkpt lat="46.76661" lon="6.38952">
        <ele>1032</ele>
        <time>2022-08-14T09:48:45Z</time>
      </trkpt>
      <trkpt lat="46.7667" lon="6.38956">
        <ele>1033</ele>
        <time>2022-08-14T09:48:52Z</time>
      </trkpt>
      <trkpt lat="46.76679" lon="6.38958">
        <ele>1034</ele>
        <time>2022-08-14T09:48:59Z</time>
      </trkpt>
      <trkpt lat="46.76688" lon="6.38964">
        <ele>1036</ele>
        <time>2022-08-14T09:49:07Z</time>
      </trkpt>
      <trkpt lat="46.76697" lon="6.38966">
        <ele>1037</ele>
        <time>2022-08-14T09:49:14Z</time>
      </trkpt>
      <trkpt lat="46.76706" lon="6.3897">
        <ele>1038</ele>
        <time>2022-08-14T09:49:21Z</time>
      </trkpt>
      <trkpt lat="46.76715" lon="6.38974">
        <ele>1041</ele>
        <time>2022-08-14T09:49:29Z</time>
      </trkpt>
      <trkpt lat="46.76724" lon="6.3898">
        <ele>1042</ele>
        <time>2022-08-14T09:49:37Z</time>
      </trkpt>
      <trkpt lat="46.76734" lon="6.38982">
        <ele>1044</ele>
        <time>2022-08-14T09:49:45Z</time>
      </trkpt>
      <trkpt lat="46.76744" lon="6.38985">
        <ele>1046</ele>
        <time>2022-08-14T09:49:53Z</time>
      </trkpt>
      <trkpt lat="46.76754" lon="6.38988">
        <ele>1047</ele>
        <time>2022-08-14T09:50:01Z</time>
      </trkpt>
      <trkpt lat="46.76763" lon="6.3899">
        <ele>1048</ele>
        <time>2022-08-14T09:50:09Z</time>
      </trkpt>
      <trkpt lat="46.76772" lon="6.3899">
        <ele>1050</ele>
        <time>2022-08-14T09:50:16Z</time>
      </trkpt>
      <trkpt lat="46.76781" lon="6.38992">
        <ele>1051</ele>
        <time>2022-08-14T09:50:23Z</time>
      </trkpt>
      <trkpt lat="46.76791" lon="6.38989">
        <ele>1052</ele>
        <time>2022-08-14T09:50:30Z</time>
      </trkpt>
      <trkpt lat="46.768" lon="6.38986">
        <ele>1053</ele>
        <time>2022-08-14T09:50:36Z</time>
      </trkpt>
      <trkpt lat="46.76809" lon="6.38985">
        <ele>1055</ele>
        <time>2022-08-14T09:50:42Z</time>
      </trkpt>
      <trkpt lat="46.76819" lon="6.38983">
        <ele>1055</ele>
        <time>2022-08-14T09:50:48Z</time>
      </trkpt>
      <trkpt lat="46.76828" lon="6.38979">
        <ele>1056</ele>
        <time>2022-08-14T09:50:54Z</time>
      </trkpt>
      <trkpt lat="46.76837" lon="6.38973">
        <ele>1057</ele>
        <time>2022-08-14T09:51:00Z</time>
      </trkpt>
      <trkpt lat="46.76847" lon="6.3897">
        <ele>1058</ele>
        <time>2022-08-14T09:51:06Z</time>
      </trkpt>
      <trkpt lat="46.76857" lon="6.38965">
        <ele>1060</ele>
        <time>2022-08-14T09:51:12Z</time>
      </trkpt>
      <trkpt lat="46.76867" lon="6.3896">
        <ele>1060</ele>
        <time>2022-08-14T09:51:17Z</time>
      </trkpt>
      <trkpt lat="46.76884" lon="6.38949">
        <ele>1061</ele>
        <time>2022-08-14T09:51:25Z</time>
      </trkpt>
      <trkpt lat="46.76899" lon="6.38942">
        <ele>1061</ele>
        <time>2022-08-14T09:51:31Z</time>
      </trkpt>
      <trkpt lat="46.76907" lon="6.38934">
        <ele>1061</ele>
        <time>2022-08-14T09:51:34Z</time>
      </trkpt>
      <trkpt lat="46.76925" lon="6.38919">
        <ele>1061</ele>
        <time>2022-08-14T09:51:41Z</time>
      </trkpt>
      <trkpt lat="46.76942" lon="6.38906">
        <ele>1062</ele>
        <time>2022-08-14T09:51:48Z</time>
      </trkpt>
      <trkpt lat="46.76959" lon="6.38892">
        <ele>1064</ele>
        <time>2022-08-14T09:51:55Z</time>
      </trkpt>
      <trkpt lat="46.76968" lon="6.38885">
        <ele>1066</ele>
        <time>2022-08-14T09:51:59Z</time>
      </trkpt>
      <trkpt lat="46.76978" lon="6.38878">
        <ele>1064</ele>
        <time>2022-08-14T09:52:03Z</time>
      </trkpt>
      <trkpt lat="46.76995" lon="6.38867">
        <ele>1066</ele>
        <time>2022-08-14T09:52:10Z</time>
      </trkpt>
      <trkpt lat="46.77014" lon="6.38858">
        <ele>1067</ele>
        <time>2022-08-14T09:52:18Z</time>
      </trkpt>
      <trkpt lat="46.77032" lon="6.38856">
        <ele>1069</ele>
        <time>2022-08-14T09:52:25Z</time>
      </trkpt>
      <trkpt lat="46.77043" lon="6.38855">
        <ele>1068</ele>
        <time>2022-08-14T09:52:28Z</time>
      </trkpt>
      <trkpt lat="46.77052" lon="6.38855">
        <ele>1069</ele>
        <time>2022-08-14T09:52:32Z</time>
      </trkpt>
      <trkpt lat="46.77064" lon="6.38855">
        <ele>1069</ele>
        <time>2022-08-14T09:52:36Z</time>
      </trkpt>
      <trkpt lat="46.77074" lon="6.38854">
        <ele>1070</ele>
        <time>2022-08-14T09:52:39Z</time>
      </trkpt>
      <trkpt lat="46.77084" lon="6.38854">
        <ele>1070</ele>
        <time>2022-08-14T09:52:43Z</time>
      </trkpt>
      <trkpt lat="46.77093" lon="6.38852">
        <ele>1071</ele>
        <time>2022-08-14T09:52:45Z</time>
      </trkpt>
      <trkpt lat="46.77103" lon="6.38852">
        <ele>1071</ele>
        <time>2022-08-14T09:52:49Z</time>
      </trkpt>
      <trkpt lat="46.77114" lon="6.38851">
        <ele>1072</ele>
        <time>2022-08-14T09:52:54Z</time>
      </trkpt>
      <trkpt lat="46.77124" lon="6.38852">
        <ele>1072</ele>
        <time>2022-08-14T09:52:58Z</time>
      </trkpt>
      <trkpt lat="46.77134" lon="6.3885">
        <ele>1073</ele>
        <time>2022-08-14T09:53:01Z</time>
      </trkpt>
      <trkpt lat="46.77144" lon="6.38854">
        <ele>1074</ele>
        <time>2022-08-14T09:53:06Z</time>
      </trkpt>
      <trkpt lat="46.77153" lon="6.38855">
        <ele>1074</ele>
        <time>2022-08-14T09:53:10Z</time>
      </trkpt>
      <trkpt lat="46.77163" lon="6.38859">
        <ele>1075</ele>
        <time>2022-08-14T09:53:14Z</time>
      </trkpt>
      <trkpt lat="46.77173" lon="6.38864">
        <ele>1075</ele>
        <time>2022-08-14T09:53:18Z</time>
      </trkpt>
      <trkpt lat="46.77183" lon="6.38868">
        <ele>1076</ele>
        <time>2022-08-14T09:53:21Z</time>
      </trkpt>
      <trkpt lat="46.77195" lon="6.38873">
        <ele>1076</ele>
        <time>2022-08-14T09:53:26Z</time>
      </trkpt>
      <trkpt lat="46.77206" lon="6.38879">
        <ele>1077</ele>
        <time>2022-08-14T09:53:30Z</time>
      </trkpt>
      <trkpt lat="46.77217" lon="6.38885">
        <ele>1078</ele>
        <time>2022-08-14T09:53:34Z</time>
      </trkpt>
      <trkpt lat="46.77226" lon="6.38891">
        <ele>1078</ele>
        <time>2022-08-14T09:53:38Z</time>
      </trkpt>
      <trkpt lat="46.77235" lon="6.38899">
        <ele>1078</ele>
        <time>2022-08-14T09:53:41Z</time>
      </trkpt>
      <trkpt lat="46.77244" lon="6.38905">
        <ele>1079</ele>
        <time>2022-08-14T09:53:45Z</time>
      </trkpt>
      <trkpt lat="46.77252" lon="6.38911">
        <ele>1079</ele>
        <time>2022-08-14T09:53:48Z</time>
      </trkpt>
      <trkpt lat="46.7726" lon="6.38917">
        <ele>1079</ele>
        <time>2022-08-14T09:53:51Z</time>
      </trkpt>
      <trkpt lat="46.77268" lon="6.38924">
        <ele>1080</ele>
        <time>2022-08-14T09:53:53Z</time>
      </trkpt>
      <trkpt lat="46.77276" lon="6.38931">
        <ele>1080</ele>
        <time>2022-08-14T09:53:56Z</time>
      </trkpt>
      <trkpt lat="46.77284" lon="6.38939">
        <ele>1080</ele>
        <time>2022-08-14T09:53:59Z</time>
      </trkpt>
      <trkpt lat="46.77292" lon="6.38945">
        <ele>1081</ele>
        <time>2022-08-14T09:54:02Z</time>
      </trkpt>
      <trkpt lat="46.77303" lon="6.38948">
        <ele>1081</ele>
        <time>2022-08-14T09:54:06Z</time>
      </trkpt>
      <trkpt lat="46.77313" lon="6.38954">
        <ele>1081</ele>
        <time>2022-08-14T09:54:08Z</time>
      </trkpt>
      <trkpt lat="46.77322" lon="6.3896">
        <ele>1081</ele>
        <time>2022-08-14T09:54:11Z</time>
      </trkpt>
      <trkpt lat="46.77331" lon="6.38966">
        <ele>1081</ele>
        <time>2022-08-14T09:54:14Z</time>
      </trkpt>
      <trkpt lat="46.77342" lon="6.38973">
        <ele>1081</ele>
        <time>2022-08-14T09:54:17Z</time>
      </trkpt>
      <trkpt lat="46.77352" lon="6.38979">
        <ele>1081</ele>
        <time>2022-08-14T09:54:19Z</time>
      </trkpt>
      <trkpt lat="46.77364" lon="6.38984">
        <ele>1081</ele>
        <time>2022-08-14T09:54:23Z</time>
      </trkpt>
      <trkpt lat="46.77374" lon="6.3899">
        <ele>1081</ele>
        <time>2022-08-14T09:54:25Z</time>
      </trkpt>
      <trkpt lat="46.77384" lon="6.38995">
        <ele>1082</ele>
        <time>2022-08-14T09:54:29Z</time>
      </trkpt>
      <trkpt lat="46.77394" lon="6.39">
        <ele>1082</ele>
        <time>2022-08-14T09:54:32Z</time>
      </trkpt>
      <trkpt lat="46.77404" lon="6.39006">
        <ele>1082</ele>
        <time>2022-08-14T09:54:34Z</time>
      </trkpt>
      <trkpt lat="46.77412" lon="6.39011">
        <ele>1082</ele>
        <time>2022-08-14T09:54:37Z</time>
      </trkpt>
      <trkpt lat="46.77423" lon="6.39016">
        <ele>1083</ele>
        <time>2022-08-14T09:54:40Z</time>
      </trkpt>
      <trkpt lat="46.77434" lon="6.39023">
        <ele>1083</ele>
        <time>2022-08-14T09:54:44Z</time>
      </trkpt>
      <trkpt lat="46.77444" lon="6.39028">
        <ele>1083</ele>
        <time>2022-08-14T09:54:47Z</time>
      </trkpt>
      <trkpt lat="46.77454" lon="6.39032">
        <ele>1084</ele>
        <time>2022-08-14T09:54:49Z</time>
      </trkpt>
      <trkpt lat="46.77462" lon="6.39037">
        <ele>1084</ele>
        <time>2022-08-14T09:54:52Z</time>
      </trkpt>
      <trkpt lat="46.77472" lon="6.39042">
        <ele>1085</ele>
        <time>2022-08-14T09:54:56Z</time>
      </trkpt>
      <trkpt lat="46.77482" lon="6.39046">
        <ele>1085</ele>
        <time>2022-08-14T09:55:01Z</time>
      </trkpt>
      <trkpt lat="46.77491" lon="6.39052">
        <ele>1086</ele>
        <time>2022-08-14T09:55:04Z</time>
      </trkpt>
      <trkpt lat="46.77502" lon="6.39057">
        <ele>1087</ele>
        <time>2022-08-14T09:55:09Z</time>
      </trkpt>
      <trkpt lat="46.77512" lon="6.39061">
        <ele>1088</ele>
        <time>2022-08-14T09:55:15Z</time>
      </trkpt>
      <trkpt lat="46.77521" lon="6.39066">
        <ele>1089</ele>
        <time>2022-08-14T09:55:20Z</time>
      </trkpt>
      <trkpt lat="46.7753" lon="6.39071">
        <ele>1090</ele>
        <time>2022-08-14T09:55:25Z</time>
      </trkpt>
      <trkpt lat="46.77539" lon="6.39076">
        <ele>1092</ele>
        <time>2022-08-14T09:55:31Z</time>
      </trkpt>
      <trkpt lat="46.7755" lon="6.39079">
        <ele>1093</ele>
        <time>2022-08-14T09:55:37Z</time>
      </trkpt>
      <trkpt lat="46.77559" lon="6.39082">
        <ele>1094</ele>
        <time>2022-08-14T09:55:43Z</time>
      </trkpt>
      <trkpt lat="46.77569" lon="6.39082">
        <ele>1096</ele>
        <time>2022-08-14T09:55:49Z</time>
      </trkpt>
      <trkpt lat="46.77578" lon="6.39084">
        <ele>1097</ele>
        <time>2022-08-14T09:55:55Z</time>
      </trkpt>
      <trkpt lat="46.77587" lon="6.39082">
        <ele>1098</ele>
        <time>2022-08-14T09:56:00Z</time>
      </trkpt>
      <trkpt lat="46.77589" lon="6.39067">
        <ele>1099</ele>
        <time>2022-08-14T09:56:06Z</time>
      </trkpt>
      <trkpt lat="46.77594" lon="6.39056">
        <ele>1100</ele>
        <time>2022-08-14T09:56:12Z</time>
      </trkpt>
      <trkpt lat="46.77596" lon="6.39041">
        <ele>1100</ele>
        <time>2022-08-14T09:56:19Z</time>
      </trkpt>
      <trkpt lat="46.77597" lon="6.39027">
        <ele>1101</ele>
        <time>2022-08-14T09:56:24Z</time>
      </trkpt>
      <trkpt lat="46.77599" lon="6.39013">
        <ele>1102</ele>
        <time>2022-08-14T09:56:31Z</time>
      </trkpt>
      <trkpt lat="46.77603" lon="6.39001">
        <ele>1103</ele>
        <time>2022-08-14T09:56:37Z</time>
      </trkpt>
      <trkpt lat="46.77607" lon="6.38986">
        <ele>1104</ele>
        <time>2022-08-14T09:56:44Z</time>
      </trkpt>
      <trkpt lat="46.7761" lon="6.38973">
        <ele>1105</ele>
        <time>2022-08-14T09:56:50Z</time>
      </trkpt>
      <trkpt lat="46.77615" lon="6.3896">
        <ele>1105</ele>
        <time>2022-08-14T09:56:55Z</time>
      </trkpt>
      <trkpt lat="46.77623" lon="6.38951">
        <ele>1107</ele>
        <time>2022-08-14T09:57:03Z</time>
      </trkpt>
      <trkpt lat="46.77632" lon="6.38946">
        <ele>1106</ele>
        <time>2022-08-14T09:57:10Z</time>
      </trkpt>
      <trkpt lat="46.77641" lon="6.38949">
        <ele>1108</ele>
        <time>2022-08-14T09:57:19Z</time>
      </trkpt>
      <trkpt lat="46.77651" lon="6.38954">
        <ele>1115</ele>
        <time>2022-08-14T09:57:26Z</time>
      </trkpt>
      <trkpt lat="46.77659" lon="6.38959">
        <ele>1115</ele>
        <time>2022-08-14T09:57:31Z</time>
      </trkpt>
      <trkpt lat="46.77668" lon="6.38965">
        <ele>1109</ele>
        <time>2022-08-14T09:57:35Z</time>
      </trkpt>
      <trkpt lat="46.77677" lon="6.38969">
        <ele>1110</ele>
        <time>2022-08-14T09:57:39Z</time>
      </trkpt>
      <trkpt lat="46.77686" lon="6.38973">
        <ele>1111</ele>
        <time>2022-08-14T09:57:44Z</time>
      </trkpt>
      <trkpt lat="46.77695" lon="6.38976">
        <ele>1116</ele>
        <time>2022-08-14T09:57:49Z</time>
      </trkpt>
      <trkpt lat="46.77705" lon="6.38979">
        <ele>1113</ele>
        <time>2022-08-14T09:57:53Z</time>
      </trkpt>
      <trkpt lat="46.77713" lon="6.38986">
        <ele>1114</ele>
        <time>2022-08-14T09:57:57Z</time>
      </trkpt>
      <trkpt lat="46.77722" lon="6.3899">
        <ele>1115</ele>
        <time>2022-08-14T09:58:01Z</time>
      </trkpt>
      <trkpt lat="46.77732" lon="6.38995">
        <ele>1115</ele>
        <time>2022-08-14T09:58:03Z</time>
      </trkpt>
      <trkpt lat="46.77743" lon="6.38997">
        <ele>1115</ele>
        <time>2022-08-14T09:58:07Z</time>
      </trkpt>
      <trkpt lat="46.77753" lon="6.39">
        <ele>1115</ele>
        <time>2022-08-14T09:58:11Z</time>
      </trkpt>
      <trkpt lat="46.77764" lon="6.39003">
        <ele>1114</ele>
        <time>2022-08-14T09:58:18Z</time>
      </trkpt>
      <trkpt lat="46.77774" lon="6.3901">
        <ele>1115</ele>
        <time>2022-08-14T09:58:23Z</time>
      </trkpt>
      <trkpt lat="46.77784" lon="6.39018">
        <ele>1114</ele>
        <time>2022-08-14T09:58:29Z</time>
      </trkpt>
      <trkpt lat="46.77793" lon="6.39025">
        <ele>1114</ele>
        <time>2022-08-14T09:58:35Z</time>
      </trkpt>
      <trkpt lat="46.77802" lon="6.39026">
        <ele>1114</ele>
        <time>2022-08-14T09:58:40Z</time>
      </trkpt>
      <trkpt lat="46.77812" lon="6.39028">
        <ele>1115</ele>
        <time>2022-08-14T09:58:46Z</time>
      </trkpt>
      <trkpt lat="46.77823" lon="6.39024">
        <ele>1118</ele>
        <time>2022-08-14T10:00:22Z</time>
      </trkpt>
      <trkpt lat="46.77834" lon="6.39022">
        <ele>1117</ele>
        <time>2022-08-14T10:00:26Z</time>
      </trkpt>
      <trkpt lat="46.77844" lon="6.39015">
        <ele>1116</ele>
        <time>2022-08-14T10:00:29Z</time>
      </trkpt>
      <trkpt lat="46.77854" lon="6.3901">
        <ele>1117</ele>
        <time>2022-08-14T10:00:32Z</time>
      </trkpt>
      <trkpt lat="46.77864" lon="6.39005">
        <ele>1115</ele>
        <time>2022-08-14T10:00:34Z</time>
      </trkpt>
      <trkpt lat="46.77875" lon="6.39001">
        <ele>1115</ele>
        <time>2022-08-14T10:00:37Z</time>
      </trkpt>
      <trkpt lat="46.77886" lon="6.39002">
        <ele>1115</ele>
        <time>2022-08-14T10:00:41Z</time>
      </trkpt>
      <trkpt lat="46.77896" lon="6.39001">
        <ele>1115</ele>
        <time>2022-08-14T10:00:42Z</time>
      </trkpt>
      <trkpt lat="46.77905" lon="6.38994">
        <ele>1115</ele>
        <time>2022-08-14T10:00:46Z</time>
      </trkpt>
      <trkpt lat="46.77915" lon="6.3899">
        <ele>1116</ele>
        <time>2022-08-14T10:00:51Z</time>
      </trkpt>
      <trkpt lat="46.77925" lon="6.38989">
        <ele>1116</ele>
        <time>2022-08-14T10:00:56Z</time>
      </trkpt>
      <trkpt lat="46.77936" lon="6.38989">
        <ele>1116</ele>
        <time>2022-08-14T10:01:02Z</time>
      </trkpt>
      <trkpt lat="46.77945" lon="6.38989">
        <ele>1117</ele>
        <time>2022-08-14T10:01:05Z</time>
      </trkpt>
      <trkpt lat="46.77955" lon="6.38989">
        <ele>1118</ele>
        <time>2022-08-14T10:01:11Z</time>
      </trkpt>
      <trkpt lat="46.77965" lon="6.38988">
        <ele>1119</ele>
        <time>2022-08-14T10:01:17Z</time>
      </trkpt>
      <trkpt lat="46.77975" lon="6.38985">
        <ele>1120</ele>
        <time>2022-08-14T10:01:23Z</time>
      </trkpt>
      <trkpt lat="46.77985" lon="6.3898">
        <ele>1121</ele>
        <time>2022-08-14T10:01:29Z</time>
      </trkpt>
      <trkpt lat="46.77995" lon="6.38979">
        <ele>1122</ele>
        <time>2022-08-14T10:01:34Z</time>
      </trkpt>
      <trkpt lat="46.78005" lon="6.38977">
        <ele>1122</ele>
        <time>2022-08-14T10:01:40Z</time>
      </trkpt>
      <trkpt lat="46.78014" lon="6.38977">
        <ele>1123</ele>
        <time>2022-08-14T10:01:46Z</time>
      </trkpt>
      <trkpt lat="46.78024" lon="6.38977">
        <ele>1124</ele>
        <time>2022-08-14T10:01:53Z</time>
      </trkpt>
      <trkpt lat="46.78033" lon="6.38975">
        <ele>1125</ele>
        <time>2022-08-14T10:01:58Z</time>
      </trkpt>
      <trkpt lat="46.78043" lon="6.38974">
        <ele>1126</ele>
        <time>2022-08-14T10:02:05Z</time>
      </trkpt>
      <trkpt lat="46.78053" lon="6.38974">
        <ele>1127</ele>
        <time>2022-08-14T10:02:11Z</time>
      </trkpt>
      <trkpt lat="46.78062" lon="6.38975">
        <ele>1128</ele>
        <time>2022-08-14T10:02:17Z</time>
      </trkpt>
      <trkpt lat="46.78071" lon="6.38969">
        <ele>1130</ele>
        <time>2022-08-14T10:02:24Z</time>
      </trkpt>
      <trkpt lat="46.78081" lon="6.38964">
        <ele>1131</ele>
        <time>2022-08-14T10:02:31Z</time>
      </trkpt>
      <trkpt lat="46.78087" lon="6.38954">
        <ele>1131</ele>
        <time>2022-08-14T10:02:36Z</time>
      </trkpt>
      <trkpt lat="46.78095" lon="6.38943">
        <ele>1132</ele>
        <time>2022-08-14T10:02:41Z</time>
      </trkpt>
      <trkpt lat="46.781" lon="6.38932">
        <ele>1132</ele>
        <time>2022-08-14T10:02:46Z</time>
      </trkpt>
      <trkpt lat="46.78104" lon="6.38919">
        <ele>1132</ele>
        <time>2022-08-14T10:02:50Z</time>
      </trkpt>
      <trkpt lat="46.78109" lon="6.38907">
        <ele>1132</ele>
        <time>2022-08-14T10:02:55Z</time>
      </trkpt>
      <trkpt lat="46.78117" lon="6.38899">
        <ele>1135</ele>
        <time>2022-08-14T10:03:01Z</time>
      </trkpt>
      <trkpt lat="46.78122" lon="6.38887">
        <ele>1135</ele>
        <time>2022-08-14T10:03:04Z</time>
      </trkpt>
      <trkpt lat="46.78128" lon="6.38876">
        <ele>1135</ele>
        <time>2022-08-14T10:03:08Z</time>
      </trkpt>
      <trkpt lat="46.78134" lon="6.38863">
        <ele>1135</ele>
        <time>2022-08-14T10:03:14Z</time>
      </trkpt>
      <trkpt lat="46.78141" lon="6.38852">
        <ele>1135</ele>
        <time>2022-08-14T10:03:19Z</time>
      </trkpt>
      <trkpt lat="46.78146" lon="6.38837">
        <ele>1136</ele>
        <time>2022-08-14T10:03:23Z</time>
      </trkpt>
      <trkpt lat="46.78153" lon="6.38824">
        <ele>1135</ele>
        <time>2022-08-14T10:03:28Z</time>
      </trkpt>
      <trkpt lat="46.7816" lon="6.38811">
        <ele>1136</ele>
        <time>2022-08-14T10:03:33Z</time>
      </trkpt>
      <trkpt lat="46.78166" lon="6.38801">
        <ele>1136</ele>
        <time>2022-08-14T10:03:36Z</time>
      </trkpt>
      <trkpt lat="46.78172" lon="6.38791">
        <ele>1136</ele>
        <time>2022-08-14T10:03:40Z</time>
      </trkpt>
      <trkpt lat="46.7818" lon="6.38781">
        <ele>1136</ele>
        <time>2022-08-14T10:03:45Z</time>
      </trkpt>
      <trkpt lat="46.78188" lon="6.3877">
        <ele>1136</ele>
        <time>2022-08-14T10:03:50Z</time>
      </trkpt>
      <trkpt lat="46.78194" lon="6.3876">
        <ele>1136</ele>
        <time>2022-08-14T10:03:54Z</time>
      </trkpt>
      <trkpt lat="46.78201" lon="6.38751">
        <ele>1135</ele>
        <time>2022-08-14T10:03:58Z</time>
      </trkpt>
      <trkpt lat="46.78209" lon="6.38744">
        <ele>1135</ele>
        <time>2022-08-14T10:04:02Z</time>
      </trkpt>
      <trkpt lat="46.78216" lon="6.38734">
        <ele>1135</ele>
        <time>2022-08-14T10:04:06Z</time>
      </trkpt>
      <trkpt lat="46.78219" lon="6.38721">
        <ele>1135</ele>
        <time>2022-08-14T10:04:11Z</time>
      </trkpt>
      <trkpt lat="46.78228" lon="6.38726">
        <ele>1135</ele>
        <time>2022-08-14T10:04:19Z</time>
      </trkpt>
      <trkpt lat="46.78235" lon="6.38736">
        <ele>1135</ele>
        <time>2022-08-14T10:04:26Z</time>
      </trkpt>
      <trkpt lat="46.78239" lon="6.38747">
        <ele>1135</ele>
        <time>2022-08-14T10:04:33Z</time>
      </trkpt>
      <trkpt lat="46.78246" lon="6.38758">
        <ele>1135</ele>
        <time>2022-08-14T10:04:39Z</time>
      </trkpt>
      <trkpt lat="46.78254" lon="6.38769">
        <ele>1135</ele>
        <time>2022-08-14T10:04:44Z</time>
      </trkpt>
      <trkpt lat="46.7826" lon="6.38779">
        <ele>1135</ele>
        <time>2022-08-14T10:04:48Z</time>
      </trkpt>
      <trkpt lat="46.78268" lon="6.38789">
        <ele>1135</ele>
        <time>2022-08-14T10:04:53Z</time>
      </trkpt>
      <trkpt lat="46.78275" lon="6.388">
        <ele>1136</ele>
        <time>2022-08-14T10:04:59Z</time>
      </trkpt>
      <trkpt lat="46.78282" lon="6.3881">
        <ele>1136</ele>
        <time>2022-08-14T10:05:03Z</time>
      </trkpt>
      <trkpt lat="46.78289" lon="6.38823">
        <ele>1136</ele>
        <time>2022-08-14T10:05:09Z</time>
      </trkpt>
      <trkpt lat="46.78296" lon="6.38832">
        <ele>1137</ele>
        <time>2022-08-14T10:05:14Z</time>
      </trkpt>
      <trkpt lat="46.78304" lon="6.38842">
        <ele>1137</ele>
        <time>2022-08-14T10:05:20Z</time>
      </trkpt>
      <trkpt lat="46.78312" lon="6.38851">
        <ele>1138</ele>
        <time>2022-08-14T10:05:25Z</time>
      </trkpt>
      <trkpt lat="46.78318" lon="6.3886">
        <ele>1138</ele>
        <time>2022-08-14T10:05:29Z</time>
      </trkpt>
      <trkpt lat="46.78326" lon="6.38868">
        <ele>1138</ele>
        <time>2022-08-14T10:05:32Z</time>
      </trkpt>
      <trkpt lat="46.78334" lon="6.38876">
        <ele>1139</ele>
        <time>2022-08-14T10:05:37Z</time>
      </trkpt>
      <trkpt lat="46.78341" lon="6.38884">
        <ele>1139</ele>
        <time>2022-08-14T10:05:40Z</time>
      </trkpt>
      <trkpt lat="46.7835" lon="6.38891">
        <ele>1139</ele>
        <time>2022-08-14T10:05:45Z</time>
      </trkpt>
      <trkpt lat="46.78358" lon="6.389">
        <ele>1140</ele>
        <time>2022-08-14T10:05:50Z</time>
      </trkpt>
      <trkpt lat="46.78368" lon="6.3891">
        <ele>1140</ele>
        <time>2022-08-14T10:05:54Z</time>
      </trkpt>
      <trkpt lat="46.78378" lon="6.3892">
        <ele>1140</ele>
        <time>2022-08-14T10:05:59Z</time>
      </trkpt>
      <trkpt lat="46.78387" lon="6.38928">
        <ele>1141</ele>
        <time>2022-08-14T10:06:03Z</time>
      </trkpt>
      <trkpt lat="46.78396" lon="6.38937">
        <ele>1141</ele>
        <time>2022-08-14T10:06:07Z</time>
      </trkpt>
      <trkpt lat="46.78405" lon="6.38946">
        <ele>1141</ele>
        <time>2022-08-14T10:06:11Z</time>
      </trkpt>
      <trkpt lat="46.78413" lon="6.38953">
        <ele>1141</ele>
        <time>2022-08-14T10:06:14Z</time>
      </trkpt>
      <trkpt lat="46.78422" lon="6.38959">
        <ele>1140</ele>
        <time>2022-08-14T10:06:19Z</time>
      </trkpt>
      <trkpt lat="46.78431" lon="6.38963">
        <ele>1140</ele>
        <time>2022-08-14T10:06:22Z</time>
      </trkpt>
      <trkpt lat="46.78441" lon="6.38968">
        <ele>1139</ele>
        <time>2022-08-14T10:06:25Z</time>
      </trkpt>
      <trkpt lat="46.78452" lon="6.38973">
        <ele>1139</ele>
        <time>2022-08-14T10:06:28Z</time>
      </trkpt>
      <trkpt lat="46.78461" lon="6.38979">
        <ele>1139</ele>
        <time>2022-08-14T10:06:30Z</time>
      </trkpt>
      <trkpt lat="46.78469" lon="6.38986">
        <ele>1139</ele>
        <time>2022-08-14T10:06:32Z</time>
      </trkpt>
      <trkpt lat="46.78478" lon="6.38993">
        <ele>1139</ele>
        <time>2022-08-14T10:06:34Z</time>
      </trkpt>
      <trkpt lat="46.78485" lon="6.39003">
        <ele>1139</ele>
        <time>2022-08-14T10:06:36Z</time>
      </trkpt>
      <trkpt lat="46.78494" lon="6.39011">
        <ele>1139</ele>
        <time>2022-08-14T10:06:38Z</time>
      </trkpt>
      <trkpt lat="46.78503" lon="6.39019">
        <ele>1139</ele>
        <time>2022-08-14T10:06:41Z</time>
      </trkpt>
      <trkpt lat="46.78512" lon="6.39032">
        <ele>1139</ele>
        <time>2022-08-14T10:06:45Z</time>
      </trkpt>
      <trkpt lat="46.78518" lon="6.39044">
        <ele>1140</ele>
        <time>2022-08-14T10:06:48Z</time>
      </trkpt>
      <trkpt lat="46.78524" lon="6.39055">
        <ele>1140</ele>
        <time>2022-08-14T10:06:51Z</time>
      </trkpt>
      <trkpt lat="46.7853" lon="6.39066">
        <ele>1140</ele>
        <time>2022-08-14T10:06:53Z</time>
      </trkpt>
      <trkpt lat="46.78537" lon="6.3908">
        <ele>1140</ele>
        <time>2022-08-14T10:06:57Z</time>
      </trkpt>
      <trkpt lat="46.78542" lon="6.39092">
        <ele>1141</ele>
        <time>2022-08-14T10:07:00Z</time>
      </trkpt>
      <trkpt lat="46.78547" lon="6.39104">
        <ele>1141</ele>
        <time>2022-08-14T10:07:02Z</time>
      </trkpt>
      <trkpt lat="46.78553" lon="6.39115">
        <ele>1141</ele>
        <time>2022-08-14T10:07:05Z</time>
      </trkpt>
      <trkpt lat="46.78559" lon="6.39125">
        <ele>1142</ele>
        <time>2022-08-14T10:07:08Z</time>
      </trkpt>
      <trkpt lat="46.78569" lon="6.39134">
        <ele>1143</ele>
        <time>2022-08-14T10:07:12Z</time>
      </trkpt>
      <trkpt lat="46.7858" lon="6.39138">
        <ele>1145</ele>
        <time>2022-08-14T10:07:17Z</time>
      </trkpt>
      <trkpt lat="46.78589" lon="6.39143">
        <ele>1146</ele>
        <time>2022-08-14T10:07:23Z</time>
      </trkpt>
      <trkpt lat="46.78598" lon="6.39146">
        <ele>1147</ele>
        <time>2022-08-14T10:07:28Z</time>
      </trkpt>
      <trkpt lat="46.78607" lon="6.39147">
        <ele>1148</ele>
        <time>2022-08-14T10:07:35Z</time>
      </trkpt>
      <trkpt lat="46.78616" lon="6.39149">
        <ele>1149</ele>
        <time>2022-08-14T10:08:29Z</time>
      </trkpt>
      <trkpt lat="46.78625" lon="6.39154">
        <ele>1150</ele>
        <time>2022-08-14T10:08:36Z</time>
      </trkpt>
      <trkpt lat="46.78634" lon="6.39153">
        <ele>1151</ele>
        <time>2022-08-14T10:08:43Z</time>
      </trkpt>
      <trkpt lat="46.78644" lon="6.39147">
        <ele>1151</ele>
        <time>2022-08-14T10:11:34Z</time>
      </trkpt>
      <trkpt lat="46.78653" lon="6.39151">
        <ele>1152</ele>
        <time>2022-08-14T10:11:42Z</time>
      </trkpt>
      <trkpt lat="46.78662" lon="6.39153">
        <ele>1152</ele>
        <time>2022-08-14T10:11:48Z</time>
      </trkpt>
      <trkpt lat="46.78671" lon="6.39154">
        <ele>1153</ele>
        <time>2022-08-14T10:11:55Z</time>
      </trkpt>
      <trkpt lat="46.7868" lon="6.39148">
        <ele>1155</ele>
        <time>2022-08-14T10:12:03Z</time>
      </trkpt>
      <trkpt lat="46.7869" lon="6.39142">
        <ele>1155</ele>
        <time>2022-08-14T10:12:11Z</time>
      </trkpt>
      <trkpt lat="46.78701" lon="6.39142">
        <ele>1156</ele>
        <time>2022-08-14T10:12:16Z</time>
      </trkpt>
      <trkpt lat="46.7871" lon="6.39147">
        <ele>1159</ele>
        <time>2022-08-14T10:12:21Z</time>
      </trkpt>
      <trkpt lat="46.78716" lon="6.39158">
        <ele>1160</ele>
        <time>2022-08-14T10:12:28Z</time>
      </trkpt>
      <trkpt lat="46.7872" lon="6.39171">
        <ele>1160</ele>
        <time>2022-08-14T10:12:34Z</time>
      </trkpt>
      <trkpt lat="46.78724" lon="6.39184">
        <ele>1162</ele>
        <time>2022-08-14T10:12:41Z</time>
      </trkpt>
      <trkpt lat="46.78728" lon="6.39196">
        <ele>1163</ele>
        <time>2022-08-14T10:12:46Z</time>
      </trkpt>
      <trkpt lat="46.78734" lon="6.39207">
        <ele>1165</ele>
        <time>2022-08-14T10:12:54Z</time>
      </trkpt>
      <trkpt lat="46.7874" lon="6.39217">
        <ele>1166</ele>
        <time>2022-08-14T10:13:02Z</time>
      </trkpt>
      <trkpt lat="46.78747" lon="6.39226">
        <ele>1166</ele>
        <time>2022-08-14T10:13:08Z</time>
      </trkpt>
      <trkpt lat="46.78755" lon="6.39235">
        <ele>1167</ele>
        <time>2022-08-14T10:13:15Z</time>
      </trkpt>
      <trkpt lat="46.78761" lon="6.39246">
        <ele>1169</ele>
        <time>2022-08-14T10:13:21Z</time>
      </trkpt>
      <trkpt lat="46.78766" lon="6.39257">
        <ele>1170</ele>
        <time>2022-08-14T10:13:27Z</time>
      </trkpt>
      <trkpt lat="46.78771" lon="6.3927">
        <ele>1172</ele>
        <time>2022-08-14T10:13:34Z</time>
      </trkpt>
      <trkpt lat="46.78775" lon="6.39282">
        <ele>1173</ele>
        <time>2022-08-14T10:13:40Z</time>
      </trkpt>
      <trkpt lat="46.78778" lon="6.39296">
        <ele>1173</ele>
        <time>2022-08-14T10:13:46Z</time>
      </trkpt>
      <trkpt lat="46.78781" lon="6.39309">
        <ele>1174</ele>
        <time>2022-08-14T10:13:51Z</time>
      </trkpt>
      <trkpt lat="46.78785" lon="6.39323">
        <ele>1175</ele>
        <time>2022-08-14T10:13:57Z</time>
      </trkpt>
      <trkpt lat="46.78792" lon="6.39332">
        <ele>1177</ele>
        <time>2022-08-14T10:14:03Z</time>
      </trkpt>
      <trkpt lat="46.78798" lon="6.39342">
        <ele>1178</ele>
        <time>2022-08-14T10:14:09Z</time>
      </trkpt>
      <trkpt lat="46.78803" lon="6.39356">
        <ele>1180</ele>
        <time>2022-08-14T10:14:16Z</time>
      </trkpt>
      <trkpt lat="46.78808" lon="6.39369">
        <ele>1180</ele>
        <time>2022-08-14T10:14:22Z</time>
      </trkpt>
      <trkpt lat="46.7881" lon="6.39386">
        <ele>1181</ele>
        <time>2022-08-14T10:14:27Z</time>
      </trkpt>
      <trkpt lat="46.78813" lon="6.394">
        <ele>1181</ele>
        <time>2022-08-14T10:14:30Z</time>
      </trkpt>
      <trkpt lat="46.78816" lon="6.39413">
        <ele>1181</ele>
        <time>2022-08-14T10:14:34Z</time>
      </trkpt>
      <trkpt lat="46.78818" lon="6.39428">
        <ele>1181</ele>
        <time>2022-08-14T10:14:37Z</time>
      </trkpt>
      <trkpt lat="46.7882" lon="6.39442">
        <ele>1181</ele>
        <time>2022-08-14T10:14:41Z</time>
      </trkpt>
      <trkpt lat="46.78824" lon="6.39458">
        <ele>1180</ele>
        <time>2022-08-14T10:14:46Z</time>
      </trkpt>
      <trkpt lat="46.78827" lon="6.39472">
        <ele>1181</ele>
        <time>2022-08-14T10:14:50Z</time>
      </trkpt>
      <trkpt lat="46.7883" lon="6.39487">
        <ele>1182</ele>
        <time>2022-08-14T10:14:54Z</time>
      </trkpt>
      <trkpt lat="46.78833" lon="6.395">
        <ele>1183</ele>
        <time>2022-08-14T10:14:57Z</time>
      </trkpt>
      <trkpt lat="46.78835" lon="6.39516">
        <ele>1184</ele>
        <time>2022-08-14T10:15:02Z</time>
      </trkpt>
      <trkpt lat="46.78835" lon="6.39529">
        <ele>1184</ele>
        <time>2022-08-14T10:15:05Z</time>
      </trkpt>
      <trkpt lat="46.78837" lon="6.39543">
        <ele>1185</ele>
        <time>2022-08-14T10:15:08Z</time>
      </trkpt>
      <trkpt lat="46.78839" lon="6.39556">
        <ele>1185</ele>
        <time>2022-08-14T10:15:13Z</time>
      </trkpt>
      <trkpt lat="46.7884" lon="6.39571">
        <ele>1185</ele>
        <time>2022-08-14T10:15:17Z</time>
      </trkpt>
      <trkpt lat="46.7884" lon="6.39584">
        <ele>1185</ele>
        <time>2022-08-14T10:15:22Z</time>
      </trkpt>
      <trkpt lat="46.78841" lon="6.39598">
        <ele>1185</ele>
        <time>2022-08-14T10:15:26Z</time>
      </trkpt>
      <trkpt lat="46.78843" lon="6.39612">
        <ele>1186</ele>
        <time>2022-08-14T10:15:30Z</time>
      </trkpt>
      <trkpt lat="46.78848" lon="6.39623">
        <ele>1187</ele>
        <time>2022-08-14T10:15:34Z</time>
      </trkpt>
      <trkpt lat="46.78854" lon="6.39633">
        <ele>1188</ele>
        <time>2022-08-14T10:15:39Z</time>
      </trkpt>
      <trkpt lat="46.78859" lon="6.39644">
        <ele>1189</ele>
        <time>2022-08-14T10:15:44Z</time>
      </trkpt>
      <trkpt lat="46.78865" lon="6.39656">
        <ele>1190</ele>
        <time>2022-08-14T10:15:54Z</time>
      </trkpt>
      <trkpt lat="46.7887" lon="6.39669">
        <ele>1188</ele>
        <time>2022-08-14T10:16:05Z</time>
      </trkpt>
      <trkpt lat="46.78875" lon="6.39681">
        <ele>1188</ele>
        <time>2022-08-14T10:16:13Z</time>
      </trkpt>
      <trkpt lat="46.78879" lon="6.39695">
        <ele>1189</ele>
        <time>2022-08-14T10:16:20Z</time>
      </trkpt>
      <trkpt lat="46.78882" lon="6.39709">
        <ele>1190</ele>
        <time>2022-08-14T10:16:24Z</time>
      </trkpt>
      <trkpt lat="46.78885" lon="6.39723">
        <ele>1189</ele>
        <time>2022-08-14T10:16:29Z</time>
      </trkpt>
      <trkpt lat="46.78891" lon="6.39738">
        <ele>1191</ele>
        <time>2022-08-14T10:16:32Z</time>
      </trkpt>
      <trkpt lat="46.78897" lon="6.39748">
        <ele>1191</ele>
        <time>2022-08-14T10:16:36Z</time>
      </trkpt>
      <trkpt lat="46.78905" lon="6.39756">
        <ele>1192</ele>
        <time>2022-08-14T10:16:41Z</time>
      </trkpt>
      <trkpt lat="46.78912" lon="6.39766">
        <ele>1194</ele>
        <time>2022-08-14T10:16:49Z</time>
      </trkpt>
      <trkpt lat="46.78918" lon="6.39776">
        <ele>1195</ele>
        <time>2022-08-14T10:16:55Z</time>
      </trkpt>
      <trkpt lat="46.78922" lon="6.39788">
        <ele>1196</ele>
        <time>2022-08-14T10:16:59Z</time>
      </trkpt>
      <trkpt lat="46.78928" lon="6.398">
        <ele>1197</ele>
        <time>2022-08-14T10:17:05Z</time>
      </trkpt>
      <trkpt lat="46.78935" lon="6.39808">
        <ele>1198</ele>
        <time>2022-08-14T10:17:12Z</time>
      </trkpt>
      <trkpt lat="46.78942" lon="6.39817">
        <ele>1198</ele>
        <time>2022-08-14T10:17:17Z</time>
      </trkpt>
      <trkpt lat="46.7895" lon="6.39825">
        <ele>1200</ele>
        <time>2022-08-14T10:17:23Z</time>
      </trkpt>
      <trkpt lat="46.78959" lon="6.39831">
        <ele>1200</ele>
        <time>2022-08-14T10:17:29Z</time>
      </trkpt>
      <trkpt lat="46.78967" lon="6.39838">
        <ele>1202</ele>
        <time>2022-08-14T10:17:35Z</time>
      </trkpt>
      <trkpt lat="46.78975" lon="6.39848">
        <ele>1202</ele>
        <time>2022-08-14T10:17:42Z</time>
      </trkpt>
      <trkpt lat="46.7898" lon="6.39859">
        <ele>1202</ele>
        <time>2022-08-14T10:17:46Z</time>
      </trkpt>
      <trkpt lat="46.78985" lon="6.39871">
        <ele>1202</ele>
        <time>2022-08-14T10:17:51Z</time>
      </trkpt>
      <trkpt lat="46.78991" lon="6.39883">
        <ele>1203</ele>
        <time>2022-08-14T10:17:57Z</time>
      </trkpt>
      <trkpt lat="46.78997" lon="6.39893">
        <ele>1204</ele>
        <time>2022-08-14T10:18:03Z</time>
      </trkpt>
      <trkpt lat="46.79006" lon="6.39901">
        <ele>1205</ele>
        <time>2022-08-14T10:18:10Z</time>
      </trkpt>
      <trkpt lat="46.79015" lon="6.39906">
        <ele>1205</ele>
        <time>2022-08-14T10:18:14Z</time>
      </trkpt>
      <trkpt lat="46.79023" lon="6.39914">
        <ele>1205</ele>
        <time>2022-08-14T10:18:19Z</time>
      </trkpt>
      <trkpt lat="46.79028" lon="6.39926">
        <ele>1205</ele>
        <time>2022-08-14T10:18:24Z</time>
      </trkpt>
      <trkpt lat="46.79032" lon="6.39939">
        <ele>1206</ele>
        <time>2022-08-14T10:18:28Z</time>
      </trkpt>
      <trkpt lat="46.79032" lon="6.39952">
        <ele>1206</ele>
        <time>2022-08-14T10:18:33Z</time>
      </trkpt>
      <trkpt lat="46.79034" lon="6.39966">
        <ele>1207</ele>
        <time>2022-08-14T10:18:41Z</time>
      </trkpt>
      <trkpt lat="46.79039" lon="6.39978">
        <ele>1207</ele>
        <time>2022-08-14T10:18:46Z</time>
      </trkpt>
      <trkpt lat="46.79042" lon="6.39992">
        <ele>1209</ele>
        <time>2022-08-14T10:18:53Z</time>
      </trkpt>
      <trkpt lat="46.79047" lon="6.40003">
        <ele>1210</ele>
        <time>2022-08-14T10:18:59Z</time>
      </trkpt>
      <trkpt lat="46.79053" lon="6.40015">
        <ele>1211</ele>
        <time>2022-08-14T10:19:07Z</time>
      </trkpt>
      <trkpt lat="46.79058" lon="6.40025">
        <ele>1213</ele>
        <time>2022-08-14T10:19:15Z</time>
      </trkpt>
      <trkpt lat="46.79065" lon="6.40037">
        <ele>1214</ele>
        <time>2022-08-14T10:19:21Z</time>
      </trkpt>
      <trkpt lat="46.79071" lon="6.40047">
        <ele>1215</ele>
        <time>2022-08-14T10:19:28Z</time>
      </trkpt>
      <trkpt lat="46.79079" lon="6.40056">
        <ele>1216</ele>
        <time>2022-08-14T10:19:36Z</time>
      </trkpt>
      <trkpt lat="46.79086" lon="6.40065">
        <ele>1217</ele>
        <time>2022-08-14T10:19:42Z</time>
      </trkpt>
      <trkpt lat="46.79091" lon="6.40076">
        <ele>1219</ele>
        <time>2022-08-14T10:19:52Z</time>
      </trkpt>
      <trkpt lat="46.79095" lon="6.40089">
        <ele>1220</ele>
        <time>2022-08-14T10:20:01Z</time>
      </trkpt>
      <trkpt lat="46.79102" lon="6.40101">
        <ele>1220</ele>
        <time>2022-08-14T10:20:09Z</time>
      </trkpt>
      <trkpt lat="46.79108" lon="6.40113">
        <ele>1222</ele>
        <time>2022-08-14T10:20:17Z</time>
      </trkpt>
      <trkpt lat="46.79115" lon="6.40124">
        <ele>1223</ele>
        <time>2022-08-14T10:20:25Z</time>
      </trkpt>
      <trkpt lat="46.79122" lon="6.40133">
        <ele>1225</ele>
        <time>2022-08-14T10:20:34Z</time>
      </trkpt>
      <trkpt lat="46.79126" lon="6.40146">
        <ele>1225</ele>
        <time>2022-08-14T10:20:43Z</time>
      </trkpt>
      <trkpt lat="46.79131" lon="6.40157">
        <ele>1226</ele>
        <time>2022-08-14T10:20:50Z</time>
      </trkpt>
      <trkpt lat="46.79134" lon="6.40171">
        <ele>1226</ele>
        <time>2022-08-14T10:20:57Z</time>
      </trkpt>
      <trkpt lat="46.7914" lon="6.40182">
        <ele>1227</ele>
        <time>2022-08-14T10:21:07Z</time>
      </trkpt>
      <trkpt lat="46.79148" lon="6.40193">
        <ele>1228</ele>
        <time>2022-08-14T10:21:16Z</time>
      </trkpt>
      <trkpt lat="46.79153" lon="6.40205">
        <ele>1229</ele>
        <time>2022-08-14T10:21:22Z</time>
      </trkpt>
      <trkpt lat="46.79157" lon="6.40217">
        <ele>1229</ele>
        <time>2022-08-14T10:21:27Z</time>
      </trkpt>
      <trkpt lat="46.79158" lon="6.4023">
        <ele>1229</ele>
        <time>2022-08-14T10:21:34Z</time>
      </trkpt>
      <trkpt lat="46.79157" lon="6.40245">
        <ele>1229</ele>
        <time>2022-08-14T10:21:40Z</time>
      </trkpt>
      <trkpt lat="46.79156" lon="6.40259">
        <ele>1229</ele>
        <time>2022-08-14T10:21:44Z</time>
      </trkpt>
      <trkpt lat="46.79155" lon="6.40273">
        <ele>1229</ele>
        <time>2022-08-14T10:21:48Z</time>
      </trkpt>
      <trkpt lat="46.79155" lon="6.40286">
        <ele>1229</ele>
        <time>2022-08-14T10:21:52Z</time>
      </trkpt>
      <trkpt lat="46.79155" lon="6.403">
        <ele>1231</ele>
        <time>2022-08-14T10:21:56Z</time>
      </trkpt>
      <trkpt lat="46.79159" lon="6.40313">
        <ele>1231</ele>
        <time>2022-08-14T10:22:01Z</time>
      </trkpt>
      <trkpt lat="46.79165" lon="6.40324">
        <ele>1230</ele>
        <time>2022-08-14T10:22:06Z</time>
      </trkpt>
      <trkpt lat="46.7917" lon="6.40337">
        <ele>1231</ele>
        <time>2022-08-14T10:22:12Z</time>
      </trkpt>
      <trkpt lat="46.79174" lon="6.40349">
        <ele>1231</ele>
        <time>2022-08-14T10:22:16Z</time>
      </trkpt>
      <trkpt lat="46.79177" lon="6.40363">
        <ele>1231</ele>
        <time>2022-08-14T10:22:21Z</time>
      </trkpt>
      <trkpt lat="46.79181" lon="6.40377">
        <ele>1231</ele>
        <time>2022-08-14T10:22:24Z</time>
      </trkpt>
      <trkpt lat="46.79188" lon="6.40386">
        <ele>1231</ele>
        <time>2022-08-14T10:22:30Z</time>
      </trkpt>
      <trkpt lat="46.79196" lon="6.40393">
        <ele>1231</ele>
        <time>2022-08-14T10:22:34Z</time>
      </trkpt>
      <trkpt lat="46.79204" lon="6.40401">
        <ele>1231</ele>
        <time>2022-08-14T10:22:37Z</time>
      </trkpt>
      <trkpt lat="46.79213" lon="6.4041">
        <ele>1231</ele>
        <time>2022-08-14T10:22:41Z</time>
      </trkpt>
      <trkpt lat="46.79221" lon="6.40418">
        <ele>1232</ele>
        <time>2022-08-14T10:22:46Z</time>
      </trkpt>
      <trkpt lat="46.79231" lon="6.40421">
        <ele>1234</ele>
        <time>2022-08-14T10:22:53Z</time>
      </trkpt>
      <trkpt lat="46.79241" lon="6.40423">
        <ele>1234</ele>
        <time>2022-08-14T10:22:58Z</time>
      </trkpt>
      <trkpt lat="46.7925" lon="6.40425">
        <ele>1235</ele>
        <time>2022-08-14T10:23:02Z</time>
      </trkpt>
      <trkpt lat="46.79259" lon="6.40425">
        <ele>1236</ele>
        <time>2022-08-14T10:23:08Z</time>
      </trkpt>
      <trkpt lat="46.79269" lon="6.40424">
        <ele>1236</ele>
        <time>2022-08-14T10:23:13Z</time>
      </trkpt>
      <trkpt lat="46.79278" lon="6.40424">
        <ele>1237</ele>
        <time>2022-08-14T10:23:17Z</time>
      </trkpt>
      <trkpt lat="46.79288" lon="6.40425">
        <ele>1237</ele>
        <time>2022-08-14T10:23:23Z</time>
      </trkpt>
      <trkpt lat="46.79298" lon="6.40424">
        <ele>1238</ele>
        <time>2022-08-14T10:23:27Z</time>
      </trkpt>
      <trkpt lat="46.79308" lon="6.40423">
        <ele>1238</ele>
        <time>2022-08-14T10:23:33Z</time>
      </trkpt>
      <trkpt lat="46.79317" lon="6.40423">
        <ele>1235</ele>
        <time>2022-08-14T10:23:38Z</time>
      </trkpt>
      <trkpt lat="46.79327" lon="6.40426">
        <ele>1236</ele>
        <time>2022-08-14T10:23:42Z</time>
      </trkpt>
      <trkpt lat="46.79336" lon="6.40429">
        <ele>1236</ele>
        <time>2022-08-14T10:23:47Z</time>
      </trkpt>
      <trkpt lat="46.79345" lon="6.40431">
        <ele>1237</ele>
        <time>2022-08-14T10:23:52Z</time>
      </trkpt>
      <trkpt lat="46.79354" lon="6.40431">
        <ele>1237</ele>
        <time>2022-08-14T10:23:56Z</time>
      </trkpt>
      <trkpt lat="46.79364" lon="6.40429">
        <ele>1238</ele>
        <time>2022-08-14T10:24:01Z</time>
      </trkpt>
      <trkpt lat="46.79373" lon="6.40423">
        <ele>1239</ele>
        <time>2022-08-14T10:24:08Z</time>
      </trkpt>
      <trkpt lat="46.79382" lon="6.40419">
        <ele>1239</ele>
        <time>2022-08-14T10:24:13Z</time>
      </trkpt>
      <trkpt lat="46.79391" lon="6.40413">
        <ele>1240</ele>
        <time>2022-08-14T10:24:19Z</time>
      </trkpt>
      <trkpt lat="46.794" lon="6.4041">
        <ele>1241</ele>
        <time>2022-08-14T10:24:25Z</time>
      </trkpt>
      <trkpt lat="46.79409" lon="6.40406">
        <ele>1241</ele>
        <time>2022-08-14T10:24:31Z</time>
      </trkpt>
      <trkpt lat="46.79416" lon="6.40396">
        <ele>1242</ele>
        <time>2022-08-14T10:24:37Z</time>
      </trkpt>
      <trkpt lat="46.79419" lon="6.40383">
        <ele>1242</ele>
        <time>2022-08-14T10:24:42Z</time>
      </trkpt>
      <trkpt lat="46.7942" lon="6.40369">
        <ele>1243</ele>
        <time>2022-08-14T10:24:46Z</time>
      </trkpt>
      <trkpt lat="46.79419" lon="6.40355">
        <ele>1244</ele>
        <time>2022-08-14T10:24:51Z</time>
      </trkpt>
      <trkpt lat="46.79417" lon="6.4034">
        <ele>1245</ele>
        <time>2022-08-14T10:24:57Z</time>
      </trkpt>
      <trkpt lat="46.79414" lon="6.40327">
        <ele>1246</ele>
        <time>2022-08-14T10:25:01Z</time>
      </trkpt>
      <trkpt lat="46.79413" lon="6.40311">
        <ele>1246</ele>
        <time>2022-08-14T10:25:06Z</time>
      </trkpt>
      <trkpt lat="46.79411" lon="6.40298">
        <ele>1246</ele>
        <time>2022-08-14T10:25:11Z</time>
      </trkpt>
      <trkpt lat="46.79412" lon="6.40283">
        <ele>1245</ele>
        <time>2022-08-14T10:25:17Z</time>
      </trkpt>
      <trkpt lat="46.7941" lon="6.40267">
        <ele>1245</ele>
        <time>2022-08-14T10:25:20Z</time>
      </trkpt>
      <trkpt lat="46.79403" lon="6.40247">
        <ele>1245</ele>
        <time>2022-08-14T10:25:22Z</time>
      </trkpt>
      <trkpt lat="46.79397" lon="6.40234">
        <ele>1244</ele>
        <time>2022-08-14T10:25:24Z</time>
      </trkpt>
      <trkpt lat="46.79388" lon="6.40217">
        <ele>1244</ele>
        <time>2022-08-14T10:25:27Z</time>
      </trkpt>
      <trkpt lat="46.79381" lon="6.40203">
        <ele>1244</ele>
        <time>2022-08-14T10:25:32Z</time>
      </trkpt>
      <trkpt lat="46.79375" lon="6.4019">
        <ele>1245</ele>
        <time>2022-08-14T10:25:36Z</time>
      </trkpt>
      <trkpt lat="46.79368" lon="6.40177">
        <ele>1246</ele>
        <time>2022-08-14T10:25:39Z</time>
      </trkpt>
      <trkpt lat="46.79361" lon="6.40166">
        <ele>1246</ele>
        <time>2022-08-14T10:25:42Z</time>
      </trkpt>
      <trkpt lat="46.79356" lon="6.40154">
        <ele>1246</ele>
        <time>2022-08-14T10:25:44Z</time>
      </trkpt>
      <trkpt lat="46.79351" lon="6.40142">
        <ele>1246</ele>
        <time>2022-08-14T10:25:48Z</time>
      </trkpt>
      <trkpt lat="46.79348" lon="6.40126">
        <ele>1245</ele>
        <time>2022-08-14T10:25:51Z</time>
      </trkpt>
      <trkpt lat="46.79345" lon="6.40111">
        <ele>1245</ele>
        <time>2022-08-14T10:25:55Z</time>
      </trkpt>
      <trkpt lat="46.79343" lon="6.40098">
        <ele>1246</ele>
        <time>2022-08-14T10:25:58Z</time>
      </trkpt>
      <trkpt lat="46.79341" lon="6.40084">
        <ele>1246</ele>
        <time>2022-08-14T10:26:03Z</time>
      </trkpt>
      <trkpt lat="46.79337" lon="6.40072">
        <ele>1247</ele>
        <time>2022-08-14T10:26:07Z</time>
      </trkpt>
      <trkpt lat="46.79333" lon="6.40059">
        <ele>1249</ele>
        <time>2022-08-14T10:26:12Z</time>
      </trkpt>
      <trkpt lat="46.79329" lon="6.40045">
        <ele>1249</ele>
        <time>2022-08-14T10:26:16Z</time>
      </trkpt>
      <trkpt lat="46.79329" lon="6.40029">
        <ele>1249</ele>
        <time>2022-08-14T10:26:21Z</time>
      </trkpt>
      <trkpt lat="46.79329" lon="6.40015">
        <ele>1251</ele>
        <time>2022-08-14T10:26:26Z</time>
      </trkpt>
      <trkpt lat="46.79329" lon="6.40002">
        <ele>1251</ele>
        <time>2022-08-14T10:26:30Z</time>
      </trkpt>
      <trkpt lat="46.7932" lon="6.39996">
        <ele>1251</ele>
        <time>2022-08-14T10:26:34Z</time>
      </trkpt>
      <trkpt lat="46.79311" lon="6.39986">
        <ele>1251</ele>
        <time>2022-08-14T10:26:41Z</time>
      </trkpt>
      <trkpt lat="46.79304" lon="6.39977">
        <ele>1251</ele>
        <time>2022-08-14T10:26:47Z</time>
      </trkpt>
      <trkpt lat="46.79298" lon="6.39966">
        <ele>1250</ele>
        <time>2022-08-14T10:26:52Z</time>
      </trkpt>
      <trkpt lat="46.79297" lon="6.39953">
        <ele>1249</ele>
        <time>2022-08-14T10:26:58Z</time>
      </trkpt>
      <trkpt lat="46.79297" lon="6.39939">
        <ele>1251</ele>
        <time>2022-08-14T10:27:06Z</time>
      </trkpt>
      <trkpt lat="46.79296" lon="6.39925">
        <ele>1252</ele>
        <time>2022-08-14T10:27:12Z</time>
      </trkpt>
      <trkpt lat="46.79297" lon="6.39911">
        <ele>1254</ele>
        <time>2022-08-14T10:27:19Z</time>
      </trkpt>
      <trkpt lat="46.793" lon="6.39898">
        <ele>1255</ele>
        <time>2022-08-14T10:27:28Z</time>
      </trkpt>
      <trkpt lat="46.79314" lon="6.3988">
        <ele>1256</ele>
        <time>2022-08-14T10:28:04Z</time>
      </trkpt>
      <trkpt lat="46.79323" lon="6.39872">
        <ele>1257</ele>
        <time>2022-08-14T10:28:10Z</time>
      </trkpt>
      <trkpt lat="46.7933" lon="6.39863">
        <ele>1259</ele>
        <time>2022-08-14T10:28:18Z</time>
      </trkpt>
      <trkpt lat="46.79338" lon="6.39853">
        <ele>1260</ele>
        <time>2022-08-14T10:28:24Z</time>
      </trkpt>
      <trkpt lat="46.79346" lon="6.39845">
        <ele>1261</ele>
        <time>2022-08-14T10:28:32Z</time>
      </trkpt>
      <trkpt lat="46.79355" lon="6.3984">
        <ele>1261</ele>
        <time>2022-08-14T10:28:37Z</time>
      </trkpt>
      <trkpt lat="46.79363" lon="6.39833">
        <ele>1262</ele>
        <time>2022-08-14T10:28:43Z</time>
      </trkpt>
      <trkpt lat="46.79372" lon="6.39826">
        <ele>1263</ele>
        <time>2022-08-14T10:28:49Z</time>
      </trkpt>
      <trkpt lat="46.79379" lon="6.39818">
        <ele>1265</ele>
        <time>2022-08-14T10:28:56Z</time>
      </trkpt>
      <trkpt lat="46.79386" lon="6.39809">
        <ele>1266</ele>
        <time>2022-08-14T10:29:03Z</time>
      </trkpt>
      <trkpt lat="46.79389" lon="6.39796">
        <ele>1267</ele>
        <time>2022-08-14T10:29:10Z</time>
      </trkpt>
      <trkpt lat="46.79388" lon="6.39782">
        <ele>1268</ele>
        <time>2022-08-14T10:29:16Z</time>
      </trkpt>
      <trkpt lat="46.79386" lon="6.3977">
        <ele>1267</ele>
        <time>2022-08-14T10:29:22Z</time>
      </trkpt>
      <trkpt lat="46.79383" lon="6.39756">
        <ele>1268</ele>
        <time>2022-08-14T10:29:27Z</time>
      </trkpt>
      <trkpt lat="46.79379" lon="6.39744">
        <ele>1269</ele>
        <time>2022-08-14T10:29:31Z</time>
      </trkpt>
      <trkpt lat="46.79375" lon="6.39731">
        <ele>1269</ele>
        <time>2022-08-14T10:29:35Z</time>
      </trkpt>
      <trkpt lat="46.79371" lon="6.39718">
        <ele>1269</ele>
        <time>2022-08-14T10:29:38Z</time>
      </trkpt>
      <trkpt lat="46.79368" lon="6.39704">
        <ele>1269</ele>
        <time>2022-08-14T10:29:43Z</time>
      </trkpt>
      <trkpt lat="46.79365" lon="6.39692">
        <ele>1270</ele>
        <time>2022-08-14T10:29:47Z</time>
      </trkpt>
      <trkpt lat="46.79365" lon="6.39678">
        <ele>1271</ele>
        <time>2022-08-14T10:29:53Z</time>
      </trkpt>
      <trkpt lat="46.79372" lon="6.39669">
        <ele>1271</ele>
        <time>2022-08-14T10:29:59Z</time>
      </trkpt>
      <trkpt lat="46.79381" lon="6.39665">
        <ele>1271</ele>
        <time>2022-08-14T10:30:05Z</time>
      </trkpt>
      <trkpt lat="46.79388" lon="6.39654">
        <ele>1271</ele>
        <time>2022-08-14T10:37:53Z</time>
      </trkpt>
      <trkpt lat="46.79396" lon="6.39645">
        <ele>1271</ele>
        <time>2022-08-14T10:37:57Z</time>
      </trkpt>
      <trkpt lat="46.79403" lon="6.39636">
        <ele>1271</ele>
        <time>2022-08-14T10:37:59Z</time>
      </trkpt>
      <trkpt lat="46.79411" lon="6.39628">
        <ele>1270</ele>
        <time>2022-08-14T10:38:01Z</time>
      </trkpt>
      <trkpt lat="46.79423" lon="6.39615">
        <ele>1268</ele>
        <time>2022-08-14T10:38:04Z</time>
      </trkpt>
      <trkpt lat="46.79431" lon="6.39606">
        <ele>1268</ele>
        <time>2022-08-14T10:38:06Z</time>
      </trkpt>
      <trkpt lat="46.7944" lon="6.39595">
        <ele>1267</ele>
        <time>2022-08-14T10:38:08Z</time>
      </trkpt>
      <trkpt lat="46.79449" lon="6.39586">
        <ele>1266</ele>
        <time>2022-08-14T10:38:10Z</time>
      </trkpt>
      <trkpt lat="46.79458" lon="6.39577">
        <ele>1265</ele>
        <time>2022-08-14T10:38:12Z</time>
      </trkpt>
      <trkpt lat="46.79466" lon="6.39568">
        <ele>1264</ele>
        <time>2022-08-14T10:38:14Z</time>
      </trkpt>
      <trkpt lat="46.79476" lon="6.3956">
        <ele>1264</ele>
        <time>2022-08-14T10:38:16Z</time>
      </trkpt>
      <trkpt lat="46.79487" lon="6.39551">
        <ele>1262</ele>
        <time>2022-08-14T10:38:18Z</time>
      </trkpt>
      <trkpt lat="46.795" lon="6.39542">
        <ele>1260</ele>
        <time>2022-08-14T10:38:20Z</time>
      </trkpt>
      <trkpt lat="46.79515" lon="6.39535">
        <ele>1259</ele>
        <time>2022-08-14T10:38:22Z</time>
      </trkpt>
      <trkpt lat="46.7953" lon="6.39529">
        <ele>1258</ele>
        <time>2022-08-14T10:38:24Z</time>
      </trkpt>
      <trkpt lat="46.79546" lon="6.39523">
        <ele>1258</ele>
        <time>2022-08-14T10:38:26Z</time>
      </trkpt>
      <trkpt lat="46.7956" lon="6.39518">
        <ele>1257</ele>
        <time>2022-08-14T10:38:28Z</time>
      </trkpt>
      <trkpt lat="46.79574" lon="6.39513">
        <ele>1257</ele>
        <time>2022-08-14T10:38:30Z</time>
      </trkpt>
      <trkpt lat="46.79586" lon="6.39509">
        <ele>1257</ele>
        <time>2022-08-14T10:38:32Z</time>
      </trkpt>
      <trkpt lat="46.79598" lon="6.39506">
        <ele>1257</ele>
        <time>2022-08-14T10:38:34Z</time>
      </trkpt>
      <trkpt lat="46.79608" lon="6.39502">
        <ele>1257</ele>
        <time>2022-08-14T10:38:36Z</time>
      </trkpt>
      <trkpt lat="46.79618" lon="6.39499">
        <ele>1257</ele>
        <time>2022-08-14T10:38:38Z</time>
      </trkpt>
      <trkpt lat="46.79628" lon="6.39496">
        <ele>1257</ele>
        <time>2022-08-14T10:38:40Z</time>
      </trkpt>
      <trkpt lat="46.79638" lon="6.39492">
        <ele>1257</ele>
        <time>2022-08-14T10:38:42Z</time>
      </trkpt>
      <trkpt lat="46.79648" lon="6.3949">
        <ele>1257</ele>
        <time>2022-08-14T10:38:44Z</time>
      </trkpt>
      <trkpt lat="46.79657" lon="6.39487">
        <ele>1257</ele>
        <time>2022-08-14T10:38:46Z</time>
      </trkpt>
      <trkpt lat="46.79667" lon="6.39485">
        <ele>1257</ele>
        <time>2022-08-14T10:38:48Z</time>
      </trkpt>
      <trkpt lat="46.79677" lon="6.39483">
        <ele>1256</ele>
        <time>2022-08-14T10:38:50Z</time>
      </trkpt>
      <trkpt lat="46.79689" lon="6.3948">
        <ele>1256</ele>
        <time>2022-08-14T10:38:52Z</time>
      </trkpt>
      <trkpt lat="46.79699" lon="6.39473">
        <ele>1256</ele>
        <time>2022-08-14T10:38:54Z</time>
      </trkpt>
      <trkpt lat="46.79707" lon="6.39464">
        <ele>1256</ele>
        <time>2022-08-14T10:38:56Z</time>
      </trkpt>
      <trkpt lat="46.79715" lon="6.39457">
        <ele>1256</ele>
        <time>2022-08-14T10:38:59Z</time>
      </trkpt>
      <trkpt lat="46.79726" lon="6.3947">
        <ele>1257</ele>
        <time>2022-08-14T10:39:02Z</time>
      </trkpt>
      <trkpt lat="46.79732" lon="6.39482">
        <ele>1258</ele>
        <time>2022-08-14T10:39:05Z</time>
      </trkpt>
      <trkpt lat="46.79737" lon="6.39494">
        <ele>1258</ele>
        <time>2022-08-14T10:39:07Z</time>
      </trkpt>
      <trkpt lat="46.79744" lon="6.39511">
        <ele>1259</ele>
        <time>2022-08-14T10:39:10Z</time>
      </trkpt>
      <trkpt lat="46.79749" lon="6.39523">
        <ele>1259</ele>
        <time>2022-08-14T10:39:13Z</time>
      </trkpt>
      <trkpt lat="46.79756" lon="6.39536">
        <ele>1260</ele>
        <time>2022-08-14T10:39:17Z</time>
      </trkpt>
      <trkpt lat="46.79763" lon="6.39547">
        <ele>1260</ele>
        <time>2022-08-14T10:39:20Z</time>
      </trkpt>
      <trkpt lat="46.7977" lon="6.39563">
        <ele>1260</ele>
        <time>2022-08-14T10:39:24Z</time>
      </trkpt>
      <trkpt lat="46.79775" lon="6.39577">
        <ele>1260</ele>
        <time>2022-08-14T10:39:27Z</time>
      </trkpt>
      <trkpt lat="46.7978" lon="6.39591">
        <ele>1260</ele>
        <time>2022-08-14T10:39:30Z</time>
      </trkpt>
      <trkpt lat="46.79784" lon="6.39606">
        <ele>1261</ele>
        <time>2022-08-14T10:39:33Z</time>
      </trkpt>
      <trkpt lat="46.79788" lon="6.39619">
        <ele>1261</ele>
        <time>2022-08-14T10:39:36Z</time>
      </trkpt>
      <trkpt lat="46.79791" lon="6.39632">
        <ele>1261</ele>
        <time>2022-08-14T10:39:39Z</time>
      </trkpt>
      <trkpt lat="46.79795" lon="6.39649">
        <ele>1262</ele>
        <time>2022-08-14T10:39:43Z</time>
      </trkpt>
      <trkpt lat="46.79797" lon="6.39663">
        <ele>1262</ele>
        <time>2022-08-14T10:39:46Z</time>
      </trkpt>
      <trkpt lat="46.79799" lon="6.39679">
        <ele>1263</ele>
        <time>2022-08-14T10:39:49Z</time>
      </trkpt>
      <trkpt lat="46.79801" lon="6.39693">
        <ele>1263</ele>
        <time>2022-08-14T10:39:52Z</time>
      </trkpt>
      <trkpt lat="46.79804" lon="6.3971">
        <ele>1264</ele>
        <time>2022-08-14T10:39:56Z</time>
      </trkpt>
      <trkpt lat="46.79806" lon="6.39724">
        <ele>1264</ele>
        <time>2022-08-14T10:39:59Z</time>
      </trkpt>
      <trkpt lat="46.79808" lon="6.39739">
        <ele>1264</ele>
        <time>2022-08-14T10:40:02Z</time>
      </trkpt>
      <trkpt lat="46.79813" lon="6.39752">
        <ele>1264</ele>
        <time>2022-08-14T10:40:05Z</time>
      </trkpt>
      <trkpt lat="46.79821" lon="6.39763">
        <ele>1264</ele>
        <time>2022-08-14T10:40:07Z</time>
      </trkpt>
      <trkpt lat="46.79833" lon="6.39774">
        <ele>1263</ele>
        <time>2022-08-14T10:40:10Z</time>
      </trkpt>
      <trkpt lat="46.79842" lon="6.39783">
        <ele>1263</ele>
        <time>2022-08-14T10:40:12Z</time>
      </trkpt>
      <trkpt lat="46.79851" lon="6.39789">
        <ele>1263</ele>
        <time>2022-08-14T10:40:14Z</time>
      </trkpt>
      <trkpt lat="46.79859" lon="6.39794">
        <ele>1263</ele>
        <time>2022-08-14T10:40:16Z</time>
      </trkpt>
      <trkpt lat="46.79868" lon="6.39798">
        <ele>1263</ele>
        <time>2022-08-14T10:40:18Z</time>
      </trkpt>
      <trkpt lat="46.79878" lon="6.39802">
        <ele>1263</ele>
        <time>2022-08-14T10:40:20Z</time>
      </trkpt>
      <trkpt lat="46.79888" lon="6.39806">
        <ele>1263</ele>
        <time>2022-08-14T10:40:22Z</time>
      </trkpt>
      <trkpt lat="46.79898" lon="6.3981">
        <ele>1263</ele>
        <time>2022-08-14T10:40:24Z</time>
      </trkpt>
      <trkpt lat="46.7991" lon="6.39814">
        <ele>1264</ele>
        <time>2022-08-14T10:40:27Z</time>
      </trkpt>
      <trkpt lat="46.79923" lon="6.39817">
        <ele>1264</ele>
        <time>2022-08-14T10:40:30Z</time>
      </trkpt>
      <trkpt lat="46.79932" lon="6.39822">
        <ele>1266</ele>
        <time>2022-08-14T10:40:32Z</time>
      </trkpt>
      <trkpt lat="46.7994" lon="6.39832">
        <ele>1265</ele>
        <time>2022-08-14T10:40:35Z</time>
      </trkpt>
      <trkpt lat="46.79946" lon="6.39841">
        <ele>1266</ele>
        <time>2022-08-14T10:40:37Z</time>
      </trkpt>
      <trkpt lat="46.79953" lon="6.39853">
        <ele>1267</ele>
        <time>2022-08-14T10:40:40Z</time>
      </trkpt>
      <trkpt lat="46.79958" lon="6.39867">
        <ele>1267</ele>
        <time>2022-08-14T10:40:42Z</time>
      </trkpt>
      <trkpt lat="46.79963" lon="6.39889">
        <ele>1267</ele>
        <time>2022-08-14T10:40:47Z</time>
      </trkpt>
      <trkpt lat="46.79966" lon="6.39905">
        <ele>1268</ele>
        <time>2022-08-14T10:40:49Z</time>
      </trkpt>
      <trkpt lat="46.79968" lon="6.39922">
        <ele>1267</ele>
        <time>2022-08-14T10:40:53Z</time>
      </trkpt>
      <trkpt lat="46.79971" lon="6.39937">
        <ele>1268</ele>
        <time>2022-08-14T10:40:56Z</time>
      </trkpt>
      <trkpt lat="46.79973" lon="6.39952">
        <ele>1269</ele>
        <time>2022-08-14T10:40:59Z</time>
      </trkpt>
      <trkpt lat="46.79976" lon="6.39968">
        <ele>1270</ele>
        <time>2022-08-14T10:41:03Z</time>
      </trkpt>
      <trkpt lat="46.7998" lon="6.39984">
        <ele>1271</ele>
        <time>2022-08-14T10:41:07Z</time>
      </trkpt>
      <trkpt lat="46.79987" lon="6.39997">
        <ele>1272</ele>
        <time>2022-08-14T10:41:11Z</time>
      </trkpt>
      <trkpt lat="46.79994" lon="6.4001">
        <ele>1272</ele>
        <time>2022-08-14T10:41:15Z</time>
      </trkpt>
      <trkpt lat="46.79999" lon="6.40021">
        <ele>1272</ele>
        <time>2022-08-14T10:41:18Z</time>
      </trkpt>
      <trkpt lat="46.80005" lon="6.40033">
        <ele>1272</ele>
        <time>2022-08-14T10:41:21Z</time>
      </trkpt>
      <trkpt lat="46.8001" lon="6.40047">
        <ele>1272</ele>
        <time>2022-08-14T10:41:24Z</time>
      </trkpt>
      <trkpt lat="46.80016" lon="6.4006">
        <ele>1272</ele>
        <time>2022-08-14T10:41:26Z</time>
      </trkpt>
      <trkpt lat="46.80022" lon="6.40071">
        <ele>1272</ele>
        <time>2022-08-14T10:41:29Z</time>
      </trkpt>
      <trkpt lat="46.80029" lon="6.40089">
        <ele>1271</ele>
        <time>2022-08-14T10:41:32Z</time>
      </trkpt>
      <trkpt lat="46.80034" lon="6.40103">
        <ele>1271</ele>
        <time>2022-08-14T10:41:34Z</time>
      </trkpt>
      <trkpt lat="46.80039" lon="6.40117">
        <ele>1271</ele>
        <time>2022-08-14T10:41:36Z</time>
      </trkpt>
      <trkpt lat="46.80045" lon="6.40129">
        <ele>1272</ele>
        <time>2022-08-14T10:41:38Z</time>
      </trkpt>
      <trkpt lat="46.80052" lon="6.40139">
        <ele>1272</ele>
        <time>2022-08-14T10:41:40Z</time>
      </trkpt>
      <trkpt lat="46.80064" lon="6.40143">
        <ele>1273</ele>
        <time>2022-08-14T10:41:43Z</time>
      </trkpt>
      <trkpt lat="46.80075" lon="6.40141">
        <ele>1273</ele>
        <time>2022-08-14T10:41:45Z</time>
      </trkpt>
      <trkpt lat="46.80085" lon="6.40136">
        <ele>1274</ele>
        <time>2022-08-14T10:41:49Z</time>
      </trkpt>
      <trkpt lat="46.80095" lon="6.40131">
        <ele>1274</ele>
        <time>2022-08-14T10:41:52Z</time>
      </trkpt>
      <trkpt lat="46.80106" lon="6.40124">
        <ele>1274</ele>
        <time>2022-08-14T10:41:55Z</time>
      </trkpt>
      <trkpt lat="46.80115" lon="6.40117">
        <ele>1274</ele>
        <time>2022-08-14T10:41:57Z</time>
      </trkpt>
      <trkpt lat="46.80123" lon="6.4011">
        <ele>1273</ele>
        <time>2022-08-14T10:41:59Z</time>
      </trkpt>
      <trkpt lat="46.80132" lon="6.40101">
        <ele>1272</ele>
        <time>2022-08-14T10:42:01Z</time>
      </trkpt>
      <trkpt lat="46.80143" lon="6.40091">
        <ele>1271</ele>
        <time>2022-08-14T10:42:03Z</time>
      </trkpt>
      <trkpt lat="46.80155" lon="6.40082">
        <ele>1270</ele>
        <time>2022-08-14T10:42:05Z</time>
      </trkpt>
      <trkpt lat="46.80168" lon="6.40073">
        <ele>1270</ele>
        <time>2022-08-14T10:42:07Z</time>
      </trkpt>
      <trkpt lat="46.80181" lon="6.40068">
        <ele>1270</ele>
        <time>2022-08-14T10:42:09Z</time>
      </trkpt>
      <trkpt lat="46.80193" lon="6.40067">
        <ele>1271</ele>
        <time>2022-08-14T10:42:11Z</time>
      </trkpt>
      <trkpt lat="46.80205" lon="6.40068">
        <ele>1271</ele>
        <time>2022-08-14T10:42:13Z</time>
      </trkpt>
      <trkpt lat="46.80216" lon="6.40068">
        <ele>1272</ele>
        <time>2022-08-14T10:42:15Z</time>
      </trkpt>
      <trkpt lat="46.80227" lon="6.4007">
        <ele>1273</ele>
        <time>2022-08-14T10:42:17Z</time>
      </trkpt>
      <trkpt lat="46.80237" lon="6.40074">
        <ele>1273</ele>
        <time>2022-08-14T10:42:19Z</time>
      </trkpt>
      <trkpt lat="46.80247" lon="6.40079">
        <ele>1272</ele>
        <time>2022-08-14T10:42:21Z</time>
      </trkpt>
      <trkpt lat="46.80258" lon="6.40085">
        <ele>1271</ele>
        <time>2022-08-14T10:42:23Z</time>
      </trkpt>
      <trkpt lat="46.80269" lon="6.40092">
        <ele>1271</ele>
        <time>2022-08-14T10:42:25Z</time>
      </trkpt>
      <trkpt lat="46.8028" lon="6.401">
        <ele>1271</ele>
        <time>2022-08-14T10:42:27Z</time>
      </trkpt>
      <trkpt lat="46.80291" lon="6.4011">
        <ele>1270</ele>
        <time>2022-08-14T10:42:29Z</time>
      </trkpt>
      <trkpt lat="46.80302" lon="6.40121">
        <ele>1269</ele>
        <time>2022-08-14T10:42:31Z</time>
      </trkpt>
      <trkpt lat="46.80314" lon="6.40133">
        <ele>1268</ele>
        <time>2022-08-14T10:42:33Z</time>
      </trkpt>
      <trkpt lat="46.80327" lon="6.40146">
        <ele>1268</ele>
        <time>2022-08-14T10:42:35Z</time>
      </trkpt>
      <trkpt lat="46.8034" lon="6.4016">
        <ele>1267</ele>
        <time>2022-08-14T10:42:37Z</time>
      </trkpt>
      <trkpt lat="46.80352" lon="6.40173">
        <ele>1266</ele>
        <time>2022-08-14T10:42:39Z</time>
      </trkpt>
      <trkpt lat="46.80362" lon="6.40191">
        <ele>1264</ele>
        <time>2022-08-14T10:42:41Z</time>
      </trkpt>
      <trkpt lat="46.80364" lon="6.40205">
        <ele>1263</ele>
        <time>2022-08-14T10:42:42Z</time>
      </trkpt>
      <trkpt lat="46.80363" lon="6.40219">
        <ele>1262</ele>
        <time>2022-08-14T10:42:43Z</time>
      </trkpt>
      <trkpt lat="46.80361" lon="6.40232">
        <ele>1261</ele>
        <time>2022-08-14T10:42:44Z</time>
      </trkpt>
      <trkpt lat="46.80357" lon="6.40246">
        <ele>1261</ele>
        <time>2022-08-14T10:42:45Z</time>
      </trkpt>
      <trkpt lat="46.80354" lon="6.40259">
        <ele>1261</ele>
        <time>2022-08-14T10:42:46Z</time>
      </trkpt>
      <trkpt lat="46.80352" lon="6.40272">
        <ele>1260</ele>
        <time>2022-08-14T10:42:47Z</time>
      </trkpt>
      <trkpt lat="46.8035" lon="6.40285">
        <ele>1260</ele>
        <time>2022-08-14T10:42:48Z</time>
      </trkpt>
      <trkpt lat="46.80348" lon="6.40299">
        <ele>1260</ele>
        <time>2022-08-14T10:42:49Z</time>
      </trkpt>
      <trkpt lat="46.80347" lon="6.40313">
        <ele>1259</ele>
        <time>2022-08-14T10:42:50Z</time>
      </trkpt>
      <trkpt lat="46.80346" lon="6.40326">
        <ele>1259</ele>
        <time>2022-08-14T10:42:51Z</time>
      </trkpt>
      <trkpt lat="46.80346" lon="6.4034">
        <ele>1259</ele>
        <time>2022-08-14T10:42:52Z</time>
      </trkpt>
      <trkpt lat="46.80346" lon="6.40353">
        <ele>1259</ele>
        <time>2022-08-14T10:42:53Z</time>
      </trkpt>
      <trkpt lat="46.80347" lon="6.40367">
        <ele>1258</ele>
        <time>2022-08-14T10:42:54Z</time>
      </trkpt>
      <trkpt lat="46.80347" lon="6.40381">
        <ele>1258</ele>
        <time>2022-08-14T10:42:55Z</time>
      </trkpt>
      <trkpt lat="46.80349" lon="6.40396">
        <ele>1258</ele>
        <time>2022-08-14T10:42:56Z</time>
      </trkpt>
      <trkpt lat="46.8035" lon="6.4041">
        <ele>1257</ele>
        <time>2022-08-14T10:42:57Z</time>
      </trkpt>
      <trkpt lat="46.80352" lon="6.40425">
        <ele>1257</ele>
        <time>2022-08-14T10:42:58Z</time>
      </trkpt>
      <trkpt lat="46.80353" lon="6.40439">
        <ele>1257</ele>
        <time>2022-08-14T10:42:59Z</time>
      </trkpt>
      <trkpt lat="46.80355" lon="6.40454">
        <ele>1256</ele>
        <time>2022-08-14T10:43:00Z</time>
      </trkpt>
      <trkpt lat="46.80356" lon="6.40469">
        <ele>1256</ele>
        <time>2022-08-14T10:43:01Z</time>
      </trkpt>
      <trkpt lat="46.80358" lon="6.40483">
        <ele>1255</ele>
        <time>2022-08-14T10:43:02Z</time>
      </trkpt>
      <trkpt lat="46.80359" lon="6.40497">
        <ele>1255</ele>
        <time>2022-08-14T10:43:03Z</time>
      </trkpt>
      <trkpt lat="46.80361" lon="6.40512">
        <ele>1254</ele>
        <time>2022-08-14T10:43:04Z</time>
      </trkpt>
      <trkpt lat="46.80362" lon="6.40527">
        <ele>1254</ele>
        <time>2022-08-14T10:43:05Z</time>
      </trkpt>
      <trkpt lat="46.80364" lon="6.40541">
        <ele>1253</ele>
        <time>2022-08-14T10:43:06Z</time>
      </trkpt>
      <trkpt lat="46.80365" lon="6.40556">
        <ele>1252</ele>
        <time>2022-08-14T10:43:07Z</time>
      </trkpt>
      <trkpt lat="46.80365" lon="6.40572">
        <ele>1252</ele>
        <time>2022-08-14T10:43:08Z</time>
      </trkpt>
      <trkpt lat="46.80366" lon="6.40587">
        <ele>1251</ele>
        <time>2022-08-14T10:43:09Z</time>
      </trkpt>
      <trkpt lat="46.80368" lon="6.40602">
        <ele>1250</ele>
        <time>2022-08-14T10:43:10Z</time>
      </trkpt>
      <trkpt lat="46.80372" lon="6.40618">
        <ele>1249</ele>
        <time>2022-08-14T10:43:11Z</time>
      </trkpt>
      <trkpt lat="46.80376" lon="6.40633">
        <ele>1248</ele>
        <time>2022-08-14T10:43:12Z</time>
      </trkpt>
      <trkpt lat="46.80381" lon="6.40649">
        <ele>1247</ele>
        <time>2022-08-14T10:43:13Z</time>
      </trkpt>
      <trkpt lat="46.80386" lon="6.40665">
        <ele>1246</ele>
        <time>2022-08-14T10:43:14Z</time>
      </trkpt>
      <trkpt lat="46.80391" lon="6.40681">
        <ele>1245</ele>
        <time>2022-08-14T10:43:15Z</time>
      </trkpt>
      <trkpt lat="46.80396" lon="6.40698">
        <ele>1245</ele>
        <time>2022-08-14T10:43:16Z</time>
      </trkpt>
      <trkpt lat="46.80399" lon="6.40715">
        <ele>1245</ele>
        <time>2022-08-14T10:43:17Z</time>
      </trkpt>
      <trkpt lat="46.80401" lon="6.40732">
        <ele>1245</ele>
        <time>2022-08-14T10:43:18Z</time>
      </trkpt>
      <trkpt lat="46.80402" lon="6.40749">
        <ele>1245</ele>
        <time>2022-08-14T10:43:19Z</time>
      </trkpt>
      <trkpt lat="46.80403" lon="6.40764">
        <ele>1246</ele>
        <time>2022-08-14T10:43:20Z</time>
      </trkpt>
      <trkpt lat="46.80405" lon="6.40778">
        <ele>1247</ele>
        <time>2022-08-14T10:43:21Z</time>
      </trkpt>
      <trkpt lat="46.8041" lon="6.40801">
        <ele>1249</ele>
        <time>2022-08-14T10:43:23Z</time>
      </trkpt>
      <trkpt lat="46.80414" lon="6.40821">
        <ele>1249</ele>
        <time>2022-08-14T10:43:25Z</time>
      </trkpt>
      <trkpt lat="46.80417" lon="6.40838">
        <ele>1249</ele>
        <time>2022-08-14T10:43:27Z</time>
      </trkpt>
      <trkpt lat="46.80424" lon="6.40849">
        <ele>1250</ele>
        <time>2022-08-14T10:43:29Z</time>
      </trkpt>
      <trkpt lat="46.80429" lon="6.4086">
        <ele>1250</ele>
        <time>2022-08-14T10:43:32Z</time>
      </trkpt>
      <trkpt lat="46.8043" lon="6.40878">
        <ele>1250</ele>
        <time>2022-08-14T10:43:35Z</time>
      </trkpt>
      <trkpt lat="46.80429" lon="6.40894">
        <ele>1250</ele>
        <time>2022-08-14T10:43:37Z</time>
      </trkpt>
      <trkpt lat="46.80428" lon="6.40909">
        <ele>1250</ele>
        <time>2022-08-14T10:43:39Z</time>
      </trkpt>
      <trkpt lat="46.8043" lon="6.40926">
        <ele>1248</ele>
        <time>2022-08-14T10:43:41Z</time>
      </trkpt>
      <trkpt lat="46.80435" lon="6.40943">
        <ele>1248</ele>
        <time>2022-08-14T10:43:43Z</time>
      </trkpt>
      <trkpt lat="46.80439" lon="6.40962">
        <ele>1247</ele>
        <time>2022-08-14T10:43:45Z</time>
      </trkpt>
      <trkpt lat="46.80445" lon="6.40982">
        <ele>1245</ele>
        <time>2022-08-14T10:43:47Z</time>
      </trkpt>
      <trkpt lat="46.80448" lon="6.41004">
        <ele>1243</ele>
        <time>2022-08-14T10:43:49Z</time>
      </trkpt>
      <trkpt lat="46.8045" lon="6.41028">
        <ele>1242</ele>
        <time>2022-08-14T10:43:51Z</time>
      </trkpt>
      <trkpt lat="46.80455" lon="6.41045">
        <ele>1241</ele>
        <time>2022-08-14T10:43:53Z</time>
      </trkpt>
      <trkpt lat="46.80466" lon="6.41053">
        <ele>1240</ele>
        <time>2022-08-14T10:43:55Z</time>
      </trkpt>
      <trkpt lat="46.80481" lon="6.41054">
        <ele>1238</ele>
        <time>2022-08-14T10:43:57Z</time>
      </trkpt>
      <trkpt lat="46.80496" lon="6.41056">
        <ele>1237</ele>
        <time>2022-08-14T10:43:59Z</time>
      </trkpt>
      <trkpt lat="46.80514" lon="6.41062">
        <ele>1234</ele>
        <time>2022-08-14T10:44:01Z</time>
      </trkpt>
      <trkpt lat="46.80523" lon="6.41065">
        <ele>1234</ele>
        <time>2022-08-14T10:44:02Z</time>
      </trkpt>
      <trkpt lat="46.80534" lon="6.41067">
        <ele>1233</ele>
        <time>2022-08-14T10:44:03Z</time>
      </trkpt>
      <trkpt lat="46.80544" lon="6.4107">
        <ele>1231</ele>
        <time>2022-08-14T10:44:04Z</time>
      </trkpt>
      <trkpt lat="46.80554" lon="6.41074">
        <ele>1230</ele>
        <time>2022-08-14T10:44:05Z</time>
      </trkpt>
      <trkpt lat="46.80564" lon="6.4108">
        <ele>1229</ele>
        <time>2022-08-14T10:44:06Z</time>
      </trkpt>
      <trkpt lat="46.80573" lon="6.41086">
        <ele>1229</ele>
        <time>2022-08-14T10:44:07Z</time>
      </trkpt>
      <trkpt lat="46.80583" lon="6.41091">
        <ele>1229</ele>
        <time>2022-08-14T10:44:08Z</time>
      </trkpt>
      <trkpt lat="46.80591" lon="6.41095">
        <ele>1229</ele>
        <time>2022-08-14T10:44:09Z</time>
      </trkpt>
      <trkpt lat="46.80606" lon="6.41101">
        <ele>1229</ele>
        <time>2022-08-14T10:44:11Z</time>
      </trkpt>
      <trkpt lat="46.80615" lon="6.41102">
        <ele>1230</ele>
        <time>2022-08-14T10:44:14Z</time>
      </trkpt>
      <trkpt lat="46.80607" lon="6.41113">
        <ele>1231</ele>
        <time>2022-08-14T10:44:18Z</time>
      </trkpt>
      <trkpt lat="46.80611" lon="6.41127">
        <ele>1230</ele>
        <time>2022-08-14T10:44:31Z</time>
      </trkpt>
      <trkpt lat="46.80616" lon="6.4114">
        <ele>1229</ele>
        <time>2022-08-14T10:44:34Z</time>
      </trkpt>
      <trkpt lat="46.80622" lon="6.41166">
        <ele>1230</ele>
        <time>2022-08-14T10:44:39Z</time>
      </trkpt>
      <trkpt lat="46.80624" lon="6.41192">
        <ele>1230</ele>
        <time>2022-08-14T10:44:44Z</time>
      </trkpt>
      <trkpt lat="46.80627" lon="6.41219">
        <ele>1229</ele>
        <time>2022-08-14T10:44:48Z</time>
      </trkpt>
      <trkpt lat="46.80629" lon="6.4124">
        <ele>1230</ele>
        <time>2022-08-14T10:44:51Z</time>
      </trkpt>
      <trkpt lat="46.80631" lon="6.41255">
        <ele>1229</ele>
        <time>2022-08-14T10:44:53Z</time>
      </trkpt>
      <trkpt lat="46.80633" lon="6.41271">
        <ele>1229</ele>
        <time>2022-08-14T10:44:55Z</time>
      </trkpt>
      <trkpt lat="46.80636" lon="6.41285">
        <ele>1227</ele>
        <time>2022-08-14T10:44:57Z</time>
      </trkpt>
      <trkpt lat="46.80639" lon="6.41299">
        <ele>1227</ele>
        <time>2022-08-14T10:44:59Z</time>
      </trkpt>
      <trkpt lat="46.8064" lon="6.41313">
        <ele>1226</ele>
        <time>2022-08-14T10:45:01Z</time>
      </trkpt>
      <trkpt lat="46.80642" lon="6.41329">
        <ele>1225</ele>
        <time>2022-08-14T10:45:03Z</time>
      </trkpt>
      <trkpt lat="46.80645" lon="6.41346">
        <ele>1224</ele>
        <time>2022-08-14T10:45:05Z</time>
      </trkpt>
      <trkpt lat="46.8065" lon="6.41363">
        <ele>1223</ele>
        <time>2022-08-14T10:45:07Z</time>
      </trkpt>
      <trkpt lat="46.80653" lon="6.41378">
        <ele>1223</ele>
        <time>2022-08-14T10:45:09Z</time>
      </trkpt>
      <trkpt lat="46.80656" lon="6.41393">
        <ele>1222</ele>
        <time>2022-08-14T10:45:11Z</time>
      </trkpt>
      <trkpt lat="46.80661" lon="6.41408">
        <ele>1222</ele>
        <time>2022-08-14T10:45:15Z</time>
      </trkpt>
      <trkpt lat="46.8067" lon="6.41413">
        <ele>1221</ele>
        <time>2022-08-14T10:45:32Z</time>
      </trkpt>
      <trkpt lat="46.80676" lon="6.41426">
        <ele>1223</ele>
        <time>2022-08-14T10:45:40Z</time>
      </trkpt>
      <trkpt lat="46.80679" lon="6.41443">
        <ele>1223</ele>
        <time>2022-08-14T10:45:44Z</time>
      </trkpt>
      <trkpt lat="46.80685" lon="6.41466">
        <ele>1223</ele>
        <time>2022-08-14T10:45:49Z</time>
      </trkpt>
      <trkpt lat="46.8069" lon="6.41485">
        <ele>1223</ele>
        <time>2022-08-14T10:45:54Z</time>
      </trkpt>
      <trkpt lat="46.80693" lon="6.41497">
        <ele>1222</ele>
        <time>2022-08-14T10:45:58Z</time>
      </trkpt>
      <trkpt lat="46.80692" lon="6.41514">
        <ele>1222</ele>
        <time>2022-08-14T10:46:03Z</time>
      </trkpt>
      <trkpt lat="46.8069" lon="6.41527">
        <ele>1221</ele>
        <time>2022-08-14T10:46:39Z</time>
      </trkpt>
      <trkpt lat="46.807" lon="6.41534">
        <ele>1222</ele>
        <time>2022-08-14T10:46:44Z</time>
      </trkpt>
      <trkpt lat="46.80705" lon="6.41549">
        <ele>1222</ele>
        <time>2022-08-14T10:46:47Z</time>
      </trkpt>
      <trkpt lat="46.80703" lon="6.41564">
        <ele>1219</ele>
        <time>2022-08-14T10:46:51Z</time>
      </trkpt>
      <trkpt lat="46.80703" lon="6.41578">
        <ele>1220</ele>
        <time>2022-08-14T10:46:52Z</time>
      </trkpt>
      <trkpt lat="46.8071" lon="6.41591">
        <ele>1219</ele>
        <time>2022-08-14T10:46:55Z</time>
      </trkpt>
      <trkpt lat="46.80715" lon="6.41602">
        <ele>1219</ele>
        <time>2022-08-14T10:46:58Z</time>
      </trkpt>
      <trkpt lat="46.80721" lon="6.41615">
        <ele>1218</ele>
        <time>2022-08-14T10:47:01Z</time>
      </trkpt>
      <trkpt lat="46.80727" lon="6.41628">
        <ele>1218</ele>
        <time>2022-08-14T10:47:03Z</time>
      </trkpt>
      <trkpt lat="46.80734" lon="6.41644">
        <ele>1217</ele>
        <time>2022-08-14T10:47:06Z</time>
      </trkpt>
      <trkpt lat="46.80739" lon="6.41655">
        <ele>1217</ele>
        <time>2022-08-14T10:47:08Z</time>
      </trkpt>
      <trkpt lat="46.80745" lon="6.41668">
        <ele>1216</ele>
        <time>2022-08-14T10:47:10Z</time>
      </trkpt>
      <trkpt lat="46.80751" lon="6.41682">
        <ele>1215</ele>
        <time>2022-08-14T10:47:12Z</time>
      </trkpt>
      <trkpt lat="46.80758" lon="6.41697">
        <ele>1214</ele>
        <time>2022-08-14T10:47:14Z</time>
      </trkpt>
      <trkpt lat="46.80766" lon="6.41714">
        <ele>1212</ele>
        <time>2022-08-14T10:47:16Z</time>
      </trkpt>
      <trkpt lat="46.80775" lon="6.41736">
        <ele>1209</ele>
        <time>2022-08-14T10:47:18Z</time>
      </trkpt>
      <trkpt lat="46.80784" lon="6.41759">
        <ele>1208</ele>
        <time>2022-08-14T10:47:20Z</time>
      </trkpt>
      <trkpt lat="46.80788" lon="6.41771">
        <ele>1208</ele>
        <time>2022-08-14T10:47:21Z</time>
      </trkpt>
      <trkpt lat="46.80795" lon="6.41789">
        <ele>1209</ele>
        <time>2022-08-14T10:47:23Z</time>
      </trkpt>
      <trkpt lat="46.808" lon="6.41802">
        <ele>1209</ele>
        <time>2022-08-14T10:47:25Z</time>
      </trkpt>
      <trkpt lat="46.80804" lon="6.41814">
        <ele>1209</ele>
        <time>2022-08-14T10:47:27Z</time>
      </trkpt>
      <trkpt lat="46.80811" lon="6.41828">
        <ele>1210</ele>
        <time>2022-08-14T10:47:30Z</time>
      </trkpt>
      <trkpt lat="46.80819" lon="6.41844">
        <ele>1210</ele>
        <time>2022-08-14T10:47:33Z</time>
      </trkpt>
      <trkpt lat="46.80824" lon="6.41857">
        <ele>1211</ele>
        <time>2022-08-14T10:47:35Z</time>
      </trkpt>
      <trkpt lat="46.80829" lon="6.41868">
        <ele>1210</ele>
        <time>2022-08-14T10:47:39Z</time>
      </trkpt>
      <trkpt lat="46.80835" lon="6.41884">
        <ele>1213</ele>
        <time>2022-08-14T10:47:43Z</time>
      </trkpt>
      <trkpt lat="46.80842" lon="6.41904">
        <ele>1213</ele>
        <time>2022-08-14T10:47:47Z</time>
      </trkpt>
      <trkpt lat="46.80848" lon="6.41916">
        <ele>1214</ele>
        <time>2022-08-14T10:47:51Z</time>
      </trkpt>
      <trkpt lat="46.80852" lon="6.41928">
        <ele>1215</ele>
        <time>2022-08-14T10:47:54Z</time>
      </trkpt>
      <trkpt lat="46.80857" lon="6.41941">
        <ele>1216</ele>
        <time>2022-08-14T10:47:57Z</time>
      </trkpt>
      <trkpt lat="46.80862" lon="6.41954">
        <ele>1217</ele>
        <time>2022-08-14T10:48:00Z</time>
      </trkpt>
      <trkpt lat="46.80868" lon="6.41965">
        <ele>1217</ele>
        <time>2022-08-14T10:48:01Z</time>
      </trkpt>
      <trkpt lat="46.80873" lon="6.41978">
        <ele>1217</ele>
        <time>2022-08-14T10:48:04Z</time>
      </trkpt>
      <trkpt lat="46.80877" lon="6.41989">
        <ele>1217</ele>
        <time>2022-08-14T10:48:06Z</time>
      </trkpt>
      <trkpt lat="46.80882" lon="6.42001">
        <ele>1217</ele>
        <time>2022-08-14T10:48:08Z</time>
      </trkpt>
      <trkpt lat="46.80887" lon="6.42013">
        <ele>1216</ele>
        <time>2022-08-14T10:48:10Z</time>
      </trkpt>
      <trkpt lat="46.80893" lon="6.42026">
        <ele>1216</ele>
        <time>2022-08-14T10:48:12Z</time>
      </trkpt>
      <trkpt lat="46.809" lon="6.4204">
        <ele>1214</ele>
        <time>2022-08-14T10:48:14Z</time>
      </trkpt>
      <trkpt lat="46.80907" lon="6.42057">
        <ele>1213</ele>
        <time>2022-08-14T10:48:16Z</time>
      </trkpt>
      <trkpt lat="46.80915" lon="6.42073">
        <ele>1212</ele>
        <time>2022-08-14T10:48:18Z</time>
      </trkpt>
      <trkpt lat="46.80925" lon="6.4209">
        <ele>1210</ele>
        <time>2022-08-14T10:48:20Z</time>
      </trkpt>
      <trkpt lat="46.80937" lon="6.42107">
        <ele>1207</ele>
        <time>2022-08-14T10:48:22Z</time>
      </trkpt>
      <trkpt lat="46.80944" lon="6.42117">
        <ele>1206</ele>
        <time>2022-08-14T10:48:23Z</time>
      </trkpt>
      <trkpt lat="46.8095" lon="6.42127">
        <ele>1205</ele>
        <time>2022-08-14T10:48:24Z</time>
      </trkpt>
      <trkpt lat="46.8096" lon="6.42148">
        <ele>1202</ele>
        <time>2022-08-14T10:48:26Z</time>
      </trkpt>
      <trkpt lat="46.80963" lon="6.42161">
        <ele>1201</ele>
        <time>2022-08-14T10:48:27Z</time>
      </trkpt>
      <trkpt lat="46.80965" lon="6.42174">
        <ele>1200</ele>
        <time>2022-08-14T10:48:28Z</time>
      </trkpt>
      <trkpt lat="46.8097" lon="6.42198">
        <ele>1199</ele>
        <time>2022-08-14T10:48:30Z</time>
      </trkpt>
      <trkpt lat="46.80977" lon="6.42219">
        <ele>1197</ele>
        <time>2022-08-14T10:48:32Z</time>
      </trkpt>
      <trkpt lat="46.80982" lon="6.42238">
        <ele>1195</ele>
        <time>2022-08-14T10:48:34Z</time>
      </trkpt>
      <trkpt lat="46.80986" lon="6.42256">
        <ele>1193</ele>
        <time>2022-08-14T10:48:36Z</time>
      </trkpt>
      <trkpt lat="46.80987" lon="6.42269">
        <ele>1192</ele>
        <time>2022-08-14T10:48:39Z</time>
      </trkpt>
      <trkpt lat="46.80987" lon="6.42285">
        <ele>1191</ele>
        <time>2022-08-14T10:48:52Z</time>
      </trkpt>
      <trkpt lat="46.80996" lon="6.42315">
        <ele>1188</ele>
        <time>2022-08-14T10:48:56Z</time>
      </trkpt>
      <trkpt lat="46.81002" lon="6.42348">
        <ele>1185</ele>
        <time>2022-08-14T10:49:00Z</time>
      </trkpt>
      <trkpt lat="46.81005" lon="6.42365">
        <ele>1185</ele>
        <time>2022-08-14T10:49:02Z</time>
      </trkpt>
      <trkpt lat="46.81009" lon="6.42383">
        <ele>1185</ele>
        <time>2022-08-14T10:49:04Z</time>
      </trkpt>
      <trkpt lat="46.81013" lon="6.42402">
        <ele>1183</ele>
        <time>2022-08-14T10:49:06Z</time>
      </trkpt>
      <trkpt lat="46.81017" lon="6.42419">
        <ele>1181</ele>
        <time>2022-08-14T10:49:08Z</time>
      </trkpt>
      <trkpt lat="46.81022" lon="6.42439">
        <ele>1180</ele>
        <time>2022-08-14T10:49:10Z</time>
      </trkpt>
      <trkpt lat="46.8103" lon="6.42462">
        <ele>1179</ele>
        <time>2022-08-14T10:49:12Z</time>
      </trkpt>
      <trkpt lat="46.81038" lon="6.42478">
        <ele>1177</ele>
        <time>2022-08-14T10:49:14Z</time>
      </trkpt>
      <trkpt lat="46.81042" lon="6.42497">
        <ele>1172</ele>
        <time>2022-08-14T10:49:16Z</time>
      </trkpt>
      <trkpt lat="46.81053" lon="6.42519">
        <ele>1170</ele>
        <time>2022-08-14T10:49:18Z</time>
      </trkpt>
      <trkpt lat="46.81058" lon="6.42529">
        <ele>1169</ele>
        <time>2022-08-14T10:49:19Z</time>
      </trkpt>
      <trkpt lat="46.81071" lon="6.42542">
        <ele>1167</ele>
        <time>2022-08-14T10:49:21Z</time>
      </trkpt>
      <trkpt lat="46.81086" lon="6.42543">
        <ele>1168</ele>
        <time>2022-08-14T10:49:23Z</time>
      </trkpt>
      <trkpt lat="46.811" lon="6.4254">
        <ele>1169</ele>
        <time>2022-08-14T10:49:25Z</time>
      </trkpt>
      <trkpt lat="46.8111" lon="6.4254">
        <ele>1170</ele>
        <time>2022-08-14T10:49:27Z</time>
      </trkpt>
      <trkpt lat="46.8112" lon="6.42537">
        <ele>1168</ele>
        <time>2022-08-14T10:49:29Z</time>
      </trkpt>
      <trkpt lat="46.81129" lon="6.42528">
        <ele>1169</ele>
        <time>2022-08-14T10:49:31Z</time>
      </trkpt>
      <trkpt lat="46.8114" lon="6.42521">
        <ele>1168</ele>
        <time>2022-08-14T10:49:33Z</time>
      </trkpt>
      <trkpt lat="46.81149" lon="6.42516">
        <ele>1166</ele>
        <time>2022-08-14T10:49:35Z</time>
      </trkpt>
      <trkpt lat="46.81159" lon="6.42511">
        <ele>1168</ele>
        <time>2022-08-14T10:49:38Z</time>
      </trkpt>
      <trkpt lat="46.81171" lon="6.42505">
        <ele>1164</ele>
        <time>2022-08-14T10:49:41Z</time>
      </trkpt>
      <trkpt lat="46.8118" lon="6.42497">
        <ele>1157</ele>
        <time>2022-08-14T10:49:43Z</time>
      </trkpt>
      <trkpt lat="46.81188" lon="6.42489">
        <ele>1158</ele>
        <time>2022-08-14T10:49:45Z</time>
      </trkpt>
      <trkpt lat="46.81207" lon="6.42461">
        <ele>1154</ele>
        <time>2022-08-14T10:49:51Z</time>
      </trkpt>
      <trkpt lat="46.81215" lon="6.42451">
        <ele>1153</ele>
        <time>2022-08-14T10:49:53Z</time>
      </trkpt>
      <trkpt lat="46.81226" lon="6.42451">
        <ele>1153</ele>
        <time>2022-08-14T10:49:56Z</time>
      </trkpt>
      <trkpt lat="46.81251" lon="6.42452">
        <ele>1148</ele>
        <time>2022-08-14T10:50:02Z</time>
      </trkpt>
      <trkpt lat="46.81276" lon="6.42451">
        <ele>1144</ele>
        <time>2022-08-14T10:50:07Z</time>
      </trkpt>
      <trkpt lat="46.81288" lon="6.42455">
        <ele>1142</ele>
        <time>2022-08-14T10:50:10Z</time>
      </trkpt>
      <trkpt lat="46.81297" lon="6.42469">
        <ele>1141</ele>
        <time>2022-08-14T10:50:12Z</time>
      </trkpt>
      <trkpt lat="46.81304" lon="6.42487">
        <ele>1140</ele>
        <time>2022-08-14T10:50:14Z</time>
      </trkpt>
      <trkpt lat="46.81311" lon="6.42506">
        <ele>1138</ele>
        <time>2022-08-14T10:50:16Z</time>
      </trkpt>
      <trkpt lat="46.81322" lon="6.42524">
        <ele>1135</ele>
        <time>2022-08-14T10:50:18Z</time>
      </trkpt>
      <trkpt lat="46.81329" lon="6.42532">
        <ele>1134</ele>
        <time>2022-08-14T10:50:19Z</time>
      </trkpt>
      <trkpt lat="46.81337" lon="6.4254">
        <ele>1133</ele>
        <time>2022-08-14T10:50:20Z</time>
      </trkpt>
      <trkpt lat="46.81352" lon="6.42553">
        <ele>1131</ele>
        <time>2022-08-14T10:50:22Z</time>
      </trkpt>
      <trkpt lat="46.81365" lon="6.42567">
        <ele>1129</ele>
        <time>2022-08-14T10:50:24Z</time>
      </trkpt>
      <trkpt lat="46.81372" lon="6.42589">
        <ele>1126</ele>
        <time>2022-08-14T10:50:26Z</time>
      </trkpt>
      <trkpt lat="46.81375" lon="6.42603">
        <ele>1125</ele>
        <time>2022-08-14T10:50:27Z</time>
      </trkpt>
      <trkpt lat="46.81377" lon="6.42618">
        <ele>1123</ele>
        <time>2022-08-14T10:50:28Z</time>
      </trkpt>
      <trkpt lat="46.81379" lon="6.42634">
        <ele>1121</ele>
        <time>2022-08-14T10:50:29Z</time>
      </trkpt>
      <trkpt lat="46.81379" lon="6.4265">
        <ele>1119</ele>
        <time>2022-08-14T10:50:30Z</time>
      </trkpt>
      <trkpt lat="46.81378" lon="6.42666">
        <ele>1118</ele>
        <time>2022-08-14T10:50:31Z</time>
      </trkpt>
      <trkpt lat="46.81378" lon="6.42681">
        <ele>1117</ele>
        <time>2022-08-14T10:50:32Z</time>
      </trkpt>
      <trkpt lat="46.81378" lon="6.42695">
        <ele>1116</ele>
        <time>2022-08-14T10:50:33Z</time>
      </trkpt>
      <trkpt lat="46.8138" lon="6.4271">
        <ele>1115</ele>
        <time>2022-08-14T10:50:34Z</time>
      </trkpt>
      <trkpt lat="46.81384" lon="6.42724">
        <ele>1114</ele>
        <time>2022-08-14T10:50:35Z</time>
      </trkpt>
      <trkpt lat="46.81388" lon="6.42737">
        <ele>1113</ele>
        <time>2022-08-14T10:50:36Z</time>
      </trkpt>
      <trkpt lat="46.81393" lon="6.42749">
        <ele>1113</ele>
        <time>2022-08-14T10:50:37Z</time>
      </trkpt>
      <trkpt lat="46.81398" lon="6.42761">
        <ele>1113</ele>
        <time>2022-08-14T10:50:38Z</time>
      </trkpt>
      <trkpt lat="46.81402" lon="6.42773">
        <ele>1112</ele>
        <time>2022-08-14T10:50:39Z</time>
      </trkpt>
      <trkpt lat="46.81406" lon="6.42785">
        <ele>1110</ele>
        <time>2022-08-14T10:50:40Z</time>
      </trkpt>
      <trkpt lat="46.81411" lon="6.42798">
        <ele>1109</ele>
        <time>2022-08-14T10:50:41Z</time>
      </trkpt>
      <trkpt lat="46.81416" lon="6.42811">
        <ele>1108</ele>
        <time>2022-08-14T10:50:42Z</time>
      </trkpt>
      <trkpt lat="46.81421" lon="6.42824">
        <ele>1107</ele>
        <time>2022-08-14T10:50:43Z</time>
      </trkpt>
      <trkpt lat="46.81427" lon="6.42837">
        <ele>1106</ele>
        <time>2022-08-14T10:50:44Z</time>
      </trkpt>
      <trkpt lat="46.81432" lon="6.42849">
        <ele>1106</ele>
        <time>2022-08-14T10:50:45Z</time>
      </trkpt>
      <trkpt lat="46.81437" lon="6.42861">
        <ele>1105</ele>
        <time>2022-08-14T10:50:46Z</time>
      </trkpt>
      <trkpt lat="46.81443" lon="6.42872">
        <ele>1104</ele>
        <time>2022-08-14T10:50:47Z</time>
      </trkpt>
      <trkpt lat="46.81448" lon="6.42883">
        <ele>1104</ele>
        <time>2022-08-14T10:50:48Z</time>
      </trkpt>
      <trkpt lat="46.81453" lon="6.42894">
        <ele>1103</ele>
        <time>2022-08-14T10:50:49Z</time>
      </trkpt>
      <trkpt lat="46.81455" lon="6.42907">
        <ele>1102</ele>
        <time>2022-08-14T10:50:50Z</time>
      </trkpt>
      <trkpt lat="46.81457" lon="6.42921">
        <ele>1102</ele>
        <time>2022-08-14T10:50:51Z</time>
      </trkpt>
      <trkpt lat="46.81458" lon="6.42934">
        <ele>1102</ele>
        <time>2022-08-14T10:50:52Z</time>
      </trkpt>
      <trkpt lat="46.81458" lon="6.42947">
        <ele>1101</ele>
        <time>2022-08-14T10:50:53Z</time>
      </trkpt>
      <trkpt lat="46.81458" lon="6.42961">
        <ele>1101</ele>
        <time>2022-08-14T10:50:54Z</time>
      </trkpt>
      <trkpt lat="46.81459" lon="6.42974">
        <ele>1101</ele>
        <time>2022-08-14T10:50:55Z</time>
      </trkpt>
      <trkpt lat="46.81463" lon="6.42998">
        <ele>1100</ele>
        <time>2022-08-14T10:50:57Z</time>
      </trkpt>
      <trkpt lat="46.81468" lon="6.43023">
        <ele>1100</ele>
        <time>2022-08-14T10:50:59Z</time>
      </trkpt>
      <trkpt lat="46.8147" lon="6.43036">
        <ele>1099</ele>
        <time>2022-08-14T10:51:00Z</time>
      </trkpt>
      <trkpt lat="46.81473" lon="6.43049">
        <ele>1099</ele>
        <time>2022-08-14T10:51:01Z</time>
      </trkpt>
      <trkpt lat="46.81475" lon="6.43062">
        <ele>1099</ele>
        <time>2022-08-14T10:51:02Z</time>
      </trkpt>
      <trkpt lat="46.81479" lon="6.43086">
        <ele>1098</ele>
        <time>2022-08-14T10:51:04Z</time>
      </trkpt>
      <trkpt lat="46.81483" lon="6.43108">
        <ele>1098</ele>
        <time>2022-08-14T10:51:06Z</time>
      </trkpt>
      <trkpt lat="46.81487" lon="6.4313">
        <ele>1097</ele>
        <time>2022-08-14T10:51:08Z</time>
      </trkpt>
      <trkpt lat="46.81491" lon="6.43152">
        <ele>1097</ele>
        <time>2022-08-14T10:51:10Z</time>
      </trkpt>
      <trkpt lat="46.81496" lon="6.43173">
        <ele>1097</ele>
        <time>2022-08-14T10:51:12Z</time>
      </trkpt>
      <trkpt lat="46.815" lon="6.43194">
        <ele>1097</ele>
        <time>2022-08-14T10:51:14Z</time>
      </trkpt>
      <trkpt lat="46.81506" lon="6.43214">
        <ele>1097</ele>
        <time>2022-08-14T10:51:16Z</time>
      </trkpt>
      <trkpt lat="46.81512" lon="6.43233">
        <ele>1096</ele>
        <time>2022-08-14T10:51:18Z</time>
      </trkpt>
      <trkpt lat="46.81518" lon="6.43253">
        <ele>1096</ele>
        <time>2022-08-14T10:51:20Z</time>
      </trkpt>
      <trkpt lat="46.81525" lon="6.43273">
        <ele>1096</ele>
        <time>2022-08-14T10:51:22Z</time>
      </trkpt>
      <trkpt lat="46.81531" lon="6.43292">
        <ele>1095</ele>
        <time>2022-08-14T10:51:24Z</time>
      </trkpt>
      <trkpt lat="46.81538" lon="6.43313">
        <ele>1094</ele>
        <time>2022-08-14T10:51:26Z</time>
      </trkpt>
      <trkpt lat="46.81544" lon="6.43333">
        <ele>1094</ele>
        <time>2022-08-14T10:51:28Z</time>
      </trkpt>
      <trkpt lat="46.8155" lon="6.43353">
        <ele>1094</ele>
        <time>2022-08-14T10:51:30Z</time>
      </trkpt>
      <trkpt lat="46.81555" lon="6.43374">
        <ele>1093</ele>
        <time>2022-08-14T10:51:32Z</time>
      </trkpt>
      <trkpt lat="46.8156" lon="6.43395">
        <ele>1093</ele>
        <time>2022-08-14T10:51:34Z</time>
      </trkpt>
      <trkpt lat="46.81563" lon="6.43417">
        <ele>1092</ele>
        <time>2022-08-14T10:51:36Z</time>
      </trkpt>
      <trkpt lat="46.81567" lon="6.43439">
        <ele>1091</ele>
        <time>2022-08-14T10:51:38Z</time>
      </trkpt>
      <trkpt lat="46.81572" lon="6.43461">
        <ele>1090</ele>
        <time>2022-08-14T10:51:40Z</time>
      </trkpt>
      <trkpt lat="46.81579" lon="6.43484">
        <ele>1089</ele>
        <time>2022-08-14T10:51:42Z</time>
      </trkpt>
      <trkpt lat="46.81588" lon="6.43506">
        <ele>1088</ele>
        <time>2022-08-14T10:51:44Z</time>
      </trkpt>
      <trkpt lat="46.81594" lon="6.43516">
        <ele>1088</ele>
        <time>2022-08-14T10:51:45Z</time>
      </trkpt>
      <trkpt lat="46.81601" lon="6.43525">
        <ele>1088</ele>
        <time>2022-08-14T10:51:46Z</time>
      </trkpt>
      <trkpt lat="46.81615" lon="6.43541">
        <ele>1088</ele>
        <time>2022-08-14T10:51:48Z</time>
      </trkpt>
      <trkpt lat="46.81628" lon="6.43556">
        <ele>1087</ele>
        <time>2022-08-14T10:51:50Z</time>
      </trkpt>
      <trkpt lat="46.81641" lon="6.4357">
        <ele>1088</ele>
        <time>2022-08-14T10:51:52Z</time>
      </trkpt>
      <trkpt lat="46.81653" lon="6.43583">
        <ele>1088</ele>
        <time>2022-08-14T10:51:54Z</time>
      </trkpt>
      <trkpt lat="46.81665" lon="6.43592">
        <ele>1089</ele>
        <time>2022-08-14T10:51:56Z</time>
      </trkpt>
      <trkpt lat="46.81676" lon="6.43599">
        <ele>1089</ele>
        <time>2022-08-14T10:51:58Z</time>
      </trkpt>
      <trkpt lat="46.81686" lon="6.43606">
        <ele>1089</ele>
        <time>2022-08-14T10:52:00Z</time>
      </trkpt>
      <trkpt lat="46.81695" lon="6.43612">
        <ele>1090</ele>
        <time>2022-08-14T10:52:02Z</time>
      </trkpt>
      <trkpt lat="46.81703" lon="6.43618">
        <ele>1090</ele>
        <time>2022-08-14T10:52:04Z</time>
      </trkpt>
      <trkpt lat="46.81711" lon="6.43627">
        <ele>1090</ele>
        <time>2022-08-14T10:52:06Z</time>
      </trkpt>
      <trkpt lat="46.81716" lon="6.43638">
        <ele>1090</ele>
        <time>2022-08-14T10:52:08Z</time>
      </trkpt>
      <trkpt lat="46.81721" lon="6.4365">
        <ele>1090</ele>
        <time>2022-08-14T10:52:10Z</time>
      </trkpt>
      <trkpt lat="46.81729" lon="6.4366">
        <ele>1090</ele>
        <time>2022-08-14T10:52:12Z</time>
      </trkpt>
      <trkpt lat="46.8174" lon="6.43661">
        <ele>1091</ele>
        <time>2022-08-14T10:52:14Z</time>
      </trkpt>
      <trkpt lat="46.81751" lon="6.43655">
        <ele>1091</ele>
        <time>2022-08-14T10:52:17Z</time>
      </trkpt>
      <trkpt lat="46.81762" lon="6.4365">
        <ele>1092</ele>
        <time>2022-08-14T10:52:20Z</time>
      </trkpt>
      <trkpt lat="46.81773" lon="6.43648">
        <ele>1091</ele>
        <time>2022-08-14T10:52:23Z</time>
      </trkpt>
      <trkpt lat="46.81781" lon="6.4364">
        <ele>1089</ele>
        <time>2022-08-14T10:52:25Z</time>
      </trkpt>
      <trkpt lat="46.81788" lon="6.4363">
        <ele>1091</ele>
        <time>2022-08-14T10:52:28Z</time>
      </trkpt>
      <trkpt lat="46.81794" lon="6.43616">
        <ele>1093</ele>
        <time>2022-08-14T10:52:33Z</time>
      </trkpt>
      <trkpt lat="46.81799" lon="6.43605">
        <ele>1093</ele>
        <time>2022-08-14T10:52:39Z</time>
      </trkpt>
      <trkpt lat="46.81805" lon="6.43592">
        <ele>1096</ele>
        <time>2022-08-14T10:52:44Z</time>
      </trkpt>
      <trkpt lat="46.81812" lon="6.43579">
        <ele>1097</ele>
        <time>2022-08-14T10:52:49Z</time>
      </trkpt>
      <trkpt lat="46.81819" lon="6.43567">
        <ele>1099</ele>
        <time>2022-08-14T10:52:54Z</time>
      </trkpt>
      <trkpt lat="46.81826" lon="6.43555">
        <ele>1101</ele>
        <time>2022-08-14T10:52:59Z</time>
      </trkpt>
      <trkpt lat="46.81842" lon="6.43542">
        <ele>1101</ele>
        <time>2022-08-14T10:53:08Z</time>
      </trkpt>
      <trkpt lat="46.81859" lon="6.4353">
        <ele>1101</ele>
        <time>2022-08-14T10:53:16Z</time>
      </trkpt>
      <trkpt lat="46.81868" lon="6.43522">
        <ele>1101</ele>
        <time>2022-08-14T10:53:20Z</time>
      </trkpt>
      <trkpt lat="46.8188" lon="6.435">
        <ele>1101</ele>
        <time>2022-08-14T10:53:26Z</time>
      </trkpt>
      <trkpt lat="46.81892" lon="6.43476">
        <ele>1101</ele>
        <time>2022-08-14T10:53:30Z</time>
      </trkpt>
      <trkpt lat="46.81902" lon="6.43464">
        <ele>1102</ele>
        <time>2022-08-14T10:53:32Z</time>
      </trkpt>
      <trkpt lat="46.81913" lon="6.43453">
        <ele>1101</ele>
        <time>2022-08-14T10:53:34Z</time>
      </trkpt>
      <trkpt lat="46.81923" lon="6.43443">
        <ele>1101</ele>
        <time>2022-08-14T10:53:36Z</time>
      </trkpt>
      <trkpt lat="46.81933" lon="6.43434">
        <ele>1102</ele>
        <time>2022-08-14T10:53:38Z</time>
      </trkpt>
      <trkpt lat="46.81942" lon="6.43426">
        <ele>1103</ele>
        <time>2022-08-14T10:53:40Z</time>
      </trkpt>
      <trkpt lat="46.81958" lon="6.43406">
        <ele>1104</ele>
        <time>2022-08-14T10:53:45Z</time>
      </trkpt>
      <trkpt lat="46.81965" lon="6.43395">
        <ele>1102</ele>
        <time>2022-08-14T10:53:48Z</time>
      </trkpt>
      <trkpt lat="46.8197" lon="6.43383">
        <ele>1103</ele>
        <time>2022-08-14T10:53:50Z</time>
      </trkpt>
      <trkpt lat="46.81976" lon="6.43368">
        <ele>1104</ele>
        <time>2022-08-14T10:53:53Z</time>
      </trkpt>
      <trkpt lat="46.81986" lon="6.43338">
        <ele>1105</ele>
        <time>2022-08-14T10:53:58Z</time>
      </trkpt>
      <trkpt lat="46.81995" lon="6.43314">
        <ele>1105</ele>
        <time>2022-08-14T10:54:02Z</time>
      </trkpt>
      <trkpt lat="46.82007" lon="6.43291">
        <ele>1105</ele>
        <time>2022-08-14T10:54:06Z</time>
      </trkpt>
      <trkpt lat="46.8202" lon="6.43264">
        <ele>1104</ele>
        <time>2022-08-14T10:54:10Z</time>
      </trkpt>
      <trkpt lat="46.82028" lon="6.43253">
        <ele>1104</ele>
        <time>2022-08-14T10:54:12Z</time>
      </trkpt>
      <trkpt lat="46.82035" lon="6.43244">
        <ele>1104</ele>
        <time>2022-08-14T10:54:14Z</time>
      </trkpt>
      <trkpt lat="46.82041" lon="6.43234">
        <ele>1105</ele>
        <time>2022-08-14T10:54:16Z</time>
      </trkpt>
      <trkpt lat="46.82045" lon="6.43215">
        <ele>1106</ele>
        <time>2022-08-14T10:54:19Z</time>
      </trkpt>
      <trkpt lat="46.82038" lon="6.43203">
        <ele>1106</ele>
        <time>2022-08-14T10:54:21Z</time>
      </trkpt>
      <trkpt lat="46.82031" lon="6.4319">
        <ele>1102</ele>
        <time>2022-08-14T10:54:23Z</time>
      </trkpt>
      <trkpt lat="46.82026" lon="6.43176">
        <ele>1102</ele>
        <time>2022-08-14T10:54:25Z</time>
      </trkpt>
      <trkpt lat="46.82021" lon="6.4316">
        <ele>1105</ele>
        <time>2022-08-14T10:54:27Z</time>
      </trkpt>
      <trkpt lat="46.82017" lon="6.43145">
        <ele>1106</ele>
        <time>2022-08-14T10:54:29Z</time>
      </trkpt>
      <trkpt lat="46.82011" lon="6.43118">
        <ele>1106</ele>
        <time>2022-08-14T10:54:33Z</time>
      </trkpt>
      <trkpt lat="46.82011" lon="6.4309">
        <ele>1106</ele>
        <time>2022-08-14T10:54:37Z</time>
      </trkpt>
      <trkpt lat="46.82018" lon="6.43061">
        <ele>1108</ele>
        <time>2022-08-14T10:54:42Z</time>
      </trkpt>
      <trkpt lat="46.82027" lon="6.43036">
        <ele>1107</ele>
        <time>2022-08-14T10:54:48Z</time>
      </trkpt>
      <trkpt lat="46.82038" lon="6.43011">
        <ele>1107</ele>
        <time>2022-08-14T10:54:52Z</time>
      </trkpt>
      <trkpt lat="46.82045" lon="6.42984">
        <ele>1109</ele>
        <time>2022-08-14T10:54:56Z</time>
      </trkpt>
      <trkpt lat="46.82047" lon="6.42957">
        <ele>1109</ele>
        <time>2022-08-14T10:55:00Z</time>
      </trkpt>
      <trkpt lat="46.82045" lon="6.42925">
        <ele>1109</ele>
        <time>2022-08-14T10:55:05Z</time>
      </trkpt>
      <trkpt lat="46.82043" lon="6.42897">
        <ele>1107</ele>
        <time>2022-08-14T10:55:09Z</time>
      </trkpt>
      <trkpt lat="46.82041" lon="6.42876">
        <ele>1109</ele>
        <time>2022-08-14T10:55:12Z</time>
      </trkpt>
      <trkpt lat="46.8204" lon="6.42862">
        <ele>1109</ele>
        <time>2022-08-14T10:55:14Z</time>
      </trkpt>
      <trkpt lat="46.82039" lon="6.42843">
        <ele>1109</ele>
        <time>2022-08-14T10:55:17Z</time>
      </trkpt>
      <trkpt lat="46.82038" lon="6.42828">
        <ele>1109</ele>
        <time>2022-08-14T10:55:19Z</time>
      </trkpt>
      <trkpt lat="46.82037" lon="6.42814">
        <ele>1110</ele>
        <time>2022-08-14T10:55:21Z</time>
      </trkpt>
      <trkpt lat="46.82036" lon="6.428">
        <ele>1111</ele>
        <time>2022-08-14T10:55:23Z</time>
      </trkpt>
      <trkpt lat="46.82035" lon="6.42786">
        <ele>1110</ele>
        <time>2022-08-14T10:55:25Z</time>
      </trkpt>
      <trkpt lat="46.82035" lon="6.42772">
        <ele>1111</ele>
        <time>2022-08-14T10:55:27Z</time>
      </trkpt>
      <trkpt lat="46.82034" lon="6.42758">
        <ele>1111</ele>
        <time>2022-08-14T10:55:29Z</time>
      </trkpt>
      <trkpt lat="46.82034" lon="6.42738">
        <ele>1111</ele>
        <time>2022-08-14T10:55:32Z</time>
      </trkpt>
      <trkpt lat="46.82034" lon="6.42718">
        <ele>1112</ele>
        <time>2022-08-14T10:55:35Z</time>
      </trkpt>
      <trkpt lat="46.82033" lon="6.42699">
        <ele>1112</ele>
        <time>2022-08-14T10:55:38Z</time>
      </trkpt>
      <trkpt lat="46.82033" lon="6.4268">
        <ele>1112</ele>
        <time>2022-08-14T10:55:41Z</time>
      </trkpt>
      <trkpt lat="46.82033" lon="6.42665">
        <ele>1111</ele>
        <time>2022-08-14T10:55:43Z</time>
      </trkpt>
      <trkpt lat="46.82033" lon="6.42648">
        <ele>1113</ele>
        <time>2022-08-14T10:55:46Z</time>
      </trkpt>
      <trkpt lat="46.82032" lon="6.42632">
        <ele>1113</ele>
        <time>2022-08-14T10:55:48Z</time>
      </trkpt>
      <trkpt lat="46.82031" lon="6.42618">
        <ele>1113</ele>
        <time>2022-08-14T10:55:51Z</time>
      </trkpt>
      <trkpt lat="46.8203" lon="6.42599">
        <ele>1114</ele>
        <time>2022-08-14T10:55:54Z</time>
      </trkpt>
      <trkpt lat="46.82029" lon="6.42586">
        <ele>1114</ele>
        <time>2022-08-14T10:55:56Z</time>
      </trkpt>
      <trkpt lat="46.82028" lon="6.42571">
        <ele>1114</ele>
        <time>2022-08-14T10:55:58Z</time>
      </trkpt>
      <trkpt lat="46.82026" lon="6.42556">
        <ele>1115</ele>
        <time>2022-08-14T10:56:01Z</time>
      </trkpt>
      <trkpt lat="46.82023" lon="6.42539">
        <ele>1115</ele>
        <time>2022-08-14T10:56:04Z</time>
      </trkpt>
      <trkpt lat="46.82019" lon="6.42524">
        <ele>1116</ele>
        <time>2022-08-14T10:56:06Z</time>
      </trkpt>
      <trkpt lat="46.82016" lon="6.42508">
        <ele>1116</ele>
        <time>2022-08-14T10:56:09Z</time>
      </trkpt>
      <trkpt lat="46.82012" lon="6.42494">
        <ele>1116</ele>
        <time>2022-08-14T10:56:11Z</time>
      </trkpt>
      <trkpt lat="46.82009" lon="6.4248">
        <ele>1116</ele>
        <time>2022-08-14T10:56:14Z</time>
      </trkpt>
      <trkpt lat="46.82005" lon="6.42465">
        <ele>1116</ele>
        <time>2022-08-14T10:56:16Z</time>
      </trkpt>
      <trkpt lat="46.82001" lon="6.42451">
        <ele>1116</ele>
        <time>2022-08-14T10:56:19Z</time>
      </trkpt>
      <trkpt lat="46.81998" lon="6.42436">
        <ele>1116</ele>
        <time>2022-08-14T10:56:23Z</time>
      </trkpt>
      <trkpt lat="46.81994" lon="6.42422">
        <ele>1116</ele>
        <time>2022-08-14T10:56:26Z</time>
      </trkpt>
      <trkpt lat="46.81987" lon="6.42394">
        <ele>1119</ele>
        <time>2022-08-14T10:56:32Z</time>
      </trkpt>
      <trkpt lat="46.8198" lon="6.42368">
        <ele>1120</ele>
        <time>2022-08-14T10:56:37Z</time>
      </trkpt>
      <trkpt lat="46.8197" lon="6.42343">
        <ele>1120</ele>
        <time>2022-08-14T10:56:42Z</time>
      </trkpt>
      <trkpt lat="46.81967" lon="6.42328">
        <ele>1120</ele>
        <time>2022-08-14T10:56:46Z</time>
      </trkpt>
      <trkpt lat="46.81964" lon="6.42311">
        <ele>1120</ele>
        <time>2022-08-14T10:56:49Z</time>
      </trkpt>
      <trkpt lat="46.8196" lon="6.42282">
        <ele>1121</ele>
        <time>2022-08-14T10:56:56Z</time>
      </trkpt>
      <trkpt lat="46.81956" lon="6.42254">
        <ele>1121</ele>
        <time>2022-08-14T10:57:03Z</time>
      </trkpt>
      <trkpt lat="46.8195" lon="6.42227">
        <ele>1122</ele>
        <time>2022-08-14T10:57:08Z</time>
      </trkpt>
      <trkpt lat="46.81946" lon="6.42213">
        <ele>1124</ele>
        <time>2022-08-14T10:57:12Z</time>
      </trkpt>
      <trkpt lat="46.81942" lon="6.422">
        <ele>1125</ele>
        <time>2022-08-14T10:57:14Z</time>
      </trkpt>
      <trkpt lat="46.81933" lon="6.42172">
        <ele>1125</ele>
        <time>2022-08-14T10:57:21Z</time>
      </trkpt>
      <trkpt lat="46.81928" lon="6.42156">
        <ele>1125</ele>
        <time>2022-08-14T10:57:25Z</time>
      </trkpt>
      <trkpt lat="46.81927" lon="6.42142">
        <ele>1126</ele>
        <time>2022-08-14T10:57:28Z</time>
      </trkpt>
      <trkpt lat="46.81924" lon="6.42128">
        <ele>1126</ele>
        <time>2022-08-14T10:57:33Z</time>
      </trkpt>
      <trkpt lat="46.81921" lon="6.42115">
        <ele>1127</ele>
        <time>2022-08-14T10:57:35Z</time>
      </trkpt>
      <trkpt lat="46.8192" lon="6.42098">
        <ele>1127</ele>
        <time>2022-08-14T10:57:40Z</time>
      </trkpt>
      <trkpt lat="46.81919" lon="6.42083">
        <ele>1128</ele>
        <time>2022-08-14T10:57:43Z</time>
      </trkpt>
      <trkpt lat="46.81918" lon="6.42069">
        <ele>1128</ele>
        <time>2022-08-14T10:57:47Z</time>
      </trkpt>
      <trkpt lat="46.81916" lon="6.42055">
        <ele>1129</ele>
        <time>2022-08-14T10:57:49Z</time>
      </trkpt>
      <trkpt lat="46.81915" lon="6.42042">
        <ele>1129</ele>
        <time>2022-08-14T10:57:52Z</time>
      </trkpt>
      <trkpt lat="46.81913" lon="6.42025">
        <ele>1130</ele>
        <time>2022-08-14T10:57:56Z</time>
      </trkpt>
      <trkpt lat="46.81911" lon="6.41995">
        <ele>1131</ele>
        <time>2022-08-14T10:58:03Z</time>
      </trkpt>
      <trkpt lat="46.81911" lon="6.41978">
        <ele>1132</ele>
        <time>2022-08-14T10:58:07Z</time>
      </trkpt>
      <trkpt lat="46.81911" lon="6.41962">
        <ele>1133</ele>
        <time>2022-08-14T10:58:11Z</time>
      </trkpt>
      <trkpt lat="46.81914" lon="6.41948">
        <ele>1135</ele>
        <time>2022-08-14T10:58:15Z</time>
      </trkpt>
      <trkpt lat="46.81919" lon="6.41919">
        <ele>1137</ele>
        <time>2022-08-14T10:58:23Z</time>
      </trkpt>
      <trkpt lat="46.81923" lon="6.41906">
        <ele>1137</ele>
        <time>2022-08-14T10:58:27Z</time>
      </trkpt>
      <trkpt lat="46.81929" lon="6.41895">
        <ele>1138</ele>
        <time>2022-08-14T10:58:31Z</time>
      </trkpt>
      <trkpt lat="46.81938" lon="6.41893">
        <ele>1139</ele>
        <time>2022-08-14T10:58:35Z</time>
      </trkpt>
      <trkpt lat="46.81948" lon="6.41899">
        <ele>1139</ele>
        <time>2022-08-14T10:58:40Z</time>
      </trkpt>
      <trkpt lat="46.8196" lon="6.41913">
        <ele>1140</ele>
        <time>2022-08-14T10:58:46Z</time>
      </trkpt>
      <trkpt lat="46.81968" lon="6.41921">
        <ele>1140</ele>
        <time>2022-08-14T10:58:49Z</time>
      </trkpt>
      <trkpt lat="46.81974" lon="6.41931">
        <ele>1141</ele>
        <time>2022-08-14T10:58:53Z</time>
      </trkpt>
      <trkpt lat="46.8198" lon="6.41942">
        <ele>1142</ele>
        <time>2022-08-14T10:58:58Z</time>
      </trkpt>
      <trkpt lat="46.81985" lon="6.41954">
        <ele>1142</ele>
        <time>2022-08-14T10:59:03Z</time>
      </trkpt>
      <trkpt lat="46.81991" lon="6.41965">
        <ele>1143</ele>
        <time>2022-08-14T10:59:08Z</time>
      </trkpt>
      <trkpt lat="46.81997" lon="6.41976">
        <ele>1144</ele>
        <time>2022-08-14T10:59:14Z</time>
      </trkpt>
      <trkpt lat="46.82002" lon="6.41987">
        <ele>1145</ele>
        <time>2022-08-14T10:59:20Z</time>
      </trkpt>
      <trkpt lat="46.82008" lon="6.41998">
        <ele>1148</ele>
        <time>2022-08-14T10:59:27Z</time>
      </trkpt>
      <trkpt lat="46.82017" lon="6.42005">
        <ele>1147</ele>
        <time>2022-08-14T10:59:33Z</time>
      </trkpt>
      <trkpt lat="46.82022" lon="6.41993">
        <ele>1150</ele>
        <time>2022-08-14T10:59:41Z</time>
      </trkpt>
      <trkpt lat="46.82027" lon="6.41982">
        <ele>1151</ele>
        <time>2022-08-14T10:59:52Z</time>
      </trkpt>
      <trkpt lat="46.82033" lon="6.41971">
        <ele>1153</ele>
        <time>2022-08-14T11:00:00Z</time>
      </trkpt>
      <trkpt lat="46.82036" lon="6.41958">
        <ele>1154</ele>
        <time>2022-08-14T11:00:06Z</time>
      </trkpt>
      <trkpt lat="46.82037" lon="6.41944">
        <ele>1155</ele>
        <time>2022-08-14T11:00:15Z</time>
      </trkpt>
      <trkpt lat="46.82038" lon="6.41929">
        <ele>1156</ele>
        <time>2022-08-14T11:00:24Z</time>
      </trkpt>
      <trkpt lat="46.82039" lon="6.41914">
        <ele>1158</ele>
        <time>2022-08-14T11:00:30Z</time>
      </trkpt>
      <trkpt lat="46.82042" lon="6.419">
        <ele>1158</ele>
        <time>2022-08-14T11:00:33Z</time>
      </trkpt>
      <trkpt lat="46.82046" lon="6.41888">
        <ele>1158</ele>
        <time>2022-08-14T11:00:41Z</time>
      </trkpt>
      <trkpt lat="46.82049" lon="6.41876">
        <ele>1160</ele>
        <time>2022-08-14T11:00:46Z</time>
      </trkpt>
      <trkpt lat="46.82054" lon="6.41862">
        <ele>1161</ele>
        <time>2022-08-14T11:00:54Z</time>
      </trkpt>
      <trkpt lat="46.82058" lon="6.4185">
        <ele>1162</ele>
        <time>2022-08-14T11:01:27Z</time>
      </trkpt>
      <trkpt lat="46.82063" lon="6.41838">
        <ele>1164</ele>
        <time>2022-08-14T11:01:33Z</time>
      </trkpt>
      <trkpt lat="46.82071" lon="6.4183">
        <ele>1164</ele>
        <time>2022-08-14T11:01:39Z</time>
      </trkpt>
      <trkpt lat="46.82079" lon="6.41821">
        <ele>1166</ele>
        <time>2022-08-14T11:01:48Z</time>
      </trkpt>
      <trkpt lat="46.82087" lon="6.41813">
        <ele>1167</ele>
        <time>2022-08-14T11:01:55Z</time>
      </trkpt>
      <trkpt lat="46.82093" lon="6.41803">
        <ele>1170</ele>
        <time>2022-08-14T11:02:02Z</time>
      </trkpt>
      <trkpt lat="46.82099" lon="6.41792">
        <ele>1169</ele>
        <time>2022-08-14T11:02:10Z</time>
      </trkpt>
      <trkpt lat="46.82105" lon="6.41781">
        <ele>1172</ele>
        <time>2022-08-14T11:02:17Z</time>
      </trkpt>
      <trkpt lat="46.82112" lon="6.41772">
        <ele>1173</ele>
        <time>2022-08-14T11:02:23Z</time>
      </trkpt>
      <trkpt lat="46.82117" lon="6.41759">
        <ele>1174</ele>
        <time>2022-08-14T11:02:29Z</time>
      </trkpt>
      <trkpt lat="46.82121" lon="6.41748">
        <ele>1175</ele>
        <time>2022-08-14T11:02:36Z</time>
      </trkpt>
      <trkpt lat="46.82127" lon="6.41737">
        <ele>1175</ele>
        <time>2022-08-14T11:02:42Z</time>
      </trkpt>
      <trkpt lat="46.82133" lon="6.41726">
        <ele>1177</ele>
        <time>2022-08-14T11:02:49Z</time>
      </trkpt>
      <trkpt lat="46.82138" lon="6.41715">
        <ele>1179</ele>
        <time>2022-08-14T11:02:56Z</time>
      </trkpt>
      <trkpt lat="46.82148" lon="6.4171">
        <ele>1182</ele>
        <time>2022-08-14T11:03:16Z</time>
      </trkpt>
      <trkpt lat="46.82153" lon="6.41698">
        <ele>1183</ele>
        <time>2022-08-14T11:03:23Z</time>
      </trkpt>
      <trkpt lat="46.82159" lon="6.41687">
        <ele>1185</ele>
        <time>2022-08-14T11:03:30Z</time>
      </trkpt>
      <trkpt lat="46.82167" lon="6.41678">
        <ele>1186</ele>
        <time>2022-08-14T11:03:37Z</time>
      </trkpt>
      <trkpt lat="46.82175" lon="6.41671">
        <ele>1188</ele>
        <time>2022-08-14T11:03:43Z</time>
      </trkpt>
      <trkpt lat="46.82182" lon="6.4166">
        <ele>1190</ele>
        <time>2022-08-14T11:03:51Z</time>
      </trkpt>
      <trkpt lat="46.82189" lon="6.41649">
        <ele>1191</ele>
        <time>2022-08-14T11:03:59Z</time>
      </trkpt>
      <trkpt lat="46.82197" lon="6.41642">
        <ele>1192</ele>
        <time>2022-08-14T11:04:05Z</time>
      </trkpt>
      <trkpt lat="46.82206" lon="6.41639">
        <ele>1194</ele>
        <time>2022-08-14T11:04:13Z</time>
      </trkpt>
      <trkpt lat="46.82216" lon="6.41637">
        <ele>1195</ele>
        <time>2022-08-14T11:04:20Z</time>
      </trkpt>
      <trkpt lat="46.82225" lon="6.41631">
        <ele>1196</ele>
        <time>2022-08-14T11:04:27Z</time>
      </trkpt>
      <trkpt lat="46.82234" lon="6.41625">
        <ele>1197</ele>
        <time>2022-08-14T11:04:35Z</time>
      </trkpt>
      <trkpt lat="46.82242" lon="6.41633">
        <ele>1198</ele>
        <time>2022-08-14T11:04:44Z</time>
      </trkpt>
      <trkpt lat="46.82251" lon="6.41636">
        <ele>1198</ele>
        <time>2022-08-14T11:04:50Z</time>
      </trkpt>
      <trkpt lat="46.82259" lon="6.41643">
        <ele>1197</ele>
        <time>2022-08-14T11:04:57Z</time>
      </trkpt>
      <trkpt lat="46.82269" lon="6.41644">
        <ele>1200</ele>
        <time>2022-08-14T11:05:04Z</time>
      </trkpt>
      <trkpt lat="46.82278" lon="6.41645">
        <ele>1201</ele>
        <time>2022-08-14T11:05:13Z</time>
      </trkpt>
      <trkpt lat="46.82287" lon="6.41639">
        <ele>1202</ele>
        <time>2022-08-14T11:05:20Z</time>
      </trkpt>
      <trkpt lat="46.82297" lon="6.41641">
        <ele>1203</ele>
        <time>2022-08-14T11:05:28Z</time>
      </trkpt>
      <trkpt lat="46.82307" lon="6.41638">
        <ele>1204</ele>
        <time>2022-08-14T11:05:35Z</time>
      </trkpt>
      <trkpt lat="46.82316" lon="6.41643">
        <ele>1205</ele>
        <time>2022-08-14T11:05:42Z</time>
      </trkpt>
      <trkpt lat="46.82326" lon="6.41644">
        <ele>1206</ele>
        <time>2022-08-14T11:05:51Z</time>
      </trkpt>
      <trkpt lat="46.82335" lon="6.41646">
        <ele>1207</ele>
        <time>2022-08-14T11:05:57Z</time>
      </trkpt>
      <trkpt lat="46.82344" lon="6.41651">
        <ele>1207</ele>
        <time>2022-08-14T11:06:03Z</time>
      </trkpt>
      <trkpt lat="46.82353" lon="6.41651">
        <ele>1208</ele>
        <time>2022-08-14T11:06:08Z</time>
      </trkpt>
      <trkpt lat="46.82362" lon="6.4165">
        <ele>1209</ele>
        <time>2022-08-14T11:06:13Z</time>
      </trkpt>
      <trkpt lat="46.82372" lon="6.4165">
        <ele>1210</ele>
        <time>2022-08-14T11:06:18Z</time>
      </trkpt>
      <trkpt lat="46.82382" lon="6.4165">
        <ele>1210</ele>
        <time>2022-08-14T11:06:23Z</time>
      </trkpt>
      <trkpt lat="46.82391" lon="6.41652">
        <ele>1212</ele>
        <time>2022-08-14T11:06:27Z</time>
      </trkpt>
      <trkpt lat="46.824" lon="6.41652">
        <ele>1213</ele>
        <time>2022-08-14T11:06:30Z</time>
      </trkpt>
      <trkpt lat="46.82411" lon="6.41653">
        <ele>1211</ele>
        <time>2022-08-14T11:06:34Z</time>
      </trkpt>
      <trkpt lat="46.82421" lon="6.41648">
        <ele>1212</ele>
        <time>2022-08-14T11:06:37Z</time>
      </trkpt>
      <trkpt lat="46.8243" lon="6.41654">
        <ele>1208</ele>
        <time>2022-08-14T11:06:41Z</time>
      </trkpt>
      <trkpt lat="46.8244" lon="6.4166">
        <ele>1206</ele>
        <time>2022-08-14T11:06:44Z</time>
      </trkpt>
      <trkpt lat="46.82452" lon="6.41661">
        <ele>1209</ele>
        <time>2022-08-14T11:06:47Z</time>
      </trkpt>
      <trkpt lat="46.82461" lon="6.41662">
        <ele>1207</ele>
        <time>2022-08-14T11:06:50Z</time>
      </trkpt>
      <trkpt lat="46.82469" lon="6.41669">
        <ele>1207</ele>
        <time>2022-08-14T11:06:53Z</time>
      </trkpt>
      <trkpt lat="46.82478" lon="6.41665">
        <ele>1205</ele>
        <time>2022-08-14T11:06:57Z</time>
      </trkpt>
      <trkpt lat="46.82487" lon="6.4166">
        <ele>1205</ele>
        <time>2022-08-14T11:07:00Z</time>
      </trkpt>
      <trkpt lat="46.82496" lon="6.41659">
        <ele>1207</ele>
        <time>2022-08-14T11:07:03Z</time>
      </trkpt>
      <trkpt lat="46.82508" lon="6.41661">
        <ele>1205</ele>
        <time>2022-08-14T11:07:06Z</time>
      </trkpt>
      <trkpt lat="46.82521" lon="6.4166">
        <ele>1206</ele>
        <time>2022-08-14T11:07:08Z</time>
      </trkpt>
      <trkpt lat="46.82532" lon="6.41664">
        <ele>1206</ele>
        <time>2022-08-14T11:07:10Z</time>
      </trkpt>
      <trkpt lat="46.82542" lon="6.41663">
        <ele>1206</ele>
        <time>2022-08-14T11:07:12Z</time>
      </trkpt>
      <trkpt lat="46.82552" lon="6.4166">
        <ele>1206</ele>
        <time>2022-08-14T11:07:13Z</time>
      </trkpt>
      <trkpt lat="46.82562" lon="6.4166">
        <ele>1205</ele>
        <time>2022-08-14T11:07:15Z</time>
      </trkpt>
      <trkpt lat="46.82571" lon="6.41666">
        <ele>1205</ele>
        <time>2022-08-14T11:07:19Z</time>
      </trkpt>
      <trkpt lat="46.8258" lon="6.41666">
        <ele>1204</ele>
        <time>2022-08-14T11:07:21Z</time>
      </trkpt>
      <trkpt lat="46.82591" lon="6.41664">
        <ele>1204</ele>
        <time>2022-08-14T11:07:24Z</time>
      </trkpt>
      <trkpt lat="46.82601" lon="6.41664">
        <ele>1204</ele>
        <time>2022-08-14T11:07:27Z</time>
      </trkpt>
      <trkpt lat="46.82612" lon="6.41669">
        <ele>1204</ele>
        <time>2022-08-14T11:07:29Z</time>
      </trkpt>
      <trkpt lat="46.8262" lon="6.41673">
        <ele>1202</ele>
        <time>2022-08-14T11:07:31Z</time>
      </trkpt>
      <trkpt lat="46.8263" lon="6.41678">
        <ele>1201</ele>
        <time>2022-08-14T11:07:34Z</time>
      </trkpt>
      <trkpt lat="46.82638" lon="6.4169">
        <ele>1201</ele>
        <time>2022-08-14T11:07:36Z</time>
      </trkpt>
      <trkpt lat="46.82648" lon="6.41697">
        <ele>1200</ele>
        <time>2022-08-14T11:07:39Z</time>
      </trkpt>
      <trkpt lat="46.82656" lon="6.41709">
        <ele>1201</ele>
        <time>2022-08-14T11:07:42Z</time>
      </trkpt>
      <trkpt lat="46.82665" lon="6.41715">
        <ele>1201</ele>
        <time>2022-08-14T11:07:45Z</time>
      </trkpt>
      <trkpt lat="46.82674" lon="6.41726">
        <ele>1199</ele>
        <time>2022-08-14T11:07:48Z</time>
      </trkpt>
      <trkpt lat="46.82683" lon="6.4173">
        <ele>1199</ele>
        <time>2022-08-14T11:07:50Z</time>
      </trkpt>
      <trkpt lat="46.82691" lon="6.41741">
        <ele>1198</ele>
        <time>2022-08-14T11:07:53Z</time>
      </trkpt>
      <trkpt lat="46.82698" lon="6.41753">
        <ele>1198</ele>
        <time>2022-08-14T11:07:57Z</time>
      </trkpt>
      <trkpt lat="46.82707" lon="6.4176">
        <ele>1197</ele>
        <time>2022-08-14T11:07:58Z</time>
      </trkpt>
      <trkpt lat="46.82715" lon="6.41769">
        <ele>1197</ele>
        <time>2022-08-14T11:08:01Z</time>
      </trkpt>
      <trkpt lat="46.82723" lon="6.41779">
        <ele>1197</ele>
        <time>2022-08-14T11:08:03Z</time>
      </trkpt>
      <trkpt lat="46.82732" lon="6.41793">
        <ele>1198</ele>
        <time>2022-08-14T11:08:06Z</time>
      </trkpt>
      <trkpt lat="46.8274" lon="6.41803">
        <ele>1197</ele>
        <time>2022-08-14T11:08:09Z</time>
      </trkpt>
      <trkpt lat="46.82744" lon="6.41816">
        <ele>1197</ele>
        <time>2022-08-14T11:08:13Z</time>
      </trkpt>
      <trkpt lat="46.8275" lon="6.41826">
        <ele>1197</ele>
        <time>2022-08-14T11:08:16Z</time>
      </trkpt>
      <trkpt lat="46.82755" lon="6.41838">
        <ele>1196</ele>
        <time>2022-08-14T11:08:19Z</time>
      </trkpt>
      <trkpt lat="46.82758" lon="6.41853">
        <ele>1196</ele>
        <time>2022-08-14T11:08:23Z</time>
      </trkpt>
      <trkpt lat="46.82764" lon="6.41863">
        <ele>1196</ele>
        <time>2022-08-14T11:08:26Z</time>
      </trkpt>
      <trkpt lat="46.8277" lon="6.41875">
        <ele>1196</ele>
        <time>2022-08-14T11:08:28Z</time>
      </trkpt>
      <trkpt lat="46.82777" lon="6.41887">
        <ele>1195</ele>
        <time>2022-08-14T11:08:30Z</time>
      </trkpt>
      <trkpt lat="46.82784" lon="6.41899">
        <ele>1194</ele>
        <time>2022-08-14T11:08:31Z</time>
      </trkpt>
      <trkpt lat="46.82793" lon="6.41911">
        <ele>1193</ele>
        <time>2022-08-14T11:08:33Z</time>
      </trkpt>
      <trkpt lat="46.828" lon="6.41925">
        <ele>1192</ele>
        <time>2022-08-14T11:08:35Z</time>
      </trkpt>
      <trkpt lat="46.82807" lon="6.41939">
        <ele>1192</ele>
        <time>2022-08-14T11:08:37Z</time>
      </trkpt>
      <trkpt lat="46.82813" lon="6.41949">
        <ele>1191</ele>
        <time>2022-08-14T11:08:40Z</time>
      </trkpt>
      <trkpt lat="46.82818" lon="6.41963">
        <ele>1191</ele>
        <time>2022-08-14T11:08:42Z</time>
      </trkpt>
      <trkpt lat="46.82825" lon="6.41972">
        <ele>1189</ele>
        <time>2022-08-14T11:08:46Z</time>
      </trkpt>
      <trkpt lat="46.82832" lon="6.41979">
        <ele>1187</ele>
        <time>2022-08-14T11:08:49Z</time>
      </trkpt>
      <trkpt lat="46.8284" lon="6.41988">
        <ele>1186</ele>
        <time>2022-08-14T11:08:52Z</time>
      </trkpt>
      <trkpt lat="46.82845" lon="6.42004">
        <ele>1184</ele>
        <time>2022-08-14T11:08:54Z</time>
      </trkpt>
      <trkpt lat="46.82851" lon="6.42016">
        <ele>1183</ele>
        <time>2022-08-14T11:08:56Z</time>
      </trkpt>
      <trkpt lat="46.82857" lon="6.42028">
        <ele>1180</ele>
        <time>2022-08-14T11:08:58Z</time>
      </trkpt>
      <trkpt lat="46.82861" lon="6.42041">
        <ele>1180</ele>
        <time>2022-08-14T11:09:00Z</time>
      </trkpt>
      <trkpt lat="46.82868" lon="6.4205">
        <ele>1180</ele>
        <time>2022-08-14T11:09:02Z</time>
      </trkpt>
      <trkpt lat="46.82875" lon="6.4206">
        <ele>1179</ele>
        <time>2022-08-14T11:09:04Z</time>
      </trkpt>
      <trkpt lat="46.82882" lon="6.4207">
        <ele>1179</ele>
        <time>2022-08-14T11:09:06Z</time>
      </trkpt>
      <trkpt lat="46.82889" lon="6.42082">
        <ele>1178</ele>
        <time>2022-08-14T11:09:09Z</time>
      </trkpt>
      <trkpt lat="46.82895" lon="6.42095">
        <ele>1177</ele>
        <time>2022-08-14T11:09:10Z</time>
      </trkpt>
      <trkpt lat="46.82901" lon="6.42107">
        <ele>1176</ele>
        <time>2022-08-14T11:09:13Z</time>
      </trkpt>
      <trkpt lat="46.82912" lon="6.42112">
        <ele>1176</ele>
        <time>2022-08-14T11:09:16Z</time>
      </trkpt>
      <trkpt lat="46.8292" lon="6.42118">
        <ele>1176</ele>
        <time>2022-08-14T11:09:18Z</time>
      </trkpt>
      <trkpt lat="46.82931" lon="6.42125">
        <ele>1174</ele>
        <time>2022-08-14T11:09:21Z</time>
      </trkpt>
      <trkpt lat="46.82939" lon="6.42135">
        <ele>1175</ele>
        <time>2022-08-14T11:09:24Z</time>
      </trkpt>
      <trkpt lat="46.82948" lon="6.42145">
        <ele>1174</ele>
        <time>2022-08-14T11:09:26Z</time>
      </trkpt>
      <trkpt lat="46.82956" lon="6.42153">
        <ele>1173</ele>
        <time>2022-08-14T11:09:28Z</time>
      </trkpt>
      <trkpt lat="46.82963" lon="6.42162">
        <ele>1172</ele>
        <time>2022-08-14T11:09:30Z</time>
      </trkpt>
      <trkpt lat="46.82973" lon="6.42173">
        <ele>1171</ele>
        <time>2022-08-14T11:09:34Z</time>
      </trkpt>
      <trkpt lat="46.82981" lon="6.42183">
        <ele>1170</ele>
        <time>2022-08-14T11:09:38Z</time>
      </trkpt>
      <trkpt lat="46.82989" lon="6.42192">
        <ele>1170</ele>
        <time>2022-08-14T11:09:40Z</time>
      </trkpt>
      <trkpt lat="46.82997" lon="6.42204">
        <ele>1170</ele>
        <time>2022-08-14T11:09:42Z</time>
      </trkpt>
      <trkpt lat="46.83002" lon="6.4222">
        <ele>1170</ele>
        <time>2022-08-14T11:09:45Z</time>
      </trkpt>
      <trkpt lat="46.83007" lon="6.42231">
        <ele>1167</ele>
        <time>2022-08-14T11:09:47Z</time>
      </trkpt>
      <trkpt lat="46.83015" lon="6.42237">
        <ele>1168</ele>
        <time>2022-08-14T11:09:50Z</time>
      </trkpt>
      <trkpt lat="46.83024" lon="6.42249">
        <ele>1167</ele>
        <time>2022-08-14T11:09:53Z</time>
      </trkpt>
      <trkpt lat="46.83032" lon="6.42253">
        <ele>1165</ele>
        <time>2022-08-14T11:09:55Z</time>
      </trkpt>
      <trkpt lat="46.83045" lon="6.42265">
        <ele>1164</ele>
        <time>2022-08-14T11:09:58Z</time>
      </trkpt>
      <trkpt lat="46.83056" lon="6.42265">
        <ele>1164</ele>
        <time>2022-08-14T11:10:00Z</time>
      </trkpt>
      <trkpt lat="46.83065" lon="6.42272">
        <ele>1163</ele>
        <time>2022-08-14T11:10:03Z</time>
      </trkpt>
      <trkpt lat="46.8307" lon="6.42287">
        <ele>1160</ele>
        <time>2022-08-14T11:10:08Z</time>
      </trkpt>
      <trkpt lat="46.8308" lon="6.42288">
        <ele>1156</ele>
        <time>2022-08-14T11:10:14Z</time>
      </trkpt>
      <trkpt lat="46.83089" lon="6.42296">
        <ele>1155</ele>
        <time>2022-08-14T11:10:17Z</time>
      </trkpt>
      <trkpt lat="46.83094" lon="6.42309">
        <ele>1150</ele>
        <time>2022-08-14T11:10:20Z</time>
      </trkpt>
      <trkpt lat="46.83103" lon="6.42326">
        <ele>1149</ele>
        <time>2022-08-14T11:10:22Z</time>
      </trkpt>
      <trkpt lat="46.83109" lon="6.42335">
        <ele>1148</ele>
        <time>2022-08-14T11:10:23Z</time>
      </trkpt>
      <trkpt lat="46.8312" lon="6.42345">
        <ele>1151</ele>
        <time>2022-08-14T11:10:26Z</time>
      </trkpt>
      <trkpt lat="46.83134" lon="6.42369">
        <ele>1151</ele>
        <time>2022-08-14T11:10:29Z</time>
      </trkpt>
      <trkpt lat="46.83148" lon="6.42386">
        <ele>1149</ele>
        <time>2022-08-14T11:10:34Z</time>
      </trkpt>
      <trkpt lat="46.83161" lon="6.42413">
        <ele>1147</ele>
        <time>2022-08-14T11:10:38Z</time>
      </trkpt>
      <trkpt lat="46.8318" lon="6.42422">
        <ele>1146</ele>
        <time>2022-08-14T11:10:42Z</time>
      </trkpt>
      <trkpt lat="46.832" lon="6.42434">
        <ele>1139</ele>
        <time>2022-08-14T11:10:47Z</time>
      </trkpt>
      <trkpt lat="46.83214" lon="6.42455">
        <ele>1143</ele>
        <time>2022-08-14T11:10:52Z</time>
      </trkpt>
      <trkpt lat="46.83222" lon="6.42466">
        <ele>1143</ele>
        <time>2022-08-14T11:10:56Z</time>
      </trkpt>
      <trkpt lat="46.83231" lon="6.42477">
        <ele>1142</ele>
        <time>2022-08-14T11:10:59Z</time>
      </trkpt>
      <trkpt lat="46.83233" lon="6.42493">
        <ele>1140</ele>
        <time>2022-08-14T11:11:01Z</time>
      </trkpt>
      <trkpt lat="46.8323" lon="6.42522">
        <ele>1138</ele>
        <time>2022-08-14T11:11:04Z</time>
      </trkpt>
      <trkpt lat="46.8323" lon="6.42539">
        <ele>1137</ele>
        <time>2022-08-14T11:11:06Z</time>
      </trkpt>
      <trkpt lat="46.83231" lon="6.42554">
        <ele>1136</ele>
        <time>2022-08-14T11:11:08Z</time>
      </trkpt>
      <trkpt lat="46.83233" lon="6.42568">
        <ele>1135</ele>
        <time>2022-08-14T11:11:10Z</time>
      </trkpt>
      <trkpt lat="46.83236" lon="6.42583">
        <ele>1134</ele>
        <time>2022-08-14T11:11:12Z</time>
      </trkpt>
      <trkpt lat="46.83239" lon="6.42597">
        <ele>1133</ele>
        <time>2022-08-14T11:11:14Z</time>
      </trkpt>
      <trkpt lat="46.83242" lon="6.42611">
        <ele>1132</ele>
        <time>2022-08-14T11:11:17Z</time>
      </trkpt>
      <trkpt lat="46.83246" lon="6.42625">
        <ele>1129</ele>
        <time>2022-08-14T11:11:19Z</time>
      </trkpt>
      <trkpt lat="46.83249" lon="6.42641">
        <ele>1128</ele>
        <time>2022-08-14T11:11:23Z</time>
      </trkpt>
      <trkpt lat="46.83243" lon="6.42651">
        <ele>1127</ele>
        <time>2022-08-14T11:11:29Z</time>
      </trkpt>
      <trkpt lat="46.83234" lon="6.42662">
        <ele>1123</ele>
        <time>2022-08-14T11:12:46Z</time>
      </trkpt>
      <trkpt lat="46.83225" lon="6.42664">
        <ele>1124</ele>
        <time>2022-08-14T11:12:50Z</time>
      </trkpt>
      <trkpt lat="46.83212" lon="6.4267">
        <ele>1125</ele>
        <time>2022-08-14T11:12:54Z</time>
      </trkpt>
      <trkpt lat="46.83203" lon="6.42674">
        <ele>1125</ele>
        <time>2022-08-14T11:12:56Z</time>
      </trkpt>
      <trkpt lat="46.83191" lon="6.42675">
        <ele>1128</ele>
        <time>2022-08-14T11:12:59Z</time>
      </trkpt>
      <trkpt lat="46.83181" lon="6.42677">
        <ele>1129</ele>
        <time>2022-08-14T11:13:03Z</time>
      </trkpt>
      <trkpt lat="46.83172" lon="6.42679">
        <ele>1130</ele>
        <time>2022-08-14T11:13:06Z</time>
      </trkpt>
      <trkpt lat="46.83158" lon="6.42682">
        <ele>1131</ele>
        <time>2022-08-14T11:13:13Z</time>
      </trkpt>
      <trkpt lat="46.83149" lon="6.42682">
        <ele>1131</ele>
        <time>2022-08-14T11:13:16Z</time>
      </trkpt>
      <trkpt lat="46.83139" lon="6.42683">
        <ele>1131</ele>
        <time>2022-08-14T11:13:22Z</time>
      </trkpt>
      <trkpt lat="46.8313" lon="6.42688">
        <ele>1132</ele>
        <time>2022-08-14T11:13:28Z</time>
      </trkpt>
      <trkpt lat="46.83137" lon="6.42697">
        <ele>1130</ele>
        <time>2022-08-14T11:18:16Z</time>
      </trkpt>
    </trkseg>
  </trk>
</gpx>